# Wetter Temperatur Luftdruck Luftfeuchtigkeit Sichtweite Windgeschwindigkeit Windrichtung Zeit
1 Mist -1 1030 78 6000 1.08 32 22:28 24.01.2020
2 Clouds -2 1030 92 6000 0.5 170 21:58 24.01.2020
3 Mist -1 1029 86 6000 1.08 32 21:40 24.01.2020
4 Mist -1 1029 86 6000 1.08 32 21:18 24.01.2020
5 Clear -1 1030 92 6000 1.5 30 20:43 24.01.2020
6 Mist -2 1030 76 6000 1.13 61 20:22 24.01.2020
7 Clouds -2 1031 92 6000 0.5 360 19:58 24.01.2020
8 Mist -2 1030 86 6000 1.13 61 19:39 24.01.2020
9 Mist -2 1030 86 6000 1.13 61 19:21 24.01.2020
10 Clouds -2 1031 86 4800 1.13 61 18:44 24.01.2020
11 Mist -2 1030 86 8000 1.13 61 18:25 24.01.2020
12 Clear -1 1031 86 4800 0.5 170 17:56 24.01.2020
13 Clear -1 1031 86 4800 0.5 170 17:56 24.01.2020
14 Mist -1 1030 86 8000 1.13 61 17:38 24.01.2020
15 Mist -1 1030 86 8000 0.91 23 17:20 24.01.2020
16 Haze -1 1030 80 8000 0.91 23 16:39 24.01.2020
17 Haze -1 1030 80 8000 0.91 23 16:21 24.01.2020
18 Clouds -1 1031 86 4800 0.5 170 15:55 24.01.2020
19 Haze 0 1030 65 8000 0.91 23 15:37 24.01.2020
20 Haze 0 1030 65 8000 0.91 23 15:18 24.01.2020
21 Haze 0 1030 65 8000 0.91 23 14:41 24.01.2020
22 Haze 0 1030 65 8000 0.91 23 14:22 24.01.2020
23 Haze 1 1031 56 6000 0.5 90 13:44 24.01.2020
24 Haze 1 1030 69 8000 1.13 23 13:24 24.01.2020
25 Haze 2 1030 74 6000 0.99 19 12:45 24.01.2020
26 Haze 2 1030 64 9000 0.99 19 12:23 24.01.2020
27 Haze 3 1030 69 6000 0.5 200 11:58 24.01.2020
28 Haze 3 1030 60 9000 1.5 280 11:39 24.01.2020
29 Haze 3 1030 60 9000 1.5 280 11:18 24.01.2020
30 Haze 4 1029 60 8000 1.14 322 10:42 24.01.2020
31 Haze 4 1029 60 8000 1.14 322 10:21 24.01.2020
32 Haze 6 1029 48 8000 0.5 140 09:55 24.01.2020
33 Haze 7 1029 60 6000 1.5 270 09:37 24.01.2020
34 Haze 7 1029 60 6000 1.5 270 09:18 24.01.2020
35 Haze 8 1029 56 6000 2.1 260 08:39 24.01.2020
36 Haze 8 1029 56 6000 2.1 260 08:39 24.01.2020
37 Haze 8 1029 56 6000 2.1 260 08:19 24.01.2020
38 Clear 9 1028 31 10000 0.5 260 07:47 24.01.2020
39 Haze 9 1029 56 6000 1.5 240 07:22 24.01.2020
40 Haze 9 1029 56 6000 1.5 240 07:22 24.01.2020
41 Clouds 8 1028 36 10000 1 280 06:43 24.01.2020
42 Haze 8 1029 52 6000 0.99 333 06:23 24.01.2020
43 Haze 7 1030 52 6000 1.5 270 05:22 24.01.2020
44 Haze 3 1031 65 8000 2.1 220 03:34 24.01.2020
45 Haze 1 1031 69 9000 1.55 350 02:40 24.01.2020
46 Haze 1 1031 69 9000 1.71 353 02:20 24.01.2020
47 Mist -1 1031 92 6000 1.71 353 01:38 24.01.2020
48 Mist -3 1030 92 3000 1.68 358 00:42 24.01.2020
49 Mist -3 1030 92 3000 1.68 358 00:19 24.01.2020
50 Mist -3 1030 86 6000 1.68 358 23:41 23.01.2020
51 Mist -3 1030 86 6000 1.25 327 23:21 23.01.2020
52 Mist -3 1030 100 3200 0.5 60 22:58 23.01.2020
53 Mist -2 1029 83 6000 1.25 327 22:37 23.01.2020
54 Mist -2 1029 83 6000 1.25 327 22:37 23.01.2020
55 Mist -2 1029 83 6000 1.25 327 22:18 23.01.2020
56 Mist -2 1029 100 4000 0.5 20 21:55 23.01.2020
57 Mist -2 1029 86 6000 1.25 327 21:37 23.01.2020
58 Mist -2 1029 86 6000 1.25 327 21:18 23.01.2020
59 Mist -2 1028 83 6000 1.25 327 20:41 23.01.2020
60 Mist -2 1028 100 4000 0.5 350 20:22 23.01.2020
61 Mist -1 1028 92 4000 0.5 360 19:57 23.01.2020
62 Haze -1 1028 76 6000 1.08 284 19:39 23.01.2020
63 Haze -1 1028 76 6000 1.08 284 19:21 23.01.2020
64 Clear -1 1028 92 4800 0.5 360 18:56 23.01.2020
65 Haze 0 1027 74 8000 1.08 284 18:37 23.01.2020
66 Haze 0 1027 74 8000 1.08 284 18:19 23.01.2020
67 Mist 0 1029 92 2800 0.5 130 18:19 23.01.2020
68 Clear 0 1027 92 4800 0.5 50 17:44 23.01.2020
69 Mist 0 1029 92 3200 0.5 170 17:21 23.01.2020
70 Mist 0 1027 92 4000 0.5 350 16:58 23.01.2020
71 Haze 1 1027 74 8000 1.39 300 16:38 23.01.2020
72 Haze 1 1027 74 8000 1.39 300 16:19 23.01.2020
73 Clear 1 1026 86 4800 0.5 100 15:57 23.01.2020
74 Haze 1 1026 69 8000 1.39 300 15:38 23.01.2020
75 Haze 1 1026 69 8000 1.39 300 15:38 23.01.2020
76 Haze 1 1026 69 8000 1.39 300 15:38 23.01.2020
77 Haze 1 1026 69 8000 1.39 300 15:19 23.01.2020
78 Haze 2 1026 86 4800 0.5 170 14:57 23.01.2020
79 Haze 2 1026 69 9000 1.39 300 14:39 23.01.2020
80 Haze 2 1026 69 9000 1.52 290 14:21 23.01.2020
81 Haze 2 1026 64 4800 0.5 170 13:46 23.01.2020
82 Clear 3 1026 74 10000 1.52 290 13:21 23.01.2020
83 Haze 4 1026 74 6000 1.6 286 12:56 23.01.2020
84 Haze 4 1026 74 6000 1.41 298 12:56 23.01.2020
85 Clear 4 1025 60 10000 1.6 286 12:38 23.01.2020
86 Clear 4 1025 60 10000 1.6 286 12:20 23.01.2020
87 Haze 4 1024 64 8000 1 160 11:43 23.01.2020
88 Clear 5 1024 56 10000 1.5 290 11:25 23.01.2020
89 Haze 5 1024 60 8000 0.5 170 10:58 23.01.2020
90 Clear 6 1024 52 10000 2.94 303 10:40 23.01.2020
91 Clear 6 1024 52 10000 2.94 303 10:19 23.01.2020
92 Haze 8 1023 45 8000 2.94 303 09:41 23.01.2020
93 Haze 8 1023 45 8000 3.07 298 09:22 23.01.2020
94 Clear 9 1022 34 10000 2.1 330 08:56 23.01.2020
95 Haze 10 1023 45 8000 3.07 298 08:38 23.01.2020
96 Haze 10 1023 45 8000 2.37 321 08:18 23.01.2020
97 Haze 10 1022 45 8000 2.1 270 07:37 23.01.2020
98 Haze 10 1022 45 8000 2.1 270 07:18 23.01.2020
99 Haze 10 1021 34 9000 1.5 210 06:44 23.01.2020
100 Haze 10 1022 39 8000 2.37 321 06:18 23.01.2020
101 Haze 7 1023 45 8000 1.5 190 04:25 23.01.2020
102 Clear 6 1024 48 10000 1.81 339 03:23 23.01.2020
103 Clear 0 1024 74 10000 1 20 01:53 23.01.2020
104 Clear -2 1024 74 10000 1.5 20 00:44 23.01.2020
105 Haze -2 1023 74 8000 0.99 327 00:22 23.01.2020
106 Clear -2 1023 74 10000 1.5 10 23:46 22.01.2020
107 Clear -2 1022 74 10000 0.99 327 23:28 22.01.2020
108 Clouds -1 1022 79 10000 2.1 360 22:43 22.01.2020
109 Clouds -1 1022 74 10000 1.31 6 22:25 22.01.2020
110 Clouds -1 1022 68 10000 2.1 20 21:58 22.01.2020
111 Clouds 0 1022 43 10000 1.31 6 21:36 22.01.2020
112 Clouds 0 1022 43 10000 1.31 6 21:36 22.01.2020
113 Clouds 0 1023 74 10000 1.5 20 21:18 22.01.2020
114 Clouds 0 1023 74 10000 1.5 20 20:42 22.01.2020
115 Clouds 0 1023 43 10000 1.31 6 20:42 22.01.2020
116 Clouds 0 1023 44 10000 1.28 11 20:23 22.01.2020
117 Clouds 0 1023 41 10000 2.6 360 19:59 22.01.2020
118 Clouds 0 1023 41 10000 2.6 360 19:41 22.01.2020
119 Clouds 0 1022 69 10000 1.31 3 19:20 22.01.2020
120 Clouds 0 1023 41 10000 1 30 18:58 22.01.2020
121 Clouds 0 1022 69 10000 1.31 3 18:39 22.01.2020
122 Clouds 0 1022 41 10000 2.6 360 18:20 22.01.2020
123 Clouds 0 1022 41 10000 2.6 360 17:56 22.01.2020
124 Clouds 0 1022 64 10000 1.31 3 17:38 22.01.2020
125 Clouds 0 1022 64 10000 1.13 51 17:19 22.01.2020
126 Clouds 0 1023 64 10000 1.13 51 16:44 22.01.2020
127 Clouds 0 1023 64 10000 1.13 51 16:24 22.01.2020
128 Clouds 0 1023 74 10000 0.5 100 15:59 22.01.2020
129 Clouds 0 1023 74 10000 0.5 100 15:41 22.01.2020
130 Clouds 0 1023 64 10000 1.13 51 15:22 22.01.2020
131 Clouds 0 1023 74 10000 0.5 60 14:58 22.01.2020
132 Clouds 0 1023 69 10000 1.13 51 14:37 22.01.2020
133 Clouds 0 1023 69 10000 1.26 70 14:18 22.01.2020
134 Clouds 0 1024 74 10000 1 170 13:55 22.01.2020
135 Clear 1 1024 69 10000 1.26 70 13:36 22.01.2020
136 Clear 1 1024 69 10000 1.26 70 13:36 22.01.2020
137 Clear 1 1024 69 10000 1.4 63 13:18 22.01.2020
138 Haze 1 1024 74 9000 0.5 10 12:55 22.01.2020
139 Clear 1 1024 64 10000 1.4 63 12:37 22.01.2020
140 Clear 1 1024 64 10000 1.4 63 12:18 22.01.2020
141 Clear 2 1025 58 10000 0.5 240 11:56 22.01.2020
142 Clear 2 1024 55 10000 1.4 63 11:37 22.01.2020
143 Clear 2 1024 55 10000 1.29 61 11:18 22.01.2020
144 Clear 3 1024 64 10000 1 190 10:43 22.01.2020
145 Clear 3 1024 44 10000 1.29 61 10:20 22.01.2020
146 Clear 5 1024 38 10000 1.29 61 09:43 22.01.2020
147 Clear 5 1024 38 10000 1.29 61 09:25 22.01.2020
148 Clear 6 1024 45 10000 2.1 180 08:57 22.01.2020
149 Clear 6 1023 36 10000 1.29 61 08:39 22.01.2020
150 Clear 6 1023 36 10000 1.03 108 08:21 22.01.2020
151 Clouds 6 1023 44 10000 1.5 210 07:48 22.01.2020
152 Clear 6 1023 30 10000 1.5 70 07:30 22.01.2020
153 Clouds 5 1024 35 10000 1 190 06:50 22.01.2020
154 Clouds 5 1024 28 10000 1.03 108 06:26 22.01.2020
155 Rain 4 1025 32 10000 1.03 108 05:33 22.01.2020
156 Clouds 3 1026 43 10000 1 10 04:18 22.01.2020
157 Clouds 2 1026 35 10000 0.86 73 03:21 22.01.2020
158 Clouds 0 1027 35 10000 1 30 01:43 22.01.2020
159 Clouds -1 1026 58 10000 0.5 30 00:44 22.01.2020
160 Clouds -1 1026 58 10000 0.5 20 00:26 22.01.2020
161 Clouds -1 1026 58 10000 1 10 23:38 21.01.2020
162 Clouds -1 1026 58 10000 1 10 23:20 21.01.2020
163 Clouds -1 1026 58 10000 1.5 20 22:55 21.01.2020
164 Clouds -1 1026 58 10000 1.5 20 22:55 21.01.2020
165 Clouds -1 1026 58 10000 1.5 20 22:55 21.01.2020
166 Clouds -1 1026 43 10000 1.08 61 22:36 21.01.2020
167 Clouds -1 1026 43 10000 1.08 61 22:18 21.01.2020
168 Clouds -1 1027 54 10000 1 360 21:55 21.01.2020
169 Clouds -1 1026 47 10000 1.08 61 21:37 21.01.2020
170 Clouds -1 1026 47 10000 1.08 61 21:18 21.01.2020
171 Clouds -1 1027 68 10000 0.5 20 20:39 21.01.2020
172 Clouds -1 1027 68 10000 0.5 20 20:20 21.01.2020
173 Clouds -1 1028 63 10000 1 50 19:59 21.01.2020
174 Clouds -1 1028 29 10000 0.64 47 19:40 21.01.2020
175 Clouds -1 1028 29 10000 0.64 47 19:40 21.01.2020
176 Clouds -1 1028 29 10000 0.64 47 19:21 21.01.2020
177 Snow -1 1028 63 10000 0.64 47 18:57 21.01.2020
178 Snow -1 1028 63 10000 0.64 47 18:57 21.01.2020
179 Clouds -1 1027 29 10000 0.64 47 18:39 21.01.2020
180 Clouds -1 1027 29 10000 0.64 47 18:21 21.01.2020
181 Clouds -2 1028 63 10000 0.5 20 17:59 21.01.2020
182 Clouds -2 1028 63 10000 0.5 20 17:40 21.01.2020
183 Clouds -2 1028 58 10000 0.85 83 17:18 21.01.2020
184 Clouds -2 1028 58 10000 0.85 83 17:18 21.01.2020
185 Clouds -2 1028 58 10000 0.85 83 16:38 21.01.2020
186 Clouds -2 1028 58 10000 0.85 83 16:20 21.01.2020
187 Clouds -2 1029 68 10000 0.5 120 15:59 21.01.2020
188 Clouds -2 1028 54 10000 0.85 83 15:39 21.01.2020
189 Clouds -2 1028 54 10000 0.85 83 15:19 21.01.2020
190 Clouds -2 1028 54 10000 0.85 83 15:19 21.01.2020
191 Clouds -2 1029 54 10000 0.85 83 14:40 21.01.2020
192 Clouds -2 1029 54 10000 0.73 347 14:22 21.01.2020
193 Clouds -1 1029 58 10000 0.5 360 13:55 21.01.2020
194 Clouds -1 1029 43 10000 0.73 347 13:37 21.01.2020
195 Clouds -1 1029 43 10000 0.75 331 13:18 21.01.2020
196 Clouds 0 1029 40 10000 0.75 331 12:42 21.01.2020
197 Clouds 0 1029 40 10000 0.75 331 12:24 21.01.2020
198 Clouds -1 1029 54 10000 1 180 11:56 21.01.2020
199 Clouds 0 1028 22 10000 0.75 331 11:37 21.01.2020
200 Clouds 0 1028 20 10000 0.64 17 11:18 21.01.2020
201 Clear 1 1028 46 10000 1 110 10:42 21.01.2020
202 Clear 1 1028 27 10000 0.64 17 10:22 21.01.2020
203 Clear 1 1028 27 10000 0.64 17 10:22 21.01.2020
204 Clear 3 1028 37 10000 0.5 200 09:55 21.01.2020
205 Clouds 4 1028 25 10000 0.64 17 09:37 21.01.2020
206 Clouds 4 1028 25 10000 0.64 17 09:18 21.01.2020
207 Clear 5 1028 27 10000 0.64 17 08:41 21.01.2020
208 Clear 5 1028 27 10000 0.14 90 08:21 21.01.2020
209 Clear 5 1028 20 10000 0.5 180 07:43 21.01.2020
210 Clear 5 1028 20 10000 0.5 180 07:43 21.01.2020
211 Clear 4 1028 27 10000 0.14 90 07:23 21.01.2020
212 Clear 4 1028 25 10000 1 240 06:57 21.01.2020
213 Clear 3 1029 32 10000 0.14 90 06:38 21.01.2020
214 Clear 3 1029 32 10000 2.6 210 05:53 21.01.2020
215 Clouds 1 1031 34 10000 0.54 142 04:41 21.01.2020
216 Clouds 1 1031 34 10000 0.54 142 04:19 21.01.2020
217 Clear -2 1032 53 10000 0.5 30 02:26 21.01.2020
218 Clear -4 1031 58 10000 0.37 228 01:31 21.01.2020
219 Clear -7 1031 85 10000 0.5 120 00:41 21.01.2020
220 Clear -7 1031 73 10000 0.49 191 00:21 21.01.2020
221 Clouds -7 1031 85 10000 0.5 190 23:41 20.01.2020
222 Clear -7 1030 67 10000 1.36 318 23:19 20.01.2020
223 Clear -7 1030 78 10000 1 160 22:59 20.01.2020
224 Clear -7 1029 67 10000 1.36 318 22:39 20.01.2020
225 Clear -7 1029 67 10000 1.36 318 22:21 20.01.2020
226 Clouds -6 1029 79 10000 0.5 70 21:58 20.01.2020
227 Clear -6 1029 67 10000 1.36 318 21:38 20.01.2020
228 Clear -6 1029 67 10000 1.36 318 21:19 20.01.2020
229 Clouds -6 1029 73 10000 0.5 160 20:57 20.01.2020
230 Clear -6 1029 67 10000 1.36 318 20:38 20.01.2020
231 Clear -6 1029 67 10000 2.6 312 20:19 20.01.2020
232 Clouds -5 1029 67 10000 0.5 160 19:56 20.01.2020
233 Clear -5 1029 62 10000 2.6 312 19:38 20.01.2020
234 Clear -5 1029 62 10000 2.6 312 19:18 20.01.2020
235 Clear -4 1029 57 10000 1 130 18:44 20.01.2020
236 Clear -4 1029 49 10000 2.6 312 18:23 20.01.2020
237 Clear -3 1028 49 10000 1 190 17:58 20.01.2020
238 Clear -3 1028 46 10000 2.6 312 17:36 20.01.2020
239 Clear -3 1028 46 10000 2.6 312 17:36 20.01.2020
240 Clear -3 1028 46 10000 3.45 303 17:18 20.01.2020
241 Clear -3 1028 42 10000 1.5 290 16:43 20.01.2020
242 Clear -2 1028 46 10000 1.5 320 16:25 20.01.2020
243 Clear -2 1027 42 10000 2.1 330 15:57 20.01.2020
244 Clear -2 1027 46 10000 3.45 303 15:39 20.01.2020
245 Clear -2 1027 46 10000 3.45 303 15:21 20.01.2020
246 Clear -2 1026 42 10000 3.45 303 14:41 20.01.2020
247 Clear -2 1026 42 10000 3.45 303 14:23 20.01.2020
248 Clear -1 1025 46 10000 1.5 330 13:59 20.01.2020
249 Clear 0 1026 46 10000 2.6 340 13:40 20.01.2020
250 Clear 0 1026 46 10000 2.6 340 13:22 20.01.2020
251 Clear 0 1024 42 10000 3.1 300 12:47 20.01.2020
252 Clear 0 1024 42 10000 2.6 320 12:28 20.01.2020
253 Clear 0 1024 42 10000 2.6 320 12:28 20.01.2020
254 Clear 1 1023 29 10000 2.1 10 11:59 20.01.2020
255 Clear 2 1023 47 10000 3.6 320 11:39 20.01.2020
256 Clear 2 1023 47 10000 3.6 320 11:21 20.01.2020
257 Clouds 3 1022 41 10000 2.6 220 10:48 20.01.2020
258 Clouds 3 1022 41 10000 2.6 220 10:48 20.01.2020
259 Clear 3 1022 48 10000 6.07 307 10:22 20.01.2020
260 Clear 3 1022 48 10000 6.07 307 10:22 20.01.2020
261 Clouds 3 1021 44 10000 1.5 210 09:57 20.01.2020
262 Clouds 4 1021 41 10000 6.07 307 09:38 20.01.2020
263 Clouds 4 1021 41 10000 6.07 307 09:19 20.01.2020
264 Clouds 5 1021 44 10000 5.1 270 08:43 20.01.2020
265 Clouds 5 1021 56 10000 2.1 240 08:25 20.01.2020
266 Clouds 5 1020 41 10000 3.1 230 07:43 20.01.2020
267 Clouds 5 1021 45 10000 6.06 277 07:24 20.01.2020
268 Clear 6 1020 35 10000 2.6 250 06:46 20.01.2020
269 Clouds 6 1020 36 10000 2.1 220 06:26 20.01.2020
270 Clear 5 1021 30 10000 3.6 240 05:42 20.01.2020
271 Clear 5 1021 26 10000 2.1 210 05:21 20.01.2020
272 Clear 5 1022 32 10000 4.74 278 04:41 20.01.2020
273 Clear 2 1022 47 10000 1.5 220 02:55 20.01.2020
274 Haze -1 1022 86 2000 1 20 01:52 20.01.2020
275 Clear -1 1022 64 10000 1.95 294 01:26 20.01.2020
276 Mist -2 1021 92 4000 0.5 70 00:44 20.01.2020
277 Clouds -2 1021 64 10000 1.95 294 00:22 20.01.2020
278 Clear -2 1021 74 10000 1.95 294 23:39 19.01.2020
279 Clear -2 1021 74 10000 1.4 280 23:19 19.01.2020
280 Mist -2 1020 92 3200 0.5 170 22:56 19.01.2020
281 Mist -1 1020 92 5000 1.5 350 22:38 19.01.2020
282 Mist -1 1020 92 5000 1.5 350 22:38 19.01.2020
283 Mist -1 1020 92 5000 1.5 350 22:19 19.01.2020
284 Mist -1 1020 92 3200 0.5 210 21:56 19.01.2020
285 Clouds -1 1020 62 10000 1.4 280 21:38 19.01.2020
286 Clouds -1 1020 62 10000 1.4 280 21:19 19.01.2020
287 Haze -2 1021 86 3200 0.5 80 20:57 19.01.2020
288 Clouds -2 1020 62 10000 1.4 280 20:38 19.01.2020
289 Clouds -2 1020 64 10000 1.27 288 20:20 19.01.2020
290 Mist -2 1022 100 1600 0.5 320 19:56 19.01.2020
291 Clouds -2 1020 64 10000 1.27 288 19:37 19.01.2020
292 Clouds -2 1020 64 10000 1.27 288 19:19 19.01.2020
293 Mist -2 1022 92 1600 0.5 110 18:55 19.01.2020
294 Clouds -2 1020 74 10000 1.27 288 18:37 19.01.2020
295 Clouds -2 1020 74 10000 1.27 288 18:19 19.01.2020
296 Mist -2 1022 92 1600 1.27 288 17:57 19.01.2020
297 Clouds -1 1020 64 10000 1.27 288 17:39 19.01.2020
298 Clouds -1 1020 64 10000 2.71 285 17:20 19.01.2020
299 Mist -1 1022 100 2000 1.5 150 16:57 19.01.2020
300 Haze -1 1020 64 9000 2.71 285 16:38 19.01.2020
301 Haze -1 1020 64 9000 2.71 285 16:19 19.01.2020
302 Mist 0 1021 92 2000 1 130 15:57 19.01.2020
303 Clear 0 1020 69 10000 2.71 285 15:37 19.01.2020
304 Clear 0 1020 69 10000 2.71 285 15:19 19.01.2020
305 Mist 0 1021 86 2400 1.5 160 14:57 19.01.2020
306 Clear 1 1019 69 10000 2.71 285 14:37 19.01.2020
307 Clear 1 1019 69 10000 2.68 293 14:18 19.01.2020
308 Mist 1 1021 86 2800 0.5 100 13:54 19.01.2020
309 Clear 1 1019 69 10000 2.68 293 13:36 19.01.2020
310 Clear 1 1019 69 10000 4 288 13:18 19.01.2020
311 Clear 2 1019 64 10000 4 288 12:42 19.01.2020
312 Clear 2 1019 64 10000 4 288 12:23 19.01.2020
313 Haze 2 1020 74 4000 1 330 11:57 19.01.2020
314 Clear 2 1018 64 10000 4 288 11:39 19.01.2020
315 Clear 2 1018 64 10000 4.23 284 11:19 19.01.2020
316 Haze 3 1020 69 4800 1.5 240 10:54 19.01.2020
317 Haze 3 1019 69 4800 1 260 10:36 19.01.2020
318 Haze 3 1019 69 4800 1 260 10:18 19.01.2020
319 Clouds 5 1017 52 10000 4.23 284 09:41 19.01.2020
320 Clouds 5 1017 52 10000 4.23 284 09:23 19.01.2020
321 Haze 5 1018 56 6000 2.1 240 08:56 19.01.2020
322 Clear 5 1017 52 10000 4.23 284 08:38 19.01.2020
323 Clear 5 1017 52 10000 6.61 276 08:19 19.01.2020
324 Clear 5 1016 56 10000 6.61 276 07:30 19.01.2020
325 Rain 5 1018 60 6000 2.1 280 06:56 19.01.2020
326 Rain 5 1017 50 8000 6.61 276 06:23 19.01.2020
327 Haze 4 1017 52 4800 6.16 264 04:19 19.01.2020
328 Clouds 0 1018 52 10000 6.16 264 02:35 19.01.2020
329 Snow -1 1018 86 4800 1.66 185 01:45 19.01.2020
330 Snow -1 1018 74 8000 1.52 183 01:21 19.01.2020
331 Snow -2 1019 88 9000 2.1 220 00:45 19.01.2020
332 Clouds -2 1018 88 10000 1.52 183 00:24 19.01.2020
333 Clouds -2 1018 88 10000 1.52 183 23:54 18.01.2020
334 Clouds -2 1018 86 10000 1.52 183 23:36 18.01.2020
335 Clouds -2 1018 86 10000 1.34 166 23:18 18.01.2020
336 Haze -3 1018 73 6000 0.5 100 22:41 18.01.2020
337 Clouds -2 1018 80 10000 1.34 166 22:23 18.01.2020
338 Clouds -2 1020 85 8000 0.5 280 21:58 18.01.2020
339 Clouds -2 1019 67 10000 1.34 166 21:39 18.01.2020
340 Clouds -2 1019 67 10000 1.34 166 21:20 18.01.2020
341 Clouds -2 1020 92 6000 1 140 20:56 18.01.2020
342 Clouds -2 1019 69 10000 1.34 166 20:38 18.01.2020
343 Clouds -2 1019 69 10000 1.25 220 20:18 18.01.2020
344 Clouds -2 1019 69 10000 1.25 220 20:18 18.01.2020
345 Haze -3 1020 73 6000 0.5 240 19:42 18.01.2020
346 Clouds -3 1020 80 10000 1.25 220 19:24 18.01.2020
347 Clouds -3 1020 74 10000 1.25 220 18:43 18.01.2020
348 Clouds -3 1020 74 10000 1.25 220 18:24 18.01.2020
349 Haze -3 1021 79 9000 1 90 17:58 18.01.2020
350 Clouds -3 1020 74 10000 1.25 220 17:40 18.01.2020
351 Clouds -3 1020 74 10000 0.16 197 17:20 18.01.2020
352 Haze -3 1021 79 9000 0.5 110 16:56 18.01.2020
353 Clouds -3 1020 74 10000 0.16 197 16:37 18.01.2020
354 Clouds -3 1020 74 10000 0.16 197 16:19 18.01.2020
355 Haze -3 1021 73 6000 0.5 320 15:42 18.01.2020
356 Clouds -3 1021 68 10000 0.16 197 15:24 18.01.2020
357 Clouds -3 1022 73 10000 0.16 197 14:57 18.01.2020
358 Clear -3 1021 58 10000 0.16 197 14:39 18.01.2020
359 Clear -3 1021 58 10000 0.48 207 14:18 18.01.2020
360 Clouds -2 1023 68 10000 1 310 13:44 18.01.2020
361 Clear -2 1021 54 10000 0.57 243 13:26 18.01.2020
362 Clear -1 1022 63 10000 1.5 150 12:58 18.01.2020
363 Clear 0 1021 47 10000 0.57 243 12:39 18.01.2020
364 Clear 0 1021 47 10000 0.57 243 12:20 18.01.2020
365 Clear 1 1020 54 10000 0.5 160 11:44 18.01.2020
366 Clear 1 1021 40 10000 2.41 277 11:21 18.01.2020
367 Clear 2 1022 33 10000 1 180 10:57 18.01.2020
368 Clear 2 1021 34 10000 2.41 277 10:38 18.01.2020
369 Clear 2 1021 34 10000 2.41 277 10:19 18.01.2020
370 Clear 4 1022 43 10000 2.1 240 09:43 18.01.2020
371 Clear 4 1020 23 10000 2.41 277 09:24 18.01.2020
372 Clear 5 1022 38 10000 3.1 220 08:55 18.01.2020
373 Clear 5 1022 38 10000 3.1 220 08:55 18.01.2020
374 Clear 5 1020 23 10000 1.5 250 08:37 18.01.2020
375 Clear 5 1020 23 10000 1.5 250 08:18 18.01.2020
376 Clear 5 1020 23 10000 1.5 250 08:18 18.01.2020
377 Clear 6 1020 25 10000 1.93 295 07:44 18.01.2020
378 Clear 6 1020 25 10000 1.93 295 07:25 18.01.2020
379 Clear 5 1020 35 10000 1.93 295 06:46 18.01.2020
380 Clear 5 1022 38 10000 1 330 05:55 18.01.2020
381 Haze 3 1022 47 9000 1.44 294 04:29 18.01.2020
382 Haze 0 1024 68 6000 0.5 240 02:50 18.01.2020
383 Haze -4 1024 85 4800 0.5 280 01:51 18.01.2020
384 Clear -6 1022 92 6000 1 250 00:40 18.01.2020
385 Mist -6 1022 85 8000 1.02 284 00:21 18.01.2020
386 Mist -6 1023 92 4000 0.5 100 23:59 17.01.2020
387 Mist -6 1021 85 9000 1.02 284 23:40 17.01.2020
388 Mist -6 1021 85 9000 1.02 284 23:40 17.01.2020
389 Mist -6 1021 85 9000 0.63 294 23:18 17.01.2020
390 Clouds -6 1022 92 6000 0.63 294 22:42 17.01.2020
391 Clouds -6 1021 79 10000 0.63 294 22:20 17.01.2020
392 Clear -5 1021 85 6000 0.63 294 21:57 17.01.2020
393 Clear -5 1021 79 10000 0.63 294 21:38 17.01.2020
394 Clear -5 1021 79 10000 0.63 294 21:38 17.01.2020
395 Clear -5 1021 79 10000 0.63 294 21:20 17.01.2020
396 Clear -5 1021 92 6000 0.63 294 20:55 17.01.2020
397 Clouds -4 1021 68 10000 0.63 294 20:36 17.01.2020
398 Clouds -4 1021 68 10000 1.02 296 20:18 17.01.2020
399 Clear -4 1022 85 6000 0.5 230 19:54 17.01.2020
400 Clouds -4 1022 74 10000 1.02 296 19:36 17.01.2020
401 Clouds -4 1022 74 10000 1.02 296 19:18 17.01.2020
402 Clouds -3 1022 68 10000 1.02 296 18:41 17.01.2020
403 Clouds -3 1022 68 10000 1.02 296 18:23 17.01.2020
404 Haze -3 1022 79 8000 1.02 296 17:54 17.01.2020
405 Clouds -4 1022 73 10000 1.02 296 17:36 17.01.2020
406 Clouds -4 1022 73 10000 0.79 303 17:18 17.01.2020
407 Haze -3 1022 79 8000 0.5 20 16:41 17.01.2020
408 Clouds -3 1022 73 10000 0.79 303 16:19 17.01.2020
409 Haze -2 1022 73 8000 0.5 190 15:48 17.01.2020
410 Haze -2 1022 73 8000 0.5 190 15:48 17.01.2020
411 Clouds -2 1022 63 10000 0.79 303 15:26 17.01.2020
412 Haze -2 1022 73 9000 0.5 170 14:54 17.01.2020
413 Clouds -2 1022 41 10000 0.79 303 14:36 17.01.2020
414 Clouds -2 1022 38 10000 0.98 305 14:18 17.01.2020
415 Clouds -2 1022 38 10000 0.98 305 13:38 17.01.2020
416 Clouds -2 1022 37 10000 1.05 299 13:19 17.01.2020
417 Clear -1 1021 63 10000 1.05 299 12:44 17.01.2020
418 Clear -1 1022 63 10000 0.5 10 12:22 17.01.2020
419 Clouds 0 1022 40 10000 1.05 299 11:40 17.01.2020
420 Clouds 0 1022 40 10000 1.37 308 11:19 17.01.2020
421 Clouds 1 1021 30 10000 1 190 10:44 17.01.2020
422 Clouds 1 1021 40 10000 1.37 308 10:23 17.01.2020
423 Clouds 2 1021 43 10000 0.5 190 09:58 17.01.2020
424 Clouds 3 1021 34 10000 1.37 308 09:40 17.01.2020
425 Clouds 3 1021 34 10000 1.37 308 09:20 17.01.2020
426 Clear 4 1021 32 10000 2.1 270 08:45 17.01.2020
427 Clouds 4 1021 35 10000 1.22 311 08:25 17.01.2020
428 Clear 5 1021 33 10000 0.5 310 07:55 17.01.2020
429 Clouds 5 1021 38 10000 1.2 308 07:32 17.01.2020
430 Clouds 5 1021 38 10000 1.2 308 07:32 17.01.2020
431 Clear 5 1021 32 10000 2.1 210 06:59 17.01.2020
432 Clear 4 1022 29 10000 1.2 308 06:41 17.01.2020
433 Clear 3 1022 35 10000 2.1 210 05:56 17.01.2020
434 Clouds 1 1024 27 0 0.28 43 03:39 17.01.2020
435 Clouds 1 1024 27 0 0.28 43 02:53 17.01.2020
436 Clouds -1 1025 35 0 0.67 7 01:47 17.01.2020
437 Clouds -1 1025 35 0 0.5 14 01:29 17.01.2020
438 Clouds -1 1025 35 0 0.5 14 00:50 17.01.2020
439 Clear -7 1024 73 10000 0.5 14 00:26 17.01.2020
440 Clear -7 1024 73 10000 0.5 14 23:44 16.01.2020
441 Clear -7 1024 73 10000 0.5 14 23:26 16.01.2020
442 Clear -6 1024 85 10000 1.5 360 22:57 16.01.2020
443 Clear -6 1024 73 10000 0.74 324 22:39 16.01.2020
444 Clear -6 1024 73 10000 0.74 324 22:20 16.01.2020
445 Clouds -6 1024 85 10000 0.5 90 21:55 16.01.2020
446 Clouds -6 1024 67 10000 0.74 324 21:36 16.01.2020
447 Clouds -6 1024 67 10000 0.74 324 21:18 16.01.2020
448 Clouds -6 1025 85 10000 0.5 30 20:41 16.01.2020
449 Haze -6 1026 79 4000 0.5 220 20:21 16.01.2020
450 Clouds -5 1025 85 10000 0.5 190 19:58 16.01.2020
451 Clouds -5 1025 73 10000 0.74 325 19:40 16.01.2020
452 Clouds -5 1025 73 10000 0.74 325 19:22 16.01.2020
453 Clouds -5 1025 73 10000 0.5 10 18:57 16.01.2020
454 Clouds -5 1025 68 10000 0.74 325 18:38 16.01.2020
455 Clouds -5 1025 68 10000 0.74 325 18:19 16.01.2020
456 Clouds -5 1025 73 10000 0.5 100 17:58 16.01.2020
457 Clouds -4 1025 63 10000 0.74 325 17:39 16.01.2020
458 Clouds -4 1025 63 10000 0.77 332 17:20 16.01.2020
459 Clouds -4 1025 73 10000 0.5 130 16:41 16.01.2020
460 Clouds -4 1025 63 10000 0.77 332 16:23 16.01.2020
461 Clouds -4 1025 68 10000 0.5 50 15:58 16.01.2020
462 Clouds -4 1025 58 10000 0.77 332 15:39 16.01.2020
463 Clouds -4 1025 58 10000 0.77 332 15:39 16.01.2020
464 Clouds -4 1025 58 10000 0.77 332 15:20 16.01.2020
465 Clouds -3 1025 68 10000 0.5 180 14:44 16.01.2020
466 Clear -3 1025 54 10000 1.03 296 14:24 16.01.2020
467 Clouds -3 1026 62 10000 0.5 180 13:55 16.01.2020
468 Clear -2 1025 50 10000 1.03 296 13:37 16.01.2020
469 Clear -2 1025 50 10000 1.2 292 13:19 16.01.2020
470 Clear -1 1025 58 10000 0.5 360 12:41 16.01.2020
471 Clear -1 1026 43 10000 1.2 292 12:21 16.01.2020
472 Clear -1 1025 54 10000 0.5 50 11:43 16.01.2020
473 Clouds -1 1026 40 10000 1.2 292 11:24 16.01.2020
474 Clear 0 1025 46 10000 1 190 10:57 16.01.2020
475 Clear 0 1025 37 10000 1.5 300 10:37 16.01.2020
476 Clear 0 1025 37 10000 1.5 300 10:19 16.01.2020
477 Clear 1 1025 34 10000 1 330 09:43 16.01.2020
478 Clear 2 1025 34 10000 2.1 300 09:24 16.01.2020
479 Clear 3 1025 23 10000 1 240 08:58 16.01.2020
480 Clear 3 1025 34 10000 2.1 210 08:40 16.01.2020
481 Clear 3 1025 34 10000 2.1 210 08:20 16.01.2020
482 Clear 3 1025 29 10000 2.1 210 07:43 16.01.2020
483 Clear 3 1025 29 10000 2.1 210 07:24 16.01.2020
484 Clear 3 1025 27 10000 2.1 170 06:54 16.01.2020
485 Clear 3 1025 34 10000 2.1 303 06:34 16.01.2020
486 Clear 2 1025 40 10000 2.1 210 05:49 16.01.2020
487 Clear 1 1026 40 10000 1 190 04:50 16.01.2020
488 Clear -1 1027 42 10000 1 350 03:57 16.01.2020
489 Clear -3 1029 62 10000 1 40 02:47 16.01.2020
490 Clouds -5 1028 68 10000 0.8 294 01:34 16.01.2020
491 Clouds -7 1028 62 10000 0.86 287 00:43 16.01.2020
492 Clouds -7 1028 62 10000 0.86 287 00:23 16.01.2020
493 Clouds -7 1029 92 10000 0.5 160 23:44 15.01.2020
494 Clouds -7 1028 58 10000 1.27 294 23:22 15.01.2020
495 Clouds -7 1029 92 10000 1.27 294 22:56 15.01.2020
496 Clouds -7 1028 62 10000 1.27 294 22:38 15.01.2020
497 Clouds -7 1028 62 10000 1.27 294 22:18 15.01.2020
498 Clouds -7 1028 92 10000 0.5 170 21:56 15.01.2020
499 Clouds -7 1028 92 10000 0.5 170 21:56 15.01.2020
500 Clouds -7 1028 58 10000 1.5 270 21:37 15.01.2020
501 Clouds -7 1028 58 10000 1.5 270 21:18 15.01.2020
502 Clouds -7 1028 92 10000 1 20 20:55 15.01.2020
503 Clouds -7 1028 67 10000 1.27 294 20:37 15.01.2020
504 Clouds -7 1028 67 10000 1.45 303 20:18 15.01.2020
505 Clouds -7 1028 85 10000 0.5 170 19:54 15.01.2020
506 Clouds -7 1028 62 10000 1.45 303 19:36 15.01.2020
507 Clouds -7 1028 62 10000 1.45 303 19:36 15.01.2020
508 Clouds -7 1028 62 10000 1.45 303 19:18 15.01.2020
509 Clear -7 1028 85 10000 1.45 303 18:55 15.01.2020
510 Clear -7 1028 85 10000 1.45 303 18:55 15.01.2020
511 Clear -7 1028 85 10000 1.45 303 18:55 15.01.2020
512 Clouds -7 1028 67 10000 1.45 303 18:36 15.01.2020
513 Clouds -7 1028 67 10000 1.45 303 18:18 15.01.2020
514 Clouds -7 1028 67 10000 1.45 303 18:18 15.01.2020
515 Clear -6 1028 62 10000 1.45 303 17:40 15.01.2020
516 Clear -6 1028 62 10000 1.01 301 17:22 15.01.2020
517 Clear -6 1028 62 10000 1.01 301 17:22 15.01.2020
518 Clear -5 1027 79 10000 0.5 160 16:57 15.01.2020
519 Clear -5 1028 53 10000 1.01 301 16:38 15.01.2020
520 Clear -5 1028 53 10000 1.01 301 16:20 15.01.2020
521 Clear -5 1028 53 10000 1.01 301 16:20 15.01.2020
522 Clear -5 1028 73 10000 0.5 50 15:43 15.01.2020
523 Clear -4 1028 54 10000 1.01 301 15:21 15.01.2020
524 Clear -5 1028 67 10000 0.5 100 14:56 15.01.2020
525 Clear -4 1028 54 10000 1.5 320 14:37 15.01.2020
526 Clear -4 1028 54 10000 1.5 320 14:18 15.01.2020
527 Clear -3 1028 67 10000 0.5 140 13:44 15.01.2020
528 Clear -3 1028 54 10000 2.05 304 13:23 15.01.2020
529 Clear -2 1028 62 10000 0.5 130 12:55 15.01.2020
530 Clear -2 1029 46 10000 2.05 304 12:37 15.01.2020
531 Clear -2 1029 46 10000 2.05 304 12:37 15.01.2020
532 Clear -2 1029 46 10000 2.05 304 12:18 15.01.2020
533 Clear -2 1029 46 10000 2.05 304 12:18 15.01.2020
534 Clear -2 1028 46 10000 2.05 304 11:39 15.01.2020
535 Clear -2 1028 42 10000 2.42 294 11:20 15.01.2020
536 Clear -1 1028 50 10000 0.5 180 10:58 15.01.2020
537 Clear -1 1028 42 10000 1.5 310 10:40 15.01.2020
538 Clear -1 1028 42 10000 1.5 310 10:21 15.01.2020
539 Clear 1 1027 34 10000 2.42 294 09:41 15.01.2020
540 Clear 1 1027 34 10000 2.42 294 09:21 15.01.2020
541 Clear 2 1027 29 10000 1.5 210 08:45 15.01.2020
542 Clear 2 1027 31 10000 2.38 290 08:26 15.01.2020
543 Clear 2 1027 29 10000 2.1 210 07:56 15.01.2020
544 Clear 2 1027 37 10000 3.01 300 07:33 15.01.2020
545 Clear 2 1027 31 10000 1.5 190 06:54 15.01.2020
546 Clear 1 1027 31 10000 2.6 210 06:32 15.01.2020
547 Clear 1 1028 35 10000 3.01 300 05:32 15.01.2020
548 Clear -2 1029 39 10000 2.6 230 03:20 15.01.2020
549 Clear -5 1029 79 10000 0.5 40 01:48 15.01.2020
550 Clear -6 1029 58 10000 1.38 283 01:22 15.01.2020
551 Clear -8 1029 73 10000 1.38 283 00:37 15.01.2020
552 Clear -8 1029 73 10000 1.38 283 00:19 15.01.2020
553 Clear -8 1029 92 10000 0.5 180 23:46 14.01.2020
554 Clear -8 1028 67 10000 1.38 283 23:27 14.01.2020
555 Clear -8 1029 92 10000 0.5 150 22:57 14.01.2020
556 Clear -8 1029 92 10000 0.5 150 22:57 14.01.2020
557 Clear -7 1028 67 10000 1.72 293 22:39 14.01.2020
558 Clear -7 1028 67 10000 1.72 293 22:18 14.01.2020
559 Clear -7 1028 92 10000 0.5 140 21:57 14.01.2020
560 Clear -7 1027 62 10000 1.72 293 21:38 14.01.2020
561 Clear -7 1027 62 10000 1.72 293 21:19 14.01.2020
562 Clear -8 1028 92 10000 0.5 160 20:42 14.01.2020
563 Clear -7 1027 85 10000 0.5 180 20:22 14.01.2020
564 Clear -7 1027 85 10000 0.5 180 19:57 14.01.2020
565 Clear -7 1028 67 10000 1.58 284 19:39 14.01.2020
566 Clear -7 1028 67 10000 1.58 284 19:20 14.01.2020
567 Clear -6 1028 85 10000 0.5 180 18:59 14.01.2020
568 Clear -8 1027 79 10000 1.58 284 18:40 14.01.2020
569 Clear -6 1027 79 10000 1.58 284 18:19 14.01.2020
570 Clear -6 1027 79 10000 1.58 284 18:19 14.01.2020
571 Clear -5 1027 50 10000 1.58 284 17:39 14.01.2020
572 Clear -5 1027 50 10000 1.21 298 17:19 14.01.2020
573 Clear -5 1027 79 10000 0.5 150 16:59 14.01.2020
574 Clear -5 1027 46 10000 1.21 298 16:41 14.01.2020
575 Clear -5 1027 46 10000 1.21 298 16:21 14.01.2020
576 Clear -4 1027 79 10000 0.5 30 15:55 14.01.2020
577 Clear -4 1027 49 10000 1.21 298 15:37 14.01.2020
578 Clear -4 1027 49 10000 1.21 298 15:18 14.01.2020
579 Clear -3 1027 67 10000 0.5 170 14:43 14.01.2020
580 Clear -3 1027 42 10000 1.42 301 14:20 14.01.2020
581 Clear -3 1027 73 10000 0.5 160 13:43 14.01.2020
582 Clear -3 1027 50 10000 1.65 296 13:20 14.01.2020
583 Clear -2 1028 58 10000 1.5 330 12:59 14.01.2020
584 Clear -2 1026 37 10000 1.65 296 12:40 14.01.2020
585 Clear -2 1026 37 10000 1.65 296 12:20 14.01.2020
586 Clear -1 1025 53 10000 1.65 296 11:42 14.01.2020
587 Clear -1 1026 33 10000 1.5 310 11:23 14.01.2020
588 Clear -1 1026 33 10000 1.5 310 11:23 14.01.2020
589 Clear -1 1027 50 10000 0.5 220 10:58 14.01.2020
590 Clear 0 1025 31 10000 1.56 296 10:39 14.01.2020
591 Clear 0 1025 31 10000 1.56 296 10:19 14.01.2020
592 Clear 0 1025 31 10000 1.56 296 10:19 14.01.2020
593 Clear 1 1027 42 10000 1 260 09:56 14.01.2020
594 Clear 1 1025 29 10000 1.56 296 09:38 14.01.2020
595 Clear 1 1025 29 10000 1.56 296 09:20 14.01.2020
596 Clear 2 1024 29 10000 1 220 08:42 14.01.2020
597 Clear 3 1024 24 10000 1.88 303 08:23 14.01.2020
598 Clear 2 1026 34 10000 1 330 07:53 14.01.2020
599 Clear 2 1024 29 10000 1.5 230 07:26 14.01.2020
600 Clear 2 1026 29 10000 2.1 280 06:50 14.01.2020
601 Clear 2 1024 34 10000 2.29 303 06:18 14.01.2020
602 Rain 1 1027 39 10000 1.5 260 04:56 14.01.2020
603 Haze -1 1025 37 4800 1.18 342 03:48 14.01.2020
604 Clouds -3 1026 58 10000 1.18 342 02:40 14.01.2020
605 Clouds -5 1025 63 10000 0.82 46 01:31 14.01.2020
606 Clear -6 1027 78 10000 2.6 50 00:48 14.01.2020
607 Clouds -6 1025 67 10000 0.68 40 00:22 14.01.2020
608 Mist -7 1027 85 9000 0.5 320 23:44 13.01.2020
609 Clouds -7 1025 62 10000 0.53 3 23:19 13.01.2020
610 Clear -7 1027 92 6000 1.5 360 22:57 13.01.2020
611 Clouds -6 1025 68 10000 0.53 3 22:39 13.01.2020
612 Clouds -6 1025 68 10000 0.53 3 22:20 13.01.2020
613 Clear -7 1026 92 10000 1 270 21:55 13.01.2020
614 Clear -7 1025 73 10000 0.53 3 21:37 13.01.2020
615 Clear -7 1025 73 10000 0.53 3 21:18 13.01.2020
616 Clear -6 1027 92 10000 0.5 210 20:56 13.01.2020
617 Clear -6 1025 73 10000 0.53 3 20:38 13.01.2020
618 Clear -6 1025 73 10000 1 294 20:19 13.01.2020
619 Clear -6 1025 67 10000 1.37 308 19:41 13.01.2020
620 Clear -6 1025 67 10000 1.37 308 19:21 13.01.2020
621 Clear -6 1027 85 10000 0.5 60 18:58 13.01.2020
622 Clear -6 1027 85 10000 0.5 20 18:38 13.01.2020
623 Clear -6 1027 85 10000 0.5 20 18:19 13.01.2020
624 Clear -6 1027 85 10000 1.37 308 17:58 13.01.2020
625 Clear -5 1025 67 10000 1.37 308 17:39 13.01.2020
626 Clear -5 1025 67 10000 1.94 321 17:20 13.01.2020
627 Clouds -2 1026 40 0 1.94 321 16:42 13.01.2020
628 Clouds -2 1026 40 0 1.94 321 16:23 13.01.2020
629 Clouds -2 1026 40 0 1.94 321 15:58 13.01.2020
630 Clouds -2 1026 40 0 1.94 321 15:40 13.01.2020
631 Clouds -2 1026 40 0 1.94 321 15:20 13.01.2020
632 Clouds -2 1026 40 0 1.94 321 14:43 13.01.2020
633 Clouds -2 1025 38 0 2.17 316 14:24 13.01.2020
634 Clouds -2 1025 38 0 2.17 316 13:59 13.01.2020
635 Clouds -2 1025 38 0 2.17 316 13:39 13.01.2020
636 Clouds -2 1025 40 0 2.5 305 13:21 13.01.2020
637 Clear -3 1026 49 10000 0.5 10 12:56 13.01.2020
638 Clear -3 1026 49 10000 0.5 10 12:37 13.01.2020
639 Clear -3 1026 49 10000 0.5 10 12:37 13.01.2020
640 Clear -2 1026 38 10000 0.5 260 12:19 13.01.2020
641 Clear -2 1026 38 10000 0.5 260 12:19 13.01.2020
642 Clear -2 1026 38 10000 0.5 260 12:19 13.01.2020
643 Clear -2 1024 39 10000 2.5 305 11:39 13.01.2020
644 Clear -2 1024 39 10000 3.32 319 11:20 13.01.2020
645 Clear -2 1026 45 10000 2.1 300 10:57 13.01.2020
646 Clear -2 1026 45 10000 2.1 300 10:57 13.01.2020
647 Clear -2 1025 39 10000 3.1 280 10:39 13.01.2020
648 Clear -2 1025 39 10000 3.1 280 10:20 13.01.2020
649 Clear -2 1025 39 10000 3.1 280 10:20 13.01.2020
650 Clear -1 1025 39 10000 2.6 300 09:56 13.01.2020
651 Clear -1 1024 33 10000 3.1 290 09:38 13.01.2020
652 Clear -1 1024 33 10000 3.1 290 09:19 13.01.2020
653 Clear 0 1023 37 10000 1.5 360 08:39 13.01.2020
654 Clear 0 1023 34 10000 1.5 360 08:20 13.01.2020
655 Clear 0 1023 34 10000 1.5 360 08:20 13.01.2020
656 Clear 1 1024 34 10000 1.5 240 07:46 13.01.2020
657 Clear 1 1023 34 10000 4.36 297 07:27 13.01.2020
658 Clear 0 1023 31 10000 3.6 320 06:40 13.01.2020
659 Clear 0 1023 31 10000 3.6 320 06:18 13.01.2020
660 Clear 0 1023 40 10000 3.98 300 05:20 13.01.2020
661 Clear -1 1025 46 10000 2.1 310 03:47 13.01.2020
662 Clear -2 1023 63 10000 1.5 280 02:51 13.01.2020
663 Clear -2 1023 63 10000 3.98 300 02:31 13.01.2020
664 Clouds -3 1023 68 10000 3.91 290 01:47 13.01.2020
665 Clouds -4 1022 92 6000 0.5 220 00:59 13.01.2020
666 Clouds -4 1022 68 10000 1.5 310 00:37 13.01.2020
667 Clouds -4 1022 68 10000 1.5 310 00:19 13.01.2020
668 Clouds -5 1021 68 10000 3.77 291 23:41 12.01.2020
669 Clouds -5 1021 68 10000 3.71 285 23:22 12.01.2020
670 Clouds -5 1021 100 8000 0.5 170 22:57 12.01.2020
671 Clear -5 1021 85 10000 3.71 285 22:39 12.01.2020
672 Clear -5 1021 85 10000 3.71 285 22:19 12.01.2020
673 Clear -5 1021 92 8000 3.71 285 21:54 12.01.2020
674 Clear -5 1020 79 10000 3.71 285 21:36 12.01.2020
675 Clear -5 1020 79 10000 3.71 285 21:18 12.01.2020
676 Clear -5 1020 100 6000 0.5 180 20:54 12.01.2020
677 Clear -4 1020 73 10000 3.71 285 20:36 12.01.2020
678 Clear -4 1020 73 10000 2.35 280 20:18 12.01.2020
679 Clouds -4 1020 92 8000 0.5 160 19:54 12.01.2020
680 Clouds -4 1020 74 10000 2.12 292 19:36 12.01.2020
681 Clouds -4 1020 74 10000 2.12 292 19:18 12.01.2020
682 Clouds -4 1020 74 10000 2.12 292 19:18 12.01.2020
683 Clouds -3 1020 74 10000 2.12 292 18:54 12.01.2020
684 Clear -3 1020 74 10000 2.12 292 18:36 12.01.2020
685 Clear -3 1020 74 10000 2.12 292 18:18 12.01.2020
686 Clear -3 1019 85 9000 0.5 150 17:41 12.01.2020
687 Clouds -3 1020 68 10000 3.17 305 17:19 12.01.2020
688 Clouds -2 1020 92 8000 0.5 180 16:56 12.01.2020
689 Clouds -2 1020 92 8000 0.5 180 16:56 12.01.2020
690 Clouds -2 1020 74 10000 3.17 305 16:37 12.01.2020
691 Clouds -2 1020 74 10000 3.17 305 16:19 12.01.2020
692 Clear -2 1020 85 9000 1 160 15:43 12.01.2020
693 Clouds -2 1020 74 10000 3.17 305 15:24 12.01.2020
694 Clear -2 1019 86 10000 0.5 160 14:57 12.01.2020
695 Clear -2 1020 68 10000 3.17 305 14:38 12.01.2020
696 Clear -2 1020 68 10000 3.13 308 14:20 12.01.2020
697 Clear -1 1019 86 10000 0.5 150 13:54 12.01.2020
698 Clear -1 1019 60 10000 3.13 308 13:36 12.01.2020
699 Clear -1 1019 57 10000 3.29 306 13:18 12.01.2020
700 Clear -1 1018 57 10000 3.29 306 12:42 12.01.2020
701 Clear -1 1018 57 10000 3.29 306 12:20 12.01.2020
702 Clear 0 1018 68 10000 0.5 310 11:58 12.01.2020
703 Clear 0 1018 64 10000 3.29 306 11:39 12.01.2020
704 Clear 0 1018 64 10000 3.39 302 11:20 12.01.2020
705 Clear 0 1018 55 10000 1 270 10:41 12.01.2020
706 Clouds 0 1017 51 10000 3.39 302 10:22 12.01.2020
707 Clear 1 1017 55 10000 0.5 250 09:57 12.01.2020
708 Clear 1 1017 55 10000 3.39 302 09:38 12.01.2020
709 Clear 1 1017 55 10000 3.39 302 09:19 12.01.2020
710 Clear 2 1016 43 10000 2.1 220 08:45 12.01.2020
711 Clear 2 1017 51 10000 1.5 280 08:20 12.01.2020
712 Clear 2 1016 40 10000 3.1 210 07:41 12.01.2020
713 Clear 2 1016 40 10000 3.1 210 07:41 12.01.2020
714 Clear 2 1016 44 10000 3.99 295 07:23 12.01.2020
715 Clear 2 1016 44 10000 2.6 210 06:48 12.01.2020
716 Clear 2 1017 44 10000 3.99 295 06:30 12.01.2020
717 Clear 2 1017 47 10000 1.5 320 05:32 12.01.2020
718 Clear 2 1017 47 10000 1.5 320 05:32 12.01.2020
719 Clear 1 1018 55 10000 2.1 350 04:27 12.01.2020
720 Clouds 1 1019 59 10000 2.33 291 03:23 12.01.2020
721 Clouds -1 1019 68 10000 2.33 291 02:33 12.01.2020
722 Haze -2 1018 80 4800 0.5 180 01:43 12.01.2020
723 Clouds -2 1018 74 10000 1.76 284 01:22 12.01.2020
724 Clouds -3 1018 74 10000 1.6 285 00:41 12.01.2020
725 Clouds -3 1018 74 10000 1.6 285 00:20 12.01.2020
726 Clouds -3 1017 74 10000 1.6 285 23:42 11.01.2020
727 Clouds -3 1017 74 10000 1.68 279 23:19 11.01.2020
728 Clouds -3 1017 92 4800 1 170 22:58 11.01.2020
729 Clouds -3 1017 74 10000 1.68 279 22:39 11.01.2020
730 Clouds -3 1017 74 10000 1.68 279 22:20 11.01.2020
731 Clouds -3 1017 92 4800 0.5 170 21:58 11.01.2020
732 Clouds -3 1017 74 10000 1.68 279 21:39 11.01.2020
733 Clouds -3 1017 74 10000 1.68 279 21:18 11.01.2020
734 Clouds -3 1017 74 10000 1.68 279 21:18 11.01.2020
735 Clouds -2 1017 74 10000 1.68 279 20:40 11.01.2020
736 Clouds -2 1017 74 10000 1.68 279 20:40 11.01.2020
737 Clouds -2 1017 74 10000 1.32 274 20:22 11.01.2020
738 Clouds -2 1017 86 6000 0.5 180 19:58 11.01.2020
739 Clouds -2 1018 74 10000 1.69 285 19:39 11.01.2020
740 Clouds -2 1018 74 10000 1.69 285 19:20 11.01.2020
741 Haze -2 1018 86 6000 1 180 18:58 11.01.2020
742 Clouds -1 1018 74 10000 1.69 285 18:38 11.01.2020
743 Clouds -1 1018 74 10000 1.69 285 18:19 11.01.2020
744 Haze -1 1018 86 6000 0.5 180 17:57 11.01.2020
745 Clouds -1 1018 60 10000 1.69 285 17:39 11.01.2020
746 Clouds -1 1018 52 10000 1.59 294 17:19 11.01.2020
747 Clouds -1 1018 52 10000 1.59 294 16:44 11.01.2020
748 Clouds -1 1018 52 10000 1.59 294 16:26 11.01.2020
749 Haze -1 1018 79 6000 1 170 15:58 11.01.2020
750 Clear -1 1019 52 10000 1.59 294 15:40 11.01.2020
751 Clear -1 1019 52 10000 1.59 294 15:20 11.01.2020
752 Haze -1 1018 79 8000 1 170 14:56 11.01.2020
753 Clouds -1 1018 52 10000 1.59 294 14:37 11.01.2020
754 Clouds -1 1018 48 10000 1.2 303 14:19 11.01.2020
755 Clouds 0 1018 55 10000 1.2 303 13:39 11.01.2020
756 Clouds 0 1018 55 10000 1.52 295 13:20 11.01.2020
757 Haze -1 1018 74 8000 0.5 170 12:56 11.01.2020
758 Clouds -1 1019 55 10000 3.1 310 12:38 11.01.2020
759 Clouds -1 1019 55 10000 3.1 310 12:20 11.01.2020
760 Clouds 0 1018 68 10000 1.52 295 11:45 11.01.2020
761 Clear 0 1019 55 10000 1.5 310 11:24 11.01.2020
762 Clouds 1 1018 47 10000 1 160 10:50 11.01.2020
763 Clouds 1 1018 59 10000 1.5 320 10:30 11.01.2020
764 Clouds 2 1020 47 10000 0.5 270 09:55 11.01.2020
765 Clear 2 1020 50 10000 1.5 300 09:37 11.01.2020
766 Clear 2 1020 50 10000 1.5 300 09:18 11.01.2020
767 Clear 3 1018 51 10000 1.5 270 08:41 11.01.2020
768 Clear 3 1018 51 10000 1.5 270 08:20 11.01.2020
769 Clear 4 1018 48 10000 2.6 250 07:43 11.01.2020
770 Clear 4 1018 48 10000 1.5 270 07:24 11.01.2020
771 Haze 4 1018 51 9000 2.1 190 06:45 11.01.2020
772 Clear 3 1020 55 10000 2.1 210 05:31 11.01.2020
773 Haze 3 1020 55 9000 2.1 200 04:43 11.01.2020
774 Clear 3 1021 59 10000 2.1 230 04:25 11.01.2020
775 Clouds 0 1022 74 10000 2.1 220 02:48 11.01.2020
776 Clear -3 1022 86 6000 0.5 190 01:48 11.01.2020
777 Mist -3 1022 86 9000 0.76 277 01:28 11.01.2020
778 Mist -5 1022 92 4800 0.5 340 00:54 11.01.2020
779 Mist -5 1021 92 6000 0.76 277 00:29 11.01.2020
780 Mist -5 1021 100 4000 0.5 200 23:59 10.01.2020
781 Mist -5 1021 92 9000 0.76 277 23:39 10.01.2020
782 Mist -5 1021 92 9000 0.48 59 23:20 10.01.2020
783 Mist -5 1021 100 4800 0.5 150 22:41 10.01.2020
784 Clouds -5 1021 92 10000 0.48 59 22:22 10.01.2020
785 Mist -4 1021 100 4000 0.5 160 21:59 10.01.2020
786 Clouds -4 1021 86 10000 0.48 59 21:41 10.01.2020
787 Clouds -4 1021 86 10000 0.48 59 21:20 10.01.2020
788 Mist -4 1023 92 2400 0.5 360 20:58 10.01.2020
789 Clear -4 1021 92 10000 0.48 59 20:40 10.01.2020
790 Clear -4 1021 92 10000 0.48 59 20:40 10.01.2020
791 Clear -4 1021 92 10000 0.25 125 20:22 10.01.2020
792 Mist -4 1021 86 9000 0.25 125 19:41 10.01.2020
793 Mist -4 1021 86 9000 0.25 125 19:21 10.01.2020
794 Clear -4 1022 100 4800 0.5 190 18:56 10.01.2020
795 Clear -4 1021 86 10000 0.25 125 18:37 10.01.2020
796 Clear -4 1021 86 10000 0.25 125 18:18 10.01.2020
797 Mist -3 1023 100 2400 0.5 310 17:56 10.01.2020
798 Mist -3 1023 92 3200 0.5 80 17:38 10.01.2020
799 Mist -3 1023 92 3200 0.5 80 17:38 10.01.2020
800 Mist -3 1023 92 3200 0.5 80 17:19 10.01.2020
801 Clear -3 1022 79 10000 0.74 233 16:43 10.01.2020
802 Clear -3 1022 79 10000 0.74 233 16:21 10.01.2020
803 Clear -3 1022 79 10000 0.74 233 16:21 10.01.2020
804 Mist -2 1023 92 3200 0.5 100 15:57 10.01.2020
805 Mist -2 1024 92 3200 0.5 160 15:38 10.01.2020
806 Mist -2 1024 92 3200 0.5 160 15:20 10.01.2020
807 Mist -2 1024 92 4000 0.5 160 14:58 10.01.2020
808 Mist -2 1024 92 4000 0.5 160 14:58 10.01.2020
809 Mist -2 1024 86 4000 0.5 160 14:40 10.01.2020
810 Mist -2 1024 86 4000 0.5 160 14:19 10.01.2020
811 Clear -1 1024 79 4800 1.5 150 13:56 10.01.2020
812 Haze -1 1023 74 6000 0.5 150 13:37 10.01.2020
813 Haze -1 1023 74 6000 0.5 150 13:18 10.01.2020
814 Haze -1 1024 79 6000 0.5 80 12:56 10.01.2020
815 Clear 0 1022 64 10000 0.42 256 12:38 10.01.2020
816 Clear 0 1022 64 10000 0.42 256 12:18 10.01.2020
817 Haze 0 1022 80 4800 0.5 160 11:42 10.01.2020
818 Haze 0 1022 80 4800 0.5 160 11:42 10.01.2020
819 Clear 0 1022 59 10000 2.06 288 11:22 10.01.2020
820 Haze 1 1022 43 4800 0.5 130 10:59 10.01.2020
821 Clear 2 1022 51 10000 2.06 288 10:38 10.01.2020
822 Clear 2 1022 51 10000 2.06 288 10:19 10.01.2020
823 Haze 3 1022 64 4800 0.5 350 09:46 10.01.2020
824 Clear 3 1022 40 10000 2.06 288 09:26 10.01.2020
825 Haze 4 1022 51 6000 1 200 08:58 10.01.2020
826 Clear 4 1022 41 10000 1.5 300 08:38 10.01.2020
827 Clear 4 1022 41 10000 1.5 300 08:20 10.01.2020
828 Clear 4 1022 44 10000 1.5 290 07:41 10.01.2020
829 Clear 4 1022 44 10000 1.5 290 07:41 10.01.2020
830 Clear 4 1022 44 10000 1.5 290 07:22 10.01.2020
831 Haze 3 1022 51 8000 3.1 220 06:42 10.01.2020
832 Haze 3 1022 51 8000 3.1 220 06:24 10.01.2020
833 Haze 3 1023 55 6000 2.6 230 05:25 10.01.2020
834 Haze 0 1025 69 6000 0.63 300 03:32 10.01.2020
835 Clouds -1 1025 86 4800 0.5 350 02:53 10.01.2020
836 Haze -1 1025 38 6000 0.63 300 02:33 10.01.2020
837 Mist -4 1025 86 6000 0.5 269 01:32 10.01.2020
838 Mist -4 1025 100 4000 0.5 40 00:51 10.01.2020
839 Mist -5 1025 92 4400 0.5 269 00:33 10.01.2020
840 Mist -4 1025 85 4800 0.5 269 23:57 09.01.2020
841 Mist -4 1025 85 4800 0.5 269 23:57 09.01.2020
842 Mist -5 1025 85 6000 0.5 269 23:36 09.01.2020
843 Mist -5 1025 85 6000 0.74 318 23:18 09.01.2020
844 Mist -5 1025 100 4000 0.5 10 22:56 09.01.2020
845 Mist -5 1024 85 6000 0.74 318 22:37 09.01.2020
846 Mist -5 1024 85 6000 0.74 318 22:18 09.01.2020
847 Mist -5 1024 100 4000 1 30 21:55 09.01.2020
848 Mist -5 1025 92 6000 0.74 318 21:37 09.01.2020
849 Mist -5 1025 92 6000 0.74 318 21:18 09.01.2020
850 Mist -5 1025 100 3200 1 40 20:54 09.01.2020
851 Mist -5 1025 100 3200 0.5 30 20:36 09.01.2020
852 Mist -5 1025 92 8000 0.45 273 20:18 09.01.2020
853 Mist -4 1025 100 4000 0.59 281 19:39 09.01.2020
854 Mist -4 1025 85 8000 0.59 281 19:20 09.01.2020
855 Clear -4 1026 100 4800 0.59 281 18:57 09.01.2020
856 Mist -4 1025 100 4000 0.5 170 18:39 09.01.2020
857 Mist -4 1025 85 9000 0.59 281 18:20 09.01.2020
858 Mist -4 1025 100 4000 0.5 170 17:41 09.01.2020
859 Mist -4 1025 100 4000 0.5 170 17:41 09.01.2020
860 Mist -4 1025 79 9000 1.25 296 17:19 09.01.2020
861 Mist -4 1027 92 4000 0.5 150 16:58 09.01.2020
862 Clear -4 1025 92 4800 1.25 296 16:39 09.01.2020
863 Mist -4 1027 85 4000 1 20 16:20 09.01.2020
864 Haze -3 1027 85 4800 1.5 60 15:43 09.01.2020
865 Clear -3 1025 79 10000 1.25 296 15:22 09.01.2020
866 Mist -2 1027 92 3200 1.25 296 14:57 09.01.2020
867 Clear -3 1025 92 6000 0.5 180 14:38 09.01.2020
868 Clear -2 1025 74 10000 2.04 294 14:18 09.01.2020
869 Mist -2 1027 92 4800 0.5 120 13:55 09.01.2020
870 Clear -2 1025 92 6000 0.5 180 13:37 09.01.2020
871 Clear -2 1025 44 10000 1.5 300 13:18 09.01.2020
872 Haze -1 1026 79 6000 0.5 70 12:42 09.01.2020
873 Clear -1 1024 46 10000 2.38 296 12:23 09.01.2020
874 Haze -1 1026 74 8000 2.1 40 11:59 09.01.2020
875 Haze -1 1024 79 8000 1 160 11:41 09.01.2020
876 Clear 0 1024 41 10000 2.72 295 11:22 09.01.2020
877 Haze 0 1024 41 8000 0.5 180 10:55 09.01.2020
878 Clear 0 1023 41 10000 0.5 120 10:37 09.01.2020
879 Clear 0 1024 59 10000 2.72 295 10:19 09.01.2020
880 Clear 1 1023 55 10000 1 280 09:41 09.01.2020
881 Clear 1 1023 59 10000 2.72 295 09:22 09.01.2020
882 Clear 2 1025 55 10000 1.5 300 08:56 09.01.2020
883 Clear 2 1023 55 10000 2.63 304 08:37 09.01.2020
884 Clear 2 1023 55 10000 3.46 317 08:19 09.01.2020
885 Clear 2 1023 47 10000 2.1 260 07:42 09.01.2020
886 Clear 2 1023 51 10000 4.02 313 07:24 09.01.2020
887 Clear 2 1022 47 10000 0.5 320 06:39 09.01.2020
888 Clear 2 1023 55 10000 1.5 200 06:20 09.01.2020
889 Clouds 2 1024 55 10000 1 270 05:50 09.01.2020
890 Clouds 2 1024 55 10000 1 270 05:50 09.01.2020
891 Clear 1 1025 46 10000 2.1 310 04:44 09.01.2020
892 Haze 0 1026 63 9000 3.1 320 03:54 09.01.2020
893 Clear 0 1027 63 10000 1.5 320 02:55 09.01.2020
894 Clouds -1 1039 46 10000 4.35 302 02:30 09.01.2020
895 Haze -1 1024 63 9000 2.6 280 01:40 09.01.2020
896 Haze -1 1024 63 8000 1 330 00:44 09.01.2020
897 Clouds -1 1030 79 10000 4.09 302 00:21 09.01.2020
898 Haze -1 1024 74 9000 1.5 300 23:55 08.01.2020
899 Haze -1 1023 68 6000 2.6 260 23:37 08.01.2020
900 Haze -1 1024 64 8000 2.6 250 23:18 08.01.2020
901 Haze 0 1023 64 6000 1.5 290 22:39 08.01.2020
902 Clouds 0 1035 64 10000 3.16 296 22:21 08.01.2020
903 Haze -1 1022 64 6000 1.5 300 21:57 08.01.2020
904 Haze -1 1022 64 6000 1.5 300 21:38 08.01.2020
905 Clouds 0 1023 86 6000 2.1 280 21:20 08.01.2020
906 Haze 0 1022 64 8000 0.5 280 20:58 08.01.2020
907 Haze 0 1022 64 8000 0.5 280 20:38 08.01.2020
908 Clouds 0 1023 80 7000 2.1 270 20:20 08.01.2020
909 Haze 0 1024 74 6000 2.6 280 19:56 08.01.2020
910 Haze 0 1024 74 6000 2.6 280 19:56 08.01.2020
911 Haze 0 1022 65 9000 3.1 250 19:37 08.01.2020
912 Clouds 0 1023 65 10000 3.75 307 19:18 08.01.2020
913 Haze 0 1024 74 6000 1 260 18:55 08.01.2020
914 Haze 0 1022 65 8000 1 250 18:37 08.01.2020
915 Clouds 0 1023 69 10000 3.75 307 18:18 08.01.2020
916 Haze 0 1024 74 8000 1.5 290 17:47 08.01.2020
917 Clouds 1 1023 69 10000 3.2 301 17:24 08.01.2020
918 Haze 1 1022 80 6000 1.5 230 16:57 08.01.2020
919 Haze 1 1022 80 6000 1.5 230 16:39 08.01.2020
920 Clouds 1 1023 74 10000 3.2 301 16:19 08.01.2020
921 Clouds 1 1023 74 10000 3.2 301 16:19 08.01.2020
922 Haze 1 1024 66 9000 2.6 290 15:57 08.01.2020
923 Clouds 1 1022 86 4800 1 280 15:39 08.01.2020
924 Clouds 1 1022 74 10000 3.2 301 15:18 08.01.2020
925 Haze 1 1024 66 6000 2.1 330 14:55 08.01.2020
926 Haze 1 1021 80 6000 1 240 14:36 08.01.2020
927 Clouds 1 1022 80 10000 4.63 297 14:18 08.01.2020
928 Rain 2 1021 93 2800 3.6 280 13:38 08.01.2020
929 Clouds 2 1022 80 10000 4.63 297 13:18 08.01.2020
930 Mist 2 1020 93 4000 2.6 210 12:41 08.01.2020
931 Clouds 3 1020 61 10000 3.82 304 12:18 08.01.2020
932 Mist 3 1021 61 3200 3.6 240 11:49 08.01.2020
933 Mist 3 1019 86 8000 3.85 265 11:20 08.01.2020
934 Clouds 4 1020 86 4800 2.6 240 10:59 08.01.2020
935 Haze 4 1018 80 6000 2.1 190 10:41 08.01.2020
936 Mist 4 1019 86 9000 3.85 265 10:22 08.01.2020
937 Clouds 4 1020 86 6000 2.6 230 09:58 08.01.2020
938 Haze 4 1018 86 6000 2.1 220 09:38 08.01.2020
939 Clouds 4 1018 80 10000 1.5 250 09:18 08.01.2020
940 Clouds 5 1017 86 6000 1.5 220 08:42 08.01.2020
941 Clouds 5 1017 80 10000 1.5 240 08:23 08.01.2020
942 Clouds 5 1017 80 10000 3.15 286 07:59 08.01.2020
943 Clouds 5 1016 86 6000 1.5 200 07:40 08.01.2020
944 Clouds 5 1016 80 10000 1.5 250 07:19 08.01.2020
945 Clouds 5 1017 86 6000 1.5 220 06:42 08.01.2020
946 Clouds 4 1017 86 6000 1.5 300 05:57 08.01.2020
947 Clouds 5 1016 80 10000 3.15 286 05:27 08.01.2020
948 Clouds 4 1015 93 10000 1 190 04:37 08.01.2020
949 Clouds 4 1016 86 10000 2.6 230 02:46 08.01.2020
950 Clouds 4 1014 86 10000 3.66 284 02:28 08.01.2020
951 Rain 4 1014 93 10000 1 190 01:57 08.01.2020
952 Clouds 3 1012 93 10000 4.84 314 01:32 08.01.2020
953 Rain 3 1011 100 10000 2.1 240 00:51 08.01.2020
954 Rain 3 1009 93 10000 4.87 318 00:22 08.01.2020
955 Rain 3 1010 100 10000 1 140 23:46 07.01.2020
956 Rain 3 1007 93 9000 1.5 300 23:21 07.01.2020
957 Rain 3 1006 93 6000 2.1 250 22:43 07.01.2020
958 Rain 3 1006 93 8000 8.52 317 22:21 07.01.2020
959 Rain 3 1006 100 10000 0.5 270 21:59 07.01.2020
960 Rain 4 1004 100 6000 3.1 200 21:41 07.01.2020
961 Rain 4 1005 100 9000 1 300 21:21 07.01.2020
962 Rain 4 1005 100 9000 1 300 21:21 07.01.2020
963 Rain 4 1004 93 10000 2.6 240 20:57 07.01.2020
964 Rain 4 1002 93 10000 3.6 210 20:39 07.01.2020
965 Rain 4 1002 93 10000 3.6 210 20:39 07.01.2020
966 Rain 4 1003 100 10000 2.1 280 20:21 07.01.2020
967 Rain 5 1002 93 10000 5.1 210 19:56 07.01.2020
968 Rain 5 1000 93 10000 4.1 180 19:37 07.01.2020
969 Rain 5 1002 100 10000 3.6 290 19:19 07.01.2020
970 Rain 5 1002 100 10000 3.6 290 19:19 07.01.2020
971 Rain 5 1002 100 10000 3.6 290 19:19 07.01.2020
972 Rain 6 1000 93 10000 6.7 260 18:55 07.01.2020
973 Clouds 6 999 93 10000 3.6 170 18:37 07.01.2020
974 Rain 6 999 93 4800 7.06 277 18:18 07.01.2020
975 Clouds 8 998 100 10000 2.1 180 17:41 07.01.2020
976 Clouds 8 998 100 10000 2.1 180 17:23 07.01.2020
977 Rain 8 997 100 8000 3.1 150 16:58 07.01.2020
978 Rain 8 998 100 4800 1 360 16:38 07.01.2020
979 Rain 8 998 100 3000 2.16 136 16:19 07.01.2020
980 Rain 7 998 93 4400 2.16 136 15:59 07.01.2020
981 Rain 7 999 100 2800 1.5 360 15:40 07.01.2020
982 Rain 7 998 100 4800 2.16 136 15:22 07.01.2020
983 Rain 7 1001 100 10000 3.1 40 14:56 07.01.2020
984 Rain 8 1000 100 10000 2.1 10 14:37 07.01.2020
985 Rain 7 1000 93 8000 3.2 45 14:18 07.01.2020
986 Rain 7 1002 100 4000 1.5 360 13:40 07.01.2020
987 Rain 7 1001 93 2200 1.5 90 13:19 07.01.2020
988 Rain 7 1002 100 4800 2.1 360 12:42 07.01.2020
989 Rain 7 1002 93 2800 3.83 57 12:20 07.01.2020
990 Rain 7 1003 93 4800 2.1 70 11:57 07.01.2020
991 Rain 7 1003 93 4000 2.1 70 11:38 07.01.2020
992 Rain 7 1003 93 4000 2.1 70 11:20 07.01.2020
993 Rain 7 1004 100 6000 3.04 62 10:42 07.01.2020
994 Rain 7 1005 100 4400 2.1 60 10:24 07.01.2020
995 Rain 7 1007 100 2800 1 360 09:58 07.01.2020
996 Rain 7 1007 100 6000 1.5 350 09:38 07.01.2020
997 Rain 7 1006 100 4800 1.5 60 09:20 07.01.2020
998 Rain 7 1007 100 2800 3.04 62 08:43 07.01.2020
999 Rain 6 1008 100 2200 3.07 33 08:25 07.01.2020
1000 Rain 6 1008 100 3600 2.51 63 07:54 07.01.2020
1001 Rain 6 1009 100 2600 1.5 60 07:28 07.01.2020
1002 Rain 6 1009 100 2600 1.5 60 07:28 07.01.2020
1003 Rain 6 1009 100 3600 1.5 80 06:53 07.01.2020
1004 Rain 6 1011 100 4000 1.5 360 06:34 07.01.2020
1005 Rain 6 1011 100 3000 2.51 63 05:55 07.01.2020
1006 Rain 6 1012 100 2000 1.5 350 04:41 07.01.2020
1007 Rain 6 1012 100 2000 1.5 350 04:41 07.01.2020
1008 Rain 6 1015 93 6000 1.45 37 03:27 07.01.2020
1009 Rain 6 1016 93 10000 1.5 60 02:22 07.01.2020
1010 Rain 5 1016 93 6000 2 51 01:54 07.01.2020
1011 Rain 5 1016 93 4800 2 51 01:30 07.01.2020
1012 Rain 5 1017 100 8000 2.1 360 00:37 07.01.2020
1013 Rain 5 1017 100 8000 2.1 360 00:37 07.01.2020
1014 Rain 5 1017 93 4400 1.5 80 00:18 07.01.2020
1015 Rain 5 1017 100 6000 1.5 350 23:39 06.01.2020
1016 Rain 5 1017 93 4800 1.66 63 23:21 06.01.2020
1017 Rain 5 1016 93 3200 1.66 63 22:58 06.01.2020
1018 Rain 4 1017 100 6000 2.1 360 22:38 06.01.2020
1019 Rain 5 1016 93 4800 1.66 63 22:20 06.01.2020
1020 Rain 4 1016 93 6000 1.66 63 21:56 06.01.2020
1021 Rain 4 1016 93 6000 1.66 63 21:56 06.01.2020
1022 Rain 4 1017 100 9000 1.5 20 21:37 06.01.2020
1023 Rain 4 1017 93 4000 1.66 63 21:19 06.01.2020
1024 Rain 4 1017 93 4800 1.66 63 20:56 06.01.2020
1025 Rain 5 1018 100 8000 1.5 10 20:37 06.01.2020
1026 Rain 5 1017 100 4800 1.78 48 20:19 06.01.2020
1027 Rain 4 1018 100 4800 1.78 48 19:55 06.01.2020
1028 Rain 4 1018 100 6000 1.5 10 19:37 06.01.2020
1029 Rain 4 1018 100 6000 1.78 48 19:18 06.01.2020
1030 Rain 4 1018 93 8000 1.5 40 18:44 06.01.2020
1031 Rain 4 1018 93 8000 1.78 48 18:20 06.01.2020
1032 Rain 4 1020 100 6000 1 360 17:40 06.01.2020
1033 Rain 4 1019 93 8000 2.1 60 17:20 06.01.2020
1034 Rain 4 1019 93 8000 2.1 60 17:20 06.01.2020
1035 Rain 4 1020 93 8000 2.1 50 16:57 06.01.2020
1036 Rain 4 1021 100 10000 1.5 20 16:39 06.01.2020
1037 Rain 4 1020 93 6000 1.5 40 16:21 06.01.2020
1038 Rain 3 1022 100 4800 2.1 350 15:44 06.01.2020
1039 Rain 3 1021 100 3500 1 360 15:22 06.01.2020
1040 Rain 3 1021 100 6000 1.5 60 15:00 06.01.2020
1041 Rain 3 1023 100 2000 1 10 14:41 06.01.2020
1042 Rain 3 1022 93 8000 2.1 60 14:22 06.01.2020
1043 Rain 3 1022 93 4800 2.32 70 13:59 06.01.2020
1044 Drizzle 3 1023 100 4800 1.5 20 13:38 06.01.2020
1045 Rain 3 1022 93 4800 1.5 60 13:20 06.01.2020
1046 Rain 3 1024 100 2000 2.1 30 12:44 06.01.2020
1047 Rain 3 1023 93 8000 2.6 50 12:21 06.01.2020
1048 Rain 3 1025 93 2400 3.1 40 11:59 06.01.2020
1049 Rain 3 1024 100 4800 1 10 11:41 06.01.2020
1050 Rain 3 1023 86 6000 1.5 70 11:23 06.01.2020
1051 Mist 3 1024 93 6000 1.5 50 10:58 06.01.2020
1052 Rain 3 1023 93 4500 3.1 80 10:39 06.01.2020
1053 Mist 3 1024 93 6000 2.1 70 10:20 06.01.2020
1054 Mist 3 1024 93 6000 2.1 70 10:20 06.01.2020
1055 Rain 3 1025 100 4000 1.5 10 09:39 06.01.2020
1056 Rain 3 1024 80 6000 2.61 74 09:20 06.01.2020
1057 Rain 3 1025 80 8000 2.6 210 08:48 06.01.2020
1058 Rain 3 1025 80 8000 2.6 210 08:48 06.01.2020
1059 Haze 3 1024 85 9000 1.5 60 08:30 06.01.2020
1060 Clouds 3 1026 74 10000 3.6 40 07:53 06.01.2020
1061 Clouds 4 1025 69 10000 2.6 50 07:32 06.01.2020
1062 Clouds 3 1025 69 10000 1.5 70 06:45 06.01.2020
1063 Rain 3 1025 60 10000 1.5 50 06:20 06.01.2020
1064 Rain 4 1027 69 10000 2.1 40 05:45 06.01.2020
1065 Clouds 4 1028 64 10000 1.5 10 04:37 06.01.2020
1066 Clouds 4 1027 60 10000 2.1 80 04:18 06.01.2020
1067 Clouds 2 1030 65 10000 1.5 60 02:46 06.01.2020
1068 Rain 2 1028 51 10000 1.5 90 02:23 06.01.2020
1069 Haze 1 1030 46 9000 0.5 350 01:44 06.01.2020
1070 Clouds 1 1029 51 10000 1.17 63 01:24 06.01.2020
1071 Clouds 0 1029 68 10000 0.5 40 00:41 06.01.2020
1072 Clouds 0 1028 51 10000 0.83 75 00:21 06.01.2020
1073 Clouds 0 1028 68 10000 0.5 150 23:41 05.01.2020
1074 Clouds 0 1028 55 10000 0.83 75 23:22 05.01.2020
1075 Clouds 0 1030 63 10000 1 70 22:56 05.01.2020
1076 Clouds 0 1029 63 10000 1.5 30 22:37 05.01.2020
1077 Clouds 0 1028 55 10000 1.27 88 22:19 05.01.2020
1078 Clouds -1 1030 63 10000 1.5 70 21:54 05.01.2020
1079 Clouds -1 1029 68 10000 1 30 21:36 05.01.2020
1080 Clouds 0 1028 59 10000 1.27 88 21:18 05.01.2020
1081 Clouds 0 1028 59 10000 1.27 88 21:18 05.01.2020
1082 Clouds 0 1030 63 10000 2.6 60 20:54 05.01.2020
1083 Clouds -1 1029 63 10000 1.5 40 20:36 05.01.2020
1084 Clouds -1 1028 55 10000 1.91 70 20:18 05.01.2020
1085 Clouds -1 1029 68 10000 0.5 140 19:41 05.01.2020
1086 Clouds -2 1029 43 10000 1.91 70 19:21 05.01.2020
1087 Clouds -1 1031 68 10000 1 200 18:56 05.01.2020
1088 Clouds -1 1030 74 10000 1 20 18:38 05.01.2020
1089 Clouds -2 1029 43 10000 1.91 70 18:19 05.01.2020
1090 Clouds -2 1031 63 10000 1 180 17:59 05.01.2020
1091 Clouds -2 1030 74 10000 1 10 17:39 05.01.2020
1092 Clouds -2 1029 68 10000 0.95 49 17:20 05.01.2020
1093 Clouds -2 1031 68 10000 0.5 250 16:57 05.01.2020
1094 Clouds -2 1030 74 10000 1 20 16:39 05.01.2020
1095 Clouds -2 1030 74 10000 1 20 16:39 05.01.2020
1096 Clouds -2 1029 68 10000 0.95 49 16:20 05.01.2020
1097 Clouds -2 1030 79 10000 1.5 30 15:40 05.01.2020
1098 Clouds -2 1030 68 10000 0.95 49 15:22 05.01.2020
1099 Clouds -2 1033 73 10000 0.5 40 14:57 05.01.2020
1100 Haze -2 1031 79 8000 0.5 160 14:39 05.01.2020
1101 Clouds -1 1030 68 10000 0.79 77 14:20 05.01.2020
1102 Clouds -1 1032 63 10000 0.5 280 13:57 05.01.2020
1103 Haze -1 1031 74 9000 0.5 170 13:38 05.01.2020
1104 Clouds 0 1030 31 10000 0.82 63 13:20 05.01.2020
1105 Clouds 0 1030 74 10000 1 30 13:20 05.01.2020
1106 Clouds 1 1032 58 10000 0.5 130 12:56 05.01.2020
1107 Haze 1 1031 68 9000 0.82 63 12:37 05.01.2020
1108 Clear 1 1030 51 10000 0.82 63 12:19 05.01.2020
1109 Clear 1 1030 51 10000 0.82 63 12:19 05.01.2020
1110 Clouds 2 1030 31 10000 0.5 200 11:44 05.01.2020
1111 Clouds 2 1030 47 10000 0.68 327 11:20 05.01.2020
1112 Clouds 2 1032 50 10000 0.5 140 11:00 05.01.2020
1113 Clouds 2 1031 59 10000 0.5 350 10:40 05.01.2020
1114 Clear 3 1030 44 10000 0.68 327 10:20 05.01.2020
1115 Haze 4 1030 51 9000 0.5 200 09:42 05.01.2020
1116 Clouds 4 1030 35 10000 0.68 327 09:22 05.01.2020
1117 Clouds 5 1032 38 10000 0.5 280 08:54 05.01.2020
1118 Clear 6 1030 33 10000 0.68 327 08:35 05.01.2020
1119 Haze 6 1031 35 4800 1 310 07:59 05.01.2020
1120 Clear 6 1029 33 10000 0.5 220 07:39 05.01.2020
1121 Clouds 6 1029 33 10000 1.5 160 07:20 05.01.2020
1122 Clear 6 1031 35 10000 1.5 340 06:44 05.01.2020
1123 Clear 5 1029 41 10000 1.5 220 05:38 05.01.2020
1124 Clear 4 1031 38 10000 1 220 04:55 05.01.2020
1125 Clear 3 1031 38 10000 0.55 60 04:18 05.01.2020
1126 Clear 3 1031 38 10000 0.55 60 04:18 05.01.2020
1127 Clear 3 1031 38 10000 0.55 60 04:18 05.01.2020
1128 Clear 1 1031 51 10000 0.55 60 03:18 05.01.2020
1129 Clear -2 1032 59 10000 0.55 60 02:32 05.01.2020
1130 Haze -4 1034 79 6000 0.5 40 01:49 05.01.2020
1131 Clear -4 1031 86 10000 0.11 332 01:20 05.01.2020
1132 Clear -7 1033 92 4800 0.5 150 00:56 05.01.2020
1133 Clear -7 1031 92 6000 0.5 40 00:37 05.01.2020
1134 Clear -7 1031 85 10000 0.11 332 00:19 05.01.2020
1135 Clear -6 1031 100 6000 0.5 170 23:40 04.01.2020
1136 Clear -6 1030 79 10000 0.48 302 23:20 04.01.2020
1137 Clear -6 1030 92 6000 0.5 170 22:40 04.01.2020
1138 Clear -6 1030 79 10000 0.48 302 22:22 04.01.2020
1139 Clear -5 1030 92 6000 0.5 140 21:58 04.01.2020
1140 Clear -5 1029 100 6000 0.5 70 21:40 04.01.2020
1141 Clear -5 1029 73 10000 0.48 302 21:21 04.01.2020
1142 Clear -5 1030 92 6000 0.5 90 20:59 04.01.2020
1143 Clear -5 1029 100 6000 0.48 302 20:40 04.01.2020
1144 Clear -5 1029 73 10000 0.71 290 20:22 04.01.2020
1145 Clear -4 1030 92 6000 0.5 190 19:57 04.01.2020
1146 Clear -4 1029 92 6000 0.5 180 19:38 04.01.2020
1147 Clear -4 1029 74 10000 0.71 290 19:20 04.01.2020
1148 Clear -4 1029 85 6000 0.71 290 18:56 04.01.2020
1149 Clear -5 1029 92 6000 0.5 180 18:37 04.01.2020
1150 Clear -4 1028 73 10000 0.71 290 18:19 04.01.2020
1151 Clear -4 1028 85 6000 0.5 230 17:41 04.01.2020
1152 Clear -3 1028 63 10000 0.95 268 17:23 04.01.2020
1153 Haze -3 1029 79 6000 1 130 16:58 04.01.2020
1154 Clouds -3 1028 92 6000 0.5 150 16:39 04.01.2020
1155 Clear -2 1028 55 10000 1.5 320 16:21 04.01.2020
1156 Haze -2 1028 85 9000 0.5 130 15:55 04.01.2020
1157 Clear -2 1028 85 6000 0.5 170 15:37 04.01.2020
1158 Clear -2 1028 58 10000 0.95 268 15:18 04.01.2020
1159 Clear -1 1028 79 10000 0.95 268 14:42 04.01.2020
1160 Clear -1 1027 46 10000 1.24 283 14:20 04.01.2020
1161 Clear 0 1028 74 10000 1.24 283 13:59 04.01.2020
1162 Clear 0 1028 74 10000 1.24 283 13:59 04.01.2020
1163 Haze 0 1027 74 8000 0.5 290 13:38 04.01.2020
1164 Clear 0 1027 44 10000 1.5 300 13:19 04.01.2020
1165 Clear 1 1028 63 10000 0.5 120 12:57 04.01.2020
1166 Haze 1 1027 68 8000 0.5 150 12:39 04.01.2020
1167 Haze 1 1027 68 8000 0.5 150 12:39 04.01.2020
1168 Clear 1 1027 48 10000 1.22 278 12:18 04.01.2020
1169 Clear 1 1027 48 10000 1.22 278 12:18 04.01.2020
1170 Clear 2 1027 55 10000 0.5 260 11:56 04.01.2020
1171 Haze 2 1026 46 9000 0.5 140 11:37 04.01.2020
1172 Clear 2 1026 44 10000 2.48 302 11:18 04.01.2020
1173 Clear 3 1026 48 10000 1.5 270 10:40 04.01.2020
1174 Clear 3 1026 48 10000 2.48 302 10:21 04.01.2020
1175 Clear 4 1026 44 10000 2.1 250 09:47 04.01.2020
1176 Clear 5 1025 41 10000 2.48 302 09:26 04.01.2020
1177 Clear 6 1027 41 10000 1.5 300 08:49 04.01.2020
1178 Clear 6 1025 41 10000 2.48 302 08:29 04.01.2020
1179 Clear 7 1026 35 10000 2.6 320 07:57 04.01.2020
1180 Clear 7 1024 30 10000 2.1 320 07:39 04.01.2020
1181 Clear 7 1026 35 10000 2.1 290 06:44 04.01.2020
1182 Clear 6 1025 45 10000 4.6 250 05:59 04.01.2020
1183 Haze 5 1026 51 8000 0.5 260 04:52 04.01.2020
1184 Clear 4 1025 56 10000 1.5 180 04:31 04.01.2020
1185 Clouds 2 1026 59 10000 1.3 292 03:30 04.01.2020
1186 Haze 0 1028 74 6000 2.1 70 02:52 04.01.2020
1187 Clouds -1 1026 69 10000 0.4 1 02:18 04.01.2020
1188 Haze -2 1028 79 4800 0.5 70 01:45 04.01.2020
1189 Clouds -2 1025 80 10000 0.4 1 01:27 04.01.2020
1190 Clouds -3 1025 74 10000 0.43 352 00:29 04.01.2020
1191 Mist -3 1027 85 4800 1 70 23:59 03.01.2020
1192 Mist -3 1027 85 4800 1 70 23:59 03.01.2020
1193 Clouds -4 1025 92 6000 0.43 352 23:37 03.01.2020
1194 Clouds -4 1025 80 10000 0.1 94 23:18 03.01.2020
1195 Clouds -5 1025 92 6000 0.5 200 22:40 03.01.2020
1196 Clouds -5 1025 86 10000 0.1 94 22:19 03.01.2020
1197 Clear -6 1026 100 4800 1 120 21:57 03.01.2020
1198 Clear -6 1025 92 6000 0.5 30 21:38 03.01.2020
1199 Mist -6 1025 85 9000 0.1 94 21:19 03.01.2020
1200 Mist -6 1027 92 4000 0.5 40 20:55 03.01.2020
1201 Clouds -6 1026 92 6000 0.5 160 20:37 03.01.2020
1202 Mist -5 1025 85 9000 0.62 217 20:18 03.01.2020
1203 Mist -5 1027 92 3200 0.5 100 19:54 03.01.2020
1204 Clouds -6 1026 92 6000 0.5 170 19:36 03.01.2020
1205 Clear -5 1025 85 10000 0.62 217 19:18 03.01.2020
1206 Clouds -5 1026 85 6000 0.5 200 18:39 03.01.2020
1207 Clouds -5 1026 85 6000 0.5 200 18:39 03.01.2020
1208 Clear -5 1025 85 10000 0.62 217 18:20 03.01.2020
1209 Clouds -4 1025 85 6000 0.5 180 17:42 03.01.2020
1210 Mist -5 1027 92 4000 0.5 140 17:22 03.01.2020
1211 Clear -4 1027 92 4800 0.5 60 16:59 03.01.2020
1212 Clear -4 1025 85 6000 0.5 180 16:40 03.01.2020
1213 Clear -4 1025 73 10000 0.47 104 16:21 03.01.2020
1214 Clear -3 1026 85 6000 0.47 104 15:42 03.01.2020
1215 Clear -3 1026 73 10000 0.47 104 15:19 03.01.2020
1216 Haze -3 1026 79 8000 0.47 104 14:40 03.01.2020
1217 Haze -2 1028 79 6000 0.57 242 14:21 03.01.2020
1218 Haze -2 1028 73 6000 1 120 13:59 03.01.2020
1219 Haze -2 1027 73 9000 0.5 170 13:40 03.01.2020
1220 Clear -2 1026 63 10000 0.92 252 13:22 03.01.2020
1221 Haze -1 1026 73 9000 0.5 160 12:41 03.01.2020
1222 Clear -1 1026 45 10000 0.92 252 12:22 03.01.2020
1223 Haze 0 1028 63 6000 1 180 11:57 03.01.2020
1224 Haze 0 1028 63 6000 1 180 11:57 03.01.2020
1225 Haze 0 1026 68 9000 0.5 280 11:39 03.01.2020
1226 Clear 1 1028 63 10000 0.5 240 10:59 03.01.2020
1227 Clear 1 1027 59 10000 2.1 280 10:40 03.01.2020
1228 Clear 1 1026 51 10000 0.8 295 10:22 03.01.2020
1229 Clear 3 1027 50 10000 1 220 09:55 03.01.2020
1230 Haze 3 1025 55 9000 0.5 170 09:37 03.01.2020
1231 Clear 3 1025 41 10000 0.8 295 09:19 03.01.2020
1232 Clear 5 1026 30 10000 1 310 08:45 03.01.2020
1233 Clear 5 1026 35 10000 1.5 10 08:23 03.01.2020
1234 Clear 5 1028 35 10000 1 230 07:56 03.01.2020
1235 Clear 5 1026 35 10000 2.1 250 07:37 03.01.2020
1236 Clear 5 1026 41 10000 1 270 07:18 03.01.2020
1237 Clear 5 1025 38 10000 1.5 230 06:42 03.01.2020
1238 Clear 4 1026 29 10000 2.1 220 06:22 03.01.2020
1239 Clear 3 1027 37 10000 3.6 280 04:59 03.01.2020
1240 Mist 1 1027 41 3200 1 190 03:38 03.01.2020
1241 Mist -1 1030 100 2000 0.5 300 02:53 03.01.2020
1242 Mist -1 1030 100 2000 0.5 300 02:53 03.01.2020
1243 Mist -3 1030 100 1600 0.5 60 01:51 03.01.2020
1244 Mist -4 1028 92 6000 1.48 311 01:31 03.01.2020
1245 Mist -5 1028 100 2800 1.63 306 00:40 03.01.2020
1246 Mist -5 1027 92 4400 1.63 306 00:20 03.01.2020
1247 Mist -4 1027 100 2400 0.5 150 23:39 02.01.2020
1248 Mist -4 1027 92 6000 0.91 304 23:20 02.01.2020
1249 Fog -4 1029 92 400 0.5 350 22:58 02.01.2020
1250 Mist -4 1027 100 2400 1 160 22:40 02.01.2020
1251 Mist -4 1027 80 9000 0.91 304 22:19 02.01.2020
1252 Fog -3 1029 92 0 0.91 304 21:55 02.01.2020
1253 Mist -3 1027 100 2400 0.5 170 21:37 02.01.2020
1254 Mist -3 1028 100 3500 2.1 330 21:18 02.01.2020
1255 Mist -3 1029 92 2000 0.91 304 20:56 02.01.2020
1256 Mist -3 1027 100 2800 1 190 20:37 02.01.2020
1257 Mist -3 1027 92 8000 1.04 288 20:18 02.01.2020
1258 Mist -3 1029 92 2000 1.04 288 19:54 02.01.2020
1259 Mist -2 1028 86 8000 1.04 288 19:36 02.01.2020
1260 Mist -3 1028 86 8000 1.04 288 19:36 02.01.2020
1261 Mist -2 1028 86 8000 1.04 288 19:18 02.01.2020
1262 Mist -2 1028 100 2800 0.5 240 18:42 02.01.2020
1263 Clear -2 1028 68 10000 1.04 288 18:23 02.01.2020
1264 Mist -2 1030 100 1600 0.5 140 17:58 02.01.2020
1265 Mist -2 1030 100 1600 0.5 140 17:58 02.01.2020
1266 Mist -2 1028 100 3200 1.04 288 17:38 02.01.2020
1267 Mist -1 1030 100 1600 0.5 170 17:20 02.01.2020
1268 Clouds -1 1029 75 4800 1 250 16:58 02.01.2020
1269 Mist -1 1028 92 3200 1 180 16:40 02.01.2020
1270 Mist -1 1028 92 3200 1 180 16:40 02.01.2020
1271 Clear -1 1028 75 10000 1.48 309 16:20 02.01.2020
1272 Clear -1 1028 75 10000 1.48 309 16:20 02.01.2020
1273 Mist -1 1030 92 1200 1.48 309 15:57 02.01.2020
1274 Mist -1 1030 92 1600 0.5 120 15:39 02.01.2020
1275 Mist -1 1028 92 4000 1 180 15:19 02.01.2020
1276 Mist -1 1030 100 1600 0.5 140 14:55 02.01.2020
1277 Mist -1 1030 92 1600 0.5 100 14:36 02.01.2020
1278 Mist 0 1029 92 4000 0.5 180 14:18 02.01.2020
1279 Mist 0 1030 92 2000 0.5 120 13:47 02.01.2020
1280 Mist 0 1030 92 2000 0.5 150 13:29 02.01.2020
1281 Clear 1 1028 86 4800 0.5 180 12:45 02.01.2020
1282 Mist 1 1030 100 3200 0.7 297 12:25 02.01.2020
1283 Mist 1 1030 100 3200 0.7 297 11:57 02.01.2020
1284 Mist 1 1030 86 4000 1 140 11:37 02.01.2020
1285 Mist 1 1030 86 4000 1 140 11:19 02.01.2020
1286 Haze 2 1028 74 6000 0.5 90 10:39 02.01.2020
1287 Clouds 2 1028 69 10000 0.25 316 10:19 02.01.2020
1288 Haze 3 1029 74 6000 0.5 350 09:42 02.01.2020
1289 Clouds 3 1028 64 10000 0.25 316 09:24 02.01.2020
1290 Haze 4 1029 69 8000 1 150 08:45 02.01.2020
1291 Haze 4 1029 69 8000 1 150 08:45 02.01.2020
1292 Clouds 3 1028 60 10000 0.25 316 08:27 02.01.2020
1293 Haze 4 1030 64 8000 1 300 07:50 02.01.2020
1294 Clouds 4 1028 60 10000 0.87 276 07:30 02.01.2020
1295 Haze 4 1029 64 9000 1 110 06:45 02.01.2020
1296 Clouds 4 1028 60 10000 0.87 276 06:26 02.01.2020
1297 Haze 3 1030 64 9000 0.5 20 04:53 02.01.2020
1298 Clouds 2 1029 64 10000 1.2 163 04:30 02.01.2020
1299 Clouds 1 1030 69 10000 1.2 163 02:32 02.01.2020
1300 Haze 0 1032 86 8000 0.5 50 01:58 02.01.2020
1301 Clouds 0 1030 74 10000 0.82 115 01:33 02.01.2020
1302 Haze -1 1032 86 6000 1 70 00:57 02.01.2020
1303 Clouds -1 1030 69 10000 0.69 99 00:33 02.01.2020
1304 Clouds -1 1032 86 6000 0.5 330 23:49 01.01.2020
1305 Clouds -1 1030 83 10000 0.69 99 23:26 01.01.2020
1306 Clouds -1 1031 86 6000 0.5 10 22:55 01.01.2020
1307 Clouds -1 1030 86 6000 0.53 122 22:37 01.01.2020
1308 Clouds -1 1030 78 10000 0.53 122 22:18 01.01.2020
1309 Clouds -1 1031 86 9000 0.53 122 21:42 01.01.2020
1310 Clouds -1 1030 78 10000 0.53 122 21:21 01.01.2020
1311 Haze -1 1031 86 6000 0.5 60 20:59 01.01.2020
1312 Clouds -1 1030 86 6000 0.5 40 20:39 01.01.2020
1313 Clouds -1 1030 68 10000 0.44 66 20:21 01.01.2020
1314 Haze -1 1031 86 6000 0.5 50 19:58 01.01.2020
1315 Haze -1 1031 86 6000 0.5 50 19:58 01.01.2020
1316 Clouds -1 1030 92 6000 0.44 66 19:39 01.01.2020
1317 Clouds -1 1030 68 10000 0.44 66 19:20 01.01.2020
1318 Clouds -1 1032 86 6000 0.5 40 18:57 01.01.2020
1319 Clouds -1 1030 92 6000 0.5 320 18:39 01.01.2020
1320 Clouds -1 1030 68 10000 0.44 66 18:20 01.01.2020
1321 Clouds -2 1031 92 6000 0.5 60 17:59 01.01.2020
1322 Clouds -2 1030 92 6000 0.5 170 17:40 01.01.2020
1323 Clouds -2 1030 74 10000 0.46 112 17:20 01.01.2020
1324 Clouds -1 1032 92 6000 0.5 340 16:58 01.01.2020
1325 Clouds -1 1031 92 6000 0.5 160 16:38 01.01.2020
1326 Clouds -2 1031 74 10000 0.46 112 16:19 01.01.2020
1327 Clouds -1 1033 92 4800 0.5 270 15:56 01.01.2020
1328 Clouds -2 1032 92 6000 0.5 170 15:37 01.01.2020
1329 Clouds -2 1031 74 10000 0.46 112 15:19 01.01.2020
1330 Clouds -1 1033 92 6000 1 90 14:42 01.01.2020
1331 Clouds -1 1031 80 10000 0.64 121 14:24 01.01.2020
1332 Clouds -1 1033 92 6000 0.5 100 13:57 01.01.2020
1333 Clouds -1 1031 86 6000 1 170 13:38 01.01.2020
1334 Clouds -1 1031 79 10000 0.56 133 13:19 01.01.2020
1335 Clouds -1 1032 74 10000 2.1 130 12:57 01.01.2020
1336 Clouds -1 1031 79 8000 0.5 160 12:39 01.01.2020
1337 Clouds -1 1031 69 10000 0.56 133 12:19 01.01.2020
1338 Clouds -1 1033 86 10000 0.5 310 11:56 01.01.2020
1339 Clouds -1 1033 86 10000 0.5 310 11:56 01.01.2020
1340 Haze -1 1031 79 9000 0.5 140 11:37 01.01.2020
1341 Clouds 0 1031 76 10000 0.46 298 11:18 01.01.2020
1342 Clear 0 1033 79 10000 0.5 160 10:54 01.01.2020
1343 Clouds 0 1031 79 10000 1 170 10:36 01.01.2020
1344 Clouds 0 1031 69 10000 0.46 298 10:18 01.01.2020
1345 Clouds 0 1031 74 10000 1 240 09:38 01.01.2020
1346 Clouds 0 1031 69 10000 0.46 298 09:19 01.01.2020
1347 Clouds 0 1031 69 10000 0.46 298 09:19 01.01.2020
1348 Clouds 0 1033 76 10000 1.5 210 08:56 01.01.2020
1349 Clouds 0 1031 74 10000 2.1 210 08:37 01.01.2020
1350 Clouds 0 1031 69 10000 2.25 283 08:19 01.01.2020
1351 Clouds 0 1033 62 10000 1.5 230 07:54 01.01.2020
1352 Clouds 0 1031 68 10000 1.5 200 07:36 01.01.2020
1353 Clouds 0 1032 62 10000 1 270 06:45 01.01.2020
1354 Clouds -1 1031 62 10000 2.25 283 06:21 01.01.2020
1355 Haze -2 1031 80 9000 1.5 40 05:22 01.01.2020
1356 Mist -3 1033 86 6000 0.3 294 03:46 01.01.2020
1357 Clouds -3 1033 86 4800 0.3 294 03:23 01.01.2020
1358 Clouds -3 1033 79 6000 0.3 294 02:57 01.01.2020
1359 Haze -4 1034 79 8000 1 190 02:35 01.01.2020
1360 Haze -4 1035 79 9000 0.5 20 01:57 01.01.2020
1361 Haze -4 1034 85 4800 0.5 170 01:38 01.01.2020
1362 Clouds -4 1033 79 6000 0.81 116 01:19 01.01.2020
1363 Clouds -5 1033 73 10000 0.81 116 00:44 01.01.2020
1364 Clouds -5 1032 68 10000 0.81 116 00:25 01.01.2020
1365 Clouds -5 1033 67 10000 1 140 23:41 31.12.2019
1366 Clouds -5 1032 62 10000 1.17 163 23:21 31.12.2019
1367 Clouds -5 1034 79 10000 1.17 163 22:57 31.12.2019
1368 Clouds -5 1033 62 10000 1.5 170 22:39 31.12.2019
1369 Clouds -5 1032 58 10000 1.17 163 22:20 31.12.2019
1370 Haze -5 1034 73 8000 1 20 21:57 31.12.2019
1371 Clouds -6 1032 62 10000 1 160 21:38 31.12.2019
1372 Clouds -6 1032 62 10000 1 160 21:38 31.12.2019
1373 Clouds -6 1032 62 10000 1.17 163 21:20 31.12.2019
1374 Clouds -6 1034 67 10000 1 20 20:55 31.12.2019
1375 Clouds -6 1032 57 10000 2.1 180 20:36 31.12.2019
1376 Snow -6 1032 62 10000 1.46 171 20:18 31.12.2019
1377 Clouds -6 1033 57 10000 1 180 19:42 31.12.2019
1378 Clouds -6 1032 57 10000 1.46 171 19:24 31.12.2019
1379 Clouds -5 1032 53 10000 1.46 171 18:59 31.12.2019
1380 Clouds -5 1033 57 10000 1 190 18:40 31.12.2019
1381 Clouds -6 1032 45 10000 1.46 171 18:20 31.12.2019
1382 Clouds -6 1034 62 10000 1 50 17:56 31.12.2019
1383 Clouds -6 1033 62 10000 0.5 200 17:38 31.12.2019
1384 Clouds -6 1033 45 10000 0.18 135 17:19 31.12.2019
1385 Clouds -6 1035 48 10000 0.18 135 16:57 31.12.2019
1386 Clouds -7 1033 57 10000 1 150 16:38 31.12.2019
1387 Clouds -7 1033 49 10000 0.18 135 16:19 31.12.2019
1388 Clouds -7 1034 57 10000 0.18 135 15:56 31.12.2019
1389 Clouds -8 1034 61 10000 1 120 15:38 31.12.2019
1390 Clouds -8 1034 61 10000 1 120 15:38 31.12.2019
1391 Clouds -8 1034 57 10000 0.18 135 15:20 31.12.2019
1392 Clouds -8 1035 57 10000 0.5 160 14:57 31.12.2019
1393 Clear -8 1034 61 10000 1 120 14:38 31.12.2019
1394 Clear -8 1034 57 10000 2.95 317 14:19 31.12.2019
1395 Clear -7 1035 56 10000 1.5 120 13:56 31.12.2019
1396 Clear -7 1034 57 10000 1 170 13:38 31.12.2019
1397 Clear -7 1035 44 10000 2.74 321 13:20 31.12.2019
1398 Clear -7 1036 48 10000 0.5 150 12:56 31.12.2019
1399 Clear -7 1035 34 10000 2.1 300 12:38 31.12.2019
1400 Clear -6 1035 44 10000 2.1 300 12:19 31.12.2019
1401 Clear -6 1037 44 10000 1.5 300 11:55 31.12.2019
1402 Clear -7 1034 37 10000 1.5 230 11:37 31.12.2019
1403 Clear -7 1034 37 10000 1.5 230 11:37 31.12.2019
1404 Clear -7 1035 41 10000 4.37 312 11:19 31.12.2019
1405 Clear -6 1037 44 10000 1 310 10:56 31.12.2019
1406 Clear -6 1034 35 10000 1 210 10:37 31.12.2019
1407 Clear -6 1035 41 10000 4.37 312 10:19 31.12.2019
1408 Clear -5 1035 32 10000 3.6 260 09:57 31.12.2019
1409 Clear -5 1034 29 10000 0.5 240 09:38 31.12.2019
1410 Clear -5 1035 35 10000 4.37 312 09:19 31.12.2019
1411 Clear -4 1034 27 10000 2.1 280 08:42 31.12.2019
1412 Clear -4 1034 35 10000 2.6 200 08:23 31.12.2019
1413 Clear -5 1036 29 10000 1.5 290 07:57 31.12.2019
1414 Clear -5 1034 27 10000 2.6 280 07:38 31.12.2019
1415 Clear -5 1035 35 10000 4.91 316 07:18 31.12.2019
1416 Clear -5 1034 27 10000 2.6 340 06:40 31.12.2019
1417 Clear -6 1035 34 10000 3.1 270 04:58 31.12.2019
1418 Clear -6 1036 41 10000 5.15 315 04:25 31.12.2019
1419 Clear -8 1036 40 10000 3.1 270 02:59 31.12.2019
1420 Clear -8 1036 37 10000 1.5 270 02:34 31.12.2019
1421 Clear -9 1036 47 10000 2.6 250 01:51 31.12.2019
1422 Clear -9 1036 40 10000 1.5 350 01:32 31.12.2019
1423 Clear -10 1036 47 10000 3.6 280 00:49 31.12.2019
1424 Clear -9 1035 47 10000 2.1 330 00:26 31.12.2019
1425 Clear -9 1035 47 10000 2.1 280 23:59 30.12.2019
1426 Clear -9 1034 56 10000 0.5 210 23:41 30.12.2019
1427 Clear -9 1034 52 10000 4.6 260 23:23 30.12.2019
1428 Clear -9 1035 52 10000 3.1 270 22:59 30.12.2019
1429 Clouds -9 1034 52 10000 1.5 220 22:41 30.12.2019
1430 Clear -9 1034 47 10000 2.1 320 22:22 30.12.2019
1431 Clear -9 1034 56 10000 4.6 270 21:57 30.12.2019
1432 Clear -9 1033 56 10000 1.5 320 21:39 30.12.2019
1433 Clear -9 1033 56 10000 1.5 320 21:39 30.12.2019
1434 Clear -9 1034 56 10000 1.5 300 21:20 30.12.2019
1435 Clear -8 1033 52 10000 5.1 270 20:59 30.12.2019
1436 Clear -8 1033 52 10000 5.1 270 20:41 30.12.2019
1437 Clear -8 1033 52 10000 3.1 300 20:20 30.12.2019
1438 Clouds -7 1032 57 10000 5.1 280 19:59 30.12.2019
1439 Clouds -7 1031 57 10000 2.1 290 19:40 30.12.2019
1440 Clouds -7 1032 57 10000 7.54 311 19:20 30.12.2019
1441 Clouds -7 1031 57 10000 3.6 260 18:59 30.12.2019
1442 Clouds -6 1030 52 10000 1 30 18:41 30.12.2019
1443 Clouds -6 1031 57 10000 1.5 320 18:20 30.12.2019
1444 Clouds -6 1030 62 10000 1.5 310 17:57 30.12.2019
1445 Clouds -6 1029 53 10000 1 170 17:39 30.12.2019
1446 Clouds -6 1030 62 10000 2.1 290 17:19 30.12.2019
1447 Clouds -5 1029 62 10000 2.6 320 16:58 30.12.2019
1448 Haze -4 1028 62 4800 1.5 150 16:37 30.12.2019
1449 Snow -4 1028 58 10000 2.1 260 16:19 30.12.2019
1450 Clouds -3 1028 53 10000 4.1 240 15:56 30.12.2019
1451 Clouds -3 1027 53 10000 1.5 310 15:37 30.12.2019
1452 Clouds -3 1028 58 10000 1.5 320 15:18 30.12.2019
1453 Clouds -2 1030 62 10000 4.6 310 14:43 30.12.2019
1454 Clouds -2 1030 62 10000 4.6 310 14:43 30.12.2019
1455 Clear -2 1027 58 10000 1.5 220 14:20 30.12.2019
1456 Clouds -1 1029 62 10000 3.1 310 13:57 30.12.2019
1457 Clear -1 1025 54 10000 3.1 240 13:39 30.12.2019
1458 Clear -1 1026 58 10000 6.81 294 13:21 30.12.2019
1459 Clouds 0 1026 44 10000 2.1 230 12:56 30.12.2019
1460 Clear 0 1025 44 10000 1.5 280 12:36 30.12.2019
1461 Clouds 1 1025 44 10000 1.5 300 12:18 30.12.2019
1462 Clouds 2 1024 59 10000 2.6 260 11:40 30.12.2019
1463 Clear 2 1025 64 10000 5.82 314 11:19 30.12.2019
1464 Clouds 3 1024 64 10000 2.1 230 10:57 30.12.2019
1465 Haze 3 1023 39 8000 1 240 10:38 30.12.2019
1466 Clear 3 1023 60 10000 5.82 314 10:18 30.12.2019
1467 Clouds 5 1022 65 10000 1 190 09:41 30.12.2019
1468 Clouds 5 1023 39 10000 2.1 320 09:20 30.12.2019
1469 Haze 6 1023 70 9000 2.6 250 08:55 30.12.2019
1470 Clouds 6 1022 70 10000 1.5 340 08:36 30.12.2019
1471 Clouds 6 1022 81 10000 4.43 316 08:18 30.12.2019
1472 Clouds 6 1023 75 7000 4.1 320 08:18 30.12.2019
1473 Clouds 6 1021 87 6000 1 210 07:40 30.12.2019
1474 Haze 6 1023 75 9000 3.1 280 06:55 30.12.2019
1475 Mist 6 1021 93 6000 4.43 316 06:23 30.12.2019
1476 Haze 6 1024 63 8000 0.5 360 03:58 30.12.2019
1477 Clouds 5 1022 81 10000 1.9 254 03:32 30.12.2019
1478 Mist 5 1022 93 4000 0.5 180 02:40 30.12.2019
1479 Clouds 4 1023 69 10000 0.5 60 01:56 30.12.2019
1480 Clouds 4 1022 81 10000 0.51 126 01:25 30.12.2019
1481 Mist 3 1023 93 6000 0.5 350 00:45 30.12.2019
1482 Clouds 3 1022 86 10000 2.1 290 00:23 30.12.2019
1483 Mist 3 1022 100 4000 1 20 23:39 29.12.2019
1484 Clouds 3 1022 100 4800 0.5 350 23:21 29.12.2019
1485 Haze 3 1023 74 9000 1 10 22:55 29.12.2019
1486 Clouds 3 1021 93 6000 0.5 20 22:37 29.12.2019
1487 Clouds 3 1021 86 10000 0.58 353 22:18 29.12.2019
1488 Clouds 3 1022 69 10000 0.58 353 21:43 29.12.2019
1489 Clouds 3 1020 86 10000 0.58 353 21:21 29.12.2019
1490 Clouds 3 1022 64 10000 0.5 350 20:57 29.12.2019
1491 Clouds 3 1021 93 8000 1 30 20:39 29.12.2019
1492 Clouds 3 1022 69 10000 2.6 40 20:21 29.12.2019
1493 Clouds 3 1023 69 10000 1 60 19:59 29.12.2019
1494 Clouds 3 1022 93 6000 1.5 30 19:40 29.12.2019
1495 Clouds 3 1021 86 10000 1.66 64 19:21 29.12.2019
1496 Clouds 3 1023 64 10000 1.5 70 18:58 29.12.2019
1497 Clouds 3 1022 93 6000 2.1 10 18:38 29.12.2019
1498 Clouds 3 1022 80 10000 1.66 64 18:20 29.12.2019
1499 Rain 3 1024 64 10000 3.1 40 17:58 29.12.2019
1500 Rain 3 1022 100 6000 1.5 30 17:39 29.12.2019
1501 Rain 3 1022 86 10000 1.13 120 17:20 29.12.2019
1502 Rain 3 1022 86 10000 1.13 120 16:56 29.12.2019
1503 Rain 3 1023 93 6000 1 40 16:37 29.12.2019
1504 Rain 3 1023 93 6000 1 40 16:37 29.12.2019
1505 Rain 3 1022 86 10000 1.13 120 16:19 29.12.2019
1506 Haze 3 1024 80 6000 1 60 15:57 29.12.2019
1507 Drizzle 3 1023 100 6000 1 30 15:39 29.12.2019
1508 Clouds 3 1023 80 10000 1.13 120 15:20 29.12.2019
1509 Rain 3 1024 74 8000 1.5 50 14:57 29.12.2019
1510 Rain 3 1023 100 4800 1 40 14:38 29.12.2019
1511 Rain 3 1023 86 10000 1.27 83 14:18 29.12.2019
1512 Rain 4 1025 74 9000 1 60 13:57 29.12.2019
1513 Rain 4 1025 74 9000 1 60 13:57 29.12.2019
1514 Rain 4 1024 93 6000 0.5 50 13:38 29.12.2019
1515 Rain 4 1023 75 10000 1.42 94 13:19 29.12.2019
1516 Rain 4 1025 86 9000 1 30 12:45 29.12.2019
1517 Rain 4 1023 57 10000 1.42 94 12:27 29.12.2019
1518 Clouds 5 1025 48 10000 1 30 11:57 29.12.2019
1519 Haze 5 1024 64 9000 0.5 20 11:38 29.12.2019
1520 Clear 5 1023 56 10000 1.96 101 11:20 29.12.2019
1521 Haze 5 1024 64 9000 0.5 360 10:43 29.12.2019
1522 Clouds 5 1024 48 10000 1.96 101 10:24 29.12.2019
1523 Rain 5 1024 56 10000 3.1 170 09:58 29.12.2019
1524 Rain 5 1024 56 10000 3.1 170 09:39 29.12.2019
1525 Clouds 5 1024 45 10000 1.96 101 09:21 29.12.2019
1526 Rain 6 1025 39 10000 0.5 60 08:47 29.12.2019
1527 Rain 6 1024 42 10000 1.5 80 08:27 29.12.2019
1528 Rain 6 1025 39 10000 1 120 07:55 29.12.2019
1529 Rain 6 1024 42 10000 2.09 102 07:28 29.12.2019
1530 Clouds 6 1026 45 10000 1 40 06:55 29.12.2019
1531 Clouds 6 1024 45 10000 2.09 102 06:25 29.12.2019
1532 Clouds 6 1026 48 10000 2.1 60 05:51 29.12.2019
1533 Clouds 5 1026 59 10000 1 30 04:36 29.12.2019
1534 Clouds 4 1027 64 10000 2.1 20 03:51 29.12.2019
1535 Clouds 3 1027 51 10000 2.1 70 03:20 29.12.2019
1536 Clouds 2 1027 55 10000 1.5 92 02:20 29.12.2019
1537 Clouds 1 1027 55 10000 1.44 94 01:31 29.12.2019
1538 Clouds 1 1027 55 10000 1.5 92 01:31 29.12.2019
1539 Clouds 1 1027 55 10000 1.5 92 01:31 29.12.2019
1540 Clouds 0 1028 57 10000 1 50 00:57 29.12.2019
1541 Clouds 0 1028 86 8000 0.5 160 00:39 29.12.2019
1542 Clouds 0 1027 59 10000 1.44 94 00:21 29.12.2019
1543 Clouds -1 1028 92 6000 0.5 170 23:42 28.12.2019
1544 Clouds -1 1028 92 6000 0.5 170 23:42 28.12.2019
1545 Clouds -1 1027 64 10000 1.61 82 23:18 28.12.2019
1546 Clouds -1 1028 92 8000 0.5 160 22:39 28.12.2019
1547 Clouds -1 1028 92 8000 0.5 160 22:39 28.12.2019
1548 Clouds -1 1026 59 10000 1.61 82 22:20 28.12.2019
1549 Haze -1 1028 60 9000 1 60 21:58 28.12.2019
1550 Haze -1 1028 60 9000 1 60 21:58 28.12.2019
1551 Clouds -1 1027 92 6000 0.5 150 21:39 28.12.2019
1552 Clouds -1 1027 64 10000 1.61 82 21:21 28.12.2019
1553 Clouds -1 1027 64 10000 1.61 82 21:21 28.12.2019
1554 Haze -2 1028 60 9000 1.61 82 20:57 28.12.2019
1555 Clouds -2 1028 100 6000 1.61 82 20:37 28.12.2019
1556 Clouds -1 1029 69 10000 1 80 20:19 28.12.2019
1557 Clouds -1 1029 69 10000 1 50 19:55 28.12.2019
1558 Clear -1 1028 59 10000 1.47 83 19:37 28.12.2019
1559 Clear -1 1028 59 10000 1.47 83 19:18 28.12.2019
1560 Clouds -1 1029 69 10000 1 70 18:56 28.12.2019
1561 Clouds -1 1029 92 6000 1.47 83 18:38 28.12.2019
1562 Clear -1 1028 59 10000 1.47 83 18:18 28.12.2019
1563 Clouds -1 1029 86 6000 0.5 200 17:42 28.12.2019
1564 Clouds -1 1029 86 6000 0.5 200 17:42 28.12.2019
1565 Clouds -1 1028 64 10000 1.36 82 17:21 28.12.2019
1566 Clouds 0 1029 55 10000 1 30 16:58 28.12.2019
1567 Clouds -1 1029 86 9000 0.5 160 16:40 28.12.2019
1568 Clear 0 1028 64 10000 1.36 82 16:21 28.12.2019
1569 Haze 0 1029 80 9000 0.5 170 15:43 28.12.2019
1570 Clear 0 1029 64 10000 1.36 82 15:22 28.12.2019
1571 Clouds 1 1030 59 10000 1 160 14:55 28.12.2019
1572 Clouds 1 1029 80 10000 1.36 82 14:37 28.12.2019
1573 Clouds 1 1029 55 10000 1.17 104 14:18 28.12.2019
1574 Haze 1 1029 80 9000 1 180 13:42 28.12.2019
1575 Clouds 1 1028 55 10000 1.19 101 13:21 28.12.2019
1576 Clouds 1 1029 55 10000 1.19 101 12:58 28.12.2019
1577 Clouds 1 1028 80 10000 0.5 360 12:40 28.12.2019
1578 Clouds 2 1028 48 10000 1.19 101 12:21 28.12.2019
1579 Clouds 3 1028 69 10000 1 180 11:40 28.12.2019
1580 Clouds 3 1028 48 10000 1.26 119 11:21 28.12.2019
1581 Clouds 3 1029 51 10000 1 180 10:56 28.12.2019
1582 Clouds 3 1028 64 10000 0.5 160 10:37 28.12.2019
1583 Clouds 3 1027 48 10000 1.26 119 10:19 28.12.2019
1584 Clouds 4 1029 51 10000 0.5 130 09:46 28.12.2019
1585 Clouds 5 1027 45 10000 1.26 119 09:24 28.12.2019
1586 Haze 5 1029 48 8000 1.5 190 08:58 28.12.2019
1587 Clouds 6 1028 48 10000 1 180 08:40 28.12.2019
1588 Clouds 5 1027 45 10000 1.65 168 08:22 28.12.2019
1589 Clouds 5 1028 44 10000 1.5 180 07:43 28.12.2019
1590 Clouds 5 1027 41 10000 1.42 147 07:21 28.12.2019
1591 Clouds 5 1027 41 10000 1 200 05:45 28.12.2019
1592 Clear 1 1029 55 10000 1 10 03:48 28.12.2019
1593 Clear 0 1030 63 10000 2.6 50 02:50 28.12.2019
1594 Clear -1 1029 42 10000 1.5 110 02:20 28.12.2019
1595 Clear -3 1030 73 10000 2.1 70 01:54 28.12.2019
1596 Clear -4 1028 63 10000 1.58 92 01:22 28.12.2019
1597 Clear -6 1029 85 10000 0.5 150 00:45 28.12.2019
1598 Clear -5 1028 63 10000 1.58 92 00:27 28.12.2019
1599 Clear -5 1029 92 4800 0.5 60 23:57 27.12.2019
1600 Clouds -5 1029 85 10000 1.58 92 23:37 27.12.2019
1601 Clear -5 1028 73 10000 1.1 112 23:18 27.12.2019
1602 Clear -6 1029 85 6000 1 60 22:55 27.12.2019
1603 Clouds -6 1029 92 10000 0.5 10 22:37 27.12.2019
1604 Clear -6 1028 73 10000 1.1 112 22:19 27.12.2019
1605 Clouds -6 1028 92 10000 0.5 150 21:41 27.12.2019
1606 Clear -6 1028 73 10000 1.1 112 21:23 27.12.2019
1607 Clear -6 1029 85 8000 0.5 40 20:44 27.12.2019
1608 Haze -6 1029 85 9000 0.5 140 20:26 27.12.2019
1609 Clouds -5 1029 79 10000 0.5 130 19:58 27.12.2019
1610 Clouds -5 1029 79 10000 0.5 130 19:58 27.12.2019
1611 Clouds -5 1029 85 10000 0.5 180 19:40 27.12.2019
1612 Clear -6 1028 73 10000 0.79 111 19:19 27.12.2019
1613 Clouds -5 1029 85 10000 0.5 100 18:55 27.12.2019
1614 Clear -5 1028 85 10000 0.5 150 18:36 27.12.2019
1615 Clear -5 1027 68 10000 0.79 111 18:18 27.12.2019
1616 Clear -5 1028 85 10000 0.5 130 17:42 27.12.2019
1617 Clear -5 1027 73 10000 0.64 120 17:20 27.12.2019
1618 Haze -5 1028 79 8000 0.5 150 16:59 27.12.2019
1619 Clear -5 1028 85 10000 0.5 200 16:41 27.12.2019
1620 Clear -5 1028 85 10000 0.5 200 16:41 27.12.2019
1621 Clear -5 1027 63 10000 0.64 120 16:22 27.12.2019
1622 Clear -4 1028 79 10000 0.5 120 15:56 27.12.2019
1623 Clear -4 1028 73 10000 0.5 170 15:37 27.12.2019
1624 Clear -4 1027 68 10000 0.64 120 15:18 27.12.2019
1625 Clear -3 1028 73 10000 0.5 110 14:55 27.12.2019
1626 Clear -3 1027 68 10000 0.64 120 14:36 27.12.2019
1627 Clear -3 1027 63 10000 0.48 56 14:18 27.12.2019
1628 Clear -3 1027 68 10000 0.48 56 13:43 27.12.2019
1629 Clear -3 1026 58 10000 0.48 56 13:22 27.12.2019
1630 Clear -2 1027 58 10000 0.5 100 12:48 27.12.2019
1631 Clear -2 1026 54 10000 0.69 352 12:29 27.12.2019
1632 Clear -1 1027 58 10000 0.5 120 11:56 27.12.2019
1633 Clear -1 1026 50 10000 0.5 200 11:38 27.12.2019
1634 Clear -1 1026 34 10000 2.23 311 11:19 27.12.2019
1635 Clear 0 1027 54 10000 0.5 160 10:45 27.12.2019
1636 Clear 0 1026 37 10000 2.23 311 10:23 27.12.2019
1637 Clear 1 1026 34 10000 2.6 250 09:50 27.12.2019
1638 -273 0 0 0 0 0 09:22 27.12.2019
1639 Clear 2 1027 43 10000 2.1 240 08:59 27.12.2019
1640 Clear 2 1024 27 10000 3.1 250 08:41 27.12.2019
1641 Clear 2 1024 34 10000 1.5 240 08:22 27.12.2019
1642 Clear 3 1024 29 10000 1.5 200 07:38 27.12.2019
1643 Clear 3 1026 31 10000 3.1 300 06:59 27.12.2019
1644 Clear 2 1024 29 10000 2.1 300 06:23 27.12.2019
1645 Clear 1 1024 40 10000 2.1 180 04:37 27.12.2019
1646 Clear -2 1025 46 10000 2.1 270 02:28 27.12.2019
1647 Haze -3 1024 73 6000 0.5 250 01:42 27.12.2019
1648 Clear -4 1024 63 10000 3.46 306 01:20 27.12.2019
1649 Clear -5 1026 92 4800 0.5 190 00:46 27.12.2019
1650 Clear -5 1023 63 10000 3.46 306 00:25 27.12.2019
1651 Mist -5 1025 92 4000 0.5 30 23:54 26.12.2019
1652 Clouds -5 1023 92 6000 0.5 170 23:36 26.12.2019
1653 Mist -5 1025 92 4000 1 50 23:18 26.12.2019
1654 Clear -5 1022 85 9000 0.5 170 22:38 26.12.2019
1655 Clear -5 1022 68 10000 3.28 300 22:18 26.12.2019
1656 Clear -4 1022 79 10000 1 150 21:40 26.12.2019
1657 Clear -4 1022 68 10000 3.28 300 21:21 26.12.2019
1658 Haze -4 1023 79 6000 0.5 130 20:57 26.12.2019
1659 Clear -4 1021 68 10000 1.5 180 20:38 26.12.2019
1660 Clear -3 1022 63 10000 1.5 320 20:19 26.12.2019
1661 Haze -3 1023 73 8000 0.5 140 19:54 26.12.2019
1662 Clear -3 1021 68 10000 1.5 190 19:36 26.12.2019
1663 Clear -3 1021 63 10000 4.5 307 19:18 26.12.2019
1664 Clear -3 1023 68 10000 0.5 260 18:55 26.12.2019
1665 Clear -3 1023 68 10000 0.5 260 18:55 26.12.2019
1666 Clear -3 1020 68 10000 1 90 18:36 26.12.2019
1667 Clear -3 1021 68 10000 4.5 307 18:18 26.12.2019
1668 Clear -2 1020 58 10000 1.5 310 17:40 26.12.2019
1669 Clear -2 1020 68 10000 1.5 330 17:20 26.12.2019
1670 Clear -1 1021 68 10000 2.6 300 16:48 26.12.2019
1671 Clear -1 1019 63 10000 5.07 305 16:26 26.12.2019
1672 Clear -1 1021 63 10000 1.5 310 15:57 26.12.2019
1673 Clear -1 1019 50 10000 1.5 290 15:38 26.12.2019
1674 Clear -1 1019 68 10000 1.5 290 15:19 26.12.2019
1675 Clear 0 1019 52 10000 4.1 240 14:41 26.12.2019
1676 Clear 0 1018 52 10000 1.5 320 14:23 26.12.2019
1677 Clear 0 1018 52 10000 1.5 320 14:23 26.12.2019
1678 Clear 0 1018 56 10000 4.1 240 13:45 26.12.2019
1679 Clear 0 1018 50 10000 1.5 330 13:26 26.12.2019
1680 Clear 1 1019 50 10000 5.1 290 12:59 26.12.2019
1681 Clear 1 1019 50 10000 5.1 290 12:59 26.12.2019
1682 Clouds 1 1017 64 10000 0.5 310 12:41 26.12.2019
1683 Clouds 1 1017 51 10000 2.1 310 12:23 26.12.2019
1684 Clouds 1 1019 54 10000 5.1 290 11:58 26.12.2019
1685 Clouds 1 1019 54 10000 5.1 290 11:58 26.12.2019
1686 Clouds 1 1016 51 10000 0.5 260 11:40 26.12.2019
1687 Clouds 1 1016 64 10000 5.32 305 11:21 26.12.2019
1688 Clouds 2 1018 50 10000 3.1 280 10:49 26.12.2019
1689 Clear 2 1016 55 10000 1.5 310 10:24 26.12.2019
1690 Clear 2 1018 51 10000 3.6 290 09:54 26.12.2019
1691 Clouds 3 1015 55 10000 2.6 280 09:32 26.12.2019
1692 Clear 3 1017 51 10000 2.1 300 08:57 26.12.2019
1693 Haze 3 1015 64 6000 0.5 220 08:38 26.12.2019
1694 Clouds 4 1017 55 10000 2.1 310 08:20 26.12.2019
1695 Clouds 4 1017 55 10000 2.1 310 08:20 26.12.2019
1696 Rain 4 1017 51 10000 2.1 290 07:31 26.12.2019
1697 Clouds 4 1017 51 10000 2.1 320 06:56 26.12.2019
1698 Haze 3 1015 69 4800 1 310 06:33 26.12.2019
1699 Rain 3 1017 55 10000 2.1 330 05:49 26.12.2019
1700 Rain 3 1018 64 4800 2.1 310 04:59 26.12.2019
1701 Rain 3 1017 62 6000 1.5 320 04:32 26.12.2019
1702 Rain 3 1018 80 6000 1.5 230 03:19 26.12.2019
1703 Rain 2 1018 100 2400 1 180 02:40 26.12.2019
1704 Rain 2 1018 86 8000 1.1 290 02:19 26.12.2019
1705 Rain 2 1018 66 9000 1.5 230 01:41 26.12.2019
1706 -273 0 0 0 0 0 01:22 26.12.2019
1707 Rain 2 1018 86 4800 0.5 120 00:41 26.12.2019
1708 Rain 2 1018 66 9000 1.05 298 00:22 26.12.2019
1709 Haze 2 1018 86 8000 1 350 23:42 25.12.2019
1710 Clouds 2 1018 69 10000 1.08 353 23:21 25.12.2019
1711 Haze 2 1019 74 6000 1 20 22:59 25.12.2019
1712 Haze 2 1017 86 8000 1 30 22:40 25.12.2019
1713 Clouds 1 1017 74 10000 1.08 353 22:22 25.12.2019
1714 Haze 1 1019 74 8000 0.5 350 21:59 25.12.2019
1715 Haze 1 1018 86 8000 0.5 20 21:40 25.12.2019
1716 Clouds 1 1018 74 10000 1.08 353 21:21 25.12.2019
1717 Clouds 1 1018 74 10000 1.08 353 21:21 25.12.2019
1718 Haze 1 1020 69 9000 0.5 290 20:57 25.12.2019
1719 Haze 1 1018 80 8000 1.5 30 20:39 25.12.2019
1720 Clouds 1 1018 74 10000 1.25 330 20:18 25.12.2019
1721 Clouds 1 1018 74 10000 1.25 330 20:18 25.12.2019
1722 Haze 1 1019 86 8000 1 350 19:43 25.12.2019
1723 Haze 1 1019 86 8000 1 350 19:43 25.12.2019
1724 Clouds 1 1019 74 10000 1.25 330 19:25 25.12.2019
1725 Clouds 1 1021 69 10000 2.6 30 18:58 25.12.2019
1726 Haze 1 1020 80 9000 1 30 18:37 25.12.2019
1727 Clouds 1 1020 69 10000 1.25 330 18:19 25.12.2019
1728 Haze 1 1020 80 9000 0.5 30 17:42 25.12.2019
1729 Clouds 1 1020 69 10000 1.1 333 17:20 25.12.2019
1730 Haze 1 1022 80 6000 0.5 330 16:58 25.12.2019
1731 Haze 1 1021 80 9000 0.5 20 16:38 25.12.2019
1732 Clouds 1 1021 64 10000 1.1 333 16:19 25.12.2019
1733 Haze 1 1021 80 9000 1 20 15:57 25.12.2019
1734 Haze 1 1021 80 9000 1 20 15:39 25.12.2019
1735 Haze 1 1023 80 6000 0.5 170 15:20 25.12.2019
1736 Haze 1 1023 80 6000 1 320 14:57 25.12.2019
1737 Haze 1 1021 74 9000 0.5 60 14:39 25.12.2019
1738 Haze 1 1021 74 9000 0.5 60 14:39 25.12.2019
1739 Clouds 1 1021 74 10000 0.73 53 14:20 25.12.2019
1740 Haze 1 1023 80 6000 0.5 360 13:44 25.12.2019
1741 Clouds 1 1021 74 10000 0.56 12 13:21 25.12.2019
1742 Haze 1 1023 48 6000 0.5 340 12:57 25.12.2019
1743 Haze 1 1022 48 8000 0.5 110 12:38 25.12.2019
1744 Clear 1 1022 69 10000 0.56 12 12:19 25.12.2019
1745 Haze 1 1022 48 8000 0.5 200 11:43 25.12.2019
1746 Clear 2 1021 64 10000 1.23 329 11:22 25.12.2019
1747 Haze 3 1023 69 6000 1 120 10:58 25.12.2019
1748 Clear 3 1022 69 10000 0.5 40 10:36 25.12.2019
1749 Clear 3 1022 56 10000 1.23 329 10:18 25.12.2019
1750 Clear 5 1022 64 10000 0.5 140 09:43 25.12.2019
1751 Clouds 5 1022 56 10000 1.5 300 09:25 25.12.2019
1752 Clear 5 1023 41 10000 0.5 200 08:45 25.12.2019
1753 Clouds 6 1025 52 10000 1 230 08:25 25.12.2019
1754 Haze 6 1024 56 9000 0.5 310 07:45 25.12.2019
1755 Clouds 6 1022 36 10000 1.23 309 07:23 25.12.2019
1756 Haze 6 1022 56 9000 1.5 180 06:41 25.12.2019
1757 Clouds 5 1022 38 10000 1.5 160 06:21 25.12.2019
1758 Haze 3 1025 69 4800 0.5 350 04:47 25.12.2019
1759 Clouds 2 1024 60 10000 1.5 100 04:25 25.12.2019
1760 Haze 1 1026 80 4800 0.5 340 03:46 25.12.2019
1761 Clouds 0 1026 74 10000 2.1 120 03:18 25.12.2019
1762 Clouds -2 1026 80 10000 0.12 20 02:30 25.12.2019
1763 Mist -3 1028 92 4000 0.5 30 01:53 25.12.2019
1764 Mist -3 1026 92 9000 0.46 79 01:22 25.12.2019
1765 Mist -4 1027 100 3200 0.5 240 00:42 25.12.2019
1766 Mist -4 1026 86 8000 0.46 79 00:23 25.12.2019
1767 Mist -4 1026 100 3200 1.5 20 23:40 24.12.2019
1768 Mist -4 1025 92 9000 0.64 106 23:20 24.12.2019
1769 Snow -4 1026 100 1200 1.5 120 22:42 24.12.2019
1770 Mist -4 1024 86 8000 0.64 106 22:24 24.12.2019
1771 Mist -4 1026 100 3200 1 20 21:59 24.12.2019
1772 Fog -4 1026 100 400 1 120 21:41 24.12.2019
1773 Fog -4 1026 100 400 1 120 21:41 24.12.2019
1774 Mist -4 1024 92 9000 0.64 106 21:20 24.12.2019
1775 Mist -4 1025 100 3200 0.5 100 20:42 24.12.2019
1776 Mist -4 1025 92 8000 0.78 41 20:23 24.12.2019
1777 Mist -4 1027 100 2000 0.5 350 19:55 24.12.2019
1778 Mist -4 1026 100 2400 1 10 19:37 24.12.2019
1779 Mist -4 1025 86 8000 0.78 41 19:18 24.12.2019
1780 Mist -4 1025 86 8000 0.78 41 19:18 24.12.2019
1781 Mist -3 1026 100 1600 1.5 30 18:42 24.12.2019
1782 Mist -3 1026 86 9000 0.78 41 18:19 24.12.2019
1783 Mist -3 1026 100 3200 1 30 17:44 24.12.2019
1784 Mist -3 1026 92 9000 0.78 41 17:22 24.12.2019
1785 Mist -3 1026 92 9000 1.01 101 17:22 24.12.2019
1786 Mist -3 1027 100 3200 0.5 80 16:58 24.12.2019
1787 Mist -3 1026 100 3200 0.5 130 16:40 24.12.2019
1788 Clear -3 1026 86 10000 1.01 101 16:21 24.12.2019
1789 Mist -3 1028 92 3200 1.01 101 15:57 24.12.2019
1790 Mist -3 1027 100 3200 0.5 110 15:37 24.12.2019
1791 Clear -3 1026 86 10000 1.01 101 15:19 24.12.2019
1792 Mist -2 1028 92 4800 1 110 14:58 24.12.2019
1793 Mist -3 1027 100 3200 0.5 20 14:40 24.12.2019
1794 Clear -2 1026 80 10000 0.82 41 14:21 24.12.2019
1795 Clear -2 1026 80 10000 0.82 41 14:21 24.12.2019
1796 Clear -2 1028 92 4800 0.82 41 13:56 24.12.2019
1797 Mist -1 1027 100 4000 0.5 110 13:38 24.12.2019
1798 Clear -1 1026 80 10000 0.92 83 13:19 24.12.2019
1799 Haze -1 1028 79 6000 1.5 60 12:56 24.12.2019
1800 Mist -1 1027 100 4000 0.5 130 12:37 24.12.2019
1801 Clear -1 1026 74 10000 0.92 83 12:19 24.12.2019
1802 Clear -1 1028 74 10000 1 140 11:56 24.12.2019
1803 Clear -1 1026 92 4800 0.5 200 11:37 24.12.2019
1804 Clear -1 1026 92 4800 0.5 200 11:37 24.12.2019
1805 Clear 0 1026 27 10000 1.07 344 11:19 24.12.2019
1806 Clear 1 1028 63 10000 1 140 10:56 24.12.2019
1807 Clear 1 1027 27 6000 0.5 40 10:37 24.12.2019
1808 Clear 2 1026 59 10000 1.07 344 10:19 24.12.2019
1809 Clear 3 1028 55 10000 1 140 09:55 24.12.2019
1810 Haze 3 1027 74 8000 0.5 340 09:37 24.12.2019
1811 Clear 3 1026 48 10000 1.07 344 09:19 24.12.2019
1812 Haze 4 1026 69 9000 1.5 350 08:45 24.12.2019
1813 Clear 5 1028 44 10000 1 90 08:21 24.12.2019
1814 Clear 5 1028 51 10000 2.1 40 07:46 24.12.2019
1815 Clear 4 1026 48 10000 0.93 19 07:26 24.12.2019
1816 Clear 4 1026 48 10000 0.93 19 07:26 24.12.2019
1817 Haze 4 1027 23 4800 1.5 170 06:58 24.12.2019
1818 Haze 4 1026 64 9000 1.5 340 06:38 24.12.2019
1819 Clear 3 1026 52 10000 2.1 60 06:19 24.12.2019
1820 Clear 2 1027 60 10000 1.5 170 05:21 24.12.2019
1821 Mist 1 1029 92 2000 3.1 50 04:44 24.12.2019
1822 Mist 0 1030 92 2400 2.6 60 03:50 24.12.2019
1823 Clear 0 1029 74 10000 1.5 40 03:18 24.12.2019
1824 Clear -1 1029 86 10000 0.81 10 02:21 24.12.2019
1825 Mist -2 1029 92 6000 0.81 10 01:50 24.12.2019
1826 Mist -3 1029 100 4000 0.73 7 01:21 24.12.2019
1827 Mist -3 1030 100 1200 1 120 00:45 24.12.2019
1828 Mist -4 1028 100 3200 0.73 7 00:23 24.12.2019
1829 Mist -4 1030 100 1600 1.5 40 23:56 23.12.2019
1830 Mist -4 1030 100 1600 1.5 40 23:56 23.12.2019
1831 Mist -4 1028 100 2000 1 20 23:37 23.12.2019
1832 Mist -4 1028 92 4800 0.48 337 23:19 23.12.2019
1833 Mist -4 1029 100 2000 1 80 22:55 23.12.2019
1834 Mist -4 1029 100 2000 1 80 22:55 23.12.2019
1835 Mist -3 1028 100 1600 1 30 22:36 23.12.2019
1836 Mist -3 1028 100 1600 1 30 22:36 23.12.2019
1837 Mist -3 1028 100 1600 1 30 22:36 23.12.2019
1838 Mist -3 1027 100 4800 0.48 337 22:18 23.12.2019
1839 Mist -3 1029 92 2400 2.1 50 21:55 23.12.2019
1840 Fog -3 1027 100 400 1 20 21:36 23.12.2019
1841 Fog -3 1027 100 400 1 20 21:36 23.12.2019
1842 Mist -3 1027 92 4800 0.48 337 21:18 23.12.2019
1843 Mist -3 1029 92 3200 1 80 20:56 23.12.2019
1844 Mist -3 1029 92 3200 1 80 20:56 23.12.2019
1845 Fog -3 1027 100 400 1 30 20:38 23.12.2019
1846 Mist -3 1027 100 4800 0.68 297 20:18 23.12.2019
1847 Mist -3 1028 100 2400 1.5 60 19:54 23.12.2019
1848 Fog -3 1027 100 0 1 20 19:36 23.12.2019
1849 Mist -3 1026 92 4800 0.68 297 19:18 23.12.2019
1850 Fog -3 1026 100 0 0.5 20 18:54 23.12.2019
1851 Fog -3 1026 100 0 0.5 20 18:36 23.12.2019
1852 Fog -2 1026 100 0 1 40 18:18 23.12.2019
1853 Mist -2 1026 92 6000 0.68 297 17:55 23.12.2019
1854 Fog -2 1026 100 400 0.5 40 17:37 23.12.2019
1855 Fog -2 1026 100 400 0.5 40 17:37 23.12.2019
1856 Mist -2 1026 92 6000 1.04 313 17:18 23.12.2019
1857 Mist -2 1026 100 1600 0.5 190 16:42 23.12.2019
1858 Mist -2 1026 65 9000 1.04 313 16:19 23.12.2019
1859 Mist -1 1028 100 1600 0.5 360 15:58 23.12.2019
1860 Mist -1 1026 100 2400 1.04 313 15:37 23.12.2019
1861 Clear -1 1026 80 10000 1.04 313 15:19 23.12.2019
1862 Mist -1 1028 92 2000 0.5 150 14:57 23.12.2019
1863 Mist -1 1026 100 2000 0.5 40 14:39 23.12.2019
1864 Mist -1 1026 100 2000 0.5 40 14:39 23.12.2019
1865 Clear 0 1026 80 10000 1.5 303 14:19 23.12.2019
1866 Clear 0 1026 80 10000 1.5 303 14:19 23.12.2019
1867 Mist 0 1028 92 2800 0.5 130 13:57 23.12.2019
1868 Mist 0 1025 100 2800 0.5 150 13:39 23.12.2019
1869 Mist 0 1025 100 2800 0.5 150 13:39 23.12.2019
1870 Clear 0 1025 59 10000 1.64 283 13:20 23.12.2019
1871 Clear 0 1025 59 10000 1.64 283 13:20 23.12.2019
1872 Haze 1 1027 80 4000 2.1 10 12:55 23.12.2019
1873 Mist 1 1025 59 3200 0.5 170 12:36 23.12.2019
1874 Clear 1 1025 59 10000 1.64 283 12:18 23.12.2019
1875 Mist 3 1024 59 4000 0.5 210 11:42 23.12.2019
1876 Mist 3 1024 59 4000 0.5 210 11:42 23.12.2019
1877 Mist 3 1024 59 4000 0.5 210 11:42 23.12.2019
1878 Clouds 3 1024 55 10000 1.5 250 11:24 23.12.2019
1879 Haze 3 1026 80 6000 2.1 320 10:56 23.12.2019
1880 Haze 3 1023 55 6000 0.5 260 10:38 23.12.2019
1881 Clouds 4 1023 65 10000 1.5 310 10:20 23.12.2019
1882 Haze 4 1025 55 9000 1.5 20 09:58 23.12.2019
1883 Haze 4 1023 65 9000 1 330 09:39 23.12.2019
1884 Clouds 5 1023 60 10000 1.5 360 09:19 23.12.2019
1885 Haze 5 1022 60 9000 1.5 20 08:42 23.12.2019
1886 Clouds 5 1022 60 10000 2.66 310 08:23 23.12.2019
1887 Clouds 5 1022 57 10000 2.1 330 07:57 23.12.2019
1888 Haze 5 1022 65 8000 2.1 340 07:38 23.12.2019
1889 Clouds 5 1022 57 10000 2.66 310 07:19 23.12.2019
1890 Haze 5 1021 75 6000 1 350 06:39 23.12.2019
1891 Clouds 6 1021 70 10000 2.1 220 06:21 23.12.2019
1892 Clouds 5 1021 75 10000 2.66 310 05:45 23.12.2019
1893 Mist 5 1021 86 3200 2.1 220 04:44 23.12.2019
1894 Mist 4 1022 80 4800 3.1 300 03:58 23.12.2019
1895 Haze 4 1022 80 6000 1.5 330 02:47 23.12.2019
1896 Mist 3 1021 86 4800 2.1 300 02:19 23.12.2019
1897 Mist 2 1021 86 4800 1.5 300 01:46 23.12.2019
1898 Mist 2 1020 93 4800 2.6 310 01:27 23.12.2019
1899 Mist 2 1020 93 3600 1.5 300 00:48 23.12.2019
1900 Mist 2 1020 100 4400 2.22 311 00:27 23.12.2019
1901 Mist 1 1020 100 6000 2.22 311 23:56 22.12.2019
1902 Mist 1 1020 100 1200 2.22 311 23:37 22.12.2019
1903 Mist 1 1019 100 4400 0.22 262 23:19 22.12.2019
1904 Mist 1 1019 100 2400 0.5 180 22:41 22.12.2019
1905 Mist 1 1018 100 3000 0.22 262 22:23 22.12.2019
1906 Mist 2 1018 100 3200 0.22 262 21:59 22.12.2019
1907 Mist 2 1018 100 1200 0.5 120 21:40 22.12.2019
1908 Mist 2 1018 100 3200 0.22 262 21:21 22.12.2019
1909 Mist 2 1018 100 3200 0.22 262 21:21 22.12.2019
1910 Rain 2 1018 100 2800 0.5 240 20:59 22.12.2019
1911 Rain 2 1018 100 2800 0.5 240 20:39 22.12.2019
1912 Rain 3 1018 100 4800 0.63 352 20:19 22.12.2019
1913 Rain 3 1018 93 6000 0.63 352 19:57 22.12.2019
1914 Rain 3 1018 93 3200 1.5 270 19:39 22.12.2019
1915 Rain 3 1017 93 6000 0.63 352 19:20 22.12.2019
1916 Rain 3 1019 100 1600 0.5 160 18:42 22.12.2019
1917 Rain 3 1017 93 6000 0.63 352 18:24 22.12.2019
1918 Rain 3 1017 86 6000 0.63 352 17:56 22.12.2019
1919 Rain 3 1017 86 6000 0.63 352 17:56 22.12.2019
1920 Mist 3 1018 100 1200 0.5 30 17:38 22.12.2019
1921 Rain 3 1017 86 6000 1.62 160 17:19 22.12.2019
1922 Rain 3 1017 93 4000 1.62 160 16:57 22.12.2019
1923 Rain 3 1018 73 3200 0.5 340 16:38 22.12.2019
1924 Rain 3 1017 86 6000 1.62 160 16:20 22.12.2019
1925 Rain 3 1019 93 2000 1 250 15:56 22.12.2019
1926 Rain 3 1019 93 2000 1 250 15:56 22.12.2019
1927 Mist 3 1018 73 4000 0.5 330 15:38 22.12.2019
1928 Rain 3 1017 60 10000 1.62 160 15:19 22.12.2019
1929 Haze 3 1019 86 2800 1.5 330 14:55 22.12.2019
1930 Mist 3 1017 86 3200 0.5 140 14:36 22.12.2019
1931 Clouds 2 1017 69 10000 1.07 142 14:18 22.12.2019
1932 Haze 3 1018 80 3200 0.5 150 13:55 22.12.2019
1933 Mist 3 1018 86 4000 0.5 190 13:36 22.12.2019
1934 Clouds 3 1018 69 10000 1.08 133 13:18 22.12.2019
1935 Clouds 3 1018 69 10000 1.08 133 13:18 22.12.2019
1936 Haze 2 1019 69 3200 2.1 170 12:55 22.12.2019
1937 Mist 3 1019 86 4000 0.5 290 12:37 22.12.2019
1938 Clouds 3 1018 65 10000 1.08 133 12:18 22.12.2019
1939 Clouds 3 1018 65 10000 1.08 133 12:18 22.12.2019
1940 Haze 3 1020 86 3200 1.08 133 11:54 22.12.2019
1941 Haze 3 1019 86 4800 0.5 140 11:36 22.12.2019
1942 Clouds 3 1018 65 10000 1 130 11:18 22.12.2019
1943 Haze 5 1020 62 4000 0.5 100 10:54 22.12.2019
1944 Haze 5 1019 74 4800 0.5 150 10:36 22.12.2019
1945 Clouds 5 1018 60 10000 1 130 10:18 22.12.2019
1946 Haze 6 1018 62 6000 0.5 180 09:40 22.12.2019
1947 Clouds 6 1018 52 10000 1 130 09:22 22.12.2019
1948 Haze 7 1020 70 4800 1 120 08:59 22.12.2019
1949 Haze 7 1018 66 6000 0.5 230 08:38 22.12.2019
1950 Clouds 7 1018 52 10000 0.63 116 08:18 22.12.2019
1951 Clouds 7 1018 52 10000 0.63 116 08:18 22.12.2019
1952 Haze 8 1018 62 8000 1.5 200 07:38 22.12.2019
1953 Clear 8 1018 52 10000 0.63 116 07:20 22.12.2019
1954 Haze 8 1018 56 8000 1.5 200 06:40 22.12.2019
1955 Clear 6 1019 56 10000 0.5 110 05:54 22.12.2019
1956 Clear 6 1019 66 10000 1.5 70 05:21 22.12.2019
1957 Clear 4 1021 66 10000 1.5 120 04:29 22.12.2019
1958 Haze 3 1023 66 4800 2.1 40 03:52 22.12.2019
1959 Clouds 2 1024 86 6000 1.5 10 02:40 22.12.2019
1960 Clouds 0 1024 74 4800 1 20 01:42 22.12.2019
1961 Clouds 0 1023 86 10000 1.1 88 01:22 22.12.2019
1962 Clouds -1 1024 92 6000 1.1 88 00:45 22.12.2019
1963 Mist -1 1023 74 9000 1.1 88 00:22 22.12.2019
1964 Clouds -1 1023 92 10000 1.1 88 23:55 21.12.2019
1965 Mist -1 1024 100 4000 1.1 88 23:37 21.12.2019
1966 Clouds -1 1023 92 10000 1.15 91 23:18 21.12.2019
1967 Mist -1 1024 100 4000 0.5 30 22:40 21.12.2019
1968 Mist -1 1024 100 4000 0.5 30 22:40 21.12.2019
1969 Clear -1 1023 75 10000 1.15 91 22:19 21.12.2019
1970 Mist -1 1024 100 2400 0.5 360 21:57 21.12.2019
1971 Mist -1 1023 100 4800 0.5 350 21:37 21.12.2019
1972 Clouds -1 1023 75 10000 1.15 91 21:19 21.12.2019
1973 Mist -1 1024 100 2400 0.5 100 20:58 21.12.2019
1974 Mist -1 1024 100 2400 0.5 100 20:58 21.12.2019
1975 Clouds -1 1023 100 4800 0.5 170 20:39 21.12.2019
1976 Clouds -1 1023 71 10000 1.14 119 20:21 21.12.2019
1977 Mist -1 1023 92 9000 1.2 109 19:57 21.12.2019
1978 Clouds 0 1024 92 6000 0.5 170 19:39 21.12.2019
1979 Clouds 0 1024 86 10000 1.2 109 19:19 21.12.2019
1980 Clouds 0 1025 78 6000 0.5 120 18:42 21.12.2019
1981 Clouds 0 1024 86 10000 1.2 109 18:23 21.12.2019
1982 Mist 0 1026 100 2400 1 330 17:57 21.12.2019
1983 Clouds 0 1025 78 6000 1.2 109 17:39 21.12.2019
1984 Mist -1 1025 79 9000 1.24 111 17:20 21.12.2019
1985 Mist -1 1024 79 9000 1.24 111 16:57 21.12.2019
1986 Clouds -1 1025 79 6000 0.5 320 16:39 21.12.2019
1987 Mist -1 1024 92 8000 1.24 111 16:18 21.12.2019
1988 Clouds -1 1025 92 4800 0.5 350 15:56 21.12.2019
1989 Clouds -1 1024 79 6000 0.5 20 15:37 21.12.2019
1990 Mist -1 1025 79 9000 1.24 111 15:18 21.12.2019
1991 Clouds 0 1025 79 8000 0.5 180 14:42 21.12.2019
1992 Clouds 0 1025 79 10000 1.24 111 14:23 21.12.2019
1993 Clouds -1 1026 92 6000 1 30 13:58 21.12.2019
1994 Haze -1 1026 85 9000 0.5 170 13:40 21.12.2019
1995 Mist 0 1025 92 9000 1.68 154 13:19 21.12.2019
1996 Clouds 0 1027 82 8000 1.68 154 12:56 21.12.2019
1997 Haze 0 1026 82 8000 0.5 170 12:38 21.12.2019
1998 Haze 0 1026 82 8000 0.5 170 12:38 21.12.2019
1999 Haze 0 1026 82 8000 0.5 170 12:38 21.12.2019
2000 Clouds 0 1026 86 10000 1.68 154 12:20 21.12.2019
2001 Clouds 1 1027 82 8000 1 30 11:48 21.12.2019
2002 Clouds 1 1026 82 10000 1.68 154 11:27 21.12.2019
2003 Clouds 1 1027 88 10000 0.5 30 10:59 21.12.2019
2004 Clouds 1 1027 88 10000 0.5 180 10:40 21.12.2019
2005 Mist 1 1026 88 9000 2.02 176 10:21 21.12.2019
2006 Mist 1 1026 88 9000 2.02 176 10:21 21.12.2019
2007 Mist 1 1026 88 9000 2.02 176 09:58 21.12.2019
2008 Clouds 1 1027 88 10000 2.1 210 09:39 21.12.2019
2009 Snow 1 1027 88 4800 2.6 190 09:19 21.12.2019
2010 Rain 1 1026 88 10000 2.1 200 08:47 21.12.2019
2011 Rain 1 1026 84 9000 1.35 178 08:27 21.12.2019
2012 Snow 1 1026 89 4800 1.95 172 07:47 21.12.2019
2013 Clouds 1 1026 80 4800 1.95 172 07:23 21.12.2019
2014 Snow 2 1027 64 8000 2.1 130 06:49 21.12.2019
2015 Clouds 1 1026 59 10000 1.95 172 06:31 21.12.2019
2016 Drizzle 1 1028 86 3200 1.95 172 05:59 21.12.2019
2017 Haze 0 1028 68 9000 1.5 350 04:59 21.12.2019
2018 Clouds 1 1026 47 10000 2.07 191 04:34 21.12.2019
2019 Clouds 0 1028 63 10000 1 350 03:56 21.12.2019
2020 Clouds -3 1028 54 10000 1.23 103 02:23 21.12.2019
2021 Clouds -5 1029 79 10000 1 50 01:42 21.12.2019
2022 Clear -5 1028 58 10000 1.15 102 01:23 21.12.2019
2023 Clear -6 1029 92 10000 0.5 40 00:39 21.12.2019
2024 Clear -6 1028 62 10000 1.15 102 00:20 21.12.2019
2025 Clear -7 1030 92 10000 0.5 180 23:38 20.12.2019
2026 Clouds -7 1029 73 10000 1.14 113 23:20 20.12.2019
2027 Clear -7 1030 92 10000 1 50 22:57 20.12.2019
2028 Clouds -7 1030 85 10000 0.5 150 22:36 20.12.2019
2029 Clear -7 1029 67 10000 1.14 113 22:18 20.12.2019
2030 Clear -7 1029 85 10000 0.5 160 21:41 20.12.2019
2031 Clear -7 1029 67 10000 1.14 113 21:21 20.12.2019
2032 Clear -7 1029 67 10000 1.14 113 21:21 20.12.2019
2033 Clear -7 1030 92 10000 1 70 20:57 20.12.2019
2034 Clouds -7 1030 92 10000 0.5 170 20:38 20.12.2019
2035 Clear -7 1030 92 10000 0.5 110 20:18 20.12.2019
2036 Clear -7 1030 85 10000 0.5 120 19:42 20.12.2019
2037 Clear -7 1029 67 10000 1.07 55 19:21 20.12.2019
2038 Clear -6 1031 85 10000 0.5 90 18:58 20.12.2019
2039 Clear -6 1030 85 10000 1.07 55 18:39 20.12.2019
2040 Clear -6 1029 62 10000 1.07 55 18:21 20.12.2019
2041 Clear -6 1030 58 10000 1.07 55 17:55 20.12.2019
2042 Clear -6 1030 58 10000 1.07 55 17:37 20.12.2019
2043 Clear -5 1030 79 10000 0.5 170 17:18 20.12.2019
2044 Clear -5 1030 53 10000 0.29 55 16:40 20.12.2019
2045 Clear -5 1030 53 10000 0.29 55 16:20 20.12.2019
2046 Clear -5 1030 73 10000 0.5 170 15:57 20.12.2019
2047 Clear -5 1030 45 10000 0.29 55 15:39 20.12.2019
2048 Clear -5 1030 45 10000 0.29 55 15:20 20.12.2019
2049 Clear -4 1031 67 10000 1 170 14:59 20.12.2019
2050 Clear -4 1030 42 10000 0.29 55 14:40 20.12.2019
2051 Clear -4 1030 42 10000 0.96 318 14:22 20.12.2019
2052 Clear -3 1030 67 10000 1 170 13:55 20.12.2019
2053 Clear -3 1030 39 10000 0.96 318 13:36 20.12.2019
2054 Clear -3 1030 39 10000 0.96 318 13:18 20.12.2019
2055 Clear -3 1029 36 10000 1.24 325 12:41 20.12.2019
2056 Clear -3 1029 36 10000 1.24 325 12:19 20.12.2019
2057 Clear -2 1029 58 10000 1.24 325 11:59 20.12.2019
2058 Clear -2 1029 33 10000 2.1 290 11:40 20.12.2019
2059 Clear -2 1029 32 10000 2.1 290 11:21 20.12.2019
2060 Clear -2 1028 50 10000 0.5 170 10:59 20.12.2019
2061 Clear -2 1028 54 10000 0.5 160 10:41 20.12.2019
2062 Clear -2 1028 54 10000 0.5 160 10:20 20.12.2019
2063 Clear 0 1028 46 10000 0.5 150 09:56 20.12.2019
2064 Clear 1 1028 29 10000 1.74 320 09:38 20.12.2019
2065 Clear 1 1028 29 10000 1.74 320 09:19 20.12.2019
2066 Clear 2 1028 27 10000 2.1 330 08:43 20.12.2019
2067 Clear 2 1028 27 10000 2.1 330 08:24 20.12.2019
2068 Clear 2 1028 27 10000 2.1 290 07:59 20.12.2019
2069 Clear 2 1028 29 10000 2.91 304 07:40 20.12.2019
2070 Clear 2 1028 29 10000 2.91 304 07:19 20.12.2019
2071 Clear 3 1028 29 10000 1.5 180 06:51 20.12.2019
2072 Clear 3 1029 27 10000 2.6 310 06:31 20.12.2019
2073 Clear 2 1029 29 10000 1 180 05:53 20.12.2019
2074 Clear 2 1029 34 10000 2.91 304 05:35 20.12.2019
2075 Clear 1 1030 34 10000 3.15 305 04:33 20.12.2019
2076 Clear 1 1031 50 10000 3.15 305 03:30 20.12.2019
2077 Clear 0 1030 38 10000 0.5 330 02:42 20.12.2019
2078 Clouds -2 1030 68 10000 0.5 250 01:47 20.12.2019
2079 Clear -2 1030 63 10000 2.79 305 01:29 20.12.2019
2080 Clear -4 1029 85 9000 0.5 70 00:42 20.12.2019
2081 Clear -4 1029 63 10000 2.79 305 00:20 20.12.2019
2082 Clear -4 1028 58 10000 2.79 305 23:43 19.12.2019
2083 Clear -4 1028 58 10000 2.9 324 23:24 19.12.2019
2084 Clear -3 1028 92 10000 0.5 170 22:56 19.12.2019
2085 Clear -3 1027 63 10000 2.9 324 22:36 19.12.2019
2086 Clear -3 1027 63 10000 2.9 324 22:18 19.12.2019
2087 Clear -2 1027 54 10000 2.9 324 21:42 19.12.2019
2088 Clear -3 1027 85 10000 0.5 220 21:42 19.12.2019
2089 Clear -2 1027 54 10000 2.9 324 21:20 19.12.2019
2090 Clouds -2 1027 54 10000 1.5 350 20:59 19.12.2019
2091 Clouds -2 1028 54 10000 1.5 310 20:39 19.12.2019
2092 Clouds -2 1028 59 10000 1.5 310 20:21 19.12.2019
2093 Clouds -2 1028 79 10000 0.5 170 19:59 19.12.2019
2094 Clouds -2 1027 69 10000 2.41 312 19:40 19.12.2019
2095 Clouds -2 1027 69 10000 2.41 312 19:20 19.12.2019
2096 Clouds -2 1027 62 10000 1.5 310 19:00 19.12.2019
2097 Clouds -2 1027 62 10000 2.41 312 18:40 19.12.2019
2098 Clouds -2 1027 62 10000 2.41 312 18:20 19.12.2019
2099 Clouds -2 1028 62 10000 2.6 210 17:57 19.12.2019
2100 Clouds -2 1027 73 10000 1 170 17:38 19.12.2019
2101 Clouds -2 1027 73 10000 1 170 17:18 19.12.2019
2102 Clouds -2 1027 73 10000 0.5 170 16:56 19.12.2019
2103 Clouds -2 1027 50 10000 0.88 298 16:38 19.12.2019
2104 Clouds -2 1027 50 10000 0.88 298 16:19 19.12.2019
2105 Snow -2 1028 63 10000 1.5 200 15:58 19.12.2019
2106 Clouds -2 1027 41 10000 0.88 298 15:38 19.12.2019
2107 Clouds -2 1027 41 10000 0.88 298 15:38 19.12.2019
2108 Clouds -2 1027 41 10000 0.88 298 15:19 19.12.2019
2109 Clear -2 1027 73 10000 1 170 14:57 19.12.2019
2110 Clouds -3 1027 58 10000 0.88 298 14:38 19.12.2019
2111 Clouds -3 1027 58 10000 1.31 306 14:18 19.12.2019
2112 Clear -2 1027 54 10000 1.31 306 13:39 19.12.2019
2113 Clear -2 1027 54 10000 1.58 309 13:20 19.12.2019
2114 Clear -1 1026 68 10000 0.5 150 12:58 19.12.2019
2115 Clear -1 1027 39 10000 1.58 309 12:40 19.12.2019
2116 Clear -1 1027 39 10000 1.58 309 12:19 19.12.2019
2117 Clear -1 1027 39 10000 1.58 309 12:19 19.12.2019
2118 Clear -1 1027 68 10000 1 180 11:59 19.12.2019
2119 Clear 0 1027 43 10000 1.58 309 11:40 19.12.2019
2120 Clear 0 1027 43 10000 3.16 308 11:18 19.12.2019
2121 Clear 0 1026 47 10000 1 240 10:58 19.12.2019
2122 Clear 0 1026 47 10000 1 240 10:58 19.12.2019
2123 Clear 1 1028 50 10000 0.5 240 10:38 19.12.2019
2124 Clear 1 1028 50 10000 0.5 240 10:20 19.12.2019
2125 Clear 1 1027 32 10000 1 280 09:56 19.12.2019
2126 Clear 2 1027 40 10000 1.5 280 09:37 19.12.2019
2127 Clear 2 1025 34 10000 0.5 300 09:18 19.12.2019
2128 Clear 2 1025 34 10000 0.5 300 08:55 19.12.2019
2129 Clear 3 1025 40 10000 3.16 308 08:36 19.12.2019
2130 Clear 3 1025 40 10000 3.86 300 08:18 19.12.2019
2131 Clear 4 1027 34 10000 0.5 10 07:40 19.12.2019
2132 Clear 4 1027 34 10000 0.5 10 07:22 19.12.2019
2133 Clear 3 1027 32 10000 0.5 350 06:52 19.12.2019
2134 Clear 3 1025 40 10000 3.86 300 06:33 19.12.2019
2135 Clear 3 1024 29 10000 2.1 280 05:59 19.12.2019
2136 Clear 3 1027 40 10000 1.5 220 05:41 19.12.2019
2137 Clear 2 1024 29 10000 2.6 250 05:18 19.12.2019
2138 Clear 1 1025 40 10000 1.5 210 03:46 19.12.2019
2139 Clouds -1 1026 27 10000 1.5 270 02:25 19.12.2019
2140 Clear -2 1026 50 10000 2.06 288 01:24 19.12.2019
2141 Clear -3 1025 100 4800 0.5 360 00:45 19.12.2019
2142 Clear -4 1026 63 10000 1.5 310 00:25 19.12.2019
2143 Clear -4 1026 68 10000 2.1 240 23:59 18.12.2019
2144 Clear -3 1025 58 10000 2.06 288 23:41 18.12.2019
2145 Clear -3 1025 58 10000 1.72 292 23:19 18.12.2019
2146 Clear -3 1026 74 10000 1.5 270 22:56 18.12.2019
2147 Clouds -3 1025 74 10000 1.5 260 22:37 18.12.2019
2148 Clouds -3 1025 74 10000 1.5 260 22:19 18.12.2019
2149 Clouds -3 1025 74 10000 2.1 250 21:57 18.12.2019
2150 Clouds -3 1025 79 10000 1.5 290 21:39 18.12.2019
2151 Clouds -3 1025 79 10000 1.5 290 21:19 18.12.2019
2152 Clouds -3 1025 86 10000 0.5 320 20:55 18.12.2019
2153 Clouds -2 1025 79 10000 1 340 20:37 18.12.2019
2154 Clouds -2 1025 79 10000 1 340 20:19 18.12.2019
2155 Mist -2 1024 100 2800 0.5 190 19:55 18.12.2019
2156 Clouds -2 1025 86 9000 1.5 310 19:37 18.12.2019
2157 Clouds -2 1025 86 9000 1.5 310 19:37 18.12.2019
2158 Mist -2 1025 100 2800 0.5 130 19:18 18.12.2019
2159 Clouds -2 1025 86 8000 0.5 240 18:44 18.12.2019
2160 Clouds -2 1025 86 8000 0.5 240 18:25 18.12.2019
2161 Mist -1 1024 100 2800 0.5 170 17:57 18.12.2019
2162 Clouds -1 1025 92 8000 1.98 290 17:39 18.12.2019
2163 Clouds -1 1025 92 8000 2.13 290 17:19 18.12.2019
2164 Clouds -1 1025 92 8000 2.13 290 17:19 18.12.2019
2165 Mist -1 1024 100 3200 0.5 170 16:56 18.12.2019
2166 Mist -1 1024 100 3200 0.5 170 16:56 18.12.2019
2167 Mist -1 1024 100 3200 0.5 170 16:56 18.12.2019
2168 Mist -1 1024 100 3200 0.5 150 16:38 18.12.2019
2169 Clouds -1 1025 37 10000 2.13 290 16:20 18.12.2019
2170 Clear 0 1025 86 9000 2.13 290 15:55 18.12.2019
2171 Mist 0 1024 100 3200 0.5 160 15:37 18.12.2019
2172 Clouds 0 1024 37 10000 1.5 320 15:18 18.12.2019
2173 Mist 0 1024 100 3200 0.5 180 14:42 18.12.2019
2174 Clouds 0 1024 64 10000 2.6 301 14:22 18.12.2019
2175 Clouds 0 1025 74 10000 2.6 301 13:57 18.12.2019
2176 Mist 0 1024 34 4800 0.5 170 13:38 18.12.2019
2177 Clouds 1 1024 64 10000 2.1 330 13:20 18.12.2019
2178 Clouds 1 1025 69 10000 1.5 330 12:57 18.12.2019
2179 Clouds 1 1025 64 10000 1 260 12:38 18.12.2019
2180 Clouds 1 1025 64 10000 1 260 12:19 18.12.2019
2181 Haze 1 1026 80 9000 0.5 130 11:55 18.12.2019
2182 Haze 1 1026 80 9000 0.5 130 11:55 18.12.2019
2183 Haze 1 1026 80 9000 2.8 291 11:37 18.12.2019
2184 Haze 1 1024 86 6000 0.5 20 11:18 18.12.2019
2185 Clouds 2 1026 34 10000 0.5 310 10:55 18.12.2019
2186 Clouds 2 1024 59 10000 1.5 290 10:37 18.12.2019
2187 Clouds 2 1024 59 10000 1.5 290 10:19 18.12.2019
2188 Clouds 3 1023 64 10000 2.54 281 09:43 18.12.2019
2189 Clouds 2 1024 55 10000 1.5 230 09:18 18.12.2019
2190 Clouds 2 1024 55 10000 1.5 230 09:18 18.12.2019
2191 Clouds 3 1023 60 10000 1 350 08:40 18.12.2019
2192 Clouds 4 1023 51 10000 1.5 280 08:21 18.12.2019
2193 Clouds 4 1023 60 10000 1 340 07:43 18.12.2019
2194 Clear 4 1025 59 10000 2.1 210 07:22 18.12.2019
2195 Clear 4 1025 59 10000 2.1 230 06:55 18.12.2019
2196 Clear 4 1025 55 10000 1 280 06:27 18.12.2019
2197 Clouds 3 1023 64 10000 2.1 200 05:44 18.12.2019
2198 Clear 3 1025 59 10000 1.5 230 04:46 18.12.2019
2199 Clear 1 1027 43 10000 1.5 310 02:51 18.12.2019
2200 Clear 1 1026 69 10000 1.38 295 02:31 18.12.2019
2201 Clouds 1 1026 69 10000 1.67 288 01:57 18.12.2019
2202 Haze 1 1024 80 6000 1.5 170 01:37 18.12.2019
2203 Clouds 1 1026 69 10000 1.67 288 01:19 18.12.2019
2204 Clouds 0 1024 86 6000 1 140 00:40 18.12.2019
2205 Mist -1 1023 52 4000 0.5 160 00:21 18.12.2019
2206 Clouds 0 1024 80 10000 1.66 285 23:54 17.12.2019
2207 Mist 0 1023 52 3200 0.5 170 23:36 17.12.2019
2208 Mist 0 1023 53 4000 0.5 160 23:18 17.12.2019
2209 Haze 0 1024 80 8000 2.1 270 23:18 17.12.2019
2210 Clear 0 1025 92 6000 1 110 22:54 17.12.2019
2211 Mist 0 1022 53 3200 0.5 150 22:36 17.12.2019
2212 Clouds 0 1022 53 10000 1.89 279 22:18 17.12.2019
2213 Haze 0 1022 80 9000 1.5 240 21:55 17.12.2019
2214 Mist 0 1021 53 2400 1.89 279 21:36 17.12.2019
2215 Clear 0 1022 74 10000 1.89 279 21:18 17.12.2019
2216 Mist 0 1021 53 2400 0.5 190 20:40 17.12.2019
2217 Clear 1 1021 80 10000 2.45 286 20:19 17.12.2019
2218 Mist 1 1023 100 4000 0.5 360 19:59 17.12.2019
2219 Mist 1 1020 100 3200 1 190 19:41 17.12.2019
2220 Mist 1 1020 100 3200 1 190 19:41 17.12.2019
2221 Mist 1 1020 100 3200 1 190 19:41 17.12.2019
2222 Mist 1 1023 92 4000 0.5 130 19:20 17.12.2019
2223 Clear 2 1023 51 6000 1 120 18:58 17.12.2019
2224 Mist 2 1020 100 4800 1 50 18:39 17.12.2019
2225 Clouds 2 1021 51 10000 3.1 260 18:21 17.12.2019
2226 Clouds 3 1021 80 10000 2.6 240 17:55 17.12.2019
2227 Haze 3 1022 80 6000 1 350 17:37 17.12.2019
2228 Haze 3 1019 80 9000 1.5 320 17:18 17.12.2019
2229 Clouds 4 1020 86 8000 1 10 16:55 17.12.2019
2230 Clouds 4 1020 86 8000 1 10 16:55 17.12.2019
2231 Haze 4 1019 80 9000 1 270 16:37 17.12.2019
2232 Clouds 4 1020 80 10000 1.5 310 16:18 17.12.2019
2233 Clouds 4 1019 86 10000 0.5 120 15:38 17.12.2019
2234 Clouds 5 1020 86 8000 3.1 320 15:20 17.12.2019
2235 Clouds 5 1019 81 10000 3.6 260 14:57 17.12.2019
2236 Clouds 5 1018 81 10000 0.5 330 14:38 17.12.2019
2237 Clouds 5 1019 80 10000 3.39 301 14:19 17.12.2019
2238 Haze 5 1021 86 6000 1.5 270 13:59 17.12.2019
2239 Clouds 5 1018 93 10000 0.5 160 13:40 17.12.2019
2240 Haze 6 1020 86 6000 1.5 320 13:19 17.12.2019
2241 Clouds 6 1018 81 10000 1.5 240 12:59 17.12.2019
2242 Clouds 6 1017 81 10000 3.49 298 12:38 17.12.2019
2243 Clouds 6 1017 75 10000 0.5 340 12:18 17.12.2019
2244 Clouds 6 1017 75 10000 0.5 340 12:18 17.12.2019
2245 Clouds 7 1018 87 10000 1 260 11:57 17.12.2019
2246 Clouds 7 1018 87 10000 2.1 260 11:37 17.12.2019
2247 Clouds 7 1017 75 10000 1.5 350 11:18 17.12.2019
2248 Clouds 8 1016 76 10000 1.5 330 10:57 17.12.2019
2249 Clouds 8 1017 81 10000 3.67 296 10:38 17.12.2019
2250 Clouds 8 1017 81 10000 5.7 320 10:19 17.12.2019
2251 Clouds 8 1017 81 10000 3.67 296 10:19 17.12.2019
2252 Clouds 8 1017 81 10000 4.1 270 09:55 17.12.2019
2253 Clouds 8 1015 87 10000 2.1 270 09:37 17.12.2019
2254 Clouds 8 1015 76 10000 3.67 296 09:18 17.12.2019
2255 Mist 9 1014 100 3200 0.5 60 08:40 17.12.2019
2256 Clouds 9 1017 75 10000 2.1 360 08:22 17.12.2019
2257 Clouds 9 1016 75 10000 2.6 360 07:59 17.12.2019
2258 Mist 9 1013 100 1200 1 160 07:41 17.12.2019
2259 Clouds 9 1016 76 10000 3.1 320 07:22 17.12.2019
2260 Rain 9 1013 100 800 0.5 200 06:42 17.12.2019
2261 Rain 9 1013 100 800 1 230 06:24 17.12.2019
2262 Rain 9 1013 100 800 1 230 06:24 17.12.2019
2263 Rain 10 1013 100 1200 0.5 160 05:41 17.12.2019
2264 Clouds 9 1013 93 10000 0.68 111 04:53 17.12.2019
2265 Mist 9 1014 100 4800 0.68 111 03:51 17.12.2019
2266 Rain 7 1014 100 6000 1.24 63 02:25 17.12.2019
2267 Rain 7 1015 100 400 1 340 01:21 17.12.2019
2268 Rain 8 1014 93 3000 2.6 180 00:47 17.12.2019
2269 Rain 8 1014 93 2200 1.09 75 00:21 17.12.2019
2270 Rain 8 1014 93 2200 1.09 75 00:21 17.12.2019
2271 Rain 8 1014 93 2200 1.09 75 00:21 17.12.2019
2272 Rain 8 1014 100 2000 0.5 20 23:44 16.12.2019
2273 Rain 8 1013 93 4400 1.71 110 23:20 16.12.2019
2274 Rain 8 1013 93 10000 1.71 110 22:59 16.12.2019
2275 Rain 7 1015 100 4000 0.5 10 22:39 16.12.2019
2276 Rain 7 1014 93 10000 1.71 110 22:21 16.12.2019
2277 Rain 7 1014 87 10000 1.71 110 21:57 16.12.2019
2278 Rain 7 1014 87 10000 1.71 110 21:57 16.12.2019
2279 Rain 7 1014 87 10000 1.71 110 21:57 16.12.2019
2280 Rain 7 1015 100 3200 0.5 20 21:39 16.12.2019
2281 Rain 7 1014 87 8000 1.71 110 21:20 16.12.2019
2282 Haze 7 1015 81 6000 2.6 170 20:58 16.12.2019
2283 Rain 7 1016 100 6000 1.71 110 20:39 16.12.2019
2284 Rain 7 1015 66 10000 1.5 90 20:19 16.12.2019
2285 Rain 7 1015 66 10000 1.5 90 20:19 16.12.2019
2286 Rain 7 1016 66 10000 1.5 120 19:57 16.12.2019
2287 Clouds 7 1017 87 10000 0.5 270 19:37 16.12.2019
2288 Rain 7 1017 87 6000 0.5 180 19:19 16.12.2019
2289 Haze 7 1017 87 6000 0.5 90 18:59 16.12.2019
2290 Clouds 7 1017 87 10000 0.5 80 18:40 16.12.2019
2291 Clouds 7 1016 66 10000 1.28 116 18:20 16.12.2019
2292 Haze 7 1018 81 8000 1.28 116 17:58 16.12.2019
2293 Haze 7 1018 81 9000 1 120 17:39 16.12.2019
2294 Haze 7 1018 81 9000 1 120 17:21 16.12.2019
2295 Haze 8 1018 75 9000 0.5 100 16:57 16.12.2019
2296 Clouds 7 1018 87 10000 0.5 160 16:39 16.12.2019
2297 Clouds 7 1017 62 10000 1.11 118 16:19 16.12.2019
2298 Haze 8 1018 75 9000 0.5 110 15:58 16.12.2019
2299 Clouds 8 1018 81 10000 0.5 10 15:38 16.12.2019
2300 Clouds 9 1017 62 10000 1.11 118 15:20 16.12.2019
2301 Haze 8 1019 75 9000 0.5 100 14:57 16.12.2019
2302 Clouds 8 1019 81 10000 0.5 50 14:37 16.12.2019
2303 Clouds 9 1018 62 10000 1.63 102 14:19 16.12.2019
2304 Clouds 9 1018 62 10000 1.63 102 14:19 16.12.2019
2305 Haze 8 1020 70 9000 0.5 70 13:56 16.12.2019
2306 Haze 8 1020 70 9000 0.5 70 13:56 16.12.2019
2307 Clouds 8 1019 81 10000 1 10 13:37 16.12.2019
2308 Clouds 8 1019 81 10000 1 10 13:37 16.12.2019
2309 Clouds 8 1020 70 10000 1.65 101 13:19 16.12.2019
2310 Clouds 8 1020 66 10000 2.1 70 12:57 16.12.2019
2311 Clouds 8 1020 66 10000 2.1 70 12:57 16.12.2019
2312 Clouds 8 1020 81 10000 0.5 50 12:39 16.12.2019
2313 Clouds 8 1020 81 10000 0.5 220 12:18 16.12.2019
2314 Clouds 9 1021 66 10000 1 120 11:57 16.12.2019
2315 Clouds 9 1021 81 10000 0.5 180 11:39 16.12.2019
2316 Clouds 9 1020 75 10000 1.72 92 11:19 16.12.2019
2317 Clouds 10 1021 66 10000 0.5 60 10:55 16.12.2019
2318 Thunderstorm 9 1020 70 9000 1 360 10:36 16.12.2019
2319 Clouds 9 1019 61 10000 1.72 92 10:18 16.12.2019
2320 Clouds 11 1021 66 10000 1 90 09:44 16.12.2019
2321 Clouds 11 1020 54 10000 2.11 97 09:26 16.12.2019
2322 Clouds 12 1020 57 10000 1 360 08:41 16.12.2019
2323 Clouds 12 1021 57 10000 1 20 08:20 16.12.2019
2324 Clouds 12 1022 57 10000 1 70 07:53 16.12.2019
2325 Clouds 12 1022 53 10000 1.5 50 07:31 16.12.2019
2326 Clouds 12 1023 57 10000 1 50 06:59 16.12.2019
2327 Clouds 13 1023 57 10000 1 40 06:40 16.12.2019
2328 Clouds 12 1021 53 10000 1.5 330 06:21 16.12.2019
2329 Clear 11 1022 53 10000 1 350 05:41 16.12.2019
2330 Clear 11 1023 50 10000 1.5 150 05:23 16.12.2019
2331 Clouds 6 1025 57 10000 2.1 90 03:29 16.12.2019
2332 Clouds 2 1027 86 4800 1 80 01:51 16.12.2019
2333 Clouds 1 1027 75 4800 1 40 01:33 16.12.2019
2334 Clouds 0 1027 75 8000 1.5 30 00:39 16.12.2019
2335 Mist 0 1027 92 4000 0.5 60 00:20 16.12.2019
2336 Clouds -1 1027 100 6000 2.1 20 23:44 15.12.2019
2337 Mist -1 1027 100 3200 1 70 23:25 15.12.2019
2338 Mist -1 1027 100 3200 0.5 40 22:57 15.12.2019
2339 Clear -1 1027 100 6000 1.5 30 22:39 15.12.2019
2340 Clouds -1 1026 78 10000 1.16 85 22:19 15.12.2019
2341 Mist 0 1027 100 4000 1.16 85 21:59 15.12.2019
2342 Clouds 0 1027 78 9000 1.5 30 21:39 15.12.2019
2343 Clouds 0 1027 78 9000 1.5 30 21:39 15.12.2019
2344 Clear -1 1026 78 10000 1.16 85 21:20 15.12.2019
2345 Mist -1 1027 100 3200 0.5 200 20:58 15.12.2019
2346 Clear -1 1026 100 8000 1 30 20:40 15.12.2019
2347 Clear -1 1026 100 8000 1 30 20:40 15.12.2019
2348 Clear -1 1026 74 10000 1.05 86 20:22 15.12.2019
2349 Mist -1 1028 92 4000 1.5 50 19:58 15.12.2019
2350 Clear -1 1027 100 6000 1 30 19:40 15.12.2019
2351 Clear 0 1028 100 6000 0.5 120 19:20 15.12.2019
2352 Clear 0 1028 92 4800 0.5 90 18:58 15.12.2019
2353 Mist 0 1028 92 4000 0.5 10 18:39 15.12.2019
2354 Clear 0 1027 100 6000 0.5 150 18:19 15.12.2019
2355 Clear 0 1028 92 4800 0.5 140 17:57 15.12.2019
2356 Clear 0 1028 71 6000 0.5 360 17:38 15.12.2019
2357 Clear 0 1028 76 6000 0.5 360 17:38 15.12.2019
2358 Clear 1 1027 71 9000 0.5 160 17:19 15.12.2019
2359 Clear 1 1028 66 6000 0.5 270 16:58 15.12.2019
2360 Clouds 1 1027 71 8000 0.5 60 16:39 15.12.2019
2361 Clear 1 1026 86 10000 0.87 78 16:21 15.12.2019
2362 Clear 1 1028 66 4800 0.5 310 15:56 15.12.2019
2363 Clear 1 1027 66 10000 0.5 20 15:38 15.12.2019
2364 Clear 2 1026 80 10000 0.87 78 15:19 15.12.2019
2365 Clouds 2 1028 71 4800 0.5 240 14:56 15.12.2019
2366 Clear 2 1027 93 10000 1 20 14:37 15.12.2019
2367 Clear 2 1027 93 10000 1 20 14:37 15.12.2019
2368 Clear 2 1026 65 10000 0.83 65 14:18 15.12.2019
2369 Haze 3 1028 86 6000 0.5 160 13:58 15.12.2019
2370 Clear 3 1027 61 10000 0.5 110 13:37 15.12.2019
2371 Clear 3 1027 61 10000 0.5 110 13:37 15.12.2019
2372 Haze 3 1028 80 8000 0.5 320 13:19 15.12.2019
2373 Haze 3 1028 80 8000 0.5 320 13:19 15.12.2019
2374 Haze 4 1029 74 9000 0.5 90 12:56 15.12.2019
2375 Haze 4 1029 74 9000 0.5 10 12:38 15.12.2019
2376 Clouds 4 1028 61 10000 1 30 12:20 15.12.2019
2377 Clouds 5 1028 80 10000 1 40 11:39 15.12.2019
2378 Clouds 5 1028 54 10000 0.5 190 11:20 15.12.2019
2379 Clouds 6 1029 60 10000 1 60 10:59 15.12.2019
2380 Clear 6 1027 80 10000 0.5 10 10:41 15.12.2019
2381 Clouds 7 1027 60 10000 1.02 107 10:20 15.12.2019
2382 Clouds 8 1029 60 10000 1 360 09:59 15.12.2019
2383 Clouds 8 1028 70 10000 0.5 180 09:39 15.12.2019
2384 Clouds 9 1027 43 10000 1.02 107 09:20 15.12.2019
2385 Clouds 10 1029 49 10000 0.5 270 08:56 15.12.2019
2386 Clouds 10 1028 61 10000 0.5 310 08:38 15.12.2019
2387 Clouds 10 1028 43 10000 1.06 167 08:20 15.12.2019
2388 Clouds 10 1030 49 10000 1 320 07:55 15.12.2019
2389 Clouds 11 1029 49 10000 0.5 320 07:33 15.12.2019
2390 Clouds 11 1030 45 10000 1 330 06:31 15.12.2019
2391 Clear 9 1028 49 10000 1 340 05:51 15.12.2019
2392 Clouds 9 1030 49 10000 1 290 05:25 15.12.2019
2393 Clear 7 1029 52 10000 2.1 50 04:24 15.12.2019
2394 Clear 4 1030 56 10000 1 40 03:22 15.12.2019
2395 Clear 1 1031 74 9000 1 330 02:32 15.12.2019
2396 Haze 0 1031 53 8000 1.5 30 01:43 15.12.2019
2397 Clear -1 1030 64 10000 1.26 93 01:20 15.12.2019
2398 Haze -2 1032 86 8000 0.5 360 00:53 15.12.2019
2399 Clear -3 1032 86 6000 1.5 30 00:34 15.12.2019
2400 Clear -3 1031 100 4800 0.5 90 23:56 14.12.2019
2401 Clear -3 1031 86 6000 0.5 80 23:38 14.12.2019
2402 Clouds -3 1030 92 7000 1.5 320 23:18 14.12.2019
2403 Clear -3 1031 86 8000 3.6 40 22:56 14.12.2019
2404 Clouds -3 1030 86 8000 0.5 20 22:37 14.12.2019
2405 Clouds -3 1031 86 6000 1 40 22:18 14.12.2019
2406 Clouds -3 1031 86 6000 1 40 22:18 14.12.2019
2407 Clouds -2 1031 86 6000 1.5 10 21:55 14.12.2019
2408 Clouds -2 1030 86 8000 1.5 30 21:36 14.12.2019
2409 Clouds -2 1030 92 9000 2.1 330 21:18 14.12.2019
2410 Clouds -3 1030 86 8000 1.5 40 20:42 14.12.2019
2411 Clouds -2 1030 79 10000 1.03 78 20:20 14.12.2019
2412 Clouds -2 1031 86 6000 1.5 30 19:59 14.12.2019
2413 Clouds -2 1031 86 6000 1.5 30 19:39 14.12.2019
2414 Clouds -2 1031 86 6000 1.5 30 19:39 14.12.2019
2415 Clouds -2 1032 92 10000 0.5 70 19:20 14.12.2019
2416 Clear -2 1032 79 10000 1 70 18:56 14.12.2019
2417 Clear -2 1032 79 10000 0.5 50 18:38 14.12.2019
2418 Haze -2 1031 80 8000 0.5 140 18:20 14.12.2019
2419 Haze -1 1031 86 8000 1.5 30 17:44 14.12.2019
2420 Clear -1 1032 74 10000 1.5 50 17:24 14.12.2019
2421 Clear -1 1032 74 10000 3.6 50 16:59 14.12.2019
2422 Haze -1 1030 40 8000 1.5 30 16:40 14.12.2019
2423 Clear -1 1029 40 10000 0.82 71 16:19 14.12.2019
2424 Haze 0 1030 40 8000 2.1 30 15:43 14.12.2019
2425 Clouds 0 1030 69 10000 0.82 71 15:25 14.12.2019
2426 Clouds 0 1030 69 10000 0.82 71 15:25 14.12.2019
2427 Clouds 0 1032 74 10000 2.1 30 14:59 14.12.2019
2428 Haze 1 1030 40 8000 0.5 40 14:39 14.12.2019
2429 Clouds 1 1030 59 10000 0.92 44 14:20 14.12.2019
2430 Clouds 0 1032 33 10000 1.5 20 13:58 14.12.2019
2431 Haze 0 1030 33 9000 1 40 13:39 14.12.2019
2432 Clouds 0 1030 35 10000 1.5 10 13:19 14.12.2019
2433 Clouds 0 1032 42 10000 3.1 40 12:55 14.12.2019
2434 Clouds 0 1032 68 10000 1.5 30 12:37 14.12.2019
2435 Haze 1 1030 35 9000 0.5 80 12:18 14.12.2019
2436 Clouds 1 1032 35 10000 1.5 30 11:55 14.12.2019
2437 Clouds 1 1031 35 10000 1.5 40 11:37 14.12.2019
2438 Haze 1 1029 33 9000 0.5 220 11:18 14.12.2019
2439 Clouds 2 1031 55 10000 2.1 20 10:55 14.12.2019
2440 Clear 2 1028 44 10000 1.5 20 10:37 14.12.2019
2441 Clear 3 1028 44 10000 1.5 20 10:18 14.12.2019
2442 Clear 3 1028 64 10000 0.5 130 09:41 14.12.2019
2443 Clear 3 1028 48 10000 0.49 78 09:21 14.12.2019
2444 Clear 5 1030 47 10000 2.6 20 08:45 14.12.2019
2445 Clear 5 1030 48 10000 2.6 60 08:20 14.12.2019
2446 Clear 6 1030 38 10000 2.6 20 07:57 14.12.2019
2447 Clear 6 1030 38 10000 3.6 360 07:38 14.12.2019
2448 Clear 6 1029 41 10000 1.5 300 07:19 14.12.2019
2449 Clear 6 1028 52 10000 2.1 190 06:41 14.12.2019
2450 Clear 5 1028 48 10000 2.1 220 06:22 14.12.2019
2451 Clear 5 1030 48 10000 2.1 70 05:22 14.12.2019
2452 Clear 3 1031 59 10000 1.5 250 02:49 14.12.2019
2453 Clear 2 1029 64 10000 3.75 301 02:22 14.12.2019
2454 Haze 2 1028 74 8000 2.1 260 01:43 14.12.2019
2455 Clear 1 1030 46 10000 1 290 00:50 14.12.2019
2456 Clear 0 1029 80 10000 1 280 00:29 14.12.2019
2457 Clear 0 1028 46 10000 0.5 270 23:58 13.12.2019
2458 Haze 1 1026 69 6000 1 310 23:38 13.12.2019
2459 Haze 1 1026 69 6000 2.1 310 23:19 13.12.2019
2460 Haze 2 1025 69 4800 0.5 320 22:42 13.12.2019
2461 Clear 2 1025 69 10000 4.13 304 22:19 13.12.2019
2462 Haze 3 1027 55 6000 1 190 21:56 13.12.2019
2463 Haze 2 1026 80 6000 2.6 290 21:38 13.12.2019
2464 Haze 3 1026 80 6000 2.6 290 21:20 13.12.2019
2465 Haze 4 1022 55 4000 1.5 250 20:43 13.12.2019
2466 Haze 4 1024 80 3200 1.5 300 20:24 13.12.2019
2467 Haze 4 1024 80 3200 1.5 300 19:59 13.12.2019
2468 Haze 4 1024 65 4000 2.6 280 19:41 13.12.2019
2469 Haze 4 1024 65 4000 2.6 280 19:41 13.12.2019
2470 Haze 4 1024 65 4000 2.6 280 19:23 13.12.2019
2471 Rain 4 1024 65 3200 3.1 320 18:59 13.12.2019
2472 Rain 4 1024 80 3200 3.1 320 18:41 13.12.2019
2473 Rain 4 1024 80 3200 3.1 320 18:19 13.12.2019
2474 Rain 4 1022 81 5000 5.1 300 17:55 13.12.2019
2475 Rain 3 1021 86 10000 5.24 310 17:37 13.12.2019
2476 Rain 4 1022 100 6000 0.5 250 17:18 13.12.2019
2477 Rain 4 1022 100 6000 0.5 250 17:18 13.12.2019
2478 Clouds 3 1021 86 10000 1.84 220 16:54 13.12.2019
2479 Rain 4 1021 81 8000 1.84 220 16:36 13.12.2019
2480 Rain 4 1022 89 6000 0.5 110 16:18 13.12.2019
2481 Rain 5 1023 93 4800 3.6 220 15:38 13.12.2019
2482 Rain 5 1023 93 4800 3.6 220 15:20 13.12.2019
2483 Rain 4 1023 100 2800 2.6 160 14:41 13.12.2019
2484 Rain 4 1023 100 2800 2.6 160 14:21 13.12.2019
2485 Rain 4 1024 93 2800 2.1 30 13:58 13.12.2019
2486 Rain 4 1024 93 2800 2.1 30 13:58 13.12.2019
2487 Clouds 4 1024 48 10000 1.5 240 13:39 13.12.2019
2488 Clouds 4 1024 50 10000 1.5 240 13:21 13.12.2019
2489 Clouds 4 1023 56 10000 5.1 180 12:42 13.12.2019
2490 Clouds 4 1023 56 10000 5.1 180 12:20 13.12.2019
2491 Clouds 4 1023 52 10000 5.7 180 11:57 13.12.2019
2492 Clouds 4 1024 56 10000 5.1 180 11:39 13.12.2019
2493 Clouds 4 1024 56 10000 5.1 180 11:21 13.12.2019
2494 Clouds 4 1024 59 10000 1 170 10:42 13.12.2019
2495 Clouds 4 1025 56 10000 4.1 180 10:23 13.12.2019
2496 Clouds 5 1025 56 10000 3.6 180 09:56 13.12.2019
2497 Clouds 5 1025 60 10000 3.6 180 09:38 13.12.2019
2498 Clouds 5 1026 59 10000 1 130 09:18 13.12.2019
2499 Clouds 6 1026 56 10000 3.1 200 08:41 13.12.2019
2500 Clouds 6 1026 56 10000 3.1 200 08:23 13.12.2019
2501 Clouds 5 1025 48 10000 1.5 210 07:45 13.12.2019
2502 Clouds 5 1025 48 10000 1.5 210 07:45 13.12.2019
2503 Clouds 5 1026 60 10000 0.5 200 07:21 13.12.2019
2504 Clouds 5 1026 60 10000 0.5 200 07:21 13.12.2019
2505 Clouds 5 1026 59 10000 0.5 320 06:51 13.12.2019
2506 Clouds 5 1027 64 10000 1 310 06:28 13.12.2019
2507 Clouds 5 1026 44 10000 2.1 170 05:45 13.12.2019
2508 Clouds 4 1027 59 10000 0.5 320 05:24 13.12.2019
2509 Clouds 2 1027 45 10000 3.6 150 04:35 13.12.2019
2510 Clouds 1 1029 47 10000 1.5 60 03:31 13.12.2019
2511 Haze -1 1030 79 9000 1 40 02:32 13.12.2019
2512 Clouds -3 1029 32 10000 1.19 104 01:42 13.12.2019
2513 Haze -5 1030 85 9000 1 80 00:53 13.12.2019
2514 Haze -6 1030 85 9000 0.5 80 00:34 13.12.2019
2515 Clouds -6 1030 85 8000 0.5 60 23:57 12.12.2019
2516 Clouds -6 1030 85 6000 0.5 70 23:37 12.12.2019
2517 Clouds -6 1030 85 6000 0.5 70 23:19 12.12.2019
2518 Clouds -6 1030 92 8000 1 70 22:42 12.12.2019
2519 Clouds -6 1030 92 8000 1 70 22:23 12.12.2019
2520 Thunderstorm -6 1031 92 8000 1 90 21:57 12.12.2019
2521 Clear -6 1031 92 8000 0.5 110 21:39 12.12.2019
2522 Clear -6 1031 92 8000 0.5 110 21:20 12.12.2019
2523 Clear -6 1031 92 9000 0.5 40 20:59 12.12.2019
2524 Clear -6 1031 85 10000 1 40 20:41 12.12.2019
2525 Clear -6 1031 85 10000 1 40 20:23 12.12.2019
2526 Clear -6 1031 85 10000 0.5 130 19:59 12.12.2019
2527 Clear -5 1031 92 10000 0.5 120 19:41 12.12.2019
2528 Clear -5 1031 92 10000 0.5 120 19:21 12.12.2019
2529 Clear -5 1031 85 10000 1 80 18:58 12.12.2019
2530 Clear -5 1031 85 10000 0.94 105 18:39 12.12.2019
2531 Clear -5 1031 85 10000 0.94 105 18:20 12.12.2019
2532 Clear -5 1031 85 10000 0.5 50 17:57 12.12.2019
2533 Clear -5 1031 92 10000 0.5 50 17:39 12.12.2019
2534 Clear -5 1031 92 10000 0.5 50 17:20 12.12.2019
2535 Clear -4 1031 79 10000 0.5 140 16:56 12.12.2019
2536 Clear -4 1032 85 10000 0.5 50 16:37 12.12.2019
2537 Clear -4 1032 85 10000 0.5 50 16:19 12.12.2019
2538 Clear -4 1032 73 10000 0.5 90 15:54 12.12.2019
2539 Haze -4 1032 79 9000 0.5 210 15:36 12.12.2019
2540 Haze -4 1032 79 9000 0.5 210 15:18 12.12.2019
2541 Clear -3 1032 79 10000 0.5 160 14:38 12.12.2019
2542 Clear -3 1032 79 10000 0.5 160 14:20 12.12.2019
2543 Clear -3 1030 63 10000 0.5 110 13:57 12.12.2019
2544 Clear -3 1032 68 10000 0.5 150 13:39 12.12.2019
2545 Clear -3 1032 68 10000 0.5 150 13:21 12.12.2019
2546 Clear -1 1031 53 10000 0.5 50 12:57 12.12.2019
2547 Clear -1 1032 58 10000 0.5 160 12:38 12.12.2019
2548 Clear -1 1032 58 10000 0.5 160 12:20 12.12.2019
2549 Clear -1 1032 68 10000 1 170 11:55 12.12.2019
2550 Clear -1 1032 68 10000 1 170 11:55 12.12.2019
2551 Clear 0 1030 40 10000 0.37 29 11:37 12.12.2019
2552 Clear 0 1031 54 10000 0.5 320 11:19 12.12.2019
2553 Clear 0 1031 54 10000 1 300 10:42 12.12.2019
2554 Clear 0 1031 54 10000 1 300 10:24 12.12.2019
2555 Clear 1 1031 37 10000 1 190 09:59 12.12.2019
2556 Clear 2 1031 47 10000 1 270 09:41 12.12.2019
2557 Clear 2 1031 47 10000 1 270 09:23 12.12.2019
2558 Clear 3 1028 27 10000 1 350 08:55 12.12.2019
2559 Clear 3 1030 37 10000 2.6 280 08:37 12.12.2019
2560 Clear 3 1028 23 10000 1.5 310 08:19 12.12.2019
2561 Clear 3 1028 34 10000 1.5 230 07:41 12.12.2019
2562 Clear 3 1028 34 10000 1.5 230 07:23 12.12.2019
2563 Clear 3 1028 25 10000 0.5 350 06:44 12.12.2019
2564 Clear 3 1030 37 10000 2.1 290 06:24 12.12.2019
2565 Clear 3 1030 40 10000 1 300 05:36 12.12.2019
2566 Clear 2 1031 43 10000 1.5 250 04:51 12.12.2019
2567 Clear 1 1031 50 10000 1 280 03:20 12.12.2019
2568 Clear -1 1031 58 10000 0.5 340 02:37 12.12.2019
2569 Clear -1 1031 58 10000 0.5 340 02:19 12.12.2019
2570 Clear -2 1030 63 10000 0.5 240 01:37 12.12.2019
2571 Clear -2 1028 58 10000 0.5 170 01:18 12.12.2019
2572 Clear -3 1030 79 10000 1 160 00:40 12.12.2019
2573 Clear -4 1028 79 10000 0.5 260 00:18 12.12.2019
2574 Clear -3 1029 73 10000 0.5 140 23:42 11.12.2019
2575 Clear -3 1029 73 10000 0.5 140 23:20 11.12.2019
2576 Clear -3 1029 73 10000 0.5 120 22:57 11.12.2019
2577 Clear -3 1028 73 10000 0.5 250 22:38 11.12.2019
2578 Clear -3 1028 73 10000 0.5 250 22:19 11.12.2019
2579 Clear -2 1028 73 10000 2.1 130 21:55 11.12.2019
2580 Clear -2 1025 46 10000 1 310 21:37 11.12.2019
2581 Clear -2 1025 46 10000 1 310 21:19 11.12.2019
2582 Clear -2 1026 63 10000 5.7 340 20:55 11.12.2019
2583 Clear -2 1025 54 10000 3.77 312 20:37 11.12.2019
2584 Clear -1 1025 46 10000 1.5 310 20:18 11.12.2019
2585 Clear -1 1027 68 10000 1 160 19:43 11.12.2019
2586 Clear -1 1027 68 10000 1 160 19:23 11.12.2019
2587 Clear 0 1027 63 10000 0.5 270 18:59 11.12.2019
2588 Clear -1 1026 63 10000 1.5 20 18:40 11.12.2019
2589 Clear 0 1025 58 10000 1.5 320 18:20 11.12.2019
2590 Clear 0 1026 68 10000 1 310 17:57 11.12.2019
2591 Thunderstorm 0 1025 58 10000 2.1 300 17:38 11.12.2019
2592 Thunderstorm 0 1025 58 10000 2.1 300 17:18 11.12.2019
2593 Clear 1 1025 58 10000 2.1 320 16:56 11.12.2019
2594 Clear 1 1023 50 10000 6.16 314 16:37 11.12.2019
2595 Clear 1 1023 50 10000 6.16 314 16:19 11.12.2019
2596 Clear 1 1022 50 10000 2.1 270 15:56 11.12.2019
2597 Clear 1 1023 55 10000 2.1 300 15:37 11.12.2019
2598 Clear 1 1023 55 10000 2.1 300 15:19 11.12.2019
2599 Thunderstorm 2 1024 50 10000 3.1 290 14:55 11.12.2019
2600 Clear 2 1024 50 10000 4.1 280 14:36 11.12.2019
2601 Clouds 2 1022 51 10000 4.6 260 14:18 11.12.2019
2602 Clouds 2 1023 55 10000 2.6 290 13:43 11.12.2019
2603 Clouds 2 1023 55 10000 2.6 290 13:22 11.12.2019
2604 Clouds 3 1023 59 10000 2.6 310 12:58 11.12.2019
2605 Clouds 3 1023 59 10000 2.6 300 12:39 11.12.2019
2606 Clouds 3 1023 59 10000 2.6 300 12:21 11.12.2019
2607 Clear 3 1022 64 10000 1.5 310 11:58 11.12.2019
2608 Clear 3 1022 64 10000 2.1 320 11:39 11.12.2019
2609 Clear 3 1022 64 10000 2.1 320 11:19 11.12.2019
2610 Clear 4 1021 59 10000 2.1 320 10:57 11.12.2019
2611 Clear 4 1018 52 10000 2.1 270 10:39 11.12.2019
2612 Clear 4 1018 52 10000 2.1 270 10:39 11.12.2019
2613 Clear 5 1018 52 10000 2.1 270 10:20 11.12.2019
2614 Clear 5 1018 52 10000 2.1 270 10:20 11.12.2019
2615 Clear 6 1019 55 10000 3.1 320 09:44 11.12.2019
2616 Clear 6 1019 55 10000 3.1 320 09:21 11.12.2019
2617 Clear 7 1018 52 10000 3.1 270 08:58 11.12.2019
2618 Haze 7 1018 56 9000 3.6 320 08:40 11.12.2019
2619 Haze 7 1018 56 9000 3.6 320 08:20 11.12.2019
2620 Clouds 8 1017 36 10000 5.7 290 07:59 11.12.2019
2621 Clouds 8 1017 49 10000 3.6 260 07:41 11.12.2019
2622 Haze 9 1016 52 9000 5.1 250 07:22 11.12.2019
2623 Haze 9 1014 45 8000 2.6 190 06:44 11.12.2019
2624 Clear 9 1015 42 10000 6.79 278 06:23 11.12.2019
2625 Clouds 9 1016 42 7000 9.3 290 05:46 11.12.2019
2626 Clouds 9 1015 42 7000 8.7 270 05:27 11.12.2019
2627 Haze 9 1017 65 4000 3.1 260 04:41 11.12.2019
2628 Haze 9 1016 70 6000 5.62 278 02:49 11.12.2019
2629 Rain 8 1015 87 3200 3.7 265 01:26 11.12.2019
2630 Rain 8 1016 93 800 2.1 210 00:49 11.12.2019
2631 Rain 8 1016 93 800 2.1 210 00:25 11.12.2019
2632 Mist 8 1016 93 800 2.1 210 23:59 10.12.2019
2633 Mist 8 1016 100 1200 1 220 23:40 10.12.2019
2634 Mist 8 1016 100 1200 1 220 23:21 10.12.2019
2635 Clouds 7 1014 87 10000 2.19 183 22:41 10.12.2019
2636 Clouds 7 1014 87 10000 2.19 183 22:22 10.12.2019
2637 Clouds 6 1014 87 10000 1.5 150 21:57 10.12.2019
2638 Clouds 6 1014 87 10000 1.5 170 21:39 10.12.2019
2639 Clouds 6 1014 87 10000 1.5 170 21:21 10.12.2019
2640 Clouds 6 1015 87 10000 1.5 170 20:57 10.12.2019
2641 Fog 6 1016 100 0 0.5 190 20:38 10.12.2019
2642 Fog 6 1016 100 0 0.5 190 20:19 10.12.2019
2643 Fog 6 1016 100 0 0.5 190 20:19 10.12.2019
2644 Thunderstorm 6 1016 100 4800 3.1 150 19:55 10.12.2019
2645 Rain 6 1017 93 2400 3.1 180 19:37 10.12.2019
2646 Rain 6 1017 93 2400 3.1 180 19:19 10.12.2019
2647 Mist 6 1017 87 2000 2.6 190 18:41 10.12.2019
2648 Mist 6 1017 87 2000 2.6 190 18:21 10.12.2019
2649 Mist 6 1017 93 1600 2.1 180 17:58 10.12.2019
2650 Clouds 6 1016 76 10000 2.1 180 17:40 10.12.2019
2651 Clouds 6 1016 76 10000 2.1 180 17:40 10.12.2019
2652 Clouds 6 1016 76 10000 2.1 180 17:20 10.12.2019
2653 Fog 6 1017 100 0 0.5 160 16:54 10.12.2019
2654 Clouds 6 1017 87 10000 1.75 144 16:36 10.12.2019
2655 Clouds 6 1017 87 10000 1.75 144 16:18 10.12.2019
2656 Clouds 6 1017 87 10000 1.75 144 16:18 10.12.2019
2657 Clouds 6 1017 87 10000 1.75 144 16:18 10.12.2019
2658 Fog 6 1018 100 400 1 130 15:38 10.12.2019
2659 Fog 5 1018 100 400 1 130 15:18 10.12.2019
2660 Fog 5 1018 100 800 0.5 190 14:56 10.12.2019
2661 Mist 5 1017 100 4800 1.75 144 14:37 10.12.2019
2662 Mist 5 1017 100 4800 1.28 138 14:19 10.12.2019
2663 Mist 5 1017 93 6000 1.28 138 13:56 10.12.2019
2664 Mist 5 1017 100 4800 1.41 144 13:38 10.12.2019
2665 Mist 5 1017 100 4800 1.41 144 13:19 10.12.2019
2666 Mist 5 1018 100 1200 0.5 170 12:47 10.12.2019
2667 Fog 5 1019 100 800 0.5 80 12:26 10.12.2019
2668 Mist 6 1018 93 6000 1.41 144 11:45 10.12.2019
2669 Fog 6 1018 100 1100 1 340 11:25 10.12.2019
2670 Fog 6 1019 100 400 0.5 30 10:58 10.12.2019
2671 Mist 7 1017 87 8000 1.26 152 10:40 10.12.2019
2672 Mist 7 1017 87 8000 1.26 152 10:22 10.12.2019
2673 Fog 8 1019 100 800 0.5 340 09:56 10.12.2019
2674 Fog 8 1019 100 800 0.5 340 09:56 10.12.2019
2675 Mist 8 1019 93 1200 0.5 90 09:38 10.12.2019
2676 Mist 8 1019 93 1200 0.5 90 09:38 10.12.2019
2677 Mist 8 1019 93 1200 0.5 90 09:20 10.12.2019
2678 Mist 10 1018 87 2400 1.26 152 08:57 10.12.2019
2679 Mist 10 1018 87 2400 1.26 152 08:57 10.12.2019
2680 Haze 10 1020 87 1600 0.5 360 08:38 10.12.2019
2681 Haze 10 1020 87 1600 0.5 360 08:19 10.12.2019
2682 Haze 10 1019 87 2000 1 360 07:44 10.12.2019
2683 Haze 10 1018 71 3600 1.41 159 07:26 10.12.2019
2684 Haze 10 1018 81 3200 1.5 170 06:49 10.12.2019
2685 Haze 10 1020 81 2000 0.5 330 06:24 10.12.2019
2686 Haze 10 1020 75 2000 1.41 159 05:55 10.12.2019
2687 Haze 8 1019 81 3200 1.5 130 04:58 10.12.2019
2688 Mist 7 1022 100 1200 0.5 280 03:40 10.12.2019
2689 Rain 6 1021 100 1600 0.5 290 02:47 10.12.2019
2690 Mist 5 1021 100 3000 1.29 132 01:50 10.12.2019
2691 Rain 5 1022 100 0 0.5 150 01:25 10.12.2019
2692 Rain 4 1022 100 0 0.5 190 00:49 10.12.2019
2693 Rain 4 1022 100 0 1 70 00:24 10.12.2019
2694 Mist 4 1020 100 1200 0.5 190 23:43 09.12.2019
2695 Mist 4 1020 100 1400 1.64 146 23:24 09.12.2019
2696 Mist 4 1019 93 1800 1.64 146 22:58 09.12.2019
2697 Mist 4 1020 100 1200 0.5 190 22:40 09.12.2019
2698 Mist 4 1020 100 1200 0.5 190 22:21 09.12.2019
2699 Mist 4 1020 100 1600 0.5 30 21:57 09.12.2019
2700 Mist 6 1019 100 2600 1.5 180 21:39 09.12.2019
2701 Mist 6 1019 100 2600 1.5 180 21:19 09.12.2019
2702 Mist 7 1019 93 2800 1.5 150 20:57 09.12.2019
2703 Mist 7 1019 93 3500 1.5 180 20:39 09.12.2019
2704 Mist 7 1019 93 3500 1.5 180 20:20 09.12.2019
2705 Mist 7 1019 93 3500 1.5 180 20:20 09.12.2019
2706 Mist 7 1019 87 1300 3.6 320 19:56 09.12.2019
2707 Rain 7 1019 93 3500 3.1 180 19:38 09.12.2019
2708 Rain 7 1019 93 3500 3.1 180 19:19 09.12.2019
2709 Rain 8 1020 87 2800 2.6 310 18:58 09.12.2019
2710 Rain 8 1019 81 4500 3.1 320 18:39 09.12.2019
2711 Rain 8 1019 81 4500 3.1 320 18:20 09.12.2019
2712 Rain 9 1019 81 4500 3.6 250 17:58 09.12.2019
2713 Clouds 6 1019 75 7000 4.1 180 17:39 09.12.2019
2714 Clouds 6 1019 75 7000 4.1 180 17:20 09.12.2019
2715 Rain 6 1022 100 800 0.5 80 16:56 09.12.2019
2716 Clouds 6 1020 66 10000 1.9 146 16:37 09.12.2019
2717 Clouds 6 1020 66 10000 1.9 146 16:19 09.12.2019
2718 Haze 6 1021 74 6000 0.5 180 15:55 09.12.2019
2719 Clouds 6 1020 66 10000 1.9 146 15:37 09.12.2019
2720 Clouds 6 1020 66 10000 1.9 146 15:19 09.12.2019
2721 Haze 5 1022 74 6000 0.5 350 14:55 09.12.2019
2722 Clouds 5 1020 65 10000 1.5 150 14:37 09.12.2019
2723 Clouds 5 1020 65 10000 1.5 150 14:18 09.12.2019
2724 Clouds 5 1021 75 10000 1.54 135 13:40 09.12.2019
2725 Clouds 5 1021 75 10000 1.63 126 13:20 09.12.2019
2726 Clouds 4 1021 75 10000 1.63 126 12:58 09.12.2019
2727 Clouds 4 1021 75 10000 1.63 126 12:38 09.12.2019
2728 Clouds 4 1021 75 10000 1.63 126 12:38 09.12.2019
2729 Clouds 4 1021 75 10000 1.63 126 12:20 09.12.2019
2730 Haze 5 1022 74 6000 0.5 90 11:59 09.12.2019
2731 Clear 5 1021 56 10000 1.63 126 11:39 09.12.2019
2732 Clear 5 1021 56 10000 1.76 138 11:21 09.12.2019
2733 Haze 5 1022 64 6000 0.5 10 10:55 09.12.2019
2734 Haze 4 1022 80 4800 5.1 350 10:37 09.12.2019
2735 Haze 4 1022 80 4800 5.1 350 10:18 09.12.2019
2736 Haze 4 1022 80 4800 5.1 350 10:18 09.12.2019
2737 Clouds 6 1021 74 10000 0.5 20 09:41 09.12.2019
2738 Clouds 6 1021 74 10000 0.5 20 09:22 09.12.2019
2739 Clouds 6 1021 56 10000 1.76 138 08:55 09.12.2019
2740 Clouds 6 1021 52 10000 1.5 150 08:37 09.12.2019
2741 Clouds 6 1021 52 10000 1.5 150 08:19 09.12.2019
2742 Clouds 6 1021 56 10000 2.9 159 07:42 09.12.2019
2743 Clouds 6 1021 56 10000 2.9 159 07:24 09.12.2019
2744 Haze 5 1022 59 8000 1.5 360 06:54 09.12.2019
2745 Haze 5 1023 55 8000 3.6 140 06:26 09.12.2019
2746 Haze 4 1023 64 6000 1.5 50 05:29 09.12.2019
2747 Haze 4 1023 55 8000 2.6 150 04:51 09.12.2019
2748 Haze 4 1023 55 9000 1.73 111 04:20 09.12.2019
2749 Haze 1 1024 64 8000 1.5 70 02:27 09.12.2019
2750 Haze 0 1024 64 8000 1.5 70 01:44 09.12.2019
2751 Haze -1 1024 64 9000 1.5 60 00:53 09.12.2019
2752 Haze -1 1025 69 6000 0.5 30 00:32 09.12.2019
2753 Haze -2 1026 86 4800 0.5 110 23:44 08.12.2019
2754 Clouds -2 1025 64 10000 1.72 94 23:24 08.12.2019
2755 Clouds -2 1026 86 4800 1 30 22:58 08.12.2019
2756 Clouds -2 1025 64 10000 1.69 103 22:39 08.12.2019
2757 Clouds -2 1025 64 10000 1.69 103 22:20 08.12.2019
2758 Clouds -3 1026 92 4800 1 30 21:58 08.12.2019
2759 Clouds -3 1025 47 10000 1.69 103 21:40 08.12.2019
2760 Clouds -3 1025 47 10000 1.69 103 21:22 08.12.2019
2761 Clouds -3 1026 85 4800 0.5 100 20:57 08.12.2019
2762 Clouds -3 1025 47 10000 1.69 103 20:38 08.12.2019
2763 Clouds -3 1025 42 10000 1.09 90 20:20 08.12.2019
2764 Mist -4 1027 100 4000 1.5 40 19:59 08.12.2019
2765 Clouds -4 1026 74 10000 1.09 90 19:41 08.12.2019
2766 Clouds -4 1026 74 10000 1.09 90 19:23 08.12.2019
2767 Mist -4 1027 100 4000 0.5 70 18:55 08.12.2019
2768 Clouds -4 1026 74 10000 1.09 90 18:37 08.12.2019
2769 Clouds -4 1026 74 10000 1.09 90 18:19 08.12.2019
2770 Clouds -4 1026 74 10000 1.09 90 18:19 08.12.2019
2771 Clouds -3 1027 100 4800 0.5 30 17:57 08.12.2019
2772 Clouds -3 1027 74 10000 1.09 90 17:38 08.12.2019
2773 Clouds -3 1027 74 10000 0.8 97 17:20 08.12.2019
2774 Clouds -3 1027 74 10000 0.8 97 17:20 08.12.2019
2775 Clouds -3 1027 85 6000 0.5 210 16:57 08.12.2019
2776 Clouds -4 1027 79 10000 0.8 97 16:39 08.12.2019
2777 Clouds -4 1027 79 10000 0.8 97 16:20 08.12.2019
2778 Clouds -4 1028 92 4800 0.5 50 15:55 08.12.2019
2779 Haze -3 1027 86 9000 0.8 97 15:36 08.12.2019
2780 Haze -3 1027 86 9000 0.8 97 15:36 08.12.2019
2781 Clouds -3 1028 85 4800 0.5 150 15:18 08.12.2019
2782 Clouds -3 1028 85 4800 0.5 140 14:43 08.12.2019
2783 Clear -3 1027 79 10000 0.75 82 14:24 08.12.2019
2784 Clear -3 1028 85 4800 0.5 190 13:57 08.12.2019
2785 Clear -3 1027 74 10000 0.75 82 13:39 08.12.2019
2786 Clear -3 1027 74 10000 0.75 84 13:21 08.12.2019
2787 Haze -2 1028 85 6000 0.5 170 12:55 08.12.2019
2788 Clear -2 1027 74 10000 0.75 84 12:37 08.12.2019
2789 Clear -2 1027 74 10000 0.75 84 12:18 08.12.2019
2790 Haze -2 1028 73 6000 0.5 160 11:55 08.12.2019
2791 Clear -2 1027 68 10000 0.75 84 11:37 08.12.2019
2792 Clear -1 1027 68 10000 0.3 61 11:18 08.12.2019
2793 Clouds 0 1027 38 10000 0.3 61 10:39 08.12.2019
2794 Clouds 0 1027 38 10000 0.3 61 10:20 08.12.2019
2795 Haze 2 1027 68 8000 0.5 170 09:58 08.12.2019
2796 Clear 2 1027 48 10000 0.3 61 09:39 08.12.2019
2797 Clear 2 1027 48 10000 0.3 61 09:20 08.12.2019
2798 Clear 4 1027 51 10000 0.5 10 08:58 08.12.2019
2799 Clear 4 1027 44 10000 0.19 111 08:37 08.12.2019
2800 Clear 4 1027 44 10000 0.47 291 08:19 08.12.2019
2801 Clear 5 1027 44 10000 1.5 200 07:43 08.12.2019
2802 Clear 5 1027 44 10000 0.47 291 07:20 08.12.2019
2803 Clear 4 1027 48 10000 1 250 06:50 08.12.2019
2804 Clear 4 1028 44 10000 2.1 260 06:22 08.12.2019
2805 Clear 3 1028 51 10000 1.5 200 05:48 08.12.2019
2806 Clear 3 1028 55 10000 0.26 293 05:18 08.12.2019
2807 Haze 0 1030 80 6000 1 10 03:50 08.12.2019
2808 Clear -1 1030 45 10000 1.5 130 03:23 08.12.2019
2809 Haze -2 1030 80 9000 1.5 130 02:39 08.12.2019
2810 Mist -4 1031 92 3200 1 20 01:55 08.12.2019
2811 Mist -5 1030 92 9000 0.13 124 01:19 08.12.2019
2812 Mist -6 1030 92 4800 0.13 124 00:40 08.12.2019
2813 Mist -6 1030 92 4800 0.13 124 00:20 08.12.2019
2814 Mist -7 1029 92 8000 0.13 124 23:40 07.12.2019
2815 Mist -7 1029 92 8000 0.31 321 23:21 07.12.2019
2816 Mist -7 1030 100 2800 0.5 160 22:56 07.12.2019
2817 Mist -7 1029 92 6000 0.31 321 22:38 07.12.2019
2818 Mist -7 1029 92 6000 0.31 321 22:20 07.12.2019
2819 Mist -6 1030 100 3200 0.5 130 21:56 07.12.2019
2820 Mist -7 1029 92 8000 0.31 321 21:38 07.12.2019
2821 Mist -7 1029 92 8000 0.31 321 21:38 07.12.2019
2822 Mist -7 1029 92 8000 0.31 321 21:38 07.12.2019
2823 Mist -7 1029 92 8000 0.31 321 21:19 07.12.2019
2824 Mist -7 1030 100 3200 1 40 20:56 07.12.2019
2825 Mist -7 1029 92 8000 0.31 321 20:36 07.12.2019
2826 Mist -7 1029 92 8000 0.61 276 20:18 07.12.2019
2827 Mist -6 1030 100 2400 0.5 40 19:56 07.12.2019
2828 Mist -6 1029 92 8000 0.61 276 19:37 07.12.2019
2829 Mist -6 1029 92 8000 0.61 276 19:19 07.12.2019
2830 Mist -6 1030 100 2000 1 30 18:44 07.12.2019
2831 Clear -6 1029 85 10000 0.61 276 18:19 07.12.2019
2832 Mist -5 1029 100 2000 1 30 17:58 07.12.2019
2833 Clear -5 1029 79 10000 0.61 276 17:39 07.12.2019
2834 Clear -5 1029 79 10000 1.07 298 17:21 07.12.2019
2835 Mist -4 1030 100 1600 1 20 16:56 07.12.2019
2836 Clear -5 1029 68 10000 1.07 298 16:38 07.12.2019
2837 Clear -5 1029 68 10000 1.07 298 16:19 07.12.2019
2838 Clouds -4 1030 71 10000 1.5 340 15:42 07.12.2019
2839 Clouds -4 1030 71 10000 1.5 340 15:24 07.12.2019
2840 Clouds -3 1030 74 10000 1.07 298 14:58 07.12.2019
2841 Clouds -4 1030 80 10000 1.07 298 14:40 07.12.2019
2842 Clouds -4 1030 80 10000 1.25 302 14:18 07.12.2019
2843 Clouds -3 1030 92 4800 0.5 170 13:41 07.12.2019
2844 Clouds -3 1029 86 10000 1.25 294 13:21 07.12.2019
2845 Clear -3 1029 92 6000 0.5 170 12:59 07.12.2019
2846 Clear -3 1028 86 10000 1.25 294 12:40 07.12.2019
2847 Clear -3 1028 86 10000 1.25 294 12:22 07.12.2019
2848 Clear -3 1029 92 6000 1 160 11:57 07.12.2019
2849 Clear -2 1028 79 10000 1.25 294 11:39 07.12.2019
2850 Clear -2 1028 79 10000 1.05 314 11:20 07.12.2019
2851 Clouds -1 1028 80 10000 1.05 314 10:38 07.12.2019
2852 Clouds -1 1028 80 10000 1.05 314 10:19 07.12.2019
2853 Clouds 0 1028 74 10000 0.5 130 09:42 07.12.2019
2854 Haze 1 1029 88 9000 1 210 09:22 07.12.2019
2855 Clouds 1 1028 68 10000 1 200 08:59 07.12.2019
2856 Clear 1 1028 69 10000 1.05 314 08:39 07.12.2019
2857 Clear 1 1028 69 10000 0.64 121 08:21 07.12.2019
2858 Clouds 1 1028 68 10000 1 190 07:45 07.12.2019
2859 Clouds 1 1028 64 10000 0.64 121 07:25 07.12.2019
2860 Clouds 0 1028 74 10000 1 180 06:48 07.12.2019
2861 Haze 0 1029 69 8000 1 160 06:24 07.12.2019
2862 Clouds -1 1029 86 9000 2.1 130 05:25 07.12.2019
2863 Haze -2 1029 68 8000 1.05 128 03:55 07.12.2019
2864 Haze -3 1031 79 6000 1 20 02:59 07.12.2019
2865 Clouds -3 1030 54 10000 1.54 120 02:21 07.12.2019
2866 Clouds -3 1030 58 10000 1.5 60 01:34 07.12.2019
2867 Clouds -4 1031 62 10000 1.5 200 00:52 07.12.2019
2868 Clouds -4 1029 54 10000 1.53 125 00:19 07.12.2019
2869 Haze -5 1031 79 6000 0.5 40 23:48 06.12.2019
2870 Clouds -5 1029 54 10000 1.53 125 23:25 06.12.2019
2871 Clouds -5 1030 57 10000 0.5 210 22:59 06.12.2019
2872 Clouds -5 1030 58 10000 1.97 133 22:37 06.12.2019
2873 Clouds -5 1030 58 10000 1.97 133 22:19 06.12.2019
2874 Clouds -6 1031 67 10000 2.1 210 21:56 06.12.2019
2875 Clouds -6 1030 53 10000 1.97 133 21:38 06.12.2019
2876 Clouds -6 1030 53 10000 1.97 133 21:19 06.12.2019
2877 Clouds -6 1030 53 10000 1.97 133 21:19 06.12.2019
2878 Clouds -6 1030 62 10000 1.97 133 20:42 06.12.2019
2879 Clouds -6 1030 62 10000 1.97 133 20:42 06.12.2019
2880 Clouds -6 1030 62 10000 0.82 131 20:22 06.12.2019
2881 Clouds -7 1031 67 10000 0.5 190 19:58 06.12.2019
2882 Clouds -7 1031 67 10000 0.5 190 19:58 06.12.2019
2883 Clouds -7 1031 58 10000 0.82 131 19:39 06.12.2019
2884 Clouds -7 1031 58 10000 0.82 131 19:21 06.12.2019
2885 Clouds -7 1032 72 10000 1 190 18:45 06.12.2019
2886 Clouds -7 1031 62 10000 0.82 131 18:23 06.12.2019
2887 Clouds -7 1032 67 10000 0.5 170 17:58 06.12.2019
2888 Clouds -7 1032 67 10000 0.82 131 17:40 06.12.2019
2889 Clouds -7 1032 67 10000 0.6 224 17:22 06.12.2019
2890 Clouds -7 1033 67 10000 1 190 16:59 06.12.2019
2891 Clear -7 1033 62 10000 0.6 224 16:40 06.12.2019
2892 Clear -7 1033 62 10000 0.6 224 16:21 06.12.2019
2893 Clouds -7 1033 72 10000 1.5 160 15:56 06.12.2019
2894 Clear -7 1033 62 10000 0.6 224 15:38 06.12.2019
2895 Clear -7 1033 62 10000 0.6 224 15:38 06.12.2019
2896 Clear -7 1033 62 10000 0.6 224 15:18 06.12.2019
2897 Clear -7 1033 57 10000 0.6 224 14:41 06.12.2019
2898 Clear -7 1033 57 10000 0.6 224 14:41 06.12.2019
2899 Clear -7 1033 57 10000 1.32 312 14:20 06.12.2019
2900 Clear -6 1033 61 10000 1 170 13:58 06.12.2019
2901 Clear -6 1033 49 10000 1.32 312 13:40 06.12.2019
2902 Clear -6 1033 49 10000 1.31 309 13:21 06.12.2019
2903 Clear -5 1033 45 10000 1.31 309 12:39 06.12.2019
2904 Clear -5 1033 45 10000 1.31 309 12:21 06.12.2019
2905 Clear -4 1034 33 10000 1.31 309 11:43 06.12.2019
2906 Clear -4 1034 33 10000 1.31 309 11:23 06.12.2019
2907 Clear -4 1033 49 10000 0.5 160 10:58 06.12.2019
2908 Clear -3 1034 33 10000 2.1 308 10:40 06.12.2019
2909 Clear -3 1034 33 10000 2.1 308 10:20 06.12.2019
2910 Clear -3 1033 28 10000 1 250 09:56 06.12.2019
2911 Clear -2 1034 33 10000 1.5 340 09:37 06.12.2019
2912 Clear -2 1034 33 10000 1.5 340 09:19 06.12.2019
2913 Clear -2 1034 33 10000 1.5 340 09:19 06.12.2019
2914 Clear -1 1033 23 10000 1.5 180 08:43 06.12.2019
2915 Clear -1 1034 30 10000 1.5 310 08:25 06.12.2019
2916 Clear -1 1034 28 10000 1.5 190 07:42 06.12.2019
2917 Clear -1 1035 28 10000 2.5 306 07:22 06.12.2019
2918 Clear -1 1034 23 10000 2.6 270 06:48 06.12.2019
2919 Clear -1 1037 33 10000 2.1 220 06:25 06.12.2019
2920 Clear -2 1035 22 10000 1 180 05:49 06.12.2019
2921 Clear -6 1038 41 10000 0.5 230 02:51 06.12.2019
2922 Clear -9 1038 41 10000 1.97 304 01:45 06.12.2019
2923 Clear -10 1040 84 10000 0.5 60 00:51 06.12.2019
2924 Clear -11 1038 72 10000 0.5 330 00:23 06.12.2019
2925 Clear -11 1039 52 10000 3.1 40 23:51 05.12.2019
2926 Clear -11 1038 51 10000 2.02 292 23:21 05.12.2019
2927 Clear -11 1038 72 10000 0.5 190 22:58 05.12.2019
2928 Clear -11 1038 51 10000 2.02 292 22:39 05.12.2019
2929 Clear -11 1038 51 10000 2.02 292 22:39 05.12.2019
2930 Clear -11 1038 51 10000 2.02 292 22:19 05.12.2019
2931 Clear -10 1038 78 10000 0.5 120 21:57 05.12.2019
2932 Clear -10 1038 78 10000 0.5 120 21:57 05.12.2019
2933 Clear -10 1038 40 10000 2.02 292 21:39 05.12.2019
2934 Clear -10 1038 40 10000 2.02 292 21:39 05.12.2019
2935 Clear -10 1038 40 10000 2.02 292 21:20 05.12.2019
2936 Clear -10 1038 78 10000 0.5 170 20:56 05.12.2019
2937 Clear -10 1038 72 10000 0.5 140 20:38 05.12.2019
2938 Clear -10 1038 72 10000 0.5 140 20:38 05.12.2019
2939 Clear -10 1038 34 10000 2.4 300 20:18 05.12.2019
2940 Clear -10 1038 72 10000 0.5 140 19:41 05.12.2019
2941 Clear -10 1038 37 10000 2.4 300 19:22 05.12.2019
2942 Clear -9 1040 72 10000 1 170 18:59 05.12.2019
2943 Clear -9 1038 66 10000 1 170 18:39 05.12.2019
2944 Clear -9 1039 34 10000 2.4 300 18:20 05.12.2019
2945 Clear -9 1040 66 10000 1.5 130 17:55 05.12.2019
2946 Clear -9 1038 61 10000 1 190 17:36 05.12.2019
2947 Clear -9 1039 34 10000 2.1 320 17:18 05.12.2019
2948 Clear -9 1038 56 10000 1 130 16:40 05.12.2019
2949 Clear -8 1039 37 10000 2.21 306 16:21 05.12.2019
2950 Clear -8 1041 56 10000 0.5 140 15:58 05.12.2019
2951 Clear -8 1041 56 10000 0.5 140 15:58 05.12.2019
2952 Clear -8 1038 48 10000 1 110 15:39 05.12.2019
2953 Clear -8 1039 37 10000 2.21 306 15:20 05.12.2019
2954 Clear -8 1041 61 10000 1 100 14:56 05.12.2019
2955 Clear -7 1038 44 10000 1 290 14:38 05.12.2019
2956 Clear -7 1040 56 10000 0.5 180 14:19 05.12.2019
2957 Clear -7 1040 56 10000 2.1 340 13:57 05.12.2019
2958 Clear -7 1037 41 10000 1.5 290 13:39 05.12.2019
2959 Clear -7 1038 44 10000 2.1 320 13:20 05.12.2019
2960 Clear -6 1040 47 10000 0.5 360 12:57 05.12.2019
2961 Clear -6 1037 41 10000 1.5 350 12:38 05.12.2019
2962 Clear -6 1038 41 10000 3.81 311 12:20 05.12.2019
2963 Clear -5 1037 35 10000 2.1 340 11:39 05.12.2019
2964 Clear -5 1037 41 10000 2.1 350 11:21 05.12.2019
2965 Clear -5 1039 48 10000 1 360 10:58 05.12.2019
2966 Clear -4 1036 29 10000 1 350 10:40 05.12.2019
2967 Clear -4 1036 29 10000 1 350 10:40 05.12.2019
2968 Clear -4 1036 38 10000 1.5 330 10:19 05.12.2019
2969 Clear -4 1039 44 10000 2.1 330 09:55 05.12.2019
2970 Clear -4 1036 25 10000 1.5 300 09:37 05.12.2019
2971 Clear -3 1036 32 10000 2.6 320 09:18 05.12.2019
2972 Clear -2 1035 28 10000 2.1 230 08:39 05.12.2019
2973 Clear -2 1035 28 10000 3.1 330 08:20 05.12.2019
2974 Clear -1 1036 25 10000 3.1 270 07:58 05.12.2019
2975 Clear -1 1035 23 10000 1.5 280 07:38 05.12.2019
2976 Clear -1 1035 28 10000 2.1 250 07:20 05.12.2019
2977 Clear -1 1037 30 10000 2.1 300 06:45 05.12.2019
2978 Clear -1 1035 26 10000 1.5 340 06:23 05.12.2019
2979 Clear -1 1035 27 10000 5.1 260 05:48 05.12.2019
2980 Clear -1 1035 27 10000 3.1 320 05:24 05.12.2019
2981 Clear -1 1036 22 10000 5.3 305 04:27 05.12.2019
2982 Clear -1 1036 22 10000 5.3 305 04:27 05.12.2019
2983 Clear -2 1038 27 10000 3.1 310 02:55 05.12.2019
2984 Clear -3 1037 21 10000 2.1 320 02:25 05.12.2019
2985 Clear -3 1038 32 10000 3.1 300 01:59 05.12.2019
2986 Clear -3 1036 19 10000 2.6 240 01:40 05.12.2019
2987 Clear -3 1037 35 10000 4.56 310 01:20 05.12.2019
2988 Clear -4 1035 30 10000 0.5 160 00:37 05.12.2019
2989 Clear -4 1035 42 10000 4.56 310 00:18 05.12.2019
2990 Clear -4 1034 41 10000 1 220 23:42 04.12.2019
2991 Clear -4 1035 35 10000 1.5 290 23:22 04.12.2019
2992 Clear -4 1035 38 10000 0.5 230 22:57 04.12.2019
2993 Clear -4 1034 33 10000 1.5 270 22:36 04.12.2019
2994 Clear -4 1034 33 10000 1.5 270 22:36 04.12.2019
2995 Clear -4 1034 42 10000 1.5 300 22:18 04.12.2019
2996 Clear -3 1035 35 10000 1 330 21:55 04.12.2019
2997 Clear -3 1033 39 10000 1 10 21:37 04.12.2019
2998 Clear -3 1033 42 10000 4.88 322 21:18 04.12.2019
2999 Clear -3 1035 49 10000 1.5 20 20:56 04.12.2019
3000 Clear -3 1032 42 10000 1 340 20:37 04.12.2019
3001 Clear -2 1035 57 10000 1 340 20:19 04.12.2019
3002 Clear -2 1033 39 10000 0.5 10 19:40 04.12.2019
3003 Clear -2 1033 39 10000 2.1 320 19:22 04.12.2019
3004 Clear -1 1035 58 10000 1 70 18:58 04.12.2019
3005 Clear -1 1033 46 10000 1 320 18:40 04.12.2019
3006 Clear -1 1033 24 10000 1.5 330 18:22 04.12.2019
3007 Clear -1 1035 53 10000 1.5 330 17:56 04.12.2019
3008 Clear -1 1032 54 10000 0.5 160 17:37 04.12.2019
3009 Clear -1 1032 47 10000 2.1 320 17:18 04.12.2019
3010 Clear 0 1031 42 10000 1 360 16:40 04.12.2019
3011 Clear 0 1032 50 10000 2.1 310 16:20 04.12.2019
3012 Clear 1 1034 54 10000 1.5 30 15:57 04.12.2019
3013 Clear 1 1031 43 10000 1 10 15:39 04.12.2019
3014 Clear 1 1032 51 10000 2.1 320 15:20 04.12.2019
3015 Clear 1 1034 63 10000 1 10 14:57 04.12.2019
3016 Clear 1 1034 63 10000 1 10 14:57 04.12.2019
3017 Clear 1 1031 51 10000 2.6 360 14:39 04.12.2019
3018 Clear 1 1031 51 10000 1.5 340 14:20 04.12.2019
3019 Clouds 1 1030 54 10000 0.5 100 13:39 04.12.2019
3020 Clear 1 1030 51 10000 3.94 316 13:21 04.12.2019
3021 Clear 1 1032 79 10000 2.1 20 12:59 04.12.2019
3022 Clear 2 1029 69 10000 0.5 160 12:41 04.12.2019
3023 Clear 2 1029 51 10000 3.94 316 12:23 04.12.2019
3024 Clear 3 1029 51 10000 0.5 170 11:43 04.12.2019
3025 Clear 3 1029 51 10000 3.66 277 11:24 04.12.2019
3026 Clear 4 1030 59 10000 1 140 10:57 04.12.2019
3027 Clear 4 1028 48 10000 3.66 277 10:39 04.12.2019
3028 Clear 4 1028 48 10000 3.66 277 10:21 04.12.2019
3029 Clouds 5 1028 45 10000 2.1 260 09:42 04.12.2019
3030 Clouds 5 1028 48 10000 1.5 330 09:23 04.12.2019
3031 Clouds 6 1030 44 10000 1.5 290 08:43 04.12.2019
3032 Clouds 6 1027 39 10000 1.68 283 08:25 04.12.2019
3033 Clouds 6 1029 41 10000 1 300 07:51 04.12.2019
3034 Clouds 7 1027 36 10000 4 273 07:31 04.12.2019
3035 Clouds 7 1029 38 10000 1.5 210 06:57 04.12.2019
3036 Clouds 6 1027 33 10000 4 273 06:31 04.12.2019
3037 Clear 6 1028 35 10000 2.1 200 05:43 04.12.2019
3038 Clear 4 1028 30 10000 2.1 160 04:34 04.12.2019
3039 Clear 2 1029 41 10000 1.5 220 03:29 04.12.2019
3040 Clear -1 1029 64 10000 0.74 306 01:25 04.12.2019
3041 Clear -3 1031 92 8000 1 270 00:47 04.12.2019
3042 Clear -3 1028 79 10000 1.09 304 00:20 04.12.2019
3043 Clear -3 1028 92 9000 0.5 160 23:41 03.12.2019
3044 Clear -3 1028 86 10000 1.4 349 23:20 03.12.2019
3045 Clear -3 1029 100 8000 1 40 22:57 03.12.2019
3046 Clear -3 1028 100 10000 1 140 22:38 03.12.2019
3047 Clear -3 1027 79 10000 1.4 349 22:18 03.12.2019
3048 Clear -2 1029 92 10000 0.5 150 21:55 03.12.2019
3049 Clear -2 1027 74 10000 1.4 349 21:36 03.12.2019
3050 Clear -2 1027 74 10000 1.4 349 21:18 03.12.2019
3051 Clear -1 1027 100 6000 0.5 170 20:41 03.12.2019
3052 Clear -1 1027 47 10000 1.58 332 20:19 03.12.2019
3053 Clouds 1 1028 59 10000 2.1 30 19:56 03.12.2019
3054 Clouds 1 1028 59 10000 2.1 30 19:38 03.12.2019
3055 Clouds 1 1027 77 10000 2.6 340 19:20 03.12.2019
3056 Clouds 2 1027 69 10000 4.1 10 18:57 03.12.2019
3057 Clouds 1 1027 69 10000 3.1 10 18:39 03.12.2019
3058 Clouds 2 1027 69 10000 3.1 10 18:21 03.12.2019
3059 Clouds 2 1027 69 10000 3.1 10 18:21 03.12.2019
3060 Clouds 2 1026 77 6000 0.5 200 17:57 03.12.2019
3061 Clouds 2 1026 77 6000 0.5 200 17:38 03.12.2019
3062 Clouds 2 1026 80 10000 2.21 317 17:18 03.12.2019
3063 Clouds 2 1028 86 10000 2.6 50 16:57 03.12.2019
3064 Rain 2 1026 86 6000 0.5 170 16:38 03.12.2019
3065 Thunderstorm 2 1025 86 10000 2.21 317 16:20 03.12.2019
3066 Rain 2 1025 86 10000 2.21 317 15:55 03.12.2019
3067 Rain 2 1025 86 10000 2.21 317 15:54 03.12.2019
3068 Rain 2 1026 86 6000 0.5 170 15:36 03.12.2019
3069 Rain 2 1025 86 10000 2.21 317 15:18 03.12.2019
3070 Rain 2 1025 86 8000 1 200 14:41 03.12.2019
3071 Rain 2 1025 80 10000 0.39 222 14:20 03.12.2019
3072 Clouds 2 1027 92 10000 1 310 13:54 03.12.2019
3073 Clouds 2 1025 86 8000 0.5 180 13:36 03.12.2019
3074 Rain 2 1025 52 10000 0.44 306 13:18 03.12.2019
3075 Clouds 2 1025 86 9000 0.5 210 12:38 03.12.2019
3076 Clouds 3 1025 52 10000 0.44 306 12:18 03.12.2019
3077 Clouds 2 1026 74 10000 1 180 11:58 03.12.2019
3078 Clouds 2 1025 86 10000 1 190 11:38 03.12.2019
3079 Clouds 2 1025 57 10000 1.82 306 11:20 03.12.2019
3080 Clouds 2 1026 69 10000 1 170 10:57 03.12.2019
3081 Clouds 2 1025 80 10000 1 180 10:38 03.12.2019
3082 Clouds 2 1025 80 10000 1 180 10:38 03.12.2019
3083 Clouds 3 1024 57 10000 1.82 306 10:19 03.12.2019
3084 Clouds 3 1025 80 10000 1.5 200 09:45 03.12.2019
3085 Clouds 3 1024 57 10000 1.82 306 09:25 03.12.2019
3086 Rain 3 1025 59 10000 1.5 210 08:58 03.12.2019
3087 Rain 3 1024 74 10000 1.5 180 08:39 03.12.2019
3088 Rain 3 1024 60 10000 1.5 180 08:21 03.12.2019
3089 Rain 3 1025 55 10000 2.6 220 07:51 03.12.2019
3090 Rain 3 1023 93 10000 3 303 07:28 03.12.2019
3091 Rain 3 1025 55 10000 2.1 210 06:45 03.12.2019
3092 Rain 3 1025 55 10000 2.1 210 06:45 03.12.2019
3093 Rain 3 1024 74 10000 3 303 06:20 03.12.2019
3094 Clouds 2 1025 59 10000 1.5 210 05:53 03.12.2019
3095 Clouds 1 1025 55 10000 1.66 161 03:42 03.12.2019
3096 Clouds 1 1025 55 10000 1.66 161 03:22 03.12.2019
3097 Haze -1 1027 73 9000 1.5 30 02:53 03.12.2019
3098 Haze -1 1027 73 9000 1.5 30 02:53 03.12.2019
3099 Clouds -1 1025 55 10000 1.66 161 02:32 03.12.2019
3100 Clouds -2 1027 73 10000 1 50 01:58 03.12.2019
3101 Clouds -2 1026 63 10000 1 120 01:38 03.12.2019
3102 Clouds -3 1025 89 10000 2.01 192 01:18 03.12.2019
3103 Clear -5 1026 79 10000 1 160 00:41 03.12.2019
3104 Clear -5 1026 79 10000 1 160 00:41 03.12.2019
3105 Clear -5 1025 63 10000 2.01 192 00:23 03.12.2019
3106 Clouds -6 1026 92 10000 1 70 23:44 02.12.2019
3107 Clouds -6 1025 73 10000 1.33 217 23:21 02.12.2019
3108 Clouds -6 1026 85 10000 1 70 22:56 02.12.2019
3109 Clouds -6 1026 85 10000 1 70 22:56 02.12.2019
3110 Clear -6 1025 85 10000 1 180 22:37 02.12.2019
3111 Clear -6 1024 68 10000 1.33 217 22:19 02.12.2019
3112 Clouds -6 1025 85 10000 1 190 21:39 02.12.2019
3113 Clear -6 1024 67 10000 1.33 217 21:20 02.12.2019
3114 Clear -6 1026 85 10000 0.5 20 20:57 02.12.2019
3115 Clear -6 1026 85 10000 0.5 20 20:57 02.12.2019
3116 Clouds -6 1025 79 10000 1.5 170 20:39 02.12.2019
3117 Clear -6 1025 67 10000 0.41 294 20:20 02.12.2019
3118 Clear -5 1027 73 10000 0.5 170 19:56 02.12.2019
3119 Clear -5 1027 73 10000 0.5 170 19:56 02.12.2019
3120 Clear -5 1027 73 10000 0.5 170 19:56 02.12.2019
3121 Clear -5 1026 73 10000 1 130 19:38 02.12.2019
3122 Clear -5 1026 73 10000 1 130 19:38 02.12.2019
3123 Clear -5 1026 62 10000 0.41 294 19:20 02.12.2019
3124 Clear -5 1027 73 10000 0.5 340 18:48 02.12.2019
3125 Clear -4 1026 53 10000 0.41 294 18:21 02.12.2019
3126 Clear -4 1027 73 10000 1.5 130 17:59 02.12.2019
3127 Clear -3 1026 73 10000 0.5 160 17:40 02.12.2019
3128 Clear -3 1025 46 10000 1 347 17:20 02.12.2019
3129 Clear -3 1027 73 10000 1 150 16:55 02.12.2019
3130 Clear -3 1025 62 10000 0.5 170 16:36 02.12.2019
3131 Clouds -3 1025 50 10000 1 347 16:18 02.12.2019
3132 Clouds -2 1027 67 10000 1 110 15:55 02.12.2019
3133 Clouds -2 1025 58 10000 0.5 150 15:37 02.12.2019
3134 Clouds -2 1025 46 10000 1 347 15:18 02.12.2019
3135 Clear -2 1025 46 10000 1 180 14:39 02.12.2019
3136 Clouds -2 1025 42 10000 2.91 312 14:20 02.12.2019
3137 Clouds -2 1025 42 10000 2.91 312 14:20 02.12.2019
3138 Clouds -2 1025 39 10000 2.1 310 13:58 02.12.2019
3139 Clouds -2 1025 36 10000 1 350 13:39 02.12.2019
3140 Clouds -2 1025 39 10000 3.36 312 13:20 02.12.2019
3141 Clouds -2 1027 49 10000 1 20 12:57 02.12.2019
3142 Clear -2 1025 36 10000 0.5 310 12:37 02.12.2019
3143 Clear -1 1025 36 10000 1.5 330 12:19 02.12.2019
3144 Clear -1 1026 45 10000 1 260 11:55 02.12.2019
3145 Clear 0 1025 39 10000 1.5 340 11:36 02.12.2019
3146 Clear 0 1025 32 10000 1.5 340 11:18 02.12.2019
3147 Clear 0 1026 42 10000 2.1 300 10:54 02.12.2019
3148 Clear 0 1024 40 10000 2.6 300 10:36 02.12.2019
3149 Clear 0 1023 40 10000 6.74 313 10:18 02.12.2019
3150 Clear 1 1022 40 10000 1.5 210 09:39 02.12.2019
3151 Clouds 1 1022 40 10000 6.74 313 09:19 02.12.2019
3152 Clouds 1 1022 40 10000 6.74 313 09:19 02.12.2019
3153 Clouds 1 1022 40 10000 6.74 313 09:19 02.12.2019
3154 Clear 2 1024 40 10000 4.1 330 08:55 02.12.2019
3155 Clear 2 1024 40 10000 4.1 330 08:55 02.12.2019
3156 Clouds 2 1022 37 10000 3.6 210 08:37 02.12.2019
3157 Clouds 2 1022 37 10000 3.6 210 08:37 02.12.2019
3158 Clouds 2 1022 47 10000 1.5 310 08:19 02.12.2019
3159 Clouds 3 1021 40 10000 2.6 280 07:42 02.12.2019
3160 Clouds 3 1021 44 10000 3.1 320 07:20 02.12.2019
3161 Clear 3 1021 34 10000 4.6 260 06:45 02.12.2019
3162 Clouds 3 1021 41 10000 6.92 299 06:27 02.12.2019
3163 Clear 4 1021 32 10000 3.6 310 05:19 02.12.2019
3164 Clear 3 1022 34 10000 2.6 260 04:19 02.12.2019
3165 Clear 2 1024 43 10000 2.6 290 02:51 02.12.2019
3166 Clear 1 1024 37 10000 2.6 320 01:50 02.12.2019
3167 Clear 1 1022 55 10000 5.51 311 01:21 02.12.2019
3168 Clear 0 1023 58 10000 1.5 290 00:44 02.12.2019
3169 Clear 0 1021 69 10000 5.51 311 00:23 02.12.2019
3170 Clear 0 1020 55 10000 1.5 200 23:44 01.12.2019
3171 Clear 0 1020 69 10000 4.31 309 23:23 01.12.2019
3172 Clear 0 1022 68 10000 1.5 250 22:57 01.12.2019
3173 Clouds 1 1019 59 10000 2.1 220 22:38 01.12.2019
3174 Clouds 1 1019 69 10000 1.5 330 22:20 01.12.2019
3175 Clear 0 1021 44 10000 2.6 310 21:57 01.12.2019
3176 Clouds 0 1019 74 10000 1.5 250 21:39 01.12.2019
3177 Clear 1 1019 69 10000 4.31 309 21:20 01.12.2019
3178 Clear 1 1021 80 10000 1 230 20:58 01.12.2019
3179 Clouds 1 1019 69 10000 1 330 20:39 01.12.2019
3180 Clear 1 1019 69 10000 1.5 320 20:21 01.12.2019
3181 Clear 2 1021 51 10000 1 310 19:58 01.12.2019
3182 Clouds 2 1019 69 10000 1.5 290 19:39 01.12.2019
3183 Clear 2 1019 74 10000 1.5 320 19:20 01.12.2019
3184 Clouds 2 1021 74 10000 2.1 280 18:56 01.12.2019
3185 Clouds 2 1019 69 10000 1 180 18:38 01.12.2019
3186 Clouds 2 1019 64 10000 2.1 310 18:19 01.12.2019
3187 Clouds 2 1021 80 10000 1 340 17:56 01.12.2019
3188 Clouds 2 1019 74 10000 1 330 17:38 01.12.2019
3189 Clouds 3 1019 74 10000 1.5 320 17:20 01.12.2019
3190 Clouds 3 1019 74 10000 0.5 360 16:45 01.12.2019
3191 Clouds 3 1020 63 10000 4.74 300 16:25 01.12.2019
3192 Clouds 3 1021 93 10000 0.5 230 15:59 01.12.2019
3193 Haze 3 1019 80 4000 3.6 340 15:41 01.12.2019
3194 Clouds 3 1020 63 10000 2.6 310 15:22 01.12.2019
3195 Clouds 3 1020 63 10000 2.6 310 15:22 01.12.2019
3196 Clouds 3 1020 63 10000 2.6 310 15:22 01.12.2019
3197 Rain 4 1019 100 4800 0.5 230 14:38 01.12.2019
3198 Rain 4 1019 86 10000 1.97 311 14:19 01.12.2019
3199 Rain 4 1019 100 1600 0.5 160 13:40 01.12.2019
3200 Clouds 4 1019 93 10000 2.1 320 13:22 01.12.2019
3201 Rain 4 1021 93 10000 1 320 12:59 01.12.2019
3202 Rain 4 1019 100 1200 1.22 316 12:40 01.12.2019
3203 Rain 4 1019 100 1200 1.22 316 12:40 01.12.2019
3204 Rain 4 1019 100 1200 1.22 316 12:40 01.12.2019
3205 Rain 4 1019 100 1200 1.22 316 12:40 01.12.2019
3206 Rain 4 1019 100 1200 1.22 316 12:40 01.12.2019
3207 Rain 5 1019 86 8000 1.5 310 11:47 01.12.2019
3208 Rain 5 1019 86 8000 1.5 310 11:47 01.12.2019
3209 Rain 5 1019 86 8000 1.5 310 11:47 01.12.2019
3210 Rain 5 1019 86 8000 1.5 310 11:47 01.12.2019
3211 Rain 5 1019 86 8000 1.5 310 11:47 01.12.2019
3212 Rain 5 1019 86 8000 1.22 316 11:25 01.12.2019
3213 Rain 5 1022 86 10000 1.5 30 10:57 01.12.2019
3214 Rain 5 1019 100 2000 0.5 120 10:39 01.12.2019
3215 Rain 5 1019 81 8000 1.65 322 10:19 01.12.2019
3216 Rain 5 1019 100 2000 0.5 30 09:41 01.12.2019
3217 Rain 5 1020 87 6000 1.65 322 09:23 01.12.2019
3218 Rain 5 1020 93 6000 1.65 322 08:55 01.12.2019
3219 Rain 5 1020 93 6000 1.65 322 08:55 01.12.2019
3220 Rain 5 1020 93 4800 0.8 325 08:36 01.12.2019
3221 Rain 6 1020 93 4800 1.12 348 08:18 01.12.2019
3222 Rain 6 1020 100 4000 0.5 340 07:43 01.12.2019
3223 Rain 6 1020 93 3000 1.12 348 07:23 01.12.2019
3224 Rain 6 1022 93 3200 1.5 10 06:51 01.12.2019
3225 Rain 6 1020 87 4800 1.5 20 05:58 01.12.2019
3226 Rain 6 1021 81 6000 0.95 80 04:55 01.12.2019
3227 Rain 6 1022 81 8000 0.95 80 04:27 01.12.2019
3228 Rain 5 1025 93 4000 1 20 02:44 01.12.2019
3229 Rain 5 1024 81 9000 0.95 80 02:26 01.12.2019
3230 Mist 5 1025 100 2800 0.5 360 01:53 01.12.2019
3231 Rain 5 1024 75 8000 1.59 92 01:29 01.12.2019
3232 Rain 4 1024 75 10000 1.37 85 00:45 01.12.2019
3233 Rain 4 1024 75 10000 1.37 85 00:26 01.12.2019
3234 Clouds 4 1024 69 10000 0.5 160 23:47 30.11.2019
3235 Clouds 4 1024 75 10000 0.35 129 23:25 30.11.2019
3236 Haze 4 1026 68 6000 1.5 30 22:59 30.11.2019
3237 Clouds 4 1025 80 10000 0.35 129 22:39 30.11.2019
3238 Clouds 4 1024 86 10000 0.35 129 22:20 30.11.2019
3239 Rain 4 1024 80 10000 0.35 129 21:47 30.11.2019
3240 Rain 4 1024 80 10000 0.35 129 21:28 30.11.2019
3241 Rain 4 1024 80 10000 0.35 129 21:28 30.11.2019
3242 Clouds 4 1026 68 6000 0.5 320 20:58 30.11.2019
3243 Clouds 4 1025 74 10000 0.5 180 20:39 30.11.2019
3244 Clouds 4 1024 75 10000 0.9 156 20:19 30.11.2019
3245 Clouds 4 1025 86 10000 0.5 190 19:56 30.11.2019
3246 Clear 4 1025 69 10000 0.9 156 19:38 30.11.2019
3247 Clouds 4 1025 75 10000 0.9 156 19:20 30.11.2019
3248 Clouds 4 1025 75 10000 0.9 156 18:58 30.11.2019
3249 Rain 4 1026 52 10000 0.9 156 18:38 30.11.2019
3250 Rain 4 1025 52 10000 0.9 156 18:20 30.11.2019
3251 Haze 4 1027 52 6000 0.9 156 17:58 30.11.2019
3252 Clouds 4 1026 69 10000 0.5 190 17:39 30.11.2019
3253 Clouds 4 1026 56 10000 1.07 301 17:20 30.11.2019
3254 Clouds 4 1027 69 10000 1 110 16:56 30.11.2019
3255 Clouds 4 1026 64 10000 0.5 170 16:38 30.11.2019
3256 Clouds 5 1026 56 10000 1.07 301 16:20 30.11.2019
3257 Clouds 5 1026 60 10000 0.5 190 15:42 30.11.2019
3258 Clouds 5 1026 60 10000 0.5 190 15:42 30.11.2019
3259 Clouds 5 1026 48 10000 1.07 301 15:19 30.11.2019
3260 Clouds 5 1028 60 10000 1 110 14:57 30.11.2019
3261 Clouds 5 1026 64 10000 0.5 180 14:38 30.11.2019
3262 Clouds 5 1026 64 10000 0.5 180 14:38 30.11.2019
3263 Clouds 5 1026 52 10000 1.41 297 14:19 30.11.2019
3264 Clouds 5 1028 64 10000 0.5 150 13:57 30.11.2019
3265 Clouds 5 1026 60 10000 0.5 110 13:37 30.11.2019
3266 Clouds 5 1026 52 10000 2.2 287 13:19 30.11.2019
3267 Clouds 5 1028 60 10000 2.2 287 12:46 30.11.2019
3268 Clouds 5 1026 45 10000 2.2 287 12:27 30.11.2019
3269 Clouds 6 1028 60 10000 1 320 11:55 30.11.2019
3270 Clouds 6 1026 52 10000 0.5 120 11:37 30.11.2019
3271 Clouds 6 1027 42 10000 1.73 264 11:18 30.11.2019
3272 Clouds 7 1026 52 10000 1 170 10:42 30.11.2019
3273 Clouds 6 1026 39 10000 2.1 320 10:21 30.11.2019
3274 Haze 7 1028 48 8000 1 260 09:49 30.11.2019
3275 Clouds 7 1026 39 10000 1.73 264 09:29 30.11.2019
3276 Clouds 8 1028 42 10000 0.5 280 08:55 30.11.2019
3277 Clouds 8 1028 42 10000 0.5 280 08:55 30.11.2019
3278 Clouds 8 1026 45 10000 1 270 08:37 30.11.2019
3279 Clouds 9 1026 34 10000 2.59 251 08:18 30.11.2019
3280 Clouds 9 1026 36 10000 1.5 340 07:42 30.11.2019
3281 Clouds 9 1027 24 10000 2.59 251 07:23 30.11.2019
3282 Clouds 9 1028 36 10000 2.1 220 06:45 30.11.2019
3283 Clouds 9 1027 29 10000 2.59 251 06:26 30.11.2019
3284 Clouds 6 1031 41 10000 1 320 03:56 30.11.2019
3285 Clouds 5 1029 56 10000 1 30 03:37 30.11.2019
3286 Clear 2 1030 52 10000 0.94 90 02:25 30.11.2019
3287 Clear 1 1032 68 10000 1 60 01:50 30.11.2019
3288 Clear 0 1030 59 10000 0.93 88 01:24 30.11.2019
3289 Clear -3 1031 86 10000 1 50 00:38 30.11.2019
3290 Clouds -3 1030 68 10000 0.93 88 00:20 30.11.2019
3291 Clear -3 1032 79 10000 0.5 30 23:44 29.11.2019
3292 Clouds -3 1030 68 10000 0.91 83 23:23 29.11.2019
3293 Clouds -3 1030 68 10000 0.91 83 23:23 29.11.2019
3294 Clouds -3 1032 73 10000 1 80 22:48 29.11.2019
3295 Clouds -3 1030 68 10000 0.91 83 22:26 29.11.2019
3296 Clear -4 1032 73 10000 0.5 70 21:55 29.11.2019
3297 Clear -4 1031 85 10000 0.5 140 21:36 29.11.2019
3298 Clouds -4 1030 68 10000 0.91 83 21:18 29.11.2019
3299 Clouds -3 1031 85 10000 0.5 170 20:40 29.11.2019
3300 Clouds -3 1031 74 10000 1.2 78 20:22 29.11.2019
3301 Clear -3 1033 68 10000 0.5 50 19:59 29.11.2019
3302 Clouds -3 1031 79 10000 0.5 100 19:41 29.11.2019
3303 Clouds -3 1031 79 10000 0.5 100 19:41 29.11.2019
3304 Clouds -3 1031 68 10000 1.2 78 19:21 29.11.2019
3305 Clouds -2 1033 73 10000 1 10 18:58 29.11.2019
3306 Clouds -2 1032 79 10000 0.5 160 18:40 29.11.2019
3307 Clouds -2 1031 63 10000 1.2 78 18:21 29.11.2019
3308 Clouds -2 1033 68 10000 0.5 340 17:45 29.11.2019
3309 Clouds -2 1031 63 10000 1.2 78 17:27 29.11.2019
3310 Clouds -1 1033 58 10000 0.5 40 16:59 29.11.2019
3311 Clouds -1 1033 58 10000 0.5 40 16:59 29.11.2019
3312 Clouds -2 1032 74 10000 0.5 190 16:41 29.11.2019
3313 Clouds -2 1031 68 10000 1.09 59 16:19 29.11.2019
3314 Clouds -2 1031 68 10000 1.09 59 16:19 29.11.2019
3315 Clouds -1 1032 74 10000 0.5 110 15:42 29.11.2019
3316 Clouds -2 1031 63 10000 1.09 59 15:24 29.11.2019
3317 Clouds -1 1033 58 10000 0.5 300 14:58 29.11.2019
3318 Clouds -1 1032 74 10000 0.5 160 14:39 29.11.2019
3319 Clear -1 1031 20 10000 0.9 7 14:20 29.11.2019
3320 Clouds 0 1033 68 10000 1 60 13:55 29.11.2019
3321 Clear 0 1032 63 10000 0.5 110 13:36 29.11.2019
3322 Clear 0 1031 50 10000 0.68 9 13:18 29.11.2019
3323 Clear 1 1032 63 10000 0.5 100 12:39 29.11.2019
3324 Clear 1 1031 38 10000 0.68 9 12:21 29.11.2019
3325 Haze 2 1033 50 9000 0.5 180 11:55 29.11.2019
3326 Clear 2 1031 44 10000 0.68 9 11:36 29.11.2019
3327 Clear 2 1031 44 10000 1.63 301 11:18 29.11.2019
3328 Clear 2 1033 18 10000 1.5 170 10:56 29.11.2019
3329 Clear 3 1031 51 10000 0.5 160 10:37 29.11.2019
3330 Clear 3 1031 41 10000 1.63 301 10:18 29.11.2019
3331 Clear 4 1033 44 10000 1.63 301 09:55 29.11.2019
3332 Clear 4 1033 44 10000 1.63 301 09:55 29.11.2019
3333 Clear 5 1030 44 10000 0.5 170 09:36 29.11.2019
3334 Clear 5 1031 33 10000 1.63 301 09:18 29.11.2019
3335 Clear 7 1030 36 10000 0.5 210 08:39 29.11.2019
3336 Clear 7 1031 35 10000 2.1 230 08:20 29.11.2019
3337 Clear 7 1033 28 10000 1.5 310 07:56 29.11.2019
3338 Clear 7 1030 24 10000 1 270 07:38 29.11.2019
3339 Clear 7 1030 30 10000 2.1 220 07:19 29.11.2019
3340 Clear 7 1030 28 10000 2.6 180 06:42 29.11.2019
3341 Clear 7 1033 35 10000 1 260 05:48 29.11.2019
3342 Clear 6 1031 33 10000 2.1 220 05:24 29.11.2019
3343 Clear 5 1032 38 10000 2.09 308 04:31 29.11.2019
3344 Clear 3 1033 51 10000 2.1 190 03:21 29.11.2019
3345 Clear 1 1033 55 10000 2.09 308 02:28 29.11.2019
3346 Clear 0 1034 68 10000 1.5 70 01:51 29.11.2019
3347 Clear -1 1032 59 10000 1.42 299 01:25 29.11.2019
3348 Mist -3 1032 100 2800 1 40 00:42 29.11.2019
3349 Clear -3 1031 73 10000 1.42 299 00:20 29.11.2019
3350 Clouds -4 1031 92 10000 0.5 170 23:44 28.11.2019
3351 Clear -3 1031 63 10000 1.33 280 23:21 28.11.2019
3352 Clear -3 1033 85 10000 0.5 80 22:58 28.11.2019
3353 Clouds -3 1031 100 9000 0.5 160 22:38 28.11.2019
3354 -273 0 0 0 0 0 22:38 28.11.2019
3355 Clear -3 1031 63 10000 1.33 280 22:20 28.11.2019
3356 Clear -3 1031 63 10000 1.33 280 22:20 28.11.2019
3357 Clear -3 1033 92 10000 0.5 110 21:56 28.11.2019
3358 Clouds -3 1031 100 10000 0.5 170 21:37 28.11.2019
3359 Clear -3 1031 63 10000 1.33 280 21:18 28.11.2019
3360 Clouds -2 1030 100 4800 0.5 180 20:43 28.11.2019
3361 -273 0 0 0 0 0 20:23 28.11.2019
3362 Clear -2 1032 73 10000 0.5 30 19:59 28.11.2019
3363 Clouds -2 1030 100 10000 0.5 200 19:40 28.11.2019
3364 Clear -2 1031 42 10000 1.99 288 19:22 28.11.2019
3365 Clear -1 1033 68 10000 0.5 40 18:59 28.11.2019
3366 Clouds -2 1030 100 10000 0.5 160 18:39 28.11.2019
3367 Clear -2 1030 42 10000 1.5 300 18:18 28.11.2019
3368 Clear -1 1033 73 10000 0.5 350 17:59 28.11.2019
3369 Clear -1 1033 73 10000 0.5 350 17:59 28.11.2019
3370 Clear -1 1030 100 10000 0.5 150 17:41 28.11.2019
3371 Clear -1 1030 59 10000 1.77 283 17:21 28.11.2019
3372 Clear -1 1032 79 10000 0.5 190 16:56 28.11.2019
3373 Clear -1 1032 79 10000 0.5 190 16:56 28.11.2019
3374 Clear -1 1032 79 10000 0.5 190 16:55 28.11.2019
3375 Clear -1 1030 92 10000 0.5 190 16:37 28.11.2019
3376 Clear -1 1030 59 10000 1.77 283 16:18 28.11.2019
3377 Clear 0 1030 100 10000 0.5 170 15:41 28.11.2019
3378 Clear 0 1030 59 10000 1.77 283 15:20 28.11.2019
3379 Clear 1 1032 68 10000 1 30 14:58 28.11.2019
3380 Clear 1 1032 68 10000 1 30 14:58 28.11.2019
3381 Clear 1 1029 52 10000 0.5 180 14:40 28.11.2019
3382 Clear 1 1030 64 10000 1.5 283 14:20 28.11.2019
3383 Clear 2 1032 74 10000 0.5 330 13:55 28.11.2019
3384 Clear 2 1029 86 10000 0.5 150 13:37 28.11.2019
3385 Clear 2 1029 52 10000 1.56 285 13:19 28.11.2019
3386 Clear 3 1029 80 10000 0.5 160 12:41 28.11.2019
3387 Clear 3 1029 56 10000 1.56 285 12:22 28.11.2019
3388 Clear 4 1031 64 10000 1 360 11:56 28.11.2019
3389 Clear 4 1029 54 10000 1 180 11:38 28.11.2019
3390 Clear 4 1029 56 10000 2.66 303 11:19 28.11.2019
3391 Clear 6 1029 54 10000 0.5 170 10:42 28.11.2019
3392 Clear 6 1029 56 10000 2.66 303 10:22 28.11.2019
3393 Clear 7 1030 52 10000 1 220 09:58 28.11.2019
3394 Clear 7 1028 52 10000 2.66 303 09:40 28.11.2019
3395 Clear 7 1028 52 10000 2.66 303 09:20 28.11.2019
3396 Clear 9 1030 52 10000 1.5 270 08:44 28.11.2019
3397 Clear 9 1028 49 10000 1.52 310 08:22 28.11.2019
3398 Clear 9 1030 45 10000 1.5 250 07:58 28.11.2019
3399 Clear 10 1027 43 10000 1.5 240 07:39 28.11.2019
3400 Clear 10 1028 53 10000 0.27 211 07:21 28.11.2019
3401 Clear 9 1027 53 10000 1 200 06:41 28.11.2019
3402 Clear 9 1030 46 10000 1 200 05:56 28.11.2019
3403 Clear 9 1030 46 10000 1 200 05:56 28.11.2019
3404 Clear 9 1029 49 10000 2.1 260 05:38 28.11.2019
3405 Clear 8 1031 49 10000 1 20 04:51 28.11.2019
3406 Clear 3 1030 55 10000 1.58 101 02:32 28.11.2019
3407 Clear 1 1033 55 10000 2.1 50 01:25 28.11.2019
3408 Clouds 0 1030 74 10000 2.1 30 00:39 28.11.2019
3409 Clouds 0 1030 63 10000 1.45 40 00:18 28.11.2019
3410 Clouds -1 1030 63 10000 1 10 23:39 27.11.2019
3411 Clouds -1 1029 55 10000 1.75 12 23:20 27.11.2019
3412 Clouds 0 1032 58 10000 2.6 20 22:56 27.11.2019
3413 Clouds 0 1029 55 10000 1 10 22:38 27.11.2019
3414 Clouds 0 1029 64 10000 1.75 12 22:18 27.11.2019
3415 Clouds 0 1031 58 10000 1.5 30 21:55 27.11.2019
3416 Clouds 0 1029 55 10000 1.5 10 21:36 27.11.2019
3417 Clouds 0 1029 59 10000 1.75 12 21:18 27.11.2019
3418 Clouds 0 1031 54 10000 2.1 30 20:56 27.11.2019
3419 Clouds 0 1031 54 10000 2.1 30 20:56 27.11.2019
3420 Clouds -1 1029 55 10000 2.1 10 20:37 27.11.2019
3421 Clouds -1 1029 64 10000 1.96 5 20:18 27.11.2019
3422 Clouds -1 1029 64 10000 2.02 6 20:18 27.11.2019
3423 Clouds -1 1031 58 10000 1.5 20 19:55 27.11.2019
3424 Clouds -1 1029 44 10000 2.1 360 19:37 27.11.2019
3425 Clear -1 1029 68 10000 1.96 5 19:18 27.11.2019
3426 Clouds -1 1029 86 10000 1.5 30 18:38 27.11.2019
3427 Clouds -1 1029 86 10000 1.5 30 18:38 27.11.2019
3428 Clear -1 1029 74 10000 1.96 5 18:20 27.11.2019
3429 Clear -1 1031 58 10000 2.6 40 17:59 27.11.2019
3430 Clouds -1 1028 86 10000 1.5 10 17:41 27.11.2019
3431 Clear -1 1029 37 10000 1.92 355 17:23 27.11.2019
3432 Clear 0 1031 58 10000 2.1 20 16:58 27.11.2019
3433 Clouds 0 1029 86 10000 0.5 150 16:39 27.11.2019
3434 Clouds 0 1029 86 10000 0.5 150 16:39 27.11.2019
3435 Clear 0 1029 64 10000 1.92 355 16:21 27.11.2019
3436 Clear 0 1031 37 10000 2.6 50 15:58 27.11.2019
3437 Clear 0 1031 37 10000 2.6 50 15:58 27.11.2019
3438 Clear 0 1029 80 10000 0.5 150 15:40 27.11.2019
3439 Clear 0 1029 59 10000 1.92 355 15:21 27.11.2019
3440 Clear 1 1031 37 10000 1.5 40 14:58 27.11.2019
3441 Clear 1 1028 37 10000 0.5 150 14:39 27.11.2019
3442 Clear 1 1028 37 10000 0.5 150 14:39 27.11.2019
3443 Clear 1 1028 51 10000 1.96 347 14:21 27.11.2019
3444 Clear 1 1028 51 10000 1.96 347 14:21 27.11.2019
3445 Clear 1 1031 32 10000 1 40 13:58 27.11.2019
3446 Clear 1 1031 32 10000 1 40 13:58 27.11.2019
3447 Clear 1 1028 32 10000 0.5 170 13:39 27.11.2019
3448 Clear 2 1031 32 10000 1.5 40 13:19 27.11.2019
3449 Clear 2 1030 50 10000 1.5 30 12:57 27.11.2019
3450 Clear 2 1030 32 10000 1.5 40 12:39 27.11.2019
3451 Clear 2 1028 48 10000 1.76 337 12:19 27.11.2019
3452 Clear 3 1027 59 10000 0.5 120 11:38 27.11.2019
3453 Clear 3 1027 59 10000 0.5 120 11:19 27.11.2019
3454 Clear 4 1030 47 10000 1.5 360 10:58 27.11.2019
3455 Clear 3 1027 44 10000 2.78 333 10:40 27.11.2019
3456 Clear 4 1027 44 10000 2.78 333 10:22 27.11.2019
3457 Clear 5 1026 38 10000 0.5 10 09:44 27.11.2019
3458 Clear 5 1029 44 10000 1.5 360 09:26 27.11.2019
3459 Clear 5 1029 41 10000 3.1 10 08:57 27.11.2019
3460 Clear 6 1026 38 10000 1.5 290 08:38 27.11.2019
3461 Clear 6 1029 41 10000 3.1 20 08:19 27.11.2019
3462 Clear 6 1026 36 10000 2.6 340 07:45 27.11.2019
3463 Clear 6 1028 41 10000 3.6 10 07:27 27.11.2019
3464 Clear 6 1026 31 10000 1.5 330 06:46 27.11.2019
3465 Clouds 7 1026 45 10000 1.5 320 06:26 27.11.2019
3466 Clear 6 1029 41 10000 2.6 360 05:27 27.11.2019
3467 Clouds 6 1029 41 10000 2.6 360 04:57 27.11.2019
3468 Clear 6 1027 36 10000 1 340 04:37 27.11.2019
3469 Clear 5 1030 48 10000 1.5 340 03:50 27.11.2019
3470 Clear 5 1029 52 10000 2.73 300 03:21 27.11.2019
3471 Clear 4 1031 55 10000 1 290 02:54 27.11.2019
3472 Haze 3 1031 86 9000 0.5 300 01:34 27.11.2019
3473 Haze 1 1029 86 9000 0.5 10 00:42 27.11.2019
3474 Clear 1 1031 100 4800 1 170 00:24 27.11.2019
3475 Clear 0 1028 100 9000 0.5 180 23:44 26.11.2019
3476 Clear 1 1029 80 10000 1 260 23:25 26.11.2019
3477 Clear 1 1028 43 9000 0.5 150 22:56 26.11.2019
3478 Clear 0 1028 43 9000 0.5 150 22:38 26.11.2019
3479 Clear 1 1030 100 6000 0.5 160 22:19 26.11.2019
3480 Clear 1 1027 43 9000 0.5 170 21:40 26.11.2019
3481 Clear 1 1029 92 10000 0.5 30 21:21 26.11.2019
3482 Clear 1 1029 92 10000 0.5 40 20:58 26.11.2019
3483 Clear 1 1027 93 10000 0.5 200 20:39 26.11.2019
3484 Mist 2 1029 100 4800 1 170 20:20 26.11.2019
3485 Clear 2 1029 100 6000 2.39 312 19:56 26.11.2019
3486 Mist 2 1030 100 4000 0.5 350 19:38 26.11.2019
3487 Mist 2 1030 100 4000 0.5 350 19:20 26.11.2019
3488 Mist 3 1030 100 2800 1 170 18:59 26.11.2019
3489 Clear 3 1030 55 6000 1 60 18:40 26.11.2019
3490 Clouds 4 1028 70 10000 0.5 20 18:21 26.11.2019
3491 Mist 4 1030 55 4800 0.5 20 17:59 26.11.2019
3492 Clouds 4 1030 55 6000 1.5 50 17:41 26.11.2019
3493 Clouds 5 1028 81 10000 1 320 17:22 26.11.2019
3494 Mist 5 1030 100 4000 1 160 16:57 26.11.2019
3495 Clouds 4 1028 93 10000 0.5 80 16:38 26.11.2019
3496 Clouds 5 1028 75 10000 2.7 296 16:19 26.11.2019
3497 Mist 5 1030 93 4800 0.5 40 15:59 26.11.2019
3498 Clouds 5 1028 93 10000 0.5 190 15:38 26.11.2019
3499 Clouds 5 1028 81 10000 2.7 296 15:20 26.11.2019
3500 Mist 5 1030 93 4000 2.7 296 14:52 26.11.2019
3501 Clouds 5 1028 86 10000 2.7 296 14:26 26.11.2019
3502 Clear 5 1029 100 6000 0.5 10 13:59 26.11.2019
3503 Clear 5 1027 86 10000 2.11 286 13:40 26.11.2019
3504 Clear 5 1029 93 9000 1 130 13:22 26.11.2019
3505 Clear 6 1029 86 10000 1 140 12:40 26.11.2019
3506 Clouds 6 1028 81 10000 2.46 308 12:22 26.11.2019
3507 Clouds 7 1029 75 10000 0.5 320 11:59 26.11.2019
3508 Clear 8 1029 81 10000 1 180 11:40 26.11.2019
3509 Clouds 8 1027 70 10000 0.5 160 11:20 26.11.2019
3510 Clouds 8 1029 81 10000 1.5 170 10:58 26.11.2019
3511 Clouds 9 1027 66 10000 1.5 280 10:40 26.11.2019
3512 Clouds 9 1027 70 10000 2.53 285 10:21 26.11.2019
3513 Clouds 9 1029 70 10000 2.1 230 09:57 26.11.2019
3514 Clouds 10 1027 66 10000 2.53 285 09:38 26.11.2019
3515 Clouds 10 1027 66 10000 2.53 285 09:19 26.11.2019
3516 Clouds 11 1026 50 10000 0.5 210 08:44 26.11.2019
3517 Clouds 11 1026 50 10000 0.5 210 08:44 26.11.2019
3518 Clouds 12 1029 61 10000 2.6 290 08:24 26.11.2019
3519 Clouds 12 1026 47 10000 1 230 07:46 26.11.2019
3520 Clouds 12 1029 57 10000 1.5 290 07:27 26.11.2019
3521 Clouds 13 1029 57 10000 2.1 230 06:55 26.11.2019
3522 Clear 13 1029 50 10000 1 200 06:35 26.11.2019
3523 Clear 13 1029 50 10000 1 200 06:35 26.11.2019
3524 Clear 12 1027 47 10000 1 180 05:52 26.11.2019
3525 Clouds 10 1030 57 10000 1 340 04:46 26.11.2019
3526 Clouds 6 1033 50 10000 2.6 30 02:52 26.11.2019
3527 Clouds 3 1033 74 10000 1.5 20 01:33 26.11.2019
3528 Clouds 1 1033 80 10000 1 360 00:52 26.11.2019
3529 Clouds 1 1033 80 10000 2.1 60 00:29 26.11.2019
3530 Clouds 1 1031 93 10000 1 30 23:41 25.11.2019
3531 Clouds 1 1031 93 10000 1.5 20 23:21 25.11.2019
3532 Clouds 0 1032 80 10000 4.1 40 22:59 25.11.2019
3533 Clouds 0 1031 100 10000 1.5 30 22:39 25.11.2019
3534 Clouds 0 1032 80 10000 1.5 30 22:19 25.11.2019
3535 Clouds 0 1032 74 10000 4.6 50 21:58 25.11.2019
3536 Clouds 0 1030 100 10000 1.5 40 21:39 25.11.2019
3537 Clouds 0 1032 74 10000 4.6 50 21:21 25.11.2019
3538 Clouds 0 1032 74 10000 3.1 40 20:57 25.11.2019
3539 Clouds 0 1031 100 9000 1 40 20:39 25.11.2019
3540 Clouds 0 1031 100 9000 1 40 20:39 25.11.2019
3541 Clouds 0 1032 69 10000 3.6 40 20:19 25.11.2019
3542 Clouds 0 1032 74 10000 1.5 40 19:56 25.11.2019
3543 Clouds 0 1033 69 10000 1 30 19:37 25.11.2019
3544 Clouds 0 1031 100 8000 1 30 19:18 25.11.2019
3545 Clear 0 1033 74 10000 2.1 30 18:57 25.11.2019
3546 Clear 0 1033 74 10000 1 20 18:38 25.11.2019
3547 Clear 0 1033 74 10000 1 20 18:38 25.11.2019
3548 Clouds 0 1031 69 6000 0.5 210 18:20 25.11.2019
3549 Clouds 0 1031 100 6000 0.5 130 17:57 25.11.2019
3550 Clear 0 1033 74 10000 2.6 40 17:37 25.11.2019
3551 Clouds 0 1031 62 6000 0.5 80 17:19 25.11.2019
3552 Clear 0 1033 74 10000 2.1 40 16:55 25.11.2019
3553 Clouds 1 1033 74 10000 1.5 30 16:37 25.11.2019
3554 Clouds 1 1033 74 10000 1.5 30 16:18 25.11.2019
3555 Clouds 1 1031 62 6000 0.5 150 15:41 25.11.2019
3556 Clouds 1 1033 69 10000 1 30 15:21 25.11.2019
3557 Clouds 1 1033 69 10000 1 30 15:21 25.11.2019
3558 Clouds 2 1033 64 10000 1.5 10 14:58 25.11.2019
3559 Clear 2 1031 62 8000 0.5 150 14:40 25.11.2019
3560 Clouds 2 1033 59 10000 1.5 350 14:21 25.11.2019
3561 Clear 2 1031 52 10000 0.5 150 13:41 25.11.2019
3562 Clear 2 1032 54 6000 0.84 340 13:21 25.11.2019
3563 Clouds 2 1033 59 10000 2.1 360 12:59 25.11.2019
3564 Clear 2 1031 54 10000 0.5 100 12:40 25.11.2019
3565 Clear 3 1031 54 10000 0.5 200 12:21 25.11.2019
3566 Clouds 3 1033 59 10000 1 360 11:57 25.11.2019
3567 Clouds 3 1033 64 10000 1.5 30 11:38 25.11.2019
3568 Clear 3 1030 47 10000 0.5 170 11:19 25.11.2019
3569 Clear 4 1030 47 10000 0.5 150 10:44 25.11.2019
3570 Clouds 4 1032 69 10000 1.5 350 10:26 25.11.2019
3571 Haze 5 1031 60 4800 1 340 09:56 25.11.2019
3572 Clouds 5 1031 60 10000 1 350 09:38 25.11.2019
3573 Clouds 5 1031 60 10000 1 350 09:20 25.11.2019
3574 Clouds 5 1029 47 10000 1 180 08:40 25.11.2019
3575 Clouds 6 1031 56 10000 1.5 340 08:21 25.11.2019
3576 Clear 6 1029 46 10000 1.5 170 07:42 25.11.2019
3577 Clouds 6 1031 52 10000 2.6 360 07:24 25.11.2019
3578 Clear 6 1028 46 10000 3.1 180 06:48 25.11.2019
3579 Clouds 5 1028 46 10000 3.1 170 06:21 25.11.2019
3580 Clouds 5 1028 46 10000 3.1 170 06:21 25.11.2019
3581 Clouds 5 1031 55 10000 2.1 340 05:39 25.11.2019
3582 Clear 4 1032 59 10000 2.1 350 04:52 25.11.2019
3583 Clouds 2 1033 42 10000 3.1 360 02:52 25.11.2019
3584 Clouds 1 1031 45 10000 4.6 330 02:20 25.11.2019
3585 Clouds 0 1030 69 10000 0.5 10 01:40 25.11.2019
3586 Clouds 0 1032 68 10000 2.1 360 01:21 25.11.2019
3587 Clouds 0 1030 69 10000 2.1 270 00:23 25.11.2019
3588 Clouds 0 1032 79 10000 1 360 23:58 24.11.2019
3589 Clouds 0 1032 86 10000 0.5 80 23:38 24.11.2019
3590 Clouds 0 1028 74 10000 0.5 30 23:19 24.11.2019
3591 Clear 0 1031 79 10000 1 10 22:54 24.11.2019
3592 Clouds 0 1028 74 10000 1 350 22:36 24.11.2019
3593 Clear 0 1030 79 10000 1 220 22:18 24.11.2019
3594 Clouds 0 1029 74 10000 4.6 330 22:18 24.11.2019
3595 Clouds 0 1027 74 10000 0.5 100 21:42 24.11.2019
3596 Clear 0 1030 79 10000 0.5 330 21:21 24.11.2019
3597 Clouds 1 1029 44 10000 1.5 320 20:59 24.11.2019
3598 Clouds 1 1029 44 10000 1.5 320 20:59 24.11.2019
3599 Clouds 1 1026 74 10000 2.1 280 20:39 24.11.2019
3600 Clear 1 1030 79 10000 0.5 260 20:19 24.11.2019
3601 Clear 2 1029 74 10000 1 10 19:57 24.11.2019
3602 Clear 2 1029 74 10000 1 10 19:57 24.11.2019
3603 Clouds 2 1026 69 10000 3.1 290 19:38 24.11.2019
3604 Clouds 2 1026 69 10000 2.1 350 19:20 24.11.2019
3605 Clear 2 1029 39 10000 1.5 340 18:59 24.11.2019
3606 Clear 2 1029 39 10000 2.1 330 18:38 24.11.2019
3607 Clear 2 1029 39 10000 2.1 330 18:38 24.11.2019
3608 Clouds 4 1025 69 10000 2.6 350 18:19 24.11.2019
3609 Clouds 4 1025 75 10000 2.6 270 17:56 24.11.2019
3610 Clouds 4 1025 75 10000 2.6 270 17:56 24.11.2019
3611 Clouds 4 1028 69 10000 2.1 300 17:38 24.11.2019
3612 Clouds 4 1028 69 10000 2.1 300 17:38 24.11.2019
3613 Clouds 4 1025 70 10000 1 320 17:20 24.11.2019
3614 Clouds 4 1025 70 10000 1 320 17:20 24.11.2019
3615 Clouds 5 1028 69 10000 1.5 310 16:57 24.11.2019
3616 Clouds 5 1025 75 10000 1 310 16:39 24.11.2019
3617 Clouds 5 1028 64 10000 3.1 310 16:20 24.11.2019
3618 Clouds 6 1025 81 10000 4.6 270 15:44 24.11.2019
3619 Clouds 6 1027 69 10000 4.1 330 15:26 24.11.2019
3620 Clouds 7 1026 75 10000 4.1 330 14:58 24.11.2019
3621 Clouds 7 1023 81 10000 1 320 14:38 24.11.2019
3622 Clouds 7 1026 80 10000 3.1 320 14:18 24.11.2019
3623 Clouds 8 1025 75 10000 4.1 320 13:54 24.11.2019
3624 Clouds 8 1025 81 10000 2.1 330 13:36 24.11.2019
3625 Clouds 8 1021 71 10000 1.5 270 13:18 24.11.2019
3626 Clouds 9 1023 81 10000 2.6 330 12:42 24.11.2019
3627 Clouds 9 1020 87 10000 1 290 12:19 24.11.2019
3628 Clouds 10 1023 81 10000 2.1 320 11:57 24.11.2019
3629 Clouds 10 1023 87 10000 1 300 11:37 24.11.2019
3630 Clouds 10 1023 87 10000 1 300 11:37 24.11.2019
3631 Clouds 10 1020 81 10000 1.5 190 11:18 24.11.2019
3632 Clouds 10 1019 87 10000 1.5 20 10:47 24.11.2019
3633 Rain 10 1022 87 10000 2.6 320 10:29 24.11.2019
3634 Rain 11 1021 93 10000 2.6 320 09:57 24.11.2019
3635 Rain 11 1021 100 4000 1 300 09:37 24.11.2019
3636 Rain 11 1021 100 4000 1 300 09:18 24.11.2019
3637 Rain 12 1017 100 3200 0.5 190 08:44 24.11.2019
3638 Rain 13 1020 100 400 1.5 10 08:22 24.11.2019
3639 Drizzle 13 1020 100 800 1 340 07:58 24.11.2019
3640 Rain 14 1019 100 800 0.5 20 07:37 24.11.2019
3641 Clouds 14 1017 100 10000 1 30 07:19 24.11.2019
3642 Clouds 15 1017 82 10000 0.5 30 06:20 24.11.2019
3643 Clouds 15 1018 66 10000 1.5 180 04:48 24.11.2019
3644 Clouds 13 1019 71 10000 0.5 50 03:37 24.11.2019
3645 Clouds 10 1021 76 10000 1 340 02:22 24.11.2019
3646 Clouds 8 1020 93 10000 1.5 30 01:40 24.11.2019
3647 Haze 8 1021 81 6000 0.5 60 01:21 24.11.2019
3648 Clouds 6 1020 100 9000 1 30 00:47 24.11.2019
3649 Clouds 6 1021 100 6000 0.5 110 00:23 24.11.2019
3650 Clouds 6 1021 100 6000 0.5 110 00:23 24.11.2019
3651 Clouds 4 1020 100 6000 0.5 360 23:45 23.11.2019
3652 Clear 5 1020 100 8000 0.5 180 23:23 23.11.2019
3653 Mist 5 1021 100 4800 0.5 70 22:59 23.11.2019
3654 Clear 5 1020 100 9000 0.5 40 22:40 23.11.2019
3655 Mist 6 1021 100 3200 0.5 70 22:22 23.11.2019
3656 Mist 6 1021 93 3200 0.5 120 21:59 23.11.2019
3657 Clear 6 1021 100 8000 1 30 21:40 23.11.2019
3658 Mist 6 1021 93 4000 0.5 300 21:22 23.11.2019
3659 Mist 6 1022 93 4000 0.5 140 20:55 23.11.2019
3660 Clouds 6 1020 100 9000 0.5 10 20:36 23.11.2019
3661 Mist 6 1020 93 5000 1 280 20:18 23.11.2019
3662 Clouds 6 1022 93 4800 0.5 40 19:54 23.11.2019
3663 Mist 6 1022 93 4800 0.5 150 19:36 23.11.2019
3664 Clouds 6 1021 100 9000 0.87 107 19:18 23.11.2019
3665 Clear 7 1022 87 6000 0.5 190 18:39 23.11.2019
3666 Clouds 7 1021 100 10000 1 30 18:20 23.11.2019
3667 Clear 7 1021 100 9000 0.5 340 17:54 23.11.2019
3668 Clear 7 1021 100 9000 0.5 340 17:54 23.11.2019
3669 Clear 7 1023 100 4800 0.5 40 17:36 23.11.2019
3670 Clear 7 1021 100 10000 0.5 190 17:18 23.11.2019
3671 Clear 7 1022 93 6000 1.08 56 16:54 23.11.2019
3672 Clear 7 1021 93 10000 0.5 100 16:36 23.11.2019
3673 Clear 8 1022 87 6000 0.5 140 16:18 23.11.2019
3674 Clouds 9 1022 93 10000 0.5 160 15:40 23.11.2019
3675 Clouds 9 1023 87 10000 0.5 50 15:19 23.11.2019
3676 Clouds 9 1023 87 10000 0.5 50 15:19 23.11.2019
3677 Haze 10 1023 81 8000 2.1 130 14:58 23.11.2019
3678 Clouds 10 1022 100 10000 1.08 56 14:40 23.11.2019
3679 Clouds 10 1023 81 10000 1 170 14:21 23.11.2019
3680 Clouds 10 1023 81 10000 0.5 350 13:56 23.11.2019
3681 Clouds 10 1023 81 10000 0.5 350 13:38 23.11.2019
3682 Clouds 10 1021 81 10000 2.1 30 13:18 23.11.2019
3683 Clouds 9 1022 87 10000 0.5 40 12:42 23.11.2019
3684 Haze 10 1023 76 6000 1.5 40 12:24 23.11.2019
3685 Clear 10 1021 76 10000 0.5 120 11:45 23.11.2019
3686 Clouds 10 1022 81 10000 0.5 140 11:24 23.11.2019
3687 Clear 11 1023 71 10000 1 100 10:56 23.11.2019
3688 Clear 12 1023 66 10000 0.5 290 10:37 23.11.2019
3689 Clouds 13 1022 62 10000 1.5 30 10:18 23.11.2019
3690 Clear 14 1022 62 10000 0.5 40 09:40 23.11.2019
3691 Clouds 15 1022 58 10000 1.5 40 09:18 23.11.2019
3692 Clear 16 1022 51 10000 0.5 20 08:41 23.11.2019
3693 Clear 16 1022 51 10000 0.5 20 08:41 23.11.2019
3694 Clouds 16 1022 51 10000 1.5 120 08:19 23.11.2019
3695 Clear 16 1022 48 10000 0.5 20 07:42 23.11.2019
3696 Clear 16 1022 47 10000 1 30 06:53 23.11.2019
3697 Clear 16 1023 48 10000 0.5 140 06:27 23.11.2019
3698 Clouds 15 1023 50 10000 2.6 330 05:57 23.11.2019
3699 Thunderstorm 16 1023 54 10000 1.5 160 05:32 23.11.2019
3700 Clear 14 1025 51 10000 1.5 350 04:57 23.11.2019
3701 Clear 14 1025 47 10000 2.1 20 04:32 23.11.2019
3702 Clear 12 1026 53 10000 1 350 03:26 23.11.2019
3703 Clear 10 1026 61 10000 2.1 360 02:37 23.11.2019
3704 Clear 6 1027 64 10000 1.5 30 01:39 23.11.2019
3705 Clear 4 1027 69 10000 1.5 360 00:47 23.11.2019
3706 Clear 4 1027 69 10000 1.5 360 00:47 23.11.2019
3707 Clear 3 1027 69 10000 2.6 40 00:19 23.11.2019
3708 Clear 3 1027 74 10000 2.1 30 23:54 22.11.2019
3709 Clear 3 1027 74 10000 1 40 23:36 22.11.2019
3710 Clouds 3 1027 63 10000 1.5 30 23:18 22.11.2019
3711 Clouds 3 1028 63 10000 1.5 20 22:42 22.11.2019
3712 Clouds 2 1028 74 10000 1 90 22:23 22.11.2019
3713 Clouds 3 1028 74 10000 0.5 70 21:59 22.11.2019
3714 Clouds 3 1027 80 10000 1.5 30 21:40 22.11.2019
3715 Clouds 3 1026 80 10000 0.5 310 21:21 22.11.2019
3716 Clear 2 1027 74 10000 0.5 30 20:44 22.11.2019
3717 Clear 3 1027 69 10000 1 70 20:23 22.11.2019
3718 Clear 3 1027 74 10000 0.5 350 19:58 22.11.2019
3719 Clear 3 1027 59 10000 1.5 30 19:39 22.11.2019
3720 Clear 3 1027 64 10000 0.5 80 19:19 22.11.2019
3721 Haze 4 1027 80 4800 1.38 82 18:58 22.11.2019
3722 Clear 3 1026 59 10000 0.5 110 18:37 22.11.2019
3723 Clear 3 1027 69 10000 0.5 160 18:18 22.11.2019
3724 Clear 3 1026 59 10000 1 170 17:41 22.11.2019
3725 Clear 4 1027 60 10000 0.5 180 17:22 22.11.2019
3726 Clear 4 1027 69 10000 0.5 190 16:48 22.11.2019
3727 Clear 5 1027 64 10000 1 10 16:29 22.11.2019
3728 Clear 5 1027 64 10000 1 10 16:29 22.11.2019
3729 Clear 5 1027 64 10000 1 50 15:54 22.11.2019
3730 Clear 5 1027 49 10000 0.5 50 15:36 22.11.2019
3731 Clear 5 1027 56 10000 0.5 130 15:18 22.11.2019
3732 Clear 5 1027 64 10000 0.5 270 14:54 22.11.2019
3733 Clear 5 1027 49 10000 1.61 86 14:36 22.11.2019
3734 Clear 6 1027 56 10000 1 70 14:18 22.11.2019
3735 Clear 6 1027 56 10000 1 70 14:18 22.11.2019
3736 Clear 5 1027 42 10000 1 40 13:37 22.11.2019
3737 Clear 6 1028 56 10000 0.5 90 13:19 22.11.2019
3738 Clear 6 1028 52 10000 1 90 12:57 22.11.2019
3739 Clear 7 1026 42 10000 0.5 30 12:39 22.11.2019
3740 Clear 7 1027 48 10000 1 310 12:19 22.11.2019
3741 Clear 8 1027 45 10000 0.5 20 11:56 22.11.2019
3742 Clear 9 1026 56 10000 0.5 80 11:36 22.11.2019
3743 Clear 9 1027 36 10000 0.5 60 11:18 22.11.2019
3744 Clear 10 1026 33 10000 0.5 170 10:40 22.11.2019
3745 Clear 11 1027 29 10000 0.5 30 10:22 22.11.2019
3746 Clear 13 1026 27 10000 0.5 90 09:58 22.11.2019
3747 Clear 14 1025 33 10000 0.5 150 09:39 22.11.2019
3748 Clear 15 1026 21 10000 1 90 09:21 22.11.2019
3749 Clear 15 1026 21 10000 1 90 09:21 22.11.2019
3750 Clear 16 1026 19 10000 1.5 120 08:47 22.11.2019
3751 Clear 16 1026 21 10000 2.1 50 08:28 22.11.2019
3752 Clear 16 1026 21 10000 2.1 60 07:56 22.11.2019
3753 Clear 16 1025 28 10000 2.1 320 07:37 22.11.2019
3754 Clear 16 1027 21 10000 2.1 50 07:18 22.11.2019
3755 Clear 16 1026 22 10000 2.6 330 06:41 22.11.2019
3756 Clear 15 1028 28 10000 2.6 50 05:56 22.11.2019
3757 Clear 14 1029 30 10000 1.5 70 04:52 22.11.2019
3758 Clear 8 1031 52 10000 1.5 20 02:57 22.11.2019
3759 Clear 7 1031 56 10000 2.1 60 02:33 22.11.2019
3760 Clear 5 1030 69 10000 1.5 30 01:46 22.11.2019
3761 Clear 4 1029 70 10000 2.1 360 01:20 22.11.2019
3762 Clouds 2 1031 64 10000 1.22 88 00:54 22.11.2019
3763 Clouds 1 1031 69 10000 1 70 00:25 22.11.2019
3764 Clouds 1 1031 74 10000 1.5 50 23:56 21.11.2019
3765 Clouds 1 1031 74 10000 1.5 50 23:56 21.11.2019
3766 Clouds 1 1030 69 10000 0.5 100 23:37 21.11.2019
3767 Clouds 1 1030 69 10000 0.5 100 23:18 21.11.2019
3768 Clear 1 1029 80 10000 2.1 30 22:41 21.11.2019
3769 Clear 2 1030 74 10000 2.1 50 22:22 21.11.2019
3770 Clear 2 1030 64 10000 2.6 50 21:58 21.11.2019
3771 Clear 2 1029 74 10000 2.1 20 21:39 21.11.2019
3772 Clear 2 1030 69 10000 1.5 60 21:20 21.11.2019
3773 Clear 2 1030 69 10000 1 40 20:59 21.11.2019
3774 Clear 2 1029 74 10000 2.1 20 20:39 21.11.2019
3775 Clouds 3 1030 64 10000 2.1 40 20:19 21.11.2019
3776 Clouds 3 1030 64 10000 2.1 40 20:19 21.11.2019
3777 Clouds 3 1030 64 10000 1.5 10 19:59 21.11.2019
3778 Clouds 3 1029 64 10000 2.6 10 19:41 21.11.2019
3779 Clouds 3 1030 60 10000 4.6 50 19:22 21.11.2019
3780 Clouds 4 1031 64 10000 3.6 60 18:57 21.11.2019
3781 Clouds 4 1030 64 10000 1.5 30 18:38 21.11.2019
3782 Clouds 4 1031 64 10000 4.1 50 18:19 21.11.2019
3783 Clear 5 1031 64 10000 2.6 40 17:57 21.11.2019
3784 Clouds 4 1029 60 10000 1.5 30 17:38 21.11.2019
3785 Clouds 5 1031 64 10000 2.1 20 17:19 21.11.2019
3786 Clouds 5 1030 69 10000 1.5 30 16:41 21.11.2019
3787 Clear 5 1031 64 10000 2.1 360 16:21 21.11.2019
3788 Clouds 5 1031 69 10000 2.6 50 15:57 21.11.2019
3789 Clouds 5 1031 55 10000 1 30 15:39 21.11.2019
3790 Clouds 5 1031 64 10000 0.5 30 15:19 21.11.2019
3791 Clouds 5 1032 69 10000 1 70 14:56 21.11.2019
3792 Clouds 5 1032 69 10000 1 70 14:56 21.11.2019
3793 Clouds 5 1032 69 10000 1 70 14:56 21.11.2019
3794 Clouds 5 1032 69 10000 1.5 60 14:36 21.11.2019
3795 Clouds 5 1032 69 10000 1.5 60 14:18 21.11.2019
3796 Clouds 5 1031 52 10000 0.5 360 13:39 21.11.2019
3797 -273 0 0 0 0 0 13:39 21.11.2019
3798 Clouds 5 1032 69 10000 1 60 13:20 21.11.2019
3799 Clouds 5 1033 69 10000 1 50 12:57 21.11.2019
3800 Clouds 5 1031 56 10000 0.5 10 12:38 21.11.2019
3801 Clouds 5 1033 69 10000 1.42 87 12:19 21.11.2019
3802 Clear 6 1031 60 10000 0.5 180 11:41 21.11.2019
3803 Clouds 7 1032 56 10000 0.5 300 11:22 21.11.2019
3804 Clouds 7 1032 56 10000 1.48 86 10:59 21.11.2019
3805 Clouds 7 1031 45 10000 1 30 10:41 21.11.2019
3806 Clouds 7 1032 52 10000 0.5 140 10:22 21.11.2019
3807 Clouds 8 1032 52 10000 0.5 220 09:56 21.11.2019
3808 Clouds 8 1031 36 10000 0.5 330 09:37 21.11.2019
3809 Clouds 8 1032 45 10000 1 70 09:19 21.11.2019
3810 Clouds 9 1030 36 10000 1 30 08:41 21.11.2019
3811 Clouds 9 1032 45 10000 1.5 20 08:20 21.11.2019
3812 Clouds 9 1030 33 10000 0.5 330 07:42 21.11.2019
3813 Clear 9 1032 42 10000 2.6 40 07:18 21.11.2019
3814 Clouds 9 1032 42 10000 2.6 50 06:57 21.11.2019
3815 Clear 9 1033 39 10000 1.5 50 06:33 21.11.2019
3816 Clear 8 1031 33 10000 1 10 05:36 21.11.2019
3817 Clear 3 1035 51 10000 1.5 40 03:32 21.11.2019
3818 Clouds 2 1034 55 10000 2.1 10 02:41 21.11.2019
3819 Clouds 0 1035 63 10000 1 80 01:55 21.11.2019
3820 Clouds -1 1035 68 10000 1.5 20 01:36 21.11.2019
3821 Clouds -3 1036 73 10000 0.5 350 00:54 21.11.2019
3822 Clouds -3 1033 74 10000 1 340 00:21 21.11.2019
3823 Clouds -4 1035 79 10000 1.36 62 23:57 20.11.2019
3824 Clear -4 1034 79 10000 0.5 70 23:39 20.11.2019
3825 Clear -4 1035 79 10000 0.5 130 23:20 20.11.2019
3826 Clear -4 1035 79 10000 1 350 22:55 20.11.2019
3827 Clear -4 1035 79 10000 1 350 22:55 20.11.2019
3828 Clear -4 1033 85 10000 1.5 40 22:37 20.11.2019
3829 Clear -4 1033 85 10000 1.5 40 22:37 20.11.2019
3830 Clear -4 1035 79 10000 0.5 300 22:18 20.11.2019
3831 Clear -4 1035 79 10000 0.5 300 22:18 20.11.2019
3832 Clear -4 1035 79 10000 1 80 21:55 20.11.2019
3833 Clear -4 1034 85 10000 0.5 80 21:36 20.11.2019
3834 Haze -3 1035 85 9000 1 40 21:18 20.11.2019
3835 Clear -3 1035 79 10000 0.5 40 20:54 20.11.2019
3836 Clear -4 1034 85 10000 0.5 140 20:36 20.11.2019
3837 Clear -3 1035 79 10000 0.5 40 20:18 20.11.2019
3838 Clear -3 1035 79 10000 0.5 40 20:18 20.11.2019
3839 Clear -3 1035 85 10000 1 50 19:54 20.11.2019
3840 Clouds -4 1034 73 10000 1 60 19:36 20.11.2019
3841 Clear -4 1033 79 10000 2.1 310 19:18 20.11.2019
3842 Clear -4 1034 79 10000 0.5 140 18:41 20.11.2019
3843 Clear -3 1035 85 10000 0.5 50 18:22 20.11.2019
3844 Clear -3 1035 73 10000 0.5 110 17:59 20.11.2019
3845 Clear -3 1033 73 10000 0.5 80 17:39 20.11.2019
3846 Clear -3 1033 73 10000 0.5 80 17:39 20.11.2019
3847 Clear -3 1035 79 10000 0.5 160 17:21 20.11.2019
3848 Clear -2 1035 79 10000 0.5 360 16:57 20.11.2019
3849 Clear -2 1033 73 10000 0.5 70 16:39 20.11.2019
3850 Clear -2 1035 79 10000 0.5 70 16:20 20.11.2019
3851 Clear -2 1035 68 10000 1 40 15:57 20.11.2019
3852 Clear -2 1033 73 10000 0.5 170 15:38 20.11.2019
3853 Clear -2 1035 68 10000 0.5 160 15:19 20.11.2019
3854 Clear -2 1033 63 10000 0.5 150 14:41 20.11.2019
3855 Clear -2 1034 79 10000 1 150 14:22 20.11.2019
3856 Clear -2 1034 79 10000 1 150 14:22 20.11.2019
3857 Clear -2 1034 79 10000 1 150 14:22 20.11.2019
3858 Clear -2 1034 58 10000 0.63 357 13:59 20.11.2019
3859 Clear -1 1032 68 10000 0.5 160 13:39 20.11.2019
3860 Clear -1 1034 54 10000 0.5 90 13:20 20.11.2019
3861 Clear 0 1034 58 10000 1 140 12:58 20.11.2019
3862 Clear 0 1031 58 10000 0.5 170 12:37 20.11.2019
3863 Clear 0 1033 42 10000 1 30 12:19 20.11.2019
3864 Clear 1 1031 17 10000 0.5 140 11:45 20.11.2019
3865 Clear 2 1033 15 10000 1 100 11:22 20.11.2019
3866 Clear 2 1033 15 10000 0.5 90 10:56 20.11.2019
3867 Clear 2 1031 47 10000 0.5 170 10:38 20.11.2019
3868 Clear 3 1033 34 10000 1 140 10:20 20.11.2019
3869 Clear 4 1033 25 10000 1 20 09:55 20.11.2019
3870 Clear 4 1030 32 10000 0.5 90 09:37 20.11.2019
3871 Clear 4 1033 23 10000 1.5 10 09:18 20.11.2019
3872 Clear 5 1031 22 10000 1 320 08:39 20.11.2019
3873 Clear 5 1033 20 10000 1.5 80 08:21 20.11.2019
3874 Clear 6 1032 21 10000 1.5 60 07:48 20.11.2019
3875 Clear 5 1032 27 10000 0.5 240 07:28 20.11.2019
3876 Clear 5 1032 27 10000 0.5 310 06:50 20.11.2019
3877 Clear 5 1033 27 10000 1.5 290 06:22 20.11.2019
3878 Clear 4 1033 29 10000 1.5 300 05:51 20.11.2019
3879 Clear 3 1034 27 10000 1 90 03:52 20.11.2019
3880 Clear 0 1034 23 10000 0.5 240 02:22 20.11.2019
3881 Clear -2 1032 23 10000 0.5 160 01:33 20.11.2019
3882 Clear -4 1031 73 10000 0.5 170 00:42 20.11.2019
3883 Clear -5 1033 85 10000 0.5 80 23:59 19.11.2019
3884 Clear -5 1033 92 10000 1 30 23:27 19.11.2019
3885 Clear -5 1032 92 10000 2.22 329 22:59 19.11.2019
3886 Clear -5 1030 85 10000 0.5 150 22:41 19.11.2019
3887 Clear -5 1032 92 10000 0.5 130 22:19 19.11.2019
3888 Clear -4 1032 79 10000 0.5 80 21:57 19.11.2019
3889 Clear -4 1030 79 10000 0.5 170 21:38 19.11.2019
3890 Clear -4 1033 92 10000 0.5 150 21:20 19.11.2019
3891 Clear -4 1033 85 10000 0.5 340 20:56 19.11.2019
3892 Clear -4 1033 85 10000 0.5 340 20:56 19.11.2019
3893 Clear -3 1030 68 10000 0.5 120 20:38 19.11.2019
3894 Clear -3 1032 85 10000 0.5 60 20:20 19.11.2019
3895 Clear -3 1033 85 10000 0.5 80 19:57 19.11.2019
3896 Clear -3 1033 85 10000 0.5 80 19:57 19.11.2019
3897 Clear -3 1030 79 10000 0.5 150 19:39 19.11.2019
3898 Clear -3 1033 85 10000 0.5 140 19:19 19.11.2019
3899 Clear -2 1032 79 10000 0.5 340 18:55 19.11.2019
3900 Clear -2 1032 79 10000 0.5 140 18:36 19.11.2019
3901 Clear -2 1030 73 10000 0.5 200 18:36 19.11.2019
3902 Clear -2 1032 79 10000 0.5 140 18:18 19.11.2019
3903 Clear -2 1032 79 10000 0.5 220 17:55 19.11.2019
3904 Clear -2 1029 58 10000 0.5 20 17:37 19.11.2019
3905 Clear -2 1029 58 10000 0.5 20 17:37 19.11.2019
3906 Clear -1 1032 58 10000 1 70 17:18 19.11.2019
3907 Clear -1 1030 36 10000 1 240 16:43 19.11.2019
3908 Clear -2 1031 79 10000 3.57 319 16:23 19.11.2019
3909 Clear -1 1031 68 10000 0.5 240 15:57 19.11.2019
3910 Clear 0 1029 68 10000 1 120 15:39 19.11.2019
3911 Clear 0 1031 73 10000 1 170 15:20 19.11.2019
3912 Clear 0 1031 63 10000 1 360 14:55 19.11.2019
3913 Clear 0 1029 50 10000 0.5 340 14:37 19.11.2019
3914 Clear 0 1031 68 10000 0.5 330 14:19 19.11.2019
3915 Clear 0 1028 47 10000 2.6 330 13:40 19.11.2019
3916 Clear 1 1030 63 10000 1.5 350 13:19 19.11.2019
3917 Clear 1 1027 59 10000 0.5 300 12:40 19.11.2019
3918 Clear 1 1029 68 10000 0.5 330 12:22 19.11.2019
3919 Clear 1 1029 39 10000 1.5 340 11:58 19.11.2019
3920 Clear 1 1027 59 10000 1 170 11:38 19.11.2019
3921 Clear 1 1028 49 10000 1 350 11:19 19.11.2019
3922 Clear 1 1028 49 10000 1 350 11:19 19.11.2019
3923 Clear 1 1028 49 10000 1 350 11:19 19.11.2019
3924 Clear 2 1028 49 10000 0.5 350 10:47 19.11.2019
3925 Clear 2 1028 55 10000 1 310 10:22 19.11.2019
3926 Clear 3 1027 55 10000 1.5 320 09:57 19.11.2019
3927 Clear 3 1025 44 10000 1 10 09:39 19.11.2019
3928 Clear 3 1027 51 10000 2.1 330 09:18 19.11.2019
3929 Clear 4 1025 38 10000 3.1 210 08:41 19.11.2019
3930 -273 0 0 0 0 0 08:41 19.11.2019
3931 Clear 4 1026 44 10000 2.1 300 08:22 19.11.2019
3932 Clouds 4 1026 44 10000 3.6 300 07:57 19.11.2019
3933 Clouds 4 1024 41 10000 3.6 240 07:38 19.11.2019
3934 Clouds 4 1026 40 10000 4.1 300 07:20 19.11.2019
3935 Clouds 4 1024 38 10000 2.1 270 06:45 19.11.2019
3936 Clear 4 1026 44 10000 4.1 310 06:27 19.11.2019
3937 Clouds 3 1025 55 10000 3.1 340 05:20 19.11.2019
3938 Clear 2 1025 40 10000 2.6 280 03:45 19.11.2019
3939 Clouds 2 1027 43 10000 2.6 330 03:22 19.11.2019
3940 Clear 1 1027 48 10000 2.1 220 02:51 19.11.2019
3941 Clouds 0 1027 58 10000 0.5 360 01:58 19.11.2019
3942 Clouds -2 1027 68 10000 4.55 305 00:51 19.11.2019
3943 Clouds -2 1027 79 10000 1 110 00:21 19.11.2019
3944 Clear -3 1026 85 10000 0.5 140 23:41 18.11.2019
3945 Clear -3 1026 85 10000 0.5 140 23:20 18.11.2019
3946 Clear -3 1026 85 10000 0.5 140 23:20 18.11.2019
3947 Clear -2 1025 62 10000 0.5 230 22:48 18.11.2019
3948 Clouds -2 1024 68 10000 1.5 260 22:24 18.11.2019
3949 Rain -2 1026 68 10000 1 130 21:59 18.11.2019
3950 Rain -2 1024 39 10000 0.5 260 21:40 18.11.2019
3951 Rain -2 1026 68 10000 0.5 180 21:22 18.11.2019
3952 Clear -1 1026 49 10000 0.5 90 20:59 18.11.2019
3953 Clear -1 1024 46 10000 1.5 360 20:41 18.11.2019
3954 Clear -1 1026 53 10000 1 20 20:19 18.11.2019
3955 Clear -1 1026 58 10000 1.5 360 19:58 18.11.2019
3956 Clouds 0 1023 56 10000 1.5 360 19:38 18.11.2019
3957 Clouds 0 1023 56 10000 1.5 360 19:38 18.11.2019
3958 Clear 0 1026 63 10000 3.1 350 19:20 18.11.2019
3959 Clouds 0 1025 74 10000 2.1 350 18:56 18.11.2019
3960 -273 0 0 0 0 0 18:38 18.11.2019
3961 Clouds 0 1025 86 10000 2.6 20 18:19 18.11.2019
3962 Clouds 0 1024 86 10000 2.6 360 17:56 18.11.2019
3963 Clouds 0 1021 56 10000 1 170 17:37 18.11.2019
3964 Clouds 0 1024 80 10000 1.5 10 17:19 18.11.2019
3965 Clouds 1 1022 64 10000 0.5 100 16:43 18.11.2019
3966 Clouds 1 1022 64 10000 0.5 100 16:43 18.11.2019
3967 Clouds 1 1024 86 10000 1 360 16:24 18.11.2019
3968 Clouds 1 1023 80 10000 0.5 250 15:58 18.11.2019
3969 Clouds 1 1022 65 10000 0.5 150 15:40 18.11.2019
3970 Clouds 1 1024 86 10000 0.5 30 15:20 18.11.2019
3971 Clouds 1 1024 79 10000 0.5 50 14:58 18.11.2019
3972 Clouds 1 1022 65 10000 1 170 14:38 18.11.2019
3973 Clouds 1 1024 79 10000 4.07 305 14:18 18.11.2019
3974 Clear 1 1022 59 10000 0.5 150 13:42 18.11.2019
3975 Clear 1 1024 74 10000 0.5 50 13:24 18.11.2019
3976 Clouds 2 1022 51 10000 1.5 210 12:40 18.11.2019
3977 Clouds 2 1023 64 10000 2.1 330 12:20 18.11.2019
3978 Clear 1 1024 68 10000 0.5 250 11:56 18.11.2019
3979 Clear 2 1022 55 10000 1 270 11:38 18.11.2019
3980 Clear 2 1024 42 10000 0.5 270 11:19 18.11.2019
3981 Clear 3 1021 51 10000 3.1 220 10:43 18.11.2019
3982 Clear 3 1023 59 10000 3.1 330 10:25 18.11.2019
3983 Clear 3 1023 59 10000 2.1 330 09:57 18.11.2019
3984 Clouds 4 1021 48 10000 2.1 250 09:38 18.11.2019
3985 Clouds 3 1023 55 10000 1.5 300 09:19 18.11.2019
3986 Clouds 3 1023 55 10000 1.5 300 09:19 18.11.2019
3987 Clouds 4 1022 51 10000 1.5 270 08:47 18.11.2019
3988 Clouds 4 1022 51 10000 3.1 280 08:24 18.11.2019
3989 Clouds 5 1021 47 10000 4.1 290 07:55 18.11.2019
3990 Clouds 5 1019 38 10000 2.1 240 07:37 18.11.2019
3991 Haze 5 1021 44 9000 2.6 260 07:19 18.11.2019
3992 Clear 6 1018 30 10000 3.6 280 06:41 18.11.2019
3993 Haze 6 1021 41 9000 3.6 240 06:21 18.11.2019
3994 Clouds 6 1019 52 10000 5.1 310 05:26 18.11.2019
3995 Clear 5 1019 41 10000 3.6 220 03:40 18.11.2019
3996 Clouds 5 1019 52 10000 5.1 360 01:39 18.11.2019
3997 Clouds 6 1019 70 10000 4.1 240 00:53 18.11.2019
3998 Clear 7 1020 44 10000 2.1 240 23:59 17.11.2019
3999 Clear 7 1020 44 10000 2.1 240 23:59 17.11.2019
4000 Clouds 7 1017 61 10000 3.6 240 23:40 17.11.2019
4001 Clear 7 1019 58 10000 2.6 300 23:21 17.11.2019
4002 Rain 8 1018 70 10000 2.1 260 22:56 17.11.2019
4003 Rain 8 1016 61 10000 2.1 230 22:38 17.11.2019
4004 Rain 8 1016 61 10000 2.1 230 22:38 17.11.2019
4005 Rain 8 1018 70 10000 3.6 310 22:19 17.11.2019
4006 Rain 9 1015 76 10000 6.2 300 21:42 17.11.2019
4007 Rain 10 1014 81 10000 6.7 300 21:20 17.11.2019
4008 Clouds 10 1014 93 10000 3.6 270 20:58 17.11.2019
4009 Clouds 11 1012 87 10000 2.1 280 20:39 17.11.2019
4010 Rain 11 1014 81 10000 5.1 330 20:20 17.11.2019
4011 Rain 11 1013 93 10000 2.6 270 19:57 17.11.2019
4012 Rain 11 1011 100 6000 1 200 19:38 17.11.2019
4013 Rain 11 1013 100 10000 3.6 240 19:20 17.11.2019
4014 Clouds 12 1013 100 10000 1.5 230 18:56 17.11.2019
4015 Clouds 12 1013 100 10000 1.5 230 18:56 17.11.2019
4016 Clouds 12 1013 100 10000 1.5 230 18:56 17.11.2019
4017 Rain 12 1011 100 8000 3.1 260 18:38 17.11.2019
4018 Rain 13 1013 100 8000 2.6 260 18:19 17.11.2019
4019 Rain 13 1009 100 4800 2.1 190 17:57 17.11.2019
4020 Rain 13 1009 100 4800 2.1 190 17:57 17.11.2019
4021 Rain 12 1009 100 4800 2.1 190 17:39 17.11.2019
4022 Rain 12 1012 100 2400 2.6 240 17:20 17.11.2019
4023 Rain 11 1011 100 1600 1 180 16:58 17.11.2019
4024 Rain 11 1011 100 2000 1 20 16:40 17.11.2019
4025 Rain 11 1011 100 2000 1 20 16:21 17.11.2019
4026 Rain 10 1012 100 2800 0.5 130 15:55 17.11.2019
4027 Rain 10 1010 100 10000 0.5 350 15:37 17.11.2019
4028 Rain 10 1012 100 2400 1 330 15:18 17.11.2019
4029 Rain 10 1011 100 6000 0.5 110 14:55 17.11.2019
4030 Rain 10 1011 100 6000 1.5 360 14:37 17.11.2019
4031 Rain 10 1012 100 6000 1 40 14:18 17.11.2019
4032 Rain 10 1013 100 4000 1 20 13:54 17.11.2019
4033 Rain 10 1013 100 6000 1.5 10 13:36 17.11.2019
4034 Rain 10 1011 93 10000 3.1 140 13:18 17.11.2019
4035 Rain 9 1014 100 4000 0.5 10 12:39 17.11.2019
4036 Rain 10 1014 100 9000 2.1 20 12:21 17.11.2019
4037 Rain 10 1014 100 9000 2.1 20 12:21 17.11.2019
4038 Rain 9 1015 100 3200 3.1 350 11:56 17.11.2019
4039 Rain 9 1014 100 4000 1.5 30 11:38 17.11.2019
4040 Rain 10 1015 100 6000 1.5 20 11:19 17.11.2019
4041 Rain 10 1015 100 6000 1.5 20 11:19 17.11.2019
4042 Rain 9 1015 100 4800 1.5 20 10:43 17.11.2019
4043 Rain 9 1015 100 6000 2.1 40 10:23 17.11.2019
4044 Rain 9 1016 100 3200 2.6 60 09:57 17.11.2019
4045 Rain 9 1016 100 9000 1.5 10 09:39 17.11.2019
4046 Drizzle 9 1016 100 6000 1.5 360 09:19 17.11.2019
4047 Rain 9 1018 93 8000 2.1 20 08:38 17.11.2019
4048 Rain 9 1018 93 8000 2.1 20 08:19 17.11.2019
4049 Rain 9 1018 100 8000 2.6 30 07:45 17.11.2019
4050 Rain 9 1016 87 5000 5.7 110 07:22 17.11.2019
4051 Rain 8 1018 100 6000 1 10 06:56 17.11.2019
4052 Rain 8 1020 93 6000 4.1 40 06:30 17.11.2019
4053 Rain 8 1019 93 10000 1.5 20 05:39 17.11.2019
4054 Rain 8 1021 93 8000 1.5 70 04:20 17.11.2019
4055 Rain 8 1021 70 10000 2.1 350 03:42 17.11.2019
4056 Rain 8 1022 61 10000 2.1 40 03:23 17.11.2019
4057 Clear 7 1022 65 10000 2.6 40 02:19 17.11.2019
4058 Clouds 7 1023 38 10000 1.5 30 01:22 17.11.2019
4059 Clouds 5 1023 93 10000 1 10 00:43 17.11.2019
4060 Clouds 5 1022 37 10000 2.6 50 00:21 17.11.2019
4061 Clouds 4 1022 93 10000 1.5 20 23:43 16.11.2019
4062 Clouds 5 1022 69 10000 1 90 23:19 16.11.2019
4063 Clouds 5 1022 38 10000 1.5 30 22:56 16.11.2019
4064 Clouds 5 1022 93 10000 1.5 10 22:38 16.11.2019
4065 Clouds 5 1023 69 10000 1 60 22:18 16.11.2019
4066 Clouds 5 1022 93 10000 2.1 20 21:41 16.11.2019
4067 Clouds 5 1023 38 10000 1.5 360 21:23 16.11.2019
4068 Clouds 4 1023 38 10000 2.1 50 20:58 16.11.2019
4069 Clouds 4 1022 100 9000 2.1 20 20:39 16.11.2019
4070 Clouds 4 1023 36 10000 2.1 40 20:19 16.11.2019
4071 Clouds 4 1024 36 10000 1 50 19:56 16.11.2019
4072 Clouds 4 1023 100 9000 1.5 30 19:37 16.11.2019
4073 Clouds 4 1024 36 10000 1.5 20 19:19 16.11.2019
4074 Clouds 4 1023 100 8000 2.1 10 18:43 16.11.2019
4075 Clouds 4 1023 86 10000 0.5 40 18:25 16.11.2019
4076 Clouds 4 1023 86 10000 0.5 20 17:56 16.11.2019
4077 Clouds 4 1023 86 10000 0.5 20 17:56 16.11.2019
4078 Clouds 4 1023 86 10000 0.5 80 17:37 16.11.2019
4079 Clouds 4 1023 86 10000 0.5 80 17:18 16.11.2019
4080 Clouds 4 1023 93 8000 0.5 10 16:45 16.11.2019
4081 Clouds 4 1023 93 9000 0.5 80 16:27 16.11.2019
4082 Clouds 4 1023 86 10000 1 80 15:56 16.11.2019
4083 Clouds 4 1022 100 4800 0.5 50 15:37 16.11.2019
4084 Clear 4 1023 100 6000 1.44 77 15:19 16.11.2019
4085 Clouds 5 1022 100 8000 2.1 10 14:41 16.11.2019
4086 Clouds 5 1023 93 10000 1 110 14:21 16.11.2019
4087 Clouds 5 1023 93 10000 1.41 64 13:57 16.11.2019
4088 Clouds 5 1022 100 9000 1 30 13:38 16.11.2019
4089 Clouds 5 1023 100 4800 0.5 340 13:19 16.11.2019
4090 Clear 5 1023 100 6000 1.5 60 12:59 16.11.2019
4091 Clear 5 1022 100 9000 1 30 12:40 16.11.2019
4092 Clear 5 1023 93 8000 0.5 60 12:20 16.11.2019
4093 Clear 6 1023 93 10000 0.5 130 11:45 16.11.2019
4094 Clear 6 1023 86 10000 1 120 11:26 16.11.2019
4095 Clear 7 1023 81 10000 0.5 360 10:57 16.11.2019
4096 Clear 7 1021 93 10000 0.75 31 10:39 16.11.2019
4097 Clear 8 1022 81 10000 0.5 150 10:21 16.11.2019
4098 Clear 10 1021 87 10000 0.5 20 09:43 16.11.2019
4099 Clear 10 1022 66 10000 0.5 160 09:21 16.11.2019
4100 Clear 12 1022 57 10000 1 310 08:59 16.11.2019
4101 Clear 12 1020 71 10000 0.5 30 08:39 16.11.2019
4102 Clear 12 1022 50 10000 1 280 08:19 16.11.2019
4103 Clear 12 1020 62 10000 1 330 07:43 16.11.2019
4104 Clear 12 1020 62 10000 1 330 07:43 16.11.2019
4105 Clear 11 1021 50 10000 0.5 330 07:21 16.11.2019
4106 Clear 11 1021 53 10000 1 320 06:52 16.11.2019
4107 Clear 10 1021 33 10000 1 20 06:33 16.11.2019
4108 Clear 9 1022 75 10000 1 50 05:30 16.11.2019
4109 Clouds 7 1022 100 4800 1 270 03:44 16.11.2019
4110 Mist 6 1023 100 1600 2.1 50 03:25 16.11.2019
4111 Fog 5 1023 100 0 1.5 40 01:51 16.11.2019
4112 Fog 5 1023 100 0 2.1 50 01:20 16.11.2019
4113 Clouds 5 1021 100 10000 1.5 360 00:42 16.11.2019
4114 Rain 5 1022 100 0 1.5 10 00:22 16.11.2019
4115 Mist 5 1020 100 4000 1.5 350 23:40 15.11.2019
4116 Fog 5 1021 100 0 1.5 20 23:20 15.11.2019
4117 Fog 5 1021 100 0 2.1 10 22:55 15.11.2019
4118 Mist 4 1020 100 4000 1.5 350 22:37 15.11.2019
4119 Fog 4 1021 100 0 2.1 50 22:18 15.11.2019
4120 Mist 5 1019 100 4000 1.5 360 21:41 15.11.2019
4121 Fog 5 1020 100 0 1.5 40 21:20 15.11.2019
4122 Fog 5 1020 100 0 1.5 350 20:58 15.11.2019
4123 Mist 5 1019 100 4000 1.5 10 20:40 15.11.2019
4124 Fog 5 1020 100 0 1 10 20:21 15.11.2019
4125 Fog 5 1020 100 0 1.5 40 19:58 15.11.2019
4126 Mist 5 1019 100 4000 1.5 30 19:40 15.11.2019
4127 Fog 5 1020 100 0 1.5 40 19:20 15.11.2019
4128 Fog 5 1020 100 0 1 20 18:58 15.11.2019
4129 Mist 5 1019 100 4000 1.5 360 18:39 15.11.2019
4130 Fog 5 1020 100 0 1 40 18:21 15.11.2019
4131 Rain 5 1019 100 4800 1.5 20 17:43 15.11.2019
4132 Rain 5 1020 100 0 1.5 40 17:24 15.11.2019
4133 Fog 6 1020 100 0 2.1 20 16:57 15.11.2019
4134 Clouds 6 1019 100 6000 1 20 16:38 15.11.2019
4135 Fog 6 1020 100 0 1 10 16:19 15.11.2019
4136 Clouds 6 1019 100 4800 0.5 30 15:38 15.11.2019
4137 Rain 6 1020 100 0 2.1 60 15:20 15.11.2019
4138 Fog 6 1020 100 0 2.6 40 14:57 15.11.2019
4139 Clouds 6 1019 100 8000 1 10 14:38 15.11.2019
4140 Fog 6 1020 100 0 1 20 14:19 15.11.2019
4141 Fog 7 1019 100 0 1 60 13:58 15.11.2019
4142 Clouds 7 1018 100 6000 1.5 20 13:39 15.11.2019
4143 Fog 7 1019 100 0 0.5 20 13:20 15.11.2019
4144 Fog 7 1019 100 0 0.5 180 12:57 15.11.2019
4145 Clouds 7 1018 100 4800 1 20 12:39 15.11.2019
4146 Fog 7 1019 100 0 0.5 110 12:20 15.11.2019
4147 Fog 7 1019 100 0 0.5 90 11:57 15.11.2019
4148 Rain 7 1018 100 4800 1.5 30 11:38 15.11.2019
4149 Mist 7 1019 100 1200 0.5 190 11:19 15.11.2019
4150 Rain 7 1017 93 5000 2.6 120 10:41 15.11.2019
4151 Rain 7 1019 100 1200 0.5 170 10:22 15.11.2019
4152 Rain 7 1018 100 4000 2.1 360 09:58 15.11.2019
4153 Rain 7 1018 100 4000 2.1 360 09:40 15.11.2019
4154 Mist 7 1018 100 3200 1 20 09:19 15.11.2019
4155 Rain 7 1018 100 4000 3.1 330 08:43 15.11.2019
4156 Mist 7 1019 100 4000 1 160 08:22 15.11.2019
4157 Rain 6 1017 93 4800 2.1 30 07:47 15.11.2019
4158 Clouds 6 1018 100 4800 1 20 07:28 15.11.2019
4159 Clouds 7 1018 100 6000 1 350 06:38 15.11.2019
4160 Rain 7 1018 93 3200 1.5 60 05:59 15.11.2019
4161 Rain 7 1018 93 3200 1.5 60 05:39 15.11.2019
4162 Rain 7 1017 93 4000 4.6 130 05:20 15.11.2019
4163 Rain 6 1019 100 2000 1.5 60 03:48 15.11.2019
4164 Rain 5 1020 100 2800 1 20 02:52 15.11.2019
4165 Clouds 4 1017 93 10000 4.6 160 02:18 15.11.2019
4166 Rain 5 1020 100 3200 1.5 350 01:32 15.11.2019
4167 Rain 5 1020 100 3200 1.5 350 01:32 15.11.2019
4168 Clouds 4 1019 100 10000 1 180 00:48 15.11.2019
4169 Clouds 4 1019 100 4800 1 320 00:29 15.11.2019
4170 Thunderstorm 3 1020 93 4000 1 340 23:49 14.11.2019
4171 Rain 3 1019 100 4000 2.1 360 23:27 14.11.2019
4172 Rain 2 1019 100 4800 3.1 170 22:57 14.11.2019
4173 Rain 2 1019 86 8000 1 20 22:39 14.11.2019
4174 Rain 2 1019 100 4000 1.5 190 22:20 14.11.2019
4175 Clouds 2 1019 51 10000 0.5 230 21:42 14.11.2019
4176 Clouds 2 1019 56 4000 4.1 30 21:23 14.11.2019
4177 Haze 3 1019 86 4800 1.5 50 20:57 14.11.2019
4178 Clouds 3 1019 55 10000 0.5 180 20:39 14.11.2019
4179 Clouds 3 1019 80 10000 4.6 330 20:21 14.11.2019
4180 Clouds 2 1019 60 10000 0.5 90 19:58 14.11.2019
4181 Clouds 2 1019 60 10000 0.5 90 19:58 14.11.2019
4182 Clouds 2 1020 59 10000 0.5 100 19:40 14.11.2019
4183 Clouds 2 1020 64 10000 2.1 170 19:18 14.11.2019
4184 Clouds 0 1021 35 10000 0.5 260 18:43 14.11.2019
4185 Clouds 0 1021 35 10000 0.5 260 18:24 14.11.2019
4186 Clouds 0 1022 68 10000 0.5 110 17:58 14.11.2019
4187 Clouds 0 1021 74 10000 0.5 290 17:38 14.11.2019
4188 Clouds -1 1022 74 10000 0.5 70 17:20 14.11.2019
4189 Clouds -1 1022 74 10000 0.5 40 16:58 14.11.2019
4190 Clouds -1 1022 74 10000 0.5 40 16:58 14.11.2019
4191 Clouds -1 1022 74 10000 0.5 40 16:58 14.11.2019
4192 Clouds -1 1023 80 10000 0.5 30 16:37 14.11.2019
4193 Clouds -1 1023 68 10000 2.1 50 16:19 14.11.2019
4194 Clouds -2 1024 79 10000 1 300 15:58 14.11.2019
4195 Clear -2 1023 86 10000 2.04 154 15:38 14.11.2019
4196 Clouds -1 1024 74 10000 1.5 70 15:20 14.11.2019
4197 Clear -2 1024 79 10000 0.5 20 14:57 14.11.2019
4198 Clear -2 1023 74 10000 0.5 170 14:38 14.11.2019
4199 Clear -2 1023 74 10000 0.5 170 14:38 14.11.2019
4200 Clear -1 1024 79 10000 0.5 70 14:20 14.11.2019
4201 Clear -1 1022 68 10000 0.5 160 13:42 14.11.2019
4202 Clear -1 1023 58 10000 0.5 90 13:23 14.11.2019
4203 Clear 0 1023 68 10000 1 120 12:57 14.11.2019
4204 Clear 1 1022 63 10000 0.5 190 12:38 14.11.2019
4205 Clear 1 1022 63 10000 0.5 190 12:38 14.11.2019
4206 Clear 1 1024 58 10000 0.5 90 12:20 14.11.2019
4207 Clear 1 1024 68 10000 0.5 30 11:55 14.11.2019
4208 Clear 1 1023 58 10000 0.5 130 11:36 14.11.2019
4209 Clear 1 1022 51 10000 2.1 180 11:18 14.11.2019
4210 Clear 2 1022 50 10000 1 170 10:42 14.11.2019
4211 Clear 3 1022 37 10000 0.5 80 10:21 14.11.2019
4212 Clear 3 1024 43 10000 0.5 290 09:59 14.11.2019
4213 Clear 3 1022 40 10000 0.5 180 09:41 14.11.2019
4214 Clear 3 1023 40 10000 1 180 09:41 14.11.2019
4215 Clouds 5 1022 25 10000 1 190 09:23 14.11.2019
4216 Clouds 5 1022 25 10000 1 190 08:49 14.11.2019
4217 Clear 5 1024 29 10000 1 150 08:28 14.11.2019
4218 Clear 4 1024 32 10000 1.5 140 07:59 14.11.2019
4219 Clear 4 1023 23 10000 1.5 200 07:38 14.11.2019
4220 Clear 5 1025 27 10000 1.5 270 07:20 14.11.2019
4221 Clear 4 1025 29 10000 3.6 240 06:45 14.11.2019
4222 Clear 4 1026 29 10000 1.5 280 06:19 14.11.2019
4223 Clear 3 1027 34 10000 2.6 330 04:49 14.11.2019
4224 Clear 2 1028 29 10000 3.1 310 04:27 14.11.2019
4225 Clear 2 1028 29 10000 1 330 02:49 14.11.2019
4226 Clear 1 1028 27 10000 2.1 20 02:28 14.11.2019
4227 Clear 0 1027 37 10000 3.6 330 01:34 14.11.2019
4228 Clear -1 1028 33 10000 1 110 00:55 14.11.2019
4229 Clear -1 1028 36 10000 1 90 00:34 14.11.2019
4230 Clear -2 1028 38 10000 1 300 23:58 13.11.2019
4231 Clear -2 1026 26 10000 1.5 250 23:37 13.11.2019
4232 Clear -2 1028 35 10000 1.5 330 23:18 13.11.2019
4233 Clear -1 1025 26 10000 1.5 270 22:41 13.11.2019
4234 Clear -1 1027 30 10000 2.6 320 22:22 13.11.2019
4235 Clear 0 1027 33 10000 2.1 320 21:57 13.11.2019
4236 Clear 0 1024 26 10000 2.6 200 21:38 13.11.2019
4237 Clear 0 1027 33 10000 1.5 320 21:20 13.11.2019
4238 Clear 0 1026 36 10000 1.5 320 20:57 13.11.2019
4239 Clear 0 1026 36 10000 1.5 320 20:57 13.11.2019
4240 Clear 0 1024 31 10000 1 240 20:37 13.11.2019
4241 Clear 0 1024 31 10000 1 240 20:37 13.11.2019
4242 Clear 1 1026 33 10000 2.1 290 20:19 13.11.2019
4243 Clear 1 1026 33 10000 3.1 290 19:56 13.11.2019
4244 Clear 1 1023 40 10000 2.6 260 19:37 13.11.2019
4245 Clear 1 1025 25 10000 3.1 320 19:18 13.11.2019
4246 Clear 2 1025 25 10000 2.6 290 18:54 13.11.2019
4247 Clear 2 1025 25 10000 2.6 290 18:54 13.11.2019
4248 Clear 2 1023 40 10000 2.1 230 18:36 13.11.2019
4249 Clear 2 1025 25 10000 3.1 310 18:18 13.11.2019
4250 Clear 2 1025 25 10000 3.1 310 18:18 13.11.2019
4251 Clear 2 1025 25 10000 3.1 310 18:18 13.11.2019
4252 Clear 3 1024 47 10000 2.6 320 17:54 13.11.2019
4253 Clear 3 1022 51 10000 1 320 17:36 13.11.2019
4254 Clear 3 1024 50 10000 2.6 290 17:18 13.11.2019
4255 Clear 4 1021 55 10000 1.5 220 16:41 13.11.2019
4256 Clear 4 1023 47 10000 4.6 290 16:22 13.11.2019
4257 Clear 4 1023 59 10000 3.1 280 15:59 13.11.2019
4258 Clouds 5 1021 60 10000 1.5 280 15:41 13.11.2019
4259 Clear 5 1022 64 10000 1.5 270 15:23 13.11.2019
4260 Clear 6 1022 69 10000 2.1 260 14:59 13.11.2019
4261 Clear 6 1022 69 10000 2.1 260 14:59 13.11.2019
4262 Clear 6 1022 64 10000 3.1 320 14:37 13.11.2019
4263 Clouds 6 1019 49 10000 1.5 350 14:19 13.11.2019
4264 Clouds 7 1021 49 10000 3.6 280 13:37 13.11.2019
4265 Clouds 7 1019 70 10000 5.7 310 13:19 13.11.2019
4266 Clouds 7 1019 49 10000 3.6 310 12:58 13.11.2019
4267 Clouds 8 1016 75 10000 1.5 220 12:38 13.11.2019
4268 Clouds 8 1016 75 10000 1.5 220 12:38 13.11.2019
4269 Clouds 8 1016 75 10000 6.2 300 12:19 13.11.2019
4270 Clouds 8 1015 70 10000 1 270 11:41 13.11.2019
4271 Clouds 8 1017 93 10000 2.6 260 11:21 13.11.2019
4272 Rain 9 1016 75 10000 1.5 290 10:59 13.11.2019
4273 Rain 9 1014 81 10000 2.1 240 10:41 13.11.2019
4274 Rain 9 1014 81 10000 2.1 240 10:41 13.11.2019
4275 Rain 9 1016 81 10000 1.5 300 10:20 13.11.2019
4276 Mist 9 1014 81 4800 5.1 310 09:57 13.11.2019
4277 Mist 9 1014 81 4800 5.1 310 09:39 13.11.2019
4278 Rain 10 1012 87 10000 1.5 10 09:20 13.11.2019
4279 Rain 10 1011 100 2400 2.6 160 08:39 13.11.2019
4280 Rain 10 1011 100 2400 2.6 160 08:39 13.11.2019
4281 Rain 10 1013 93 10000 3.1 290 08:20 13.11.2019
4282 Rain 10 1011 100 2000 1.5 180 07:42 13.11.2019
4283 Rain 10 1012 100 8000 1.5 240 07:21 13.11.2019
4284 Rain 10 1012 100 3200 2.1 180 06:47 13.11.2019
4285 Rain 10 1012 100 4800 3.1 190 06:19 13.11.2019
4286 Rain 10 1012 100 4800 3.1 190 06:19 13.11.2019
4287 Rain 10 1012 100 4800 3.1 190 06:19 13.11.2019
4288 Rain 10 1013 100 1600 3.6 180 05:57 13.11.2019
4289 Rain 10 1014 100 4000 1.5 180 05:38 13.11.2019
4290 Clouds 8 1015 93 6000 2.6 180 04:44 13.11.2019
4291 Clouds 6 1020 86 6000 1 10 02:19 13.11.2019
4292 Clouds 6 1019 86 6000 0.5 110 01:45 13.11.2019
4293 Clouds 5 1020 93 6000 0.5 240 00:52 13.11.2019
4294 Clouds 4 1021 93 4800 1.46 157 00:34 13.11.2019
4295 Mist 4 1020 100 4000 1 360 23:42 12.11.2019
4296 Mist 4 1020 93 4000 0.5 20 23:21 12.11.2019
4297 Mist 4 1021 93 4000 0.5 270 22:56 12.11.2019
4298 Mist 3 1021 100 4000 0.5 100 22:37 12.11.2019
4299 Clouds 4 1021 93 4800 0.5 70 22:18 12.11.2019
4300 Mist 3 1020 100 4000 1 20 21:43 12.11.2019
4301 Clear 3 1021 93 6000 0.5 130 21:24 12.11.2019
4302 Clear 3 1021 93 8000 1 70 20:57 12.11.2019
4303 Clouds 3 1020 100 4800 0.5 90 20:37 12.11.2019
4304 Clouds 4 1021 93 8000 0.5 90 20:19 12.11.2019
4305 Clouds 5 1022 93 6000 1.5 350 19:57 12.11.2019
4306 Clouds 5 1021 100 4800 1 20 19:39 12.11.2019
4307 Clouds 4 1022 93 8000 1.5 50 19:19 12.11.2019
4308 Clouds 4 1022 100 8000 1 70 18:58 12.11.2019
4309 Mist 4 1022 100 4000 1.5 20 18:39 12.11.2019
4310 Clouds 4 1023 100 9000 1 100 18:21 12.11.2019
4311 Clouds 5 1023 93 10000 0.5 90 17:57 12.11.2019
4312 Clouds 5 1023 93 10000 0.5 90 17:57 12.11.2019
4313 Clear 5 1022 100 6000 0.5 30 17:39 12.11.2019
4314 Clouds 5 1022 93 9000 1 300 17:20 12.11.2019
4315 Clouds 5 1023 86 4800 0.42 57 16:44 12.11.2019
4316 Clouds 5 1022 87 9000 1 360 16:26 12.11.2019
4317 -273 0 0 0 0 0 15:58 12.11.2019
4318 Clear 5 1022 100 8000 0.5 40 15:40 12.11.2019
4319 Clouds 5 1022 93 9000 1.5 340 15:21 12.11.2019
4320 Haze 6 1024 86 6000 0.42 57 14:56 12.11.2019
4321 Clouds 6 1021 93 10000 1.5 340 14:36 12.11.2019
4322 Clouds 6 1021 93 10000 1.5 340 14:18 12.11.2019
4323 Haze 7 1023 80 6000 0.5 70 13:55 12.11.2019
4324 Clear 6 1022 93 10000 0.5 170 13:36 12.11.2019
4325 Clouds 7 1021 87 10000 1 50 13:18 12.11.2019
4326 Clear 8 1022 93 10000 0.5 160 12:40 12.11.2019
4327 Clouds 8 1021 81 10000 2.1 310 12:19 12.11.2019
4328 Haze 8 1023 65 9000 0.5 360 11:55 12.11.2019
4329 Haze 9 1022 65 9000 1.1 265 11:36 12.11.2019
4330 Clear 9 1021 87 10000 0.5 120 11:18 12.11.2019
4331 Clear 10 1022 38 10000 1.5 260 10:55 12.11.2019
4332 Clear 10 1022 57 10000 1 260 10:36 12.11.2019
4333 Clouds 11 1021 62 10000 1.5 60 10:18 12.11.2019
4334 Clouds 12 1021 76 10000 0.5 160 09:39 12.11.2019
4335 Clouds 13 1022 35 10000 1 250 09:19 12.11.2019
4336 Clouds 14 1020 58 10000 0.5 200 08:49 12.11.2019
4337 Clouds 14 1022 33 10000 2.1 220 08:29 12.11.2019
4338 Clouds 14 1022 33 10000 2.1 220 08:29 12.11.2019
4339 Clouds 14 1020 54 10000 0.5 200 07:43 12.11.2019
4340 Clouds 14 1020 50 10000 2.6 350 07:24 12.11.2019
4341 Clouds 14 1022 29 10000 2.6 240 06:53 12.11.2019
4342 Clouds 14 1021 51 10000 2.1 320 06:26 12.11.2019
4343 Clouds 13 1022 33 10000 1 260 05:52 12.11.2019
4344 Clouds 12 1022 50 10000 1 310 04:56 12.11.2019
4345 Clouds 12 1021 50 10000 1 270 04:20 12.11.2019
4346 Mist 7 1023 100 2000 1 330 01:58 12.11.2019
4347 Clouds 6 1021 87 10000 1 90 01:27 12.11.2019
4348 Mist 4 1023 100 2000 0.87 130 00:53 12.11.2019
4349 Clouds 4 1021 93 8000 0.5 40 00:33 12.11.2019
4350 Clouds 4 1022 100 6000 0.5 180 23:55 11.11.2019
4351 Fog 3 1021 100 400 1 70 23:36 11.11.2019
4352 Fog 3 1020 100 2800 0.5 80 23:18 11.11.2019
4353 Fog 3 1020 100 400 1 10 22:38 11.11.2019
4354 Clear 3 1020 100 6000 1.5 20 22:19 11.11.2019
4355 Mist 4 1021 100 4000 1 120 21:58 11.11.2019
4356 Mist 4 1020 100 2800 1 180 21:39 11.11.2019
4357 Clear 4 1020 100 10000 1 290 21:20 11.11.2019
4358 Clear 4 1020 100 10000 1 290 21:20 11.11.2019
4359 Mist 4 1021 100 4000 1 120 20:55 11.11.2019
4360 Clouds 4 1020 100 4800 0.5 140 20:36 11.11.2019
4361 Clear 4 1019 93 10000 0.5 310 20:18 11.11.2019
4362 Clouds 4 1019 100 6000 0.5 180 19:42 11.11.2019
4363 Clear 4 1019 93 8000 1 40 19:19 11.11.2019
4364 Clouds 5 1019 100 6000 0.5 160 18:57 11.11.2019
4365 Clouds 5 1019 100 6000 0.5 160 18:57 11.11.2019
4366 Clouds 5 1019 100 6000 0.5 160 18:39 11.11.2019
4367 Mist 5 1020 100 3200 1.03 248 18:20 11.11.2019
4368 Mist 5 1020 93 4800 0.5 100 17:44 11.11.2019
4369 Clear 6 1020 100 4800 0.5 100 17:25 11.11.2019
4370 Clear 6 1019 100 8000 1.29 292 16:55 11.11.2019
4371 Clear 6 1017 100 6000 0.5 190 16:36 11.11.2019
4372 Clear 6 1019 93 10000 1 200 16:18 11.11.2019
4373 Clear 7 1018 87 10000 1.5 140 15:41 11.11.2019
4374 Clear 8 1018 81 10000 1.5 120 15:20 11.11.2019
4375 Clear 8 1018 87 10000 1.5 130 14:54 11.11.2019
4376 Clear 8 1017 100 9000 0.5 180 14:36 11.11.2019
4377 Clear 9 1018 81 10000 1 160 14:18 11.11.2019
4378 Clear 9 1016 100 10000 0.5 170 13:39 11.11.2019
4379 Clear 10 1018 70 10000 0.5 190 13:21 11.11.2019
4380 Clear 10 1018 66 10000 0.5 30 12:58 11.11.2019
4381 Clear 10 1015 93 10000 0.5 180 12:40 11.11.2019
4382 Clear 10 1017 66 10000 0.5 270 12:21 11.11.2019
4383 Clear 11 1015 87 10000 1 200 11:43 11.11.2019
4384 Clear 12 1016 66 10000 1.5 310 11:22 11.11.2019
4385 Clear 12 1016 66 10000 2.6 310 10:59 11.11.2019
4386 Clouds 13 1014 76 10000 0.5 150 10:41 11.11.2019
4387 Clear 13 1015 62 10000 2.6 330 10:18 11.11.2019
4388 Clear 14 1015 58 10000 1.5 320 09:56 11.11.2019
4389 Clear 14 1013 62 10000 0.5 180 09:36 11.11.2019
4390 Clouds 14 1014 54 10000 2.1 320 09:18 11.11.2019
4391 Clouds 15 1014 58 10000 2.1 280 08:39 11.11.2019
4392 Clouds 15 1013 58 10000 4.1 280 08:20 11.11.2019
4393 Clouds 15 1013 54 10000 4.1 290 07:56 11.11.2019
4394 Clouds 15 1011 54 10000 1.5 260 07:36 11.11.2019
4395 Clouds 15 1013 51 10000 3.6 290 07:18 11.11.2019
4396 Clouds 15 1012 54 10000 2.1 320 06:41 11.11.2019
4397 Clouds 15 1012 51 10000 3.1 280 06:21 11.11.2019
4398 Clouds 15 1012 54 10000 2.1 290 05:49 11.11.2019
4399 Clear 13 1012 62 10000 3.6 330 03:59 11.11.2019
4400 Clouds 13 1012 66 10000 2.1 320 03:22 11.11.2019
4401 Clouds 13 1009 82 10000 2.6 340 02:20 11.11.2019
4402 Mist 11 1011 93 3200 0.5 340 01:52 11.11.2019
4403 Mist 10 1008 100 4000 0.5 210 01:31 11.11.2019
4404 Rain 11 1010 100 2000 0.5 40 00:42 11.11.2019
4405 Rain 10 1008 100 1600 0.5 20 23:58 10.11.2019
4406 Rain 10 1007 100 8000 0.5 160 23:39 10.11.2019
4407 Rain 10 1008 100 1600 1 20 23:19 10.11.2019
4408 Rain 10 1007 100 800 1.5 30 22:57 10.11.2019
4409 Rain 10 1006 100 2400 0.5 180 22:38 10.11.2019
4410 Rain 10 1007 100 1200 3.98 295 22:20 10.11.2019
4411 Mist 9 1007 100 1600 0.5 210 21:56 10.11.2019
4412 Mist 9 1006 93 4800 1 230 21:38 10.11.2019
4413 Rain 9 1006 100 1600 1 50 21:20 10.11.2019
4414 Rain 9 1006 100 800 0.5 60 20:42 10.11.2019
4415 Rain 9 1006 100 400 0.5 360 20:22 10.11.2019
4416 Rain 9 1006 100 800 0.5 310 19:56 10.11.2019
4417 Rain 9 1005 100 3200 1 180 19:38 10.11.2019
4418 Rain 9 1006 100 800 1 310 19:19 10.11.2019
4419 Fog 9 1006 100 800 0.5 190 18:58 10.11.2019
4420 Rain 9 1005 100 3200 1 170 18:39 10.11.2019
4421 Mist 8 1006 100 1600 0.5 140 18:19 10.11.2019
4422 Rain 9 1006 100 4000 0.5 160 17:56 10.11.2019
4423 Mist 9 1006 100 1600 1.5 70 17:38 10.11.2019
4424 Mist 9 1006 100 1600 1.5 70 17:38 10.11.2019
4425 Rain 9 1005 100 7000 1.5 210 17:19 10.11.2019
4426 Rain 8 1006 100 6000 0.5 140 16:58 10.11.2019
4427 Rain 8 1006 100 6000 0.5 140 16:38 10.11.2019
4428 Rain 8 1006 100 2000 1 10 16:20 10.11.2019
4429 Mist 9 1006 100 1600 0.5 80 15:55 10.11.2019
4430 Clouds 9 1005 93 10000 1.5 170 15:36 10.11.2019
4431 Clouds 9 1005 93 10000 1.5 170 15:36 10.11.2019
4432 Mist 9 1006 100 2000 0.5 30 15:18 10.11.2019
4433 Mist 9 1006 100 4000 1.79 181 14:41 10.11.2019
4434 Clouds 9 1006 93 6000 0.5 140 14:22 10.11.2019
4435 Rain 9 1006 100 9000 0.5 250 13:58 10.11.2019
4436 Rain 9 1006 100 9000 0.5 250 13:40 10.11.2019
4437 Rain 9 1006 93 10000 2.6 150 13:20 10.11.2019
4438 Rain 9 1006 100 4000 4.6 100 12:43 10.11.2019
4439 Rain 9 1008 100 2400 1 110 12:20 10.11.2019
4440 Rain 10 1008 100 3200 2.1 170 11:57 10.11.2019
4441 Clouds 10 1006 66 10000 1.5 30 11:38 10.11.2019
4442 Rain 10 1009 93 3200 2.6 230 11:20 10.11.2019
4443 Haze 11 1007 76 4800 0.5 290 10:56 10.11.2019
4444 Haze 12 1006 57 9000 5.49 165 10:38 10.11.2019
4445 Haze 12 1006 57 9000 5.49 165 10:38 10.11.2019
4446 Clouds 12 1007 43 10000 1.5 140 10:19 10.11.2019
4447 Clouds 13 1007 45 10000 2.6 100 09:42 10.11.2019
4448 Clouds 13 1007 45 10000 2.6 100 09:42 10.11.2019
4449 Clouds 13 1007 45 10000 2.1 140 09:22 10.11.2019
4450 Clouds 14 1007 47 10000 1 260 08:40 10.11.2019
4451 Clouds 14 1008 29 10000 3.1 150 08:21 10.11.2019
4452 Clouds 15 1009 29 10000 2.6 180 07:56 10.11.2019
4453 Clouds 14 1009 44 10000 1.5 230 07:37 10.11.2019
4454 Clouds 14 1010 35 10000 2.6 190 07:18 10.11.2019
4455 Clouds 13 1011 38 10000 2.6 130 06:22 10.11.2019
4456 Clouds 11 1013 58 10000 1.5 60 04:45 10.11.2019
4457 Clouds 8 1016 70 10000 0.5 360 02:51 10.11.2019
4458 Clouds 6 1017 70 10000 1 360 01:41 10.11.2019
4459 Haze 5 1017 86 8000 1 350 01:18 10.11.2019
4460 Clouds 4 1017 86 10000 2.1 30 00:37 10.11.2019
4461 Clouds 3 1018 93 6000 1.5 30 23:42 09.11.2019
4462 Clouds 4 1018 47 10000 1 70 23:20 09.11.2019
4463 Clouds 3 1018 47 9000 1 50 22:54 09.11.2019
4464 Clouds 3 1018 93 10000 0.5 60 22:36 09.11.2019
4465 Clouds 3 1018 93 8000 1.5 80 22:18 09.11.2019
4466 Clouds 2 1018 47 8000 1 10 21:54 09.11.2019
4467 Clouds 2 1018 47 10000 0.5 190 21:36 09.11.2019
4468 Clouds 2 1019 47 8000 0.5 100 21:18 09.11.2019
4469 Clouds 2 1019 93 6000 0.5 350 20:41 09.11.2019
4470 Clouds 2 1019 93 6000 0.5 350 20:41 09.11.2019
4471 Clouds 2 1019 93 8000 0.5 50 20:21 09.11.2019
4472 Clouds 2 1019 93 8000 0.5 60 19:55 09.11.2019
4473 Clouds 2 1018 44 10000 0.5 160 19:36 09.11.2019
4474 Clouds 2 1019 93 9000 0.5 40 19:18 09.11.2019
4475 Clear 3 1019 44 10000 0.5 180 18:39 09.11.2019
4476 Clouds 3 1020 93 4800 0.75 105 18:19 09.11.2019
4477 Clear 3 1020 93 6000 0.5 70 17:56 09.11.2019
4478 Clear 3 1020 93 10000 0.5 160 17:37 09.11.2019
4479 Clear 3 1020 93 6000 0.5 40 17:18 09.11.2019
4480 Clear 4 1020 45 10000 0.5 160 16:42 09.11.2019
4481 Clear 4 1021 86 8000 1.5 110 16:21 09.11.2019
4482 Clear 5 1021 86 10000 0.5 250 15:54 09.11.2019
4483 Clear 5 1020 45 10000 0.5 160 15:36 09.11.2019
4484 Clear 4 1021 80 10000 0.5 30 15:18 09.11.2019
4485 Clear 5 1022 80 10000 1 140 14:41 09.11.2019
4486 Clear 5 1022 75 10000 0.5 130 14:20 09.11.2019
4487 Clear 6 1022 75 10000 0.5 140 13:57 09.11.2019
4488 Clear 6 1021 35 10000 0.58 302 13:36 09.11.2019
4489 Clear 7 1022 65 10000 0.58 302 13:18 09.11.2019
4490 Clear 7 1022 70 10000 1 150 12:44 09.11.2019
4491 Clear 8 1022 70 10000 1 130 12:25 09.11.2019
4492 Clear 10 1022 65 10000 1 140 11:57 09.11.2019
4493 Clear 10 1020 35 10000 0.5 20 11:38 09.11.2019
4494 Clear 10 1022 61 10000 0.5 170 11:19 09.11.2019
4495 Clear 11 1020 29 10000 1 170 10:41 09.11.2019
4496 Clear 11 1022 53 10000 0.5 250 10:19 09.11.2019
4497 Clear 13 1022 46 10000 1 230 09:57 09.11.2019
4498 Clear 13 1022 46 10000 1 230 09:57 09.11.2019
4499 Clear 14 1020 46 10000 1 170 09:38 09.11.2019
4500 Clear 14 1021 43 10000 1 210 09:18 09.11.2019
4501 Clear 15 1019 33 10000 1 270 08:43 09.11.2019
4502 Clear 16 1021 22 10000 2.6 210 08:24 09.11.2019
4503 Clear 16 1021 22 10000 2.6 210 07:47 09.11.2019
4504 Clear 16 1021 22 10000 3.1 210 07:24 09.11.2019
4505 Clear 16 1021 31 10000 2.6 200 06:51 09.11.2019
4506 Clear 16 1022 29 10000 2.1 200 06:32 09.11.2019
4507 Clear 15 1022 28 10000 2.1 290 05:54 09.11.2019
4508 Clear 14 1022 28 10000 1.5 280 05:34 09.11.2019
4509 Clear 12 1024 32 10000 1 280 03:57 09.11.2019
4510 Clear 12 1024 32 10000 1 280 03:57 09.11.2019
4511 Clear 9 1025 42 10000 1 20 02:45 09.11.2019
4512 Clear 5 1025 60 10000 1 50 01:57 09.11.2019
4513 Clear 2 1025 74 10000 0.5 40 00:56 09.11.2019
4514 Clear 2 1025 74 10000 0.5 40 00:56 09.11.2019
4515 Clear 1 1025 74 10000 0.5 50 00:36 09.11.2019
4516 Clouds 0 1025 92 10000 0.5 20 23:58 08.11.2019
4517 Clear 0 1023 29 10000 1 40 23:40 08.11.2019
4518 Clouds 0 1024 86 10000 0.5 50 23:20 08.11.2019
4519 Clouds 0 1024 92 10000 0.5 40 22:49 08.11.2019
4520 Clouds -1 1024 86 10000 0.5 90 22:22 08.11.2019
4521 Clouds -1 1024 100 10000 0.52 326 21:57 08.11.2019
4522 Clear -1 1023 92 10000 0.5 90 21:39 08.11.2019
4523 Clouds 0 1024 100 10000 0.52 326 21:19 08.11.2019
4524 Clouds 0 1024 92 10000 0.5 50 20:43 08.11.2019
4525 Clouds 0 1024 92 10000 0.86 294 20:22 08.11.2019
4526 Clouds 0 1024 92 10000 0.66 307 20:22 08.11.2019
4527 Clear 0 1024 86 10000 0.5 130 19:59 08.11.2019
4528 Clear 0 1022 86 10000 1 170 19:39 08.11.2019
4529 Clear 0 1024 92 10000 0.5 10 19:19 08.11.2019
4530 Clear 1 1024 86 10000 0.5 160 18:56 08.11.2019
4531 Clear 1 1024 86 10000 1 100 18:38 08.11.2019
4532 Clear 1 1024 86 10000 1 100 18:20 08.11.2019
4533 Clear 1 1024 86 10000 0.5 100 17:56 08.11.2019
4534 Clear 1 1024 86 10000 0.5 100 17:56 08.11.2019
4535 Clear 1 1022 28 10000 0.5 220 17:37 08.11.2019
4536 Clear 1 1024 80 10000 1.02 293 17:19 08.11.2019
4537 Clear 1 1024 80 10000 1.02 293 17:19 08.11.2019
4538 Clear 2 1024 25 10000 1.02 293 16:58 08.11.2019
4539 Clear 2 1022 74 10000 0.5 170 16:39 08.11.2019
4540 Clear 2 1024 69 10000 0.5 110 16:20 08.11.2019
4541 Clear 2 1023 69 10000 0.5 90 15:58 08.11.2019
4542 Clear 2 1022 74 10000 0.5 140 15:40 08.11.2019
4543 Clear 3 1023 69 10000 0.5 60 15:21 08.11.2019
4544 Clear 3 1023 69 10000 0.5 160 14:56 08.11.2019
4545 Clear 3 1022 69 10000 1.02 293 14:37 08.11.2019
4546 Clear 3 1024 64 10000 1.93 309 14:18 08.11.2019
4547 Clear 4 1023 64 10000 0.5 140 13:57 08.11.2019
4548 Clear 4 1023 64 10000 0.5 140 13:57 08.11.2019
4549 Clear 4 1022 64 10000 0.5 190 13:38 08.11.2019
4550 Clear 4 1022 64 10000 0.5 190 13:38 08.11.2019
4551 Clear 4 1023 59 10000 1 360 13:19 08.11.2019
4552 Clear 6 1022 60 10000 0.5 190 12:42 08.11.2019
4553 Clear 6 1023 51 10000 0.5 70 12:24 08.11.2019
4554 Clear 6 1023 48 10000 0.5 170 11:57 08.11.2019
4555 Clear 7 1021 56 10000 0.5 150 11:38 08.11.2019
4556 Clear 7 1023 48 10000 1.5 150 11:19 08.11.2019
4557 Clear 8 1023 41 10000 0.5 110 10:54 08.11.2019
4558 Clear 8 1023 33 10000 0.5 150 10:36 08.11.2019
4559 Clear 8 1023 33 10000 0.5 150 10:18 08.11.2019
4560 Clear 10 1020 39 10000 1 180 09:41 08.11.2019
4561 Clear 11 1022 27 10000 1 150 09:20 08.11.2019
4562 Clear 12 1022 20 10000 0.5 250 08:54 08.11.2019
4563 Clear 12 1022 20 10000 1.5 310 08:36 08.11.2019
4564 Clear 12 1022 20 10000 1.5 310 08:18 08.11.2019
4565 Clear 13 1020 22 10000 1.5 270 07:39 08.11.2019
4566 Clear 13 1022 25 10000 2.1 230 07:20 08.11.2019
4567 Clear 12 1020 20 10000 1 310 06:40 08.11.2019
4568 Clear 12 1022 25 10000 1 310 06:20 08.11.2019
4569 Clear 12 1020 19 10000 0.5 320 05:40 08.11.2019
4570 Clear 11 1021 29 10000 1.5 210 04:43 08.11.2019
4571 Clear 9 1022 34 10000 1 270 03:43 08.11.2019
4572 Clear 8 1024 36 10000 0.5 70 03:20 08.11.2019
4573 Clear 5 1024 41 10000 1 60 02:26 08.11.2019
4574 Clear 4 1024 51 10000 0.5 350 01:46 08.11.2019
4575 Haze 1 1024 59 6000 1.04 312 00:59 08.11.2019
4576 Haze -1 1024 79 8000 0.5 270 00:24 08.11.2019
4577 Clear -1 1024 92 9000 1.04 312 23:56 07.11.2019
4578 Clear -2 1022 92 10000 0.5 180 23:36 07.11.2019
4579 Clear -1 1023 92 6000 1 80 23:18 07.11.2019
4580 Clear -1 1022 92 10000 0.5 110 22:41 07.11.2019
4581 Clear -1 1023 92 10000 1 170 22:21 07.11.2019
4582 Clear 0 1023 92 10000 0.74 301 21:55 07.11.2019
4583 Clear -1 1021 92 10000 0.5 150 21:37 07.11.2019
4584 Clear -1 1023 92 10000 0.5 100 21:18 07.11.2019
4585 Clear 0 1023 86 10000 0.5 110 20:55 07.11.2019
4586 Clear 0 1023 86 10000 0.5 120 20:37 07.11.2019
4587 Clear 0 1023 86 10000 0.5 120 20:18 07.11.2019
4588 Clear 0 1021 92 10000 0.5 160 19:41 07.11.2019
4589 Clear 0 1023 92 10000 0.5 90 19:23 07.11.2019
4590 Clear 0 1023 79 10000 1 100 18:58 07.11.2019
4591 Clear 0 1021 26 10000 0.5 180 18:39 07.11.2019
4592 Clear 1 1022 79 10000 0.5 100 18:19 07.11.2019
4593 Clear 1 1022 79 10000 0.79 315 17:59 07.11.2019
4594 Clear 1 1022 79 10000 0.79 315 17:38 07.11.2019
4595 Clear 3 1022 74 10000 0.5 80 17:20 07.11.2019
4596 Clear 2 1022 74 10000 0.5 80 16:55 07.11.2019
4597 Clear 2 1020 80 10000 0.5 160 16:37 07.11.2019
4598 Clear 2 1020 80 10000 0.5 160 16:19 07.11.2019
4599 Clear 4 1022 24 10000 0.5 210 15:43 07.11.2019
4600 Clear 4 1022 24 10000 0.5 210 15:21 07.11.2019
4601 Clear 4 1022 59 10000 0.5 130 14:59 07.11.2019
4602 Clear 5 1022 59 10000 1.5 140 14:39 07.11.2019
4603 Clear 5 1022 59 10000 1.5 140 14:21 07.11.2019
4604 Clear 5 1022 51 10000 0.5 170 13:55 07.11.2019
4605 Clear 5 1022 47 10000 0.5 120 13:37 07.11.2019
4606 Clear 5 1022 47 10000 0.5 120 13:19 07.11.2019
4607 Clear 6 1021 55 10000 1 160 12:57 07.11.2019
4608 Clear 7 1021 38 10000 0.5 40 12:38 07.11.2019
4609 Clear 7 1019 60 10000 0.5 180 12:19 07.11.2019
4610 Clear 8 1021 38 10000 2.1 340 11:42 07.11.2019
4611 Clear 8 1021 38 10000 2.1 340 11:42 07.11.2019
4612 Clear 8 1021 38 10000 2.1 340 11:23 07.11.2019
4613 Clear 9 1020 33 10000 1 340 10:44 07.11.2019
4614 Clear 9 1020 33 10000 1 340 10:20 07.11.2019
4615 Clear 10 1020 33 10000 1.5 330 09:57 07.11.2019
4616 Clear 11 1019 29 10000 2.1 320 09:38 07.11.2019
4617 Clear 11 1017 30 10000 1 240 09:20 07.11.2019
4618 Clear 12 1019 25 10000 2.1 330 08:46 07.11.2019
4619 Clear 12 1019 25 10000 2.1 330 08:25 07.11.2019
4620 Clear 12 1019 25 10000 2.1 330 08:25 07.11.2019
4621 Clear 13 1019 22 10000 2.1 290 07:59 07.11.2019
4622 Clear 13 1019 23 10000 2.6 320 07:41 07.11.2019
4623 -273 0 0 0 0 0 07:21 07.11.2019
4624 Clear 14 1016 35 10000 2.6 220 06:48 07.11.2019
4625 Clear 14 1016 35 10000 2.6 220 06:47 07.11.2019
4626 -273 0 0 0 0 0 06:27 07.11.2019
4627 Clear 14 1019 23 10000 2.6 320 05:51 07.11.2019
4628 Clear 13 1016 18 10000 2.1 210 05:33 07.11.2019
4629 Clear 13 1016 33 10000 2.1 220 04:53 07.11.2019
4630 -273 0 0 0 0 0 04:52 07.11.2019
4631 Clear 13 1019 29 10000 2.1 340 04:31 07.11.2019
4632 Clouds 9 1018 93 4800 1 260 01:50 07.11.2019
4633 Haze 9 1020 75 9000 0.5 320 01:49 07.11.2019
4634 Mist 6 1019 100 1600 1 40 00:46 07.11.2019
4635 Clear 5 1018 93 6000 0.5 110 00:19 07.11.2019
4636 Mist 5 1018 100 800 0.5 50 23:45 06.11.2019
4637 Mist 5 1018 100 800 0.5 50 23:21 06.11.2019
4638 Mist 5 1018 100 1600 0.5 60 22:41 06.11.2019
4639 Clouds 5 1016 100 6000 0.5 180 22:22 06.11.2019
4640 Mist 5 1017 100 2000 0.5 350 21:59 06.11.2019
4641 Mist 5 1017 100 2000 3.01 304 21:41 06.11.2019
4642 Mist 5 1017 100 2000 3.01 304 21:20 06.11.2019
4643 Mist 6 1017 100 2000 3.01 304 20:58 06.11.2019
4644 Mist 6 1017 100 2400 0.5 60 20:39 06.11.2019
4645 Mist 6 1017 100 2400 0.5 60 20:20 06.11.2019
4646 Mist 6 1017 100 2400 0.5 60 19:58 06.11.2019
4647 Mist 6 1017 93 3200 1 80 19:38 06.11.2019
4648 Mist 6 1017 93 3200 1 80 19:19 06.11.2019
4649 Clouds 6 1015 100 9000 0.5 170 18:56 06.11.2019
4650 Clouds 6 1017 100 4800 0.5 350 18:38 06.11.2019
4651 Clouds 6 1017 100 4800 0.5 350 18:18 06.11.2019
4652 Clouds 7 1015 93 9000 0.5 150 17:42 06.11.2019
4653 Clear 7 1017 100 4800 1.5 140 17:23 06.11.2019
4654 Clear 7 1018 100 4800 0.5 20 16:58 06.11.2019
4655 Clouds 7 1016 100 9000 1 180 16:39 06.11.2019
4656 Clouds 7 1016 87 10000 0.5 340 16:21 06.11.2019
4657 Clear 7 1017 93 6000 1 150 15:58 06.11.2019
4658 Clouds 7 1016 93 8000 0.5 160 15:38 06.11.2019
4659 Clouds 7 1016 93 8000 0.5 160 15:38 06.11.2019
4660 Clear 7 1018 93 8000 0.5 10 15:19 06.11.2019
4661 Clear 8 1017 93 8000 1 130 14:57 06.11.2019
4662 Clouds 8 1016 93 8000 0.5 140 14:39 06.11.2019
4663 Clouds 8 1017 81 10000 0.5 360 14:21 06.11.2019
4664 Clouds 9 1017 81 10000 0.5 310 13:58 06.11.2019
4665 Clouds 9 1016 87 8000 0.5 180 13:37 06.11.2019
4666 Clouds 10 1017 75 10000 0.5 140 13:18 06.11.2019
4667 Clouds 10 1017 75 10000 0.5 150 12:55 06.11.2019
4668 Haze 10 1015 81 9000 1 170 12:37 06.11.2019
4669 Clouds 11 1017 70 10000 0.5 130 12:18 06.11.2019
4670 Clouds 11 1017 70 10000 1 140 11:55 06.11.2019
4671 Haze 11 1015 76 9000 0.5 140 11:36 06.11.2019
4672 Clouds 11 1017 66 10000 1 140 11:18 06.11.2019
4673 Haze 12 1015 71 9000 1 180 10:42 06.11.2019
4674 Clouds 12 1017 53 10000 0.5 140 10:24 06.11.2019
4675 Clouds 13 1017 54 10000 1.5 280 09:58 06.11.2019
4676 Clouds 13 1017 54 10000 1.5 280 09:58 06.11.2019
4677 Clouds 13 1015 71 10000 0.5 100 09:40 06.11.2019
4678 Clouds 14 1017 50 10000 1 280 09:20 06.11.2019
4679 Clouds 14 1017 50 10000 1.5 250 08:55 06.11.2019
4680 Clouds 15 1015 54 10000 0.5 280 08:37 06.11.2019
4681 Clouds 15 1017 44 10000 1.5 230 08:18 06.11.2019
4682 Clouds 15 1017 44 10000 1.5 230 08:18 06.11.2019
4683 Clouds 15 1015 51 10000 1 180 07:44 06.11.2019
4684 Clouds 15 1017 38 10000 1.5 190 07:26 06.11.2019
4685 Clouds 16 1017 29 10000 1.5 210 06:52 06.11.2019
4686 Clouds 15 1017 29 10000 2.1 240 06:34 06.11.2019
4687 Clouds 15 1017 29 10000 2.1 240 05:50 06.11.2019
4688 Haze 12 1018 71 6000 1 330 03:35 06.11.2019
4689 Clouds 7 1019 100 4800 1 340 01:42 06.11.2019
4690 Mist 4 1019 100 2800 1 20 00:46 06.11.2019
4691 Fog 4 1020 100 0 1 70 00:00 06.11.2019
4692 Mist 4 1019 100 1600 0.5 100 23:40 05.11.2019
4693 Fog 4 1020 100 0 1.5 40 23:22 05.11.2019
4694 Rain 4 1020 100 0 1 360 22:57 05.11.2019
4695 Mist 4 1019 100 2400 1 30 22:38 05.11.2019
4696 Fog 4 1020 100 0 1 60 22:18 05.11.2019
4697 Fog 4 1020 100 0 0.21 327 21:43 05.11.2019
4698 Fog 5 1020 100 0 0.5 360 21:22 05.11.2019
4699 Fog 5 1020 100 0 1 110 20:59 05.11.2019
4700 Mist 5 1018 100 2400 0.5 170 20:39 05.11.2019
4701 Fog 5 1020 100 400 1 100 20:21 05.11.2019
4702 Fog 5 1020 100 0 1 360 19:58 05.11.2019
4703 Clouds 4 1019 100 4800 0.5 190 19:38 05.11.2019
4704 Fog 5 1020 100 0 1 120 19:20 05.11.2019
4705 Fog 5 1020 100 400 1.29 273 18:57 05.11.2019
4706 Clear 5 1018 100 4800 1.5 180 18:39 05.11.2019
4707 Clear 5 1018 100 4800 1.5 180 18:39 05.11.2019
4708 Fog 6 1020 100 400 1.29 273 18:20 05.11.2019
4709 Fog 6 1020 100 400 1.29 273 18:20 05.11.2019
4710 Mist 6 1020 100 1600 0.5 10 17:58 05.11.2019
4711 Clear 6 1018 100 6000 0.5 150 17:38 05.11.2019
4712 Fog 6 1020 100 800 1 40 17:18 05.11.2019
4713 Fog 7 1020 100 800 1 80 16:54 05.11.2019
4714 Mist 7 1020 100 2000 1.21 278 16:36 05.11.2019
4715 Mist 7 1020 100 2000 1.21 278 16:18 05.11.2019
4716 Clear 7 1018 100 10000 0.5 160 15:37 05.11.2019
4717 Mist 8 1020 100 3200 0.5 220 15:19 05.11.2019
4718 Mist 8 1020 100 3200 0.5 220 15:19 05.11.2019
4719 Mist 8 1020 100 3200 1.21 278 14:57 05.11.2019
4720 Clear 9 1018 93 10000 1 160 14:38 05.11.2019
4721 Mist 8 1020 100 4800 1 100 14:19 05.11.2019
4722 Mist 8 1020 100 4800 1 100 14:19 05.11.2019
4723 Clear 9 1020 93 6000 0.5 70 13:43 05.11.2019
4724 Clear 9 1020 93 8000 0.5 300 13:24 05.11.2019
4725 Clear 10 1019 87 10000 1 130 12:59 05.11.2019
4726 Clear 10 1018 87 10000 1 160 12:39 05.11.2019
4727 Clear 10 1019 87 10000 0.5 150 12:18 05.11.2019
4728 Clear 11 1018 81 10000 1 160 11:41 05.11.2019
4729 Clear 12 1019 81 10000 1 170 11:21 05.11.2019
4730 Clear 12 1019 81 10000 1.5 220 10:59 05.11.2019
4731 Clear 12 1019 81 10000 1.5 220 10:59 05.11.2019
4732 Clear 13 1018 76 10000 1.5 180 10:41 05.11.2019
4733 Clear 13 1019 71 10000 1.5 160 10:22 05.11.2019
4734 Haze 14 1019 62 6000 1 230 09:56 05.11.2019
4735 Clear 15 1017 62 10000 0.5 180 09:37 05.11.2019
4736 Clear 15 1019 54 10000 2.1 230 09:18 05.11.2019
4737 Clear 16 1018 48 10000 0.5 290 08:40 05.11.2019
4738 Clear 16 1019 51 10000 2.1 220 08:20 05.11.2019
4739 Clear 17 1019 51 10000 3.6 220 07:58 05.11.2019
4740 Clear 17 1019 51 10000 3.6 220 07:58 05.11.2019
4741 Clear 17 1017 48 10000 1 280 07:40 05.11.2019
4742 Clear 17 1017 48 10000 1 280 07:40 05.11.2019
4743 Clear 17 1019 51 10000 2.1 210 07:22 05.11.2019
4744 Clear 17 1019 45 10000 1.5 250 06:50 05.11.2019
4745 Clouds 16 1020 55 10000 1.5 200 05:51 05.11.2019
4746 Clouds 16 1020 59 10000 1 100 05:23 05.11.2019
4747 Clouds 14 1021 67 10000 1.5 330 04:31 05.11.2019
4748 Clear 14 1022 71 10000 1 310 03:55 05.11.2019
4749 Clouds 10 1021 93 10000 0.5 350 02:46 05.11.2019
4750 Clouds 10 1022 87 8000 2.39 278 02:18 05.11.2019
4751 Mist 6 1023 100 3200 1.5 310 00:52 05.11.2019
4752 Mist 5 1022 100 2400 0.5 50 00:30 05.11.2019
4753 Mist 5 1022 100 1600 1 50 23:56 04.11.2019
4754 Clouds 4 1021 100 6000 1 150 23:37 04.11.2019
4755 Fog 5 1022 100 400 0.5 90 23:18 04.11.2019
4756 Fog 5 1022 100 400 0.5 90 23:18 04.11.2019
4757 Clouds 4 1021 100 6000 1 40 22:41 04.11.2019
4758 Fog 5 1022 100 0 1 140 22:23 04.11.2019
4759 Fog 5 1022 100 0 1 110 21:56 04.11.2019
4760 Mist 5 1021 100 1600 1 20 21:38 04.11.2019
4761 Fog 6 1022 100 0 0.5 350 21:19 04.11.2019
4762 Fog 6 1022 100 0 0.5 110 20:58 04.11.2019
4763 Clouds 6 1020 100 6000 0.5 360 20:39 04.11.2019
4764 Mist 6 1022 100 1600 0.5 360 20:21 04.11.2019
4765 Mist 6 1022 100 3200 0.56 359 19:59 04.11.2019
4766 Clouds 6 1021 100 10000 0.5 50 19:40 04.11.2019
4767 Clear 6 1022 100 4800 0.5 270 19:21 04.11.2019
4768 Mist 7 1022 100 4800 0.5 50 18:57 04.11.2019
4769 Clear 6 1021 100 10000 0.5 100 18:38 04.11.2019
4770 Clear 6 1022 100 4800 0.5 60 18:19 04.11.2019
4771 Clear 6 1021 100 10000 0.5 100 17:39 04.11.2019
4772 Clear 6 1022 100 6000 0.5 70 17:21 04.11.2019
4773 Clear 7 1022 100 9000 1 50 16:57 04.11.2019
4774 Clear 8 1021 100 10000 0.5 170 16:39 04.11.2019
4775 Clear 7 1023 100 6000 0.5 120 16:20 04.11.2019
4776 Clear 7 1023 100 6000 0.5 120 16:20 04.11.2019
4777 Clear 9 1023 100 10000 0.5 10 15:54 04.11.2019
4778 Clear 7 1021 93 10000 0.5 150 15:36 04.11.2019
4779 Clear 8 1023 100 10000 0.5 100 15:18 04.11.2019
4780 Clear 8 1022 100 10000 0.5 200 14:41 04.11.2019
4781 Clear 10 1023 93 10000 0.5 120 14:21 04.11.2019
4782 Clear 10 1023 87 10000 1 130 13:58 04.11.2019
4783 Clear 10 1021 93 10000 0.5 170 13:40 04.11.2019
4784 Clear 10 1023 87 10000 1 150 13:21 04.11.2019
4785 Clear 10 1023 87 10000 1 150 13:21 04.11.2019
4786 Clear 11 1023 81 10000 1 140 12:58 04.11.2019
4787 Clear 11 1021 87 10000 0.5 150 12:39 04.11.2019
4788 Clear 11 1023 81 10000 1 150 12:21 04.11.2019
4789 Clear 12 1023 76 10000 1 150 11:55 04.11.2019
4790 Clear 12 1021 81 10000 0.5 180 11:37 04.11.2019
4791 Clear 13 1023 76 10000 0.5 90 11:18 04.11.2019
4792 Clear 14 1021 71 10000 1 140 10:41 04.11.2019
4793 Clear 14 1022 58 10000 0.5 270 10:23 04.11.2019
4794 Clear 14 1022 58 10000 0.5 270 10:23 04.11.2019
4795 Clear 16 1022 58 10000 1.5 240 09:46 04.11.2019
4796 Clear 17 1022 55 10000 1.5 230 09:28 04.11.2019
4797 Clear 18 1022 48 10000 2.6 230 08:58 04.11.2019
4798 Clear 18 1020 48 10000 1 220 08:38 04.11.2019
4799 Clear 19 1022 45 10000 3.1 240 08:19 04.11.2019
4800 Clear 19 1022 45 10000 3.1 240 08:19 04.11.2019
4801 Clear 18 1020 42 10000 1.5 230 07:43 04.11.2019
4802 Clear 18 1022 34 10000 2.1 270 07:21 04.11.2019
4803 Clear 18 1022 37 10000 0.5 280 06:56 04.11.2019
4804 Clear 18 1021 42 10000 2.1 260 06:18 04.11.2019
4805 Clear 18 1022 39 10000 1 330 05:46 04.11.2019
4806 Clear 17 1022 51 10000 1 250 04:43 04.11.2019
4807 Clear 17 1024 48 10000 0.5 220 04:21 04.11.2019
4808 Clear 13 1025 71 10000 1 20 02:25 04.11.2019
4809 Clear 11 1025 76 10000 1.5 20 01:21 04.11.2019
4810 Clouds 9 1024 100 10000 2.1 30 00:40 04.11.2019
4811 Clear 8 1025 87 10000 0.5 350 00:20 04.11.2019
4812 Clear 7 1023 100 10000 1.5 30 23:41 03.11.2019
4813 Clear 7 1024 87 10000 2.6 40 23:21 03.11.2019
4814 Clear 7 1024 93 10000 2.6 40 22:57 03.11.2019
4815 Clear 7 1023 100 10000 2.1 30 22:39 03.11.2019
4816 Clear 7 1024 93 10000 2.1 40 22:19 03.11.2019
4817 Clear 7 1024 93 10000 3.1 40 21:46 03.11.2019
4818 Clear 7 1024 93 10000 3.1 40 21:22 03.11.2019
4819 Clear 8 1024 87 10000 2.6 30 20:59 03.11.2019
4820 Clear 8 1022 100 10000 1.5 30 20:38 03.11.2019
4821 Clear 8 1022 100 10000 1.5 30 20:38 03.11.2019
4822 Clear 8 1024 87 10000 3.1 50 20:20 03.11.2019
4823 Clear 8 1024 87 10000 3.6 40 19:58 03.11.2019
4824 Clear 8 1023 93 10000 1.5 360 19:39 03.11.2019
4825 Clear 8 1024 87 10000 3.1 40 19:21 03.11.2019
4826 Clear 9 1024 81 10000 2.1 40 18:58 03.11.2019
4827 Clear 9 1023 93 10000 1.5 40 18:38 03.11.2019
4828 Clear 9 1024 81 10000 2.6 40 18:18 03.11.2019
4829 Clear 9 1024 100 10000 0.5 190 17:55 03.11.2019
4830 Clear 9 1023 87 10000 1.5 20 17:37 03.11.2019
4831 Clear 10 1024 81 10000 1.5 40 17:18 03.11.2019
4832 Clear 10 1022 87 10000 1 30 16:42 03.11.2019
4833 Clear 10 1024 76 10000 2.1 40 16:22 03.11.2019
4834 Clear 10 1024 76 10000 1.5 40 15:58 03.11.2019
4835 Clouds 11 1022 81 10000 1 20 15:40 03.11.2019
4836 Clouds 11 1024 71 10000 0.5 20 15:22 03.11.2019
4837 Clouds 11 1024 71 10000 1.5 40 14:56 03.11.2019
4838 Clear 12 1022 76 10000 1 20 14:37 03.11.2019
4839 Clouds 12 1024 76 10000 0.5 100 14:18 03.11.2019
4840 Clear 12 1022 76 10000 1 340 13:42 03.11.2019
4841 Clear 13 1023 71 10000 1.5 40 13:19 03.11.2019
4842 Clouds 13 1023 71 10000 2.1 40 12:57 03.11.2019
4843 Clear 13 1022 71 10000 1 350 12:36 03.11.2019
4844 Clouds 14 1023 66 10000 2.1 40 12:18 03.11.2019
4845 Clear 15 1021 67 10000 1 10 11:42 03.11.2019
4846 Clear 15 1022 62 10000 2.6 40 11:22 03.11.2019
4847 Clear 15 1022 58 10000 2.1 40 10:55 03.11.2019
4848 Clear 15 1021 62 10000 0.5 10 10:37 03.11.2019
4849 Clear 16 1022 58 10000 2.1 30 10:19 03.11.2019
4850 Clear 16 1022 58 10000 2.1 30 10:19 03.11.2019
4851 Clouds 17 1020 59 10000 1.5 40 09:43 03.11.2019
4852 Clear 17 1021 55 10000 2.1 20 09:25 03.11.2019
4853 Clear 18 1021 48 10000 2.6 30 08:56 03.11.2019
4854 Clear 19 1019 52 10000 1 10 08:37 03.11.2019
4855 Clear 19 1020 45 10000 2.6 30 08:19 03.11.2019
4856 Clear 19 1020 45 10000 3.1 60 07:45 03.11.2019
4857 Clear 20 1020 42 10000 2.6 40 07:21 03.11.2019
4858 Clear 19 1018 52 10000 2.1 350 06:39 03.11.2019
4859 Clear 19 1020 45 10000 2.6 70 05:54 03.11.2019
4860 Clear 19 1020 45 10000 4.1 50 05:34 03.11.2019
4861 Clear 18 1021 52 10000 3.1 50 04:52 03.11.2019
4862 Clear 16 1022 51 10000 2.6 50 03:58 03.11.2019
4863 Clear 15 1022 51 10000 3.6 40 03:19 03.11.2019
4864 Haze 12 1022 66 9000 2.1 360 02:23 03.11.2019
4865 Clouds 11 1021 71 6000 2.1 10 01:49 03.11.2019
4866 Mist 10 1022 87 4800 0.5 20 01:25 03.11.2019
4867 Mist 8 1022 100 2000 1.2 71 00:57 03.11.2019
4868 Mist 8 1020 100 1600 1.5 30 00:38 03.11.2019
4869 Mist 8 1022 100 1200 0.5 260 00:19 03.11.2019
4870 Mist 9 1019 100 1200 1.5 20 23:40 02.11.2019
4871 Mist 9 1019 100 2500 1.5 300 23:20 02.11.2019
4872 Mist 9 1019 100 2500 1.5 300 23:20 02.11.2019
4873 Fog 9 1020 100 0 1.5 310 22:57 02.11.2019
4874 Mist 9 1019 100 1600 0.5 20 22:38 02.11.2019
4875 Mist 9 1018 93 3000 1 330 22:20 02.11.2019
4876 Mist 9 1018 93 3000 1 330 22:20 02.11.2019
4877 Mist 9 1018 93 3000 1 330 22:20 02.11.2019
4878 Fog 9 1019 100 800 0.5 210 21:57 02.11.2019
4879 Mist 9 1018 100 2000 0.5 30 21:38 02.11.2019
4880 Mist 10 1018 93 4000 1 360 21:19 02.11.2019
4881 Mist 10 1018 93 4000 1 360 21:19 02.11.2019
4882 Mist 10 1019 100 2000 0.5 60 21:00 02.11.2019
4883 Mist 10 1018 100 2000 1 40 20:41 02.11.2019
4884 Mist 10 1018 100 3500 1.5 300 20:21 02.11.2019
4885 Mist 10 1020 100 2800 0.5 250 19:58 02.11.2019
4886 Mist 10 1018 100 2400 0.5 30 19:36 02.11.2019
4887 Fog 10 1020 100 800 0.5 70 19:18 02.11.2019
4888 Mist 10 1020 100 1200 0.65 310 18:54 02.11.2019
4889 Mist 10 1019 100 3200 0.5 30 18:36 02.11.2019
4890 Mist 11 1020 100 1200 0.5 40 18:18 02.11.2019
4891 Mist 11 1020 100 1200 0.5 40 18:18 02.11.2019
4892 Mist 11 1019 100 3200 0.65 310 17:42 02.11.2019
4893 Mist 11 1020 93 2000 0.5 100 17:24 02.11.2019
4894 Mist 11 1020 93 2800 0.59 286 16:58 02.11.2019
4895 Mist 11 1019 100 4000 0.5 20 16:39 02.11.2019
4896 Mist 11 1020 93 3200 0.5 80 16:20 02.11.2019
4897 Mist 12 1019 100 4000 0.5 170 15:42 02.11.2019
4898 Mist 12 1020 93 2800 1 170 15:20 02.11.2019
4899 Mist 12 1021 93 2400 0.5 260 14:56 02.11.2019
4900 Mist 12 1019 100 4800 0.5 180 14:38 02.11.2019
4901 Mist 12 1020 93 2800 0.5 80 14:20 02.11.2019
4902 Clouds 13 1019 100 4800 0.5 120 13:40 02.11.2019
4903 Mist 13 1020 87 3200 0.5 110 13:20 02.11.2019
4904 Mist 13 1020 87 3200 0.5 190 12:56 02.11.2019
4905 Clouds 13 1019 93 6000 0.5 180 12:38 02.11.2019
4906 Haze 13 1020 87 4000 0.5 360 12:19 02.11.2019
4907 Clouds 13 1019 93 6000 0.5 140 11:42 02.11.2019
4908 Clouds 13 1019 93 6000 0.5 140 11:42 02.11.2019
4909 Haze 14 1021 81 4000 1 170 11:23 02.11.2019
4910 Haze 14 1021 81 3200 1 150 10:56 02.11.2019
4911 Haze 14 1019 87 8000 0.5 40 10:38 02.11.2019
4912 Haze 15 1020 76 4800 0.5 170 10:18 02.11.2019
4913 Haze 16 1018 77 8000 0.5 180 09:40 02.11.2019
4914 Clouds 17 1019 51 10000 2.1 290 09:21 02.11.2019
4915 Haze 17 1020 59 6000 1 190 08:50 02.11.2019
4916 Haze 18 1020 59 8000 0.5 220 08:24 02.11.2019
4917 Haze 18 1020 51 6000 1 230 07:52 02.11.2019
4918 Clouds 18 1019 63 10000 1 220 07:33 02.11.2019
4919 Haze 18 1021 48 6000 1.5 220 06:59 02.11.2019
4920 Clear 18 1019 63 10000 1.5 210 06:41 02.11.2019
4921 Haze 18 1021 51 8000 1.5 250 06:21 02.11.2019
4922 Clouds 17 1019 63 10000 0.5 330 05:38 02.11.2019
4923 Haze 17 1022 55 9000 0.5 210 04:23 02.11.2019
4924 Clouds 15 1022 58 10000 0.5 240 03:51 02.11.2019
4925 Clouds 13 1023 71 10000 1 30 02:50 02.11.2019
4926 Clear 10 1023 76 10000 0.5 60 01:57 02.11.2019
4927 Clouds 9 1024 81 10000 0.5 40 01:27 02.11.2019
4928 Clear 8 1024 81 10000 1 60 00:55 02.11.2019
4929 Clear 7 1024 87 9000 0.5 110 00:28 02.11.2019
4930 Clear 6 1023 93 10000 1 130 23:50 01.11.2019
4931 Clear 6 1023 100 6000 1 10 23:25 01.11.2019
4932 Mist 6 1023 100 4800 1 360 22:59 01.11.2019
4933 Mist 6 1022 100 3200 1.5 30 22:41 01.11.2019
4934 Clear 6 1023 100 6000 0.5 70 22:20 01.11.2019
4935 Mist 6 1022 100 2400 1.5 30 21:42 01.11.2019
4936 Mist 6 1023 100 4000 0.5 50 21:24 01.11.2019
4937 Clear 7 1023 100 4800 0.5 210 20:59 01.11.2019
4938 Mist 7 1022 100 3200 1.5 40 20:40 01.11.2019
4939 Clear 7 1023 100 4800 1.04 107 20:21 01.11.2019
4940 Clear 7 1023 93 6000 1.5 50 19:57 01.11.2019
4941 Clear 7 1022 100 6000 0.5 120 19:38 01.11.2019
4942 Clear 6 1023 93 6000 1 50 19:20 01.11.2019
4943 Clear 7 1022 100 6000 0.5 140 18:40 01.11.2019
4944 Clouds 7 1022 93 10000 0.5 290 18:21 01.11.2019
4945 Clear 7 1023 93 8000 0.5 60 17:56 01.11.2019
4946 Clear 7 1023 93 8000 0.5 30 17:37 01.11.2019
4947 Clear 7 1023 93 8000 0.5 30 17:19 01.11.2019
4948 Clear 8 1022 100 6000 1 20 16:38 01.11.2019
4949 Clear 9 1023 93 10000 1 350 16:20 01.11.2019
4950 Clear 9 1023 87 10000 1 30 15:55 01.11.2019
4951 Clear 9 1022 93 8000 0.5 170 15:36 01.11.2019
4952 Clear 9 1023 87 10000 0.5 70 15:18 01.11.2019
4953 Clear 9 1022 93 9000 0.5 190 14:41 01.11.2019
4954 Clear 9 1022 93 9000 0.5 190 14:41 01.11.2019
4955 Clear 9 1023 81 10000 1 60 14:23 01.11.2019
4956 Clear 9 1023 81 10000 1 20 13:57 01.11.2019
4957 Clear 9 1022 93 10000 0.5 160 13:38 01.11.2019
4958 Clear 10 1023 75 10000 0.5 110 13:19 01.11.2019
4959 Clear 10 1023 75 10000 0.5 110 13:19 01.11.2019
4960 Clear 11 1022 87 10000 0.14 301 12:43 01.11.2019
4961 Clouds 11 1022 62 10000 0.5 10 12:25 01.11.2019
4962 Clear 12 1023 61 10000 0.5 80 11:55 01.11.2019
4963 Clear 12 1022 76 10000 0.5 170 11:37 01.11.2019
4964 Clear 12 1022 76 10000 0.5 170 11:37 01.11.2019
4965 Clear 13 1023 57 10000 0.5 130 11:18 01.11.2019
4966 Clear 14 1021 71 10000 0.5 100 10:41 01.11.2019
4967 Clear 15 1023 44 10000 0.5 90 10:21 01.11.2019
4968 Clear 16 1023 41 10000 0.5 170 09:57 01.11.2019
4969 Clear 16 1023 41 10000 0.5 170 09:57 01.11.2019
4970 Clear 17 1023 36 10000 1.5 220 09:37 01.11.2019
4971 Clear 18 1021 23 10000 2.1 320 09:19 01.11.2019
4972 Clear 19 1021 39 10000 1 230 08:42 01.11.2019
4973 Clear 20 1022 29 10000 1.5 210 08:22 01.11.2019
4974 Clear 20 1022 29 10000 2.1 220 07:53 01.11.2019
4975 Clear 20 1022 17 10000 1.5 190 07:26 01.11.2019
4976 Clear 20 1022 24 10000 2.6 180 06:57 01.11.2019
4977 Clear 19 1020 40 10000 2.1 170 06:39 01.11.2019
4978 Clear 19 1022 17 10000 2.6 170 06:21 01.11.2019
4979 Clear 19 1020 42 10000 2.1 190 05:43 01.11.2019
4980 Clear 17 1022 55 10000 1 240 03:34 01.11.2019
4981 Clouds 13 1024 100 6000 1 70 01:52 01.11.2019
4982 Mist 12 1023 100 3200 1 40 01:28 01.11.2019
4983 Rain 11 1024 100 0 1 60 00:21 01.11.2019
4984 Rain 11 1023 100 0 1 50 23:56 31.10.2019
4985 Mist 11 1022 100 1200 0.5 110 23:38 31.10.2019
4986 Rain 11 1023 100 0 1 90 23:19 31.10.2019
4987 Mist 11 1021 100 2000 1 180 22:42 31.10.2019
4988 Rain 12 1023 100 0 0.5 40 22:24 31.10.2019
4989 Rain 11 1023 100 0 0.5 20 21:57 31.10.2019
4990 Mist 11 1021 100 1600 1 160 21:39 31.10.2019
4991 Rain 11 1023 100 0 0.5 160 21:18 31.10.2019
4992 Rain 11 1023 100 0 0.5 160 21:18 31.10.2019
4993 Mist 11 1021 100 2400 1.5 170 20:41 31.10.2019
4994 Mist 11 1021 100 2400 1.5 170 20:41 31.10.2019
4995 Rain 11 1022 100 0 0.5 130 20:22 31.10.2019
4996 Rain 12 1022 100 0 1.57 281 19:56 31.10.2019
4997 Mist 12 1021 100 2400 1.5 210 19:38 31.10.2019
4998 Fog 12 1022 100 0 1.57 281 19:18 31.10.2019
4999 Mist 12 1020 100 3200 1 150 18:43 31.10.2019
5000 Fog 12 1022 100 0 0.5 130 18:25 31.10.2019
5001 Fog 13 1022 100 0 1.57 281 17:56 31.10.2019
5002 Mist 13 1020 100 3200 0.5 190 17:37 31.10.2019
5003 Fog 13 1022 100 0 0.5 150 17:19 31.10.2019
5004 Mist 14 1020 100 4000 0.5 180 16:41 31.10.2019
5005 Fog 14 1021 100 0 0.5 100 16:20 31.10.2019
5006 Fog 14 1021 100 0 0.5 350 15:59 31.10.2019
5007 Clouds 15 1020 100 6000 1 190 15:40 31.10.2019
5008 Fog 15 1021 100 800 1 150 15:20 31.10.2019
5009 Fog 16 1021 100 400 1.5 140 14:57 31.10.2019
5010 Clouds 16 1020 100 6000 1 180 14:39 31.10.2019
5011 Clouds 16 1020 100 6000 1 180 14:39 31.10.2019
5012 Mist 16 1021 100 2000 0.5 150 14:21 31.10.2019
5013 Mist 16 1021 100 3200 0.5 190 13:57 31.10.2019
5014 Clouds 16 1020 87 6000 1.5 180 13:38 31.10.2019
5015 Mist 16 1021 100 3200 1 180 13:19 31.10.2019
5016 Mist 17 1021 100 2800 1.5 190 12:54 31.10.2019
5017 Mist 17 1020 93 4000 2.1 210 12:36 31.10.2019
5018 Mist 17 1020 93 4000 2.1 210 12:18 31.10.2019
5019 Haze 17 1020 82 6000 0.5 160 11:43 31.10.2019
5020 Mist 17 1021 93 4800 2.1 210 11:19 31.10.2019
5021 Clouds 17 1021 87 6000 2.1 230 10:57 31.10.2019
5022 Haze 17 1019 72 8000 1 150 10:38 31.10.2019
5023 Haze 17 1020 82 6000 1.5 210 10:19 31.10.2019
5024 Haze 18 1019 68 9000 2.6 180 09:43 31.10.2019
5025 Haze 18 1020 77 6000 2.1 230 09:19 31.10.2019
5026 Haze 19 1020 77 6000 3.6 230 08:55 31.10.2019
5027 Clouds 19 1019 59 10000 2.6 210 08:36 31.10.2019
5028 Haze 19 1020 72 6000 3.1 230 08:18 31.10.2019
5029 Clouds 19 1019 59 10000 3.1 250 07:42 31.10.2019
5030 Clouds 19 1020 64 10000 3.1 220 07:23 31.10.2019
5031 Clouds 19 1019 59 10000 1.5 170 06:39 31.10.2019
5032 Clouds 19 1020 60 10000 4.6 230 06:20 31.10.2019
5033 Clouds 18 1020 67 10000 1.5 230 04:35 31.10.2019
5034 Clouds 14 1022 76 10000 2.1 180 02:45 31.10.2019
5035 Clouds 12 1023 87 6000 0.5 310 01:53 31.10.2019
5036 Mist 8 1022 100 4000 1 120 00:40 31.10.2019
5037 Mist 7 1022 100 2800 0.5 50 00:22 31.10.2019
5038 Mist 6 1022 100 1600 0.5 100 23:33 30.10.2019
5039 Mist 6 1022 100 2000 1 70 22:55 30.10.2019
5040 Clouds 6 1021 100 10000 0.5 160 22:37 30.10.2019
5041 Mist 6 1022 100 1600 1 50 22:18 30.10.2019
5042 Mist 6 1022 100 2400 0.5 30 21:54 30.10.2019
5043 Clouds 6 1022 100 10000 0.5 150 21:36 30.10.2019
5044 Mist 6 1022 100 2800 0.5 70 21:18 30.10.2019
5045 Clouds 6 1022 100 10000 0.5 160 20:42 30.10.2019
5046 Clouds 6 1022 100 10000 0.5 160 20:42 30.10.2019
5047 Mist 6 1022 100 3200 0.5 60 20:22 30.10.2019
5048 Mist 6 1023 100 4000 1 330 19:59 30.10.2019
5049 Clouds 6 1022 100 10000 0.5 210 19:39 30.10.2019
5050 Clouds 6 1023 100 4800 0.5 80 19:20 30.10.2019
5051 Mist 6 1023 100 3200 0.5 40 18:58 30.10.2019
5052 Clouds 6 1022 100 10000 0.5 170 18:37 30.10.2019
5053 Clear 6 1023 100 4800 0.5 160 18:18 30.10.2019
5054 Clouds 6 1022 100 10000 0.5 190 17:41 30.10.2019
5055 Clear 7 1023 100 4800 1.48 185 17:20 30.10.2019
5056 Clear 7 1022 100 4800 1.48 185 16:56 30.10.2019
5057 Clouds 7 1022 100 10000 1 180 16:38 30.10.2019
5058 Clear 7 1023 100 6000 1 160 16:20 30.10.2019
5059 Clear 7 1023 100 10000 0.5 100 15:57 30.10.2019
5060 Clouds 7 1022 100 10000 0.5 190 15:38 30.10.2019
5061 Clear 7 1023 100 10000 0.5 160 15:19 30.10.2019
5062 Clear 8 1023 100 10000 1.48 185 14:55 30.10.2019
5063 Clear 8 1023 100 10000 1.48 185 14:55 30.10.2019
5064 Clear 8 1023 87 10000 0.5 140 14:36 30.10.2019
5065 Clear 8 1023 87 10000 0.5 140 14:18 30.10.2019
5066 Clear 8 1022 100 10000 0.5 160 13:42 30.10.2019
5067 Clear 9 1022 81 10000 1 160 13:20 30.10.2019
5068 Clear 9 1022 87 10000 1.5 150 12:58 30.10.2019
5069 Clear 10 1021 87 10000 0.5 150 12:40 30.10.2019
5070 Clear 10 1022 81 10000 0.5 140 12:22 30.10.2019
5071 Clear 10 1021 87 10000 0.5 180 11:43 30.10.2019
5072 Clear 12 1023 76 10000 1.5 170 11:24 30.10.2019
5073 Clear 13 1023 76 10000 1 180 10:46 30.10.2019
5074 Clear 13 1022 71 10000 1 180 10:28 30.10.2019
5075 Clear 14 1022 62 10000 1.5 230 09:59 30.10.2019
5076 Clear 14 1022 62 10000 1.5 230 09:59 30.10.2019
5077 Clear 15 1020 62 10000 0.5 170 09:40 30.10.2019
5078 Clear 15 1022 54 10000 2.6 240 09:22 30.10.2019
5079 Clear 16 1020 48 10000 1.5 230 08:42 30.10.2019
5080 Clear 16 1022 51 10000 2.6 220 08:23 30.10.2019
5081 Clear 16 1022 51 10000 2.6 280 07:59 30.10.2019
5082 Clouds 16 1020 48 10000 1.5 200 07:39 30.10.2019
5083 Clear 16 1022 44 10000 3.6 230 06:46 30.10.2019
5084 Clear 16 1022 45 10000 2.6 220 06:27 30.10.2019
5085 Clear 16 1022 44 10000 4.1 240 05:54 30.10.2019
5086 Clear 16 1021 41 10000 1.5 260 05:35 30.10.2019
5087 Clear 14 1024 50 10000 0.5 210 03:48 30.10.2019
5088 Clear 13 1024 54 10000 0.5 350 03:21 30.10.2019
5089 Clear 10 1023 66 10000 2.1 200 02:39 30.10.2019
5090 Clear 7 1023 81 10000 0.5 20 01:42 30.10.2019
5091 Rain 3 1023 100 0 1 50 00:32 30.10.2019
5092 Rain 2 1023 42 0 1.5 60 23:49 29.10.2019
5093 Rain 2 1023 42 0 0.5 20 23:30 29.10.2019
5094 Rain 3 1023 48 0 0.5 50 22:57 29.10.2019
5095 Clouds 3 1022 100 10000 0.5 130 22:39 29.10.2019
5096 Rain 3 1023 48 0 0.5 10 22:19 29.10.2019
5097 Fog 3 1023 100 0 1 70 21:54 29.10.2019
5098 Clear 3 1023 48 6000 0.5 140 21:36 29.10.2019
5099 Clear 3 1023 48 6000 0.5 140 21:18 29.10.2019
5100 Clouds 4 1021 100 10000 0.5 140 20:41 29.10.2019
5101 Clear 4 1022 100 8000 0.5 80 20:22 29.10.2019
5102 Clear 4 1022 100 8000 0.5 10 19:58 29.10.2019
5103 Clouds 4 1021 100 10000 0.5 160 19:39 29.10.2019
5104 Clear 4 1022 100 10000 1 140 19:20 29.10.2019
5105 Clear 5 1022 100 10000 0.5 110 18:57 29.10.2019
5106 Clouds 5 1020 100 10000 0.5 170 18:37 29.10.2019
5107 Clouds 5 1020 100 10000 0.5 170 18:37 29.10.2019
5108 Clear 5 1022 93 10000 0.5 140 18:19 29.10.2019
5109 Clear 5 1022 93 10000 0.5 140 18:19 29.10.2019
5110 Clear 6 1022 93 10000 1 140 17:55 29.10.2019
5111 Clear 6 1020 100 10000 1 160 17:37 29.10.2019
5112 Clear 6 1021 100 10000 0.5 160 17:18 29.10.2019
5113 Clear 6 1019 100 10000 2.64 304 16:40 29.10.2019
5114 Clear 6 1021 100 10000 1.5 160 16:21 29.10.2019
5115 Clear 7 1021 93 10000 1.5 130 15:57 29.10.2019
5116 Clear 7 1019 93 10000 0.5 160 15:39 29.10.2019
5117 Clear 7 1021 86 10000 0.5 60 15:20 29.10.2019
5118 Clear 7 1021 86 10000 1.5 140 14:55 29.10.2019
5119 Clear 7 1019 100 10000 0.5 200 14:37 29.10.2019
5120 Clear 8 1021 86 10000 0.5 190 14:19 29.10.2019
5121 Clear 8 1021 86 10000 0.5 190 14:18 29.10.2019
5122 Clear 9 1019 93 10000 0.5 170 13:40 29.10.2019
5123 Clear 9 1020 75 10000 0.5 290 13:22 29.10.2019
5124 Clear 10 1020 75 10000 0.5 160 12:46 29.10.2019
5125 Clear 10 1019 61 10000 1 310 12:27 29.10.2019
5126 Clear 11 1019 57 10000 1.5 10 11:59 29.10.2019
5127 Clear 11 1017 76 10000 0.5 300 11:41 29.10.2019
5128 Clear 12 1019 53 10000 2.1 340 11:20 29.10.2019
5129 Clear 13 1018 57 10000 2.6 330 10:57 29.10.2019
5130 Clear 13 1016 71 10000 1 180 10:38 29.10.2019
5131 Clear 13 1018 50 10000 2.1 320 10:20 29.10.2019
5132 Clear 14 1017 47 10000 1.5 320 09:55 29.10.2019
5133 Clear 15 1015 44 10000 2.1 230 09:37 29.10.2019
5134 Clear 15 1017 41 10000 2.1 330 09:19 29.10.2019
5135 Clear 15 1017 41 10000 2.1 330 09:19 29.10.2019
5136 Clear 16 1015 41 10000 2.6 270 08:43 29.10.2019
5137 Clouds 16 1017 36 10000 2.6 310 08:24 29.10.2019
5138 Clouds 17 1017 38 10000 3.6 310 07:54 29.10.2019
5139 Clouds 17 1014 39 10000 1 340 07:36 29.10.2019
5140 Clouds 17 1016 34 10000 1.5 250 07:18 29.10.2019
5141 Clouds 17 1014 42 10000 1.5 320 06:41 29.10.2019
5142 Clouds 17 1016 42 10000 2.1 360 06:19 29.10.2019
5143 Clouds 17 1014 36 10000 1.5 210 05:49 29.10.2019
5144 Clouds 16 1016 38 10000 3.1 330 05:18 29.10.2019
5145 Clear 15 1017 62 10000 0.5 350 03:34 29.10.2019
5146 Clear 14 1017 71 10000 1 290 02:32 29.10.2019
5147 Clouds 12 1015 100 4800 2.1 160 01:42 29.10.2019
5148 Mist 10 1015 100 8000 2.6 220 00:56 29.10.2019
5149 Mist 9 1015 100 6000 2.1 220 00:26 29.10.2019
5150 Clouds 9 1014 100 4800 0.5 120 23:40 28.10.2019
5151 Mist 9 1015 100 800 1 330 23:20 28.10.2019
5152 Fog 10 1015 100 800 1 350 22:57 28.10.2019
5153 Fog 10 1015 100 800 1 350 22:57 28.10.2019
5154 Mist 10 1013 100 800 1 120 22:36 28.10.2019
5155 Mist 10 1015 100 2000 0.5 140 22:18 28.10.2019
5156 Fog 10 1013 100 400 1 170 21:42 28.10.2019
5157 Mist 10 1015 100 1600 0.5 140 21:22 28.10.2019
5158 Mist 11 1015 100 3200 1.98 269 20:59 28.10.2019
5159 Mist 11 1013 100 1200 1 170 20:41 28.10.2019
5160 Clouds 11 1013 81 10000 1.5 240 20:22 28.10.2019
5161 Mist 11 1015 100 4800 0.5 150 19:55 28.10.2019
5162 Mist 11 1013 100 2400 0.5 180 19:36 28.10.2019
5163 Clouds 12 1013 81 8000 1.5 240 19:18 28.10.2019
5164 Rain 12 1014 100 3200 3.76 293 18:57 28.10.2019
5165 Rain 12 1013 100 2400 1.5 170 18:38 28.10.2019
5166 Rain 12 1013 87 6000 1.5 280 18:20 28.10.2019
5167 Clouds 12 1014 87 9000 1.5 130 17:55 28.10.2019
5168 Rain 12 1013 100 2800 0.5 170 17:36 28.10.2019
5169 Rain 12 1015 93 9000 1 140 17:18 28.10.2019
5170 Clouds 13 1015 81 10000 0.5 310 16:54 28.10.2019
5171 Rain 13 1014 100 3200 0.5 150 16:36 28.10.2019
5172 Clouds 13 1015 71 10000 1.5 290 16:18 28.10.2019
5173 Clouds 14 1015 76 10000 2.1 270 15:55 28.10.2019
5174 Rain 13 1013 100 2000 2.1 200 15:37 28.10.2019
5175 Clouds 14 1014 87 10000 1 240 15:18 28.10.2019
5176 Clouds 14 1014 93 10000 1.5 230 14:54 28.10.2019
5177 Clouds 14 1013 76 10000 3.6 170 14:36 28.10.2019
5178 Clouds 14 1014 87 10000 2.6 220 14:18 28.10.2019
5179 Rain 14 1013 67 10000 6.2 190 13:41 28.10.2019
5180 Rain 14 1014 67 10000 5.7 190 13:18 28.10.2019
5181 Clouds 15 1013 76 10000 0.5 180 12:43 28.10.2019
5182 Rain 15 1013 93 3200 1 110 12:22 28.10.2019
5183 Clouds 14 1013 72 10000 3.1 190 11:59 28.10.2019
5184 Clouds 14 1013 71 10000 0.5 190 11:38 28.10.2019
5185 Clouds 15 1013 67 10000 4.6 180 11:19 28.10.2019
5186 Clouds 15 1013 67 10000 0.5 160 10:41 28.10.2019
5187 Clear 15 1013 67 10000 4.1 180 10:22 28.10.2019
5188 Clouds 15 1014 67 10000 2.1 190 09:58 28.10.2019
5189 Clouds 16 1013 54 10000 1.5 180 09:39 28.10.2019
5190 Clouds 16 1014 59 10000 2.1 200 09:19 28.10.2019
5191 Clouds 17 1014 55 10000 3.1 190 08:57 28.10.2019
5192 Haze 17 1014 48 6000 1.5 180 08:38 28.10.2019
5193 Clouds 17 1014 51 10000 5.7 190 08:19 28.10.2019
5194 Clouds 16 1015 55 10000 2.6 200 07:56 28.10.2019
5195 Clouds 17 1014 48 10000 1.5 190 07:36 28.10.2019
5196 Clouds 17 1014 55 10000 3.6 200 07:18 28.10.2019
5197 Clouds 17 1014 45 10000 2.1 180 06:40 28.10.2019
5198 Clouds 17 1015 48 10000 1.5 200 05:41 28.10.2019
5199 Clear 15 1017 48 10000 3.6 180 03:48 28.10.2019
5200 Clear 12 1017 51 10000 4.6 170 02:46 28.10.2019
5201 Clouds 12 1018 67 10000 1 200 02:27 28.10.2019
5202 Mist 7 1019 100 1600 0.5 340 00:56 28.10.2019
5203 Mist 6 1019 100 1200 1 60 00:33 28.10.2019
5204 Fog 5 1019 100 800 1.5 40 23:47 27.10.2019
5205 Mist 5 1019 100 800 1 80 23:24 27.10.2019
5206 Mist 5 1019 100 800 1 60 22:58 27.10.2019
5207 Mist 5 1019 100 800 1 60 22:58 27.10.2019
5208 Mist 6 1019 100 4000 1 180 22:39 27.10.2019
5209 Fog 5 1019 100 800 0.5 60 22:21 27.10.2019
5210 Fog 5 1019 100 800 0.5 60 22:21 27.10.2019
5211 Fog 5 1019 100 400 0.5 350 21:57 27.10.2019
5212 Clouds 5 1019 100 4800 0.5 350 21:39 27.10.2019
5213 Fog 5 1019 100 800 0.5 350 21:20 27.10.2019
5214 Fog 5 1019 100 400 0.5 40 20:56 27.10.2019
5215 Mist 5 1018 100 3200 1 40 20:37 27.10.2019
5216 Fog 5 1019 100 0 0.5 50 20:19 27.10.2019
5217 Mist 5 1019 100 4000 1 30 19:40 27.10.2019
5218 Rain 6 1020 100 400 0.5 220 19:21 27.10.2019
5219 Rain 6 1020 100 0 1 60 18:58 27.10.2019
5220 Mist 5 1019 100 4000 1 40 18:40 27.10.2019
5221 Mist 6 1020 100 1600 0.5 120 18:22 27.10.2019
5222 Mist 6 1020 100 3200 0.5 110 17:58 27.10.2019
5223 Clear 6 1019 100 10000 0.5 170 17:39 27.10.2019
5224 Clear 6 1019 100 10000 0.5 170 17:39 27.10.2019
5225 Mist 6 1020 93 3200 0.5 90 17:19 27.10.2019
5226 Mist 6 1020 100 2800 1 100 16:57 27.10.2019
5227 Clear 6 1020 100 10000 0.5 160 16:38 27.10.2019
5228 Mist 7 1021 100 4000 0.5 60 16:20 27.10.2019
5229 Clear 7 1021 93 4800 0.5 90 15:55 27.10.2019
5230 Clear 7 1021 100 6000 0.5 130 15:37 27.10.2019
5231 Clear 7 1021 100 6000 0.5 130 15:19 27.10.2019
5232 Clear 8 1020 93 10000 0.5 180 14:42 27.10.2019
5233 Clear 8 1021 87 10000 0.5 90 14:20 27.10.2019
5234 Clear 8 1020 100 10000 1.48 256 13:56 27.10.2019
5235 Clear 8 1019 93 6000 0.5 40 13:38 27.10.2019
5236 Clear 9 1020 87 10000 0.5 150 13:19 27.10.2019
5237 Clear 9 1019 87 10000 0.5 170 12:43 27.10.2019
5238 Clear 9 1020 87 10000 1.5 140 12:24 27.10.2019
5239 Clear 11 1020 81 10000 1.48 256 11:56 27.10.2019
5240 Clear 11 1019 87 10000 0.5 180 11:38 27.10.2019
5241 Clear 11 1020 81 10000 1 150 11:19 27.10.2019
5242 Clear 13 1018 71 10000 0.5 130 10:42 27.10.2019
5243 Clear 13 1019 62 10000 0.5 200 10:23 27.10.2019
5244 Clear 14 1018 62 10000 0.5 40 09:44 27.10.2019
5245 Clouds 15 1019 54 10000 2.6 230 09:20 27.10.2019
5246 Clouds 15 1019 54 10000 2.6 230 09:20 27.10.2019
5247 Clouds 16 1020 51 10000 1 250 08:59 27.10.2019
5248 Clear 16 1018 44 10000 0.5 290 08:40 27.10.2019
5249 Clouds 16 1020 48 10000 1.5 300 08:20 27.10.2019
5250 Clouds 16 1020 48 10000 1.5 320 07:48 27.10.2019
5251 Clouds 16 1020 48 10000 2.1 320 07:28 27.10.2019
5252 Clouds 16 1020 48 10000 2.6 270 06:56 27.10.2019
5253 Clouds 16 1020 44 10000 3.1 280 06:31 27.10.2019
5254 Clouds 16 1020 44 10000 1.5 290 05:58 27.10.2019
5255 Clouds 16 1020 44 10000 1.5 290 05:58 27.10.2019
5256 Clouds 15 1019 41 10000 0.5 10 05:36 27.10.2019
5257 Clear 14 1021 41 10000 1 290 04:32 27.10.2019
5258 Clouds 6 1021 93 8000 1 210 02:42 27.10.2019
5259 Fog 3 1022 100 0 1 360 01:28 27.10.2019
5260 Fog 3 1022 100 0 1 360 01:28 27.10.2019
5261 Fog 3 1022 100 0 1 50 00:56 27.10.2019
5262 Fog 3 1021 35 0 0.5 340 00:37 27.10.2019
5263 Fog 2 1021 100 0 0.5 100 23:59 26.10.2019
5264 Mist 2 1020 100 3200 1 170 23:40 26.10.2019
5265 Fog 3 1021 45 0 1 50 23:21 26.10.2019
5266 Fog 4 1021 45 0 0.5 80 22:58 26.10.2019
5267 Fog 4 1021 45 0 0.5 80 22:58 26.10.2019
5268 Clouds 3 1020 100 6000 1 160 22:39 26.10.2019
5269 Fog 3 1021 45 0 0.5 80 22:19 26.10.2019
5270 Fog 3 1021 100 0 0.5 350 21:56 26.10.2019
5271 Clouds 3 1019 100 6000 0.5 180 21:38 26.10.2019
5272 Fog 4 1021 100 0 1 60 21:19 26.10.2019
5273 Clouds 4 1020 93 10000 1 180 20:43 26.10.2019
5274 Mist 4 1021 93 3200 0.5 70 20:19 26.10.2019
5275 Clouds 5 1020 100 10000 0.5 190 19:44 26.10.2019
5276 Mist 5 1021 100 4000 0.5 70 19:21 26.10.2019
5277 Clear 4 1021 100 8000 0.5 110 18:59 26.10.2019
5278 Clouds 4 1020 100 8000 0.5 190 18:40 26.10.2019
5279 Clear 5 1021 93 6000 1 160 18:20 26.10.2019
5280 Clear 6 1021 93 9000 0.5 70 17:59 26.10.2019
5281 Clouds 5 1019 100 9000 0.5 160 17:39 26.10.2019
5282 Clear 6 1021 100 9000 0.5 40 17:20 26.10.2019
5283 Clear 6 1021 86 10000 0.5 60 16:47 26.10.2019
5284 Clear 6 1021 93 10000 1 90 16:25 26.10.2019
5285 Clear 6 1021 86 10000 0.5 90 15:59 26.10.2019
5286 Clear 6 1019 100 10000 0.5 160 15:40 26.10.2019
5287 Clear 7 1021 93 10000 1 130 15:18 26.10.2019
5288 Clear 8 1019 93 10000 0.5 170 14:40 26.10.2019
5289 Clear 8 1020 81 10000 1.5 150 14:20 26.10.2019
5290 Clear 8 1020 75 10000 0.5 70 13:58 26.10.2019
5291 Clear 9 1018 87 10000 1 160 13:37 26.10.2019
5292 Clouds 11 1019 40 0 3.51 298 13:19 26.10.2019
5293 Clear 11 1019 71 10000 1 190 12:44 26.10.2019
5294 Clouds 9 1019 66 10000 1 320 12:44 26.10.2019
5295 Clear 11 1019 71 10000 1 190 12:21 26.10.2019
5296 Clear 11 1019 71 10000 1 190 11:47 26.10.2019
5297 Clear 11 1019 71 10000 1 190 11:25 26.10.2019
5298 Clouds 12 1019 62 10000 2.1 230 10:47 26.10.2019
5299 Clouds 12 1019 50 10000 2.6 230 10:27 26.10.2019
5300 Clear 13 1019 50 10000 2.6 290 09:50 26.10.2019
5301 Clear 13 1019 47 10000 2.6 240 09:30 26.10.2019
5302 Clear 13 1019 50 10000 1 290 08:55 26.10.2019
5303 Clouds 13 1017 50 10000 2.6 220 08:36 26.10.2019
5304 Clouds 13 1019 50 10000 2.6 230 08:18 26.10.2019
5305 Clouds 13 1017 50 10000 2.6 230 07:42 26.10.2019
5306 Clear 13 1019 54 10000 2.1 190 07:22 26.10.2019
5307 Clear 13 1017 44 10000 2.1 220 06:40 26.10.2019
5308 Clear 13 1020 50 10000 1 290 05:56 26.10.2019
5309 Clouds 12 1020 54 10000 2.1 10 05:19 26.10.2019
5310 Clouds 11 1021 61 10000 1.5 320 03:45 26.10.2019
5311 Clouds 9 1022 66 10000 2.1 250 02:29 26.10.2019
5312 Haze 8 1021 87 9000 0.5 150 01:46 26.10.2019
5313 Mist 7 1021 93 4000 1 170 00:51 26.10.2019
5314 Clear 8 1021 100 4800 1 260 23:48 25.10.2019
5315 Clouds 8 1021 93 6000 0.5 90 23:23 25.10.2019
5316 Clear 9 1021 93 10000 0.5 230 22:58 25.10.2019
5317 Clouds 9 1018 70 10000 1 310 22:39 25.10.2019
5318 Clouds 9 1018 70 10000 1 310 22:39 25.10.2019
5319 Clear 9 1021 86 10000 0.5 110 22:21 25.10.2019
5320 Clouds 10 1020 81 10000 1 250 21:55 25.10.2019
5321 Clouds 9 1018 76 10000 1 320 21:37 25.10.2019
5322 Clouds 10 1020 81 10000 4.61 313 21:18 25.10.2019
5323 Clear 10 1018 76 10000 1 330 20:42 25.10.2019
5324 Clouds 10 1019 76 10000 4.6 340 20:19 25.10.2019
5325 Clear 12 1020 70 10000 0.5 220 19:47 25.10.2019
5326 Clouds 12 1019 76 10000 4.1 320 19:27 25.10.2019
5327 Clear 12 1020 70 10000 2.1 280 18:55 25.10.2019
5328 Clouds 12 1017 82 10000 1.5 260 18:37 25.10.2019
5329 Clouds 12 1020 66 10000 3.6 310 18:18 25.10.2019
5330 Clouds 13 1017 82 10000 2.1 250 17:39 25.10.2019
5331 Clouds 13 1020 76 10000 2.6 300 17:18 25.10.2019
5332 Clouds 14 1017 82 10000 1.5 310 16:46 25.10.2019
5333 Clouds 14 1018 82 10000 4.6 270 16:22 25.10.2019
5334 Clouds 15 1019 76 10000 2.6 290 15:56 25.10.2019
5335 Clouds 15 1017 93 8000 1 230 15:38 25.10.2019
5336 Clouds 15 1019 71 10000 1.5 260 15:19 25.10.2019
5337 Rain 15 1017 100 4800 0.5 190 14:42 25.10.2019
5338 Clouds 16 1019 72 10000 3.6 300 14:23 25.10.2019
5339 Clouds 16 1019 77 10000 3.1 300 13:57 25.10.2019
5340 Clouds 16 1016 72 10000 1 200 13:38 25.10.2019
5341 Clouds 17 1018 77 10000 3.1 280 13:18 25.10.2019
5342 Clouds 17 1016 63 10000 1 270 12:42 25.10.2019
5343 Clouds 17 1018 72 10000 1 240 12:22 25.10.2019
5344 Clouds 18 1018 72 10000 1 230 11:58 25.10.2019
5345 Clouds 18 1016 52 10000 2.1 210 11:38 25.10.2019
5346 Clouds 18 1018 67 10000 1 240 11:18 25.10.2019
5347 Clouds 19 1018 59 10000 1 240 10:41 25.10.2019
5348 Clouds 19 1018 59 10000 1 240 10:22 25.10.2019
5349 Clouds 20 1018 52 10000 1.5 230 09:57 25.10.2019
5350 Clear 20 1015 46 10000 1 330 09:38 25.10.2019
5351 Clouds 20 1017 52 10000 3.1 230 09:19 25.10.2019
5352 Haze 21 1017 49 9000 1 260 08:45 25.10.2019
5353 Clouds 21 1018 45 10000 2.6 240 08:27 25.10.2019
5354 Clouds 21 1017 49 10000 2.6 250 07:53 25.10.2019
5355 Clear 21 1015 43 10000 1.5 180 07:34 25.10.2019
5356 Clear 21 1016 46 10000 2.6 250 06:42 25.10.2019
5357 Clear 21 1019 46 10000 1.5 250 05:51 25.10.2019
5358 Clear 20 1019 45 10000 1 240 05:33 25.10.2019
5359 Clear 19 1019 48 10000 1 250 04:52 25.10.2019
5360 Clear 17 1018 55 10000 1.5 340 03:36 25.10.2019
5361 Clear 14 1021 76 10000 1.5 50 01:54 25.10.2019
5362 Clear 12 1021 81 10000 0.5 20 00:57 25.10.2019
5363 Clear 12 1020 87 10000 1 360 00:20 25.10.2019
5364 Clouds 11 1018 93 10000 1.5 350 23:40 24.10.2019
5365 Clouds 11 1020 87 10000 1.5 10 23:22 24.10.2019
5366 Clouds 12 1020 76 10000 2.1 10 22:54 24.10.2019
5367 Clouds 12 1020 76 10000 2.1 10 22:54 24.10.2019
5368 Clouds 12 1018 93 10000 1.5 30 22:36 24.10.2019
5369 Clouds 12 1020 76 10000 2.1 40 22:18 24.10.2019
5370 Clouds 12 1020 81 10000 2.1 60 21:56 24.10.2019
5371 Clouds 11 1020 87 10000 1 70 21:37 24.10.2019
5372 Clouds 11 1020 87 10000 1 70 21:37 24.10.2019
5373 Clouds 11 1020 87 10000 1 70 21:37 24.10.2019
5374 Clouds 11 1020 87 10000 1 70 21:18 24.10.2019
5375 Clouds 11 1020 87 10000 1 70 21:18 24.10.2019
5376 Clear 12 1020 81 10000 1 330 20:55 24.10.2019
5377 Clear 12 1020 81 10000 1 330 20:55 24.10.2019
5378 Clear 12 1018 87 10000 1 30 20:37 24.10.2019
5379 Clear 12 1020 81 10000 2.1 40 20:19 24.10.2019
5380 Clouds 13 1018 76 10000 1.5 30 19:42 24.10.2019
5381 Clear 13 1020 76 10000 2.6 50 19:23 24.10.2019
5382 Clear 13 1020 81 10000 2.1 40 18:58 24.10.2019
5383 Clouds 13 1018 72 10000 1 20 18:39 24.10.2019
5384 Clouds 13 1018 72 10000 1 20 18:39 24.10.2019
5385 Clear 13 1020 76 10000 2.6 50 18:21 24.10.2019
5386 Clear 14 1020 76 10000 2.1 40 17:57 24.10.2019
5387 Clouds 14 1019 72 10000 0.5 40 17:37 24.10.2019
5388 Clear 14 1020 76 10000 2.1 50 17:18 24.10.2019
5389 Clear 15 1019 55 10000 0.5 340 16:42 24.10.2019
5390 Clear 15 1021 71 10000 2.1 30 16:23 24.10.2019
5391 Clear 16 1021 67 10000 2.6 20 15:59 24.10.2019
5392 Clear 16 1021 67 10000 2.6 20 15:59 24.10.2019
5393 Clear 16 1019 59 10000 1 20 15:41 24.10.2019
5394 Clear 16 1021 67 10000 2.1 30 15:23 24.10.2019
5395 Clear 16 1021 62 10000 2.1 30 14:59 24.10.2019
5396 Clear 17 1019 59 10000 1 20 14:41 24.10.2019
5397 Clear 16 1021 67 10000 2.6 40 14:22 24.10.2019
5398 Clear 16 1021 67 10000 2.6 40 14:22 24.10.2019
5399 Clouds 18 1019 63 10000 0.5 30 13:42 24.10.2019
5400 Clear 17 1021 63 10000 3.1 50 13:21 24.10.2019
5401 Clear 18 1021 63 10000 2.1 40 12:59 24.10.2019
5402 Clouds 18 1019 55 10000 1 30 12:40 24.10.2019
5403 Clear 19 1021 63 10000 2.1 40 12:20 24.10.2019
5404 Clear 19 1021 55 10000 2.1 10 11:57 24.10.2019
5405 Clouds 20 1019 55 10000 0.5 10 11:38 24.10.2019
5406 Clear 20 1020 52 10000 2.1 20 11:20 24.10.2019
5407 Clouds 21 1020 49 10000 2.6 350 10:59 24.10.2019
5408 Clouds 21 1018 46 10000 1 30 10:39 24.10.2019
5409 Clouds 22 1020 46 10000 2.1 40 10:21 24.10.2019
5410 Clouds 22 1018 43 10000 1 10 09:39 24.10.2019
5411 Clear 23 1019 43 10000 3.1 10 09:19 24.10.2019
5412 Clear 23 1019 43 10000 3.1 60 08:55 24.10.2019
5413 Clear 23 1017 40 10000 1.5 10 08:37 24.10.2019
5414 Clear 23 1019 43 10000 3.1 50 08:18 24.10.2019
5415 Clear 23 1019 40 10000 2.6 40 07:45 24.10.2019
5416 Clear 23 1019 43 10000 4.6 50 07:22 24.10.2019
5417 Clouds 22 1018 46 10000 1.5 350 06:46 24.10.2019
5418 Clear 22 1020 43 10000 3.1 50 06:23 24.10.2019
5419 Clear 22 1020 46 10000 2.1 80 05:49 24.10.2019
5420 Clear 21 1021 49 10000 2.6 50 05:28 24.10.2019
5421 Clouds 18 1021 63 10000 0.5 350 03:38 24.10.2019
5422 Clear 17 1023 67 10000 2.6 50 02:56 24.10.2019
5423 Clear 16 1023 77 10000 1 40 02:25 24.10.2019
5424 Clear 15 1023 76 10000 2.6 40 01:51 24.10.2019
5425 Clouds 14 1022 82 10000 2.1 30 01:27 24.10.2019
5426 Clouds 14 1020 93 10000 3.67 55 00:41 24.10.2019
5427 Clouds 14 1022 82 10000 3.1 40 00:23 24.10.2019
5428 Clouds 14 1020 93 10000 0.5 210 23:43 23.10.2019
5429 Clouds 13 1022 87 10000 2.6 20 23:23 23.10.2019
5430 Clear 13 1022 82 10000 3.1 40 22:57 23.10.2019
5431 Clouds 13 1020 100 10000 2.45 41 22:38 23.10.2019
5432 Haze 13 1022 87 9000 1.5 360 22:19 23.10.2019
5433 Clear 13 1022 82 10000 2.1 30 21:57 23.10.2019
5434 Clouds 13 1020 93 10000 2.61 46 21:38 23.10.2019
5435 Clouds 13 1022 82 10000 2.6 40 21:20 23.10.2019
5436 Clouds 13 1022 82 10000 2.6 40 20:57 23.10.2019
5437 Clouds 13 1020 93 10000 0.5 150 20:39 23.10.2019
5438 Clouds 13 1022 82 10000 2.6 50 20:20 23.10.2019
5439 Clear 14 1022 82 10000 2.1 30 19:57 23.10.2019
5440 Clouds 13 1020 82 10000 0.5 310 19:38 23.10.2019
5441 Clouds 13 1020 87 10000 1.5 320 19:18 23.10.2019
5442 Clear 14 1022 82 10000 2.6 40 18:54 23.10.2019
5443 Clouds 14 1020 93 10000 1.5 20 18:36 23.10.2019
5444 Clouds 14 1020 93 10000 1.5 20 18:36 23.10.2019
5445 Clouds 14 1022 76 10000 2.6 40 18:18 23.10.2019
5446 Clouds 14 1020 87 10000 2.36 73 17:41 23.10.2019
5447 Clear 14 1022 82 10000 3.1 50 17:20 23.10.2019
5448 Clouds 14 1022 82 10000 2.6 40 16:55 23.10.2019
5449 Clouds 15 1020 87 10000 0.5 30 16:36 23.10.2019
5450 Clouds 15 1022 87 10000 2.6 30 16:36 23.10.2019
5451 Clouds 15 1022 87 10000 2.6 30 16:18 23.10.2019
5452 Clouds 15 1020 87 10000 1 20 15:41 23.10.2019
5453 Clouds 15 1022 87 10000 1.5 60 15:21 23.10.2019
5454 Clouds 15 1022 87 10000 3.12 98 14:58 23.10.2019
5455 Clouds 15 1021 100 10000 0.5 40 14:38 23.10.2019
5456 Clouds 15 1022 87 10000 1 140 14:19 23.10.2019
5457 Clouds 15 1021 87 10000 1 60 13:57 23.10.2019
5458 Clouds 15 1020 100 10000 0.5 110 13:38 23.10.2019
5459 Clouds 16 1021 82 10000 1.5 50 13:20 23.10.2019
5460 Clouds 16 1019 93 10000 2.87 88 12:41 23.10.2019
5461 Clouds 16 1021 72 10000 1 60 12:20 23.10.2019
5462 Clouds 17 1021 72 10000 0.5 100 11:58 23.10.2019
5463 Clouds 17 1021 72 10000 0.5 100 11:58 23.10.2019
5464 Clouds 17 1019 82 10000 0.5 40 11:40 23.10.2019
5465 Clouds 17 1020 67 10000 2.3 78 11:21 23.10.2019
5466 Clouds 18 1020 63 10000 0.5 90 10:59 23.10.2019
5467 Clear 19 1019 72 10000 1 20 10:40 23.10.2019
5468 Clear 19 1020 63 10000 0.5 70 10:22 23.10.2019
5469 Clear 19 1018 59 10000 0.5 40 09:41 23.10.2019
5470 Clear 19 1018 59 10000 0.5 40 09:41 23.10.2019
5471 Clear 20 1020 49 10000 1.5 100 09:22 23.10.2019
5472 Clouds 20 1019 63 10000 1 360 08:56 23.10.2019
5473 Clouds 20 1018 56 10000 0.5 10 08:38 23.10.2019
5474 Clouds 20 1020 46 10000 1.5 170 08:18 23.10.2019
5475 Clouds 20 1020 43 10000 1.5 110 07:45 23.10.2019
5476 Clouds 20 1020 49 10000 2.1 160 07:21 23.10.2019
5477 Clouds 20 1018 56 10000 0.5 360 06:45 23.10.2019
5478 Clouds 20 1020 52 10000 3.1 110 06:19 23.10.2019
5479 Clouds 19 1021 59 10000 2.6 50 05:20 23.10.2019
5480 Clouds 16 1021 77 10000 2.1 40 03:58 23.10.2019
5481 Clouds 14 1020 82 10000 1.5 360 02:44 23.10.2019
5482 Clouds 13 1020 93 10000 1.5 20 01:43 23.10.2019
5483 Mist 13 1021 93 4000 3.1 40 01:18 23.10.2019
5484 Clouds 12 1019 100 10000 2.1 20 00:34 23.10.2019
5485 Mist 12 1020 93 3200 1.5 50 23:56 22.10.2019
5486 Clouds 12 1019 100 10000 1.5 30 23:37 22.10.2019
5487 Mist 13 1020 93 3200 2.1 30 23:18 22.10.2019
5488 Clouds 12 1019 100 9000 1.5 40 22:41 22.10.2019
5489 Clouds 12 1019 100 9000 1.5 40 22:41 22.10.2019
5490 Mist 12 1020 93 2400 1 80 22:23 22.10.2019
5491 Mist 12 1019 100 3200 2.1 50 21:57 22.10.2019
5492 Clouds 11 1019 100 6000 0.5 60 21:38 22.10.2019
5493 Mist 12 1019 100 3200 1 110 21:19 22.10.2019
5494 Mist 12 1019 93 3200 1.05 112 20:58 22.10.2019
5495 Clear 12 1018 100 9000 1 50 20:40 22.10.2019
5496 Mist 12 1019 93 3200 1.5 60 20:22 22.10.2019
5497 Mist 12 1019 100 2400 1 90 19:57 22.10.2019
5498 Clear 12 1018 100 6000 2.1 350 19:39 22.10.2019
5499 Clear 12 1018 100 6000 2.1 350 19:39 22.10.2019
5500 Mist 12 1019 93 2800 1.5 50 19:21 22.10.2019
5501 Mist 13 1019 93 3200 1 50 18:55 22.10.2019
5502 Clear 12 1018 100 8000 2.1 20 18:37 22.10.2019
5503 Clear 12 1018 100 8000 2.1 20 18:37 22.10.2019
5504 Mist 13 1018 87 5000 2.1 30 18:19 22.10.2019
5505 Mist 13 1019 100 4000 0.5 80 17:54 22.10.2019
5506 Mist 13 1019 100 4000 0.5 60 17:36 22.10.2019
5507 Mist 13 1019 100 4000 0.5 60 17:18 22.10.2019
5508 Clear 13 1018 100 10000 1 200 16:39 22.10.2019
5509 Mist 13 1019 100 4800 0.5 350 16:20 22.10.2019
5510 Mist 13 1019 100 4800 0.5 350 16:20 22.10.2019
5511 Clear 14 1018 100 9000 0.5 210 15:59 22.10.2019
5512 Clear 14 1018 100 9000 0.5 210 15:40 22.10.2019
5513 Clear 14 1020 93 6000 1 130 15:19 22.10.2019
5514 Clear 15 1019 87 8000 0.5 10 14:46 22.10.2019
5515 Clear 15 1019 87 8000 0.5 10 14:46 22.10.2019
5516 Haze 15 1020 87 9000 0.5 350 14:21 22.10.2019
5517 Haze 16 1020 82 6000 0.5 150 13:54 22.10.2019
5518 Clear 16 1018 93 10000 0.5 170 13:36 22.10.2019
5519 Clouds 16 1019 77 10000 0.5 120 13:18 22.10.2019
5520 Clear 17 1017 93 10000 0.48 323 12:41 22.10.2019
5521 Clouds 17 1019 77 10000 1 150 12:21 22.10.2019
5522 Clouds 18 1018 67 10000 0.5 120 11:57 22.10.2019
5523 Clouds 19 1017 77 10000 0.5 60 11:38 22.10.2019
5524 Clouds 19 1017 77 10000 0.5 60 11:38 22.10.2019
5525 Clear 19 1018 59 10000 1 280 11:20 22.10.2019
5526 Clear 20 1018 56 10000 0.5 300 10:58 22.10.2019
5527 Clear 21 1016 68 10000 1 30 10:37 22.10.2019
5528 Clear 21 1018 46 10000 0.97 236 10:18 22.10.2019
5529 Clear 21 1018 46 10000 0.97 236 10:18 22.10.2019
5530 Clouds 22 1018 43 10000 1 320 09:55 22.10.2019
5531 Clouds 22 1016 53 10000 1 230 09:36 22.10.2019
5532 Clear 23 1018 43 10000 1 10 09:18 22.10.2019
5533 Clouds 22 1016 43 10000 1.5 40 08:42 22.10.2019
5534 Clear 23 1018 40 10000 1 290 08:21 22.10.2019
5535 Clear 23 1018 40 10000 1 290 08:21 22.10.2019
5536 Clear 23 1018 40 10000 2.1 310 07:46 22.10.2019
5537 Clear 22 1018 46 10000 1 10 07:26 22.10.2019
5538 Clear 22 1018 46 10000 2.1 50 06:48 22.10.2019
5539 Clouds 22 1018 49 10000 1 50 06:30 22.10.2019
5540 Clouds 21 1019 49 10000 2.1 360 05:50 22.10.2019
5541 Clouds 21 1019 49 10000 1.5 30 05:19 22.10.2019
5542 Haze 14 1021 82 4800 1 70 02:33 22.10.2019
5543 Haze 12 1021 87 4000 0.5 100 01:51 22.10.2019
5544 Mist 12 1020 87 3200 0.5 240 01:26 22.10.2019
5545 Mist 10 1018 100 5000 1 330 00:57 22.10.2019
5546 Mist 10 1018 100 5000 1 330 00:39 22.10.2019
5547 Mist 10 1018 100 3200 1.5 310 00:20 22.10.2019
5548 Clouds 11 1019 100 6000 1 20 23:39 21.10.2019
5549 Mist 10 1020 100 2000 1 60 23:20 21.10.2019
5550 Mist 11 1019 100 2000 1.5 50 22:59 21.10.2019
5551 Clouds 11 1019 100 4800 1.5 30 22:40 21.10.2019
5552 Mist 11 1020 100 1200 1.5 40 22:21 21.10.2019
5553 Mist 11 1020 100 1200 1 50 21:59 21.10.2019
5554 Clouds 11 1018 100 8000 0.5 180 21:39 21.10.2019
5555 Clouds 11 1018 100 8000 0.5 180 21:39 21.10.2019
5556 Mist 11 1019 100 2800 1 60 21:21 21.10.2019
5557 Mist 11 1019 100 2000 1.5 50 20:58 21.10.2019
5558 Clouds 11 1018 100 8000 1 190 20:40 21.10.2019
5559 Clouds 11 1018 100 8000 1 190 20:40 21.10.2019
5560 Mist 11 1019 100 1600 0.5 50 20:21 21.10.2019
5561 Mist 11 1019 93 2800 0.5 70 19:57 21.10.2019
5562 Mist 11 1019 93 2800 0.5 70 19:57 21.10.2019
5563 Clouds 11 1018 100 6000 1 20 19:39 21.10.2019
5564 Mist 11 1019 100 2800 1 40 19:21 21.10.2019
5565 Mist 12 1019 100 2400 1 30 18:55 21.10.2019
5566 Clear 11 1018 100 9000 0.5 160 18:36 21.10.2019
5567 Mist 11 1019 100 1600 1 350 18:18 21.10.2019
5568 Mist 12 1019 100 2000 1.02 99 17:55 21.10.2019
5569 Clouds 12 1018 100 10000 0.5 170 17:37 21.10.2019
5570 Mist 12 1017 87 4000 2.1 330 17:18 21.10.2019
5571 Mist 13 1019 100 2400 1.02 99 16:54 21.10.2019
5572 Clear 13 1018 100 10000 1 50 16:36 21.10.2019
5573 Mist 13 1019 93 3200 0.5 30 16:18 21.10.2019
5574 Clear 14 1018 100 10000 0.5 70 15:42 21.10.2019
5575 Mist 14 1019 93 3200 0.5 330 15:22 21.10.2019
5576 Mist 14 1019 93 4000 0.5 150 14:56 21.10.2019
5577 Clear 14 1018 100 10000 0.5 140 14:37 21.10.2019
5578 Mist 14 1019 93 4000 0.5 150 14:18 21.10.2019
5579 Clear 15 1018 87 10000 0.5 190 13:42 21.10.2019
5580 Mist 15 1019 93 4800 1 140 13:21 21.10.2019
5581 Clear 16 1019 87 4800 1 30 12:59 21.10.2019
5582 Clouds 16 1017 82 10000 1 19 12:40 21.10.2019
5583 Haze 17 1019 82 6000 1.5 140 12:20 21.10.2019
5584 Haze 18 1018 77 8000 0.5 70 11:55 21.10.2019
5585 Haze 18 1017 77 10000 0.5 160 11:36 21.10.2019
5586 Haze 19 1018 72 9000 0.5 130 11:18 21.10.2019
5587 Haze 20 1018 68 9000 0.5 150 10:54 21.10.2019
5588 Haze 20 1016 63 10000 5.72 311.276 10:36 21.10.2019
5589 Haze 21 1018 60 10000 0.5 260 10:18 21.10.2019
5590 Haze 22 1016 56 10000 1 260 09:41 21.10.2019
5591 Haze 23 1018 40 10000 0.5 30 09:22 21.10.2019
5592 Haze 23 1017 38 10000 1 240 08:43 21.10.2019
5593 Haze 23 1018 40 10000 1 50 08:23 21.10.2019
5594 Haze 22 1019 43 10000 1.5 40 07:56 21.10.2019
5595 Haze 22 1019 43 10000 1 150 07:37 21.10.2019
5596 Haze 22 1019 43 10000 1 150 07:18 21.10.2019
5597 Haze 22 1018 46 10000 1 300 06:44 21.10.2019
5598 Haze 22 1020 46 10000 0.5 70 06:25 21.10.2019
5599 Haze 21 1019 52 10000 1 260 05:43 21.10.2019
5600 Haze 16 1020 82 10000 1.5 20 03:42 21.10.2019
5601 Haze 13 1021 100 10000 2.1 20 02:40 21.10.2019
5602 Mist 12 1022 87 10000 2.6 40 02:20 21.10.2019
5603 Mist 12 1022 87 10000 2.6 40 02:20 21.10.2019
5604 Mist 11 1022 93 8000 1 20 01:48 21.10.2019
5605 Mist 10 1022 93 6000 2.6 50 01:20 21.10.2019
5606 Mist 9 1021 106 6000 1.5 20 00:40 21.10.2019
5607 Mist 9 1022 93 3200 0.5 120 00:22 21.10.2019
5608 Mist 9 1020 106 6000 1 10 23:40 20.10.2019
5609 Mist 9 1022 100 4000 1.5 60 23:21 20.10.2019
5610 Mist 9 1022 100 3200 3.1 40 22:54 20.10.2019
5611 Mist 9 1021 106 6000 2.1 10 22:36 20.10.2019
5612 Mist 10 1022 100 2400 1 30 22:18 20.10.2019
5613 Fog 10 1020 106 6000 1 50 21:40 20.10.2019
5614 Fog 10 1022 100 1200 1 10 21:22 20.10.2019
5615 Mist 10 1022 100 1200 1 60 20:57 20.10.2019
5616 Mist 10 1022 107 1600 0.5 50 20:38 20.10.2019
5617 Mist 10 1022 100 2400 0.5 30 20:18 20.10.2019
5618 Mist 10 1022 100 2400 0.5 30 20:18 20.10.2019
5619 Fog 10 1022 100 1200 1.5 350 19:55 20.10.2019
5620 Fog 10 1022 100 1200 1.5 350 19:55 20.10.2019
5621 Mist 10 1021 100 4000 1.5 40 19:37 20.10.2019
5622 Mist 11 1022 100 3200 1 60 19:19 20.10.2019
5623 Mist 10 1021 106 4800 1.5 30 18:40 20.10.2019
5624 Mist 10 1022 100 3200 0.5 340 18:22 20.10.2019
5625 Mist 11 1022 100 2800 0.5 350 17:57 20.10.2019
5626 Mist 11 1021 100 8000 1 10 17:39 20.10.2019
5627 Mist 11 1023 100 2000 0.5 40 17:20 20.10.2019
5628 Mist 12 1022 100 8000 0.5 50 16:43 20.10.2019
5629 Mist 12 1023 100 3200 0.5 360 16:24 20.10.2019
5630 Mist 12 1023 100 4800 0.5 80 15:59 20.10.2019
5631 Mist 12 1021 100 10000 0.5 130 15:40 20.10.2019
5632 Mist 12 1021 100 10000 0.5 130 15:40 20.10.2019
5633 Mist 12 1023 100 6000 0.5 140 15:21 20.10.2019
5634 Haze 13 1023 93 6000 1 120 14:58 20.10.2019
5635 Haze 13 1021 100 10000 0.5 190 14:38 20.10.2019
5636 Haze 13 1021 100 10000 0.5 190 14:38 20.10.2019
5637 Haze 13 1022 93 9000 3.07 322.618 14:19 20.10.2019
5638 Haze 14 1022 93 9000 1 160 13:56 20.10.2019
5639 Haze 14 1021 93 10000 0.5 190 13:37 20.10.2019
5640 Haze 14 1022 87 10000 1.5 150 13:18 20.10.2019
5641 Haze 15 1022 87 10000 1 130 12:56 20.10.2019
5642 Haze 15 1021 87 10000 0.5 170 12:38 20.10.2019
5643 Haze 16 1022 77 10000 1 120 12:20 20.10.2019
5644 Haze 16 1022 67 10000 0.5 330 11:55 20.10.2019
5645 Haze 17 1020 87 10000 1 140 11:37 20.10.2019
5646 Haze 17 1020 87 10000 1 140 11:37 20.10.2019
5647 Haze 17 1022 63 10000 0.5 270 11:19 20.10.2019
5648 Haze 19 1020 72 10000 0.5 180 10:41 20.10.2019
5649 Haze 20 1022 49 10000 1 240 10:22 20.10.2019
5650 Haze 21 1022 46 10000 1.5 210 09:58 20.10.2019
5651 Haze 21 1022 46 10000 1.5 210 09:58 20.10.2019
5652 Haze 21 1020 60 10000 1 250 09:40 20.10.2019
5653 Haze 21 1022 43 10000 1.5 230 09:21 20.10.2019
5654 Haze 22 1022 43 10000 1 240 08:48 20.10.2019
5655 Haze 21 1022 46 10000 2.1 230 08:24 20.10.2019
5656 Haze 21 1022 43 10000 1.5 270 07:50 20.10.2019
5657 Mist 20 1022 49 10000 2.1 240 07:30 20.10.2019
5658 Mist 20 1021 68 10000 2.6 180 06:35 20.10.2019
5659 Mist 19 1023 55 10000 0.5 310 05:59 20.10.2019
5660 Mist 16 1024 67 10000 1 10 04:27 20.10.2019
5661 Mist 15 1025 77 10000 1.5 50 03:43 20.10.2019
5662 Mist 13 1025 93 10000 1.5 50 03:20 20.10.2019
5663 Mist 13 1023 100 3000 1.5 310 02:38 20.10.2019
5664 Fog 11 1025 100 0 0.5 70 01:58 20.10.2019
5665 Fog 11 1025 100 0 1.5 40 01:23 20.10.2019
5666 Fog 10 1025 100 0 0.5 30 00:55 20.10.2019
5667 Fog 10 1024 100 0 0.5 70 00:22 20.10.2019
5668 Fog 10 1024 100 0 0.5 60 23:59 19.10.2019
5669 Fog 10 1023 106 4800 0.5 350 23:41 19.10.2019
5670 Fog 10 1024 100 0 0.5 340 23:22 19.10.2019
5671 Fog 10 1024 100 0 0.5 360 22:56 19.10.2019
5672 Fog 10 1023 106 4000 0.5 20 22:37 19.10.2019
5673 Fog 10 1023 100 0 1 60 22:18 19.10.2019
5674 Fog 10 1023 100 0 1 60 22:18 19.10.2019
5675 Fog 10 1022 100 600 1.5 300 21:45 19.10.2019
5676 Fog 11 1023 100 0 2.19 342.649 21:21 19.10.2019
5677 Fog 11 1023 100 0 0.5 110 20:44 19.10.2019
5678 Fog 11 1023 100 0 0.5 360 20:22 19.10.2019
5679 Mist 11 1023 100 0 0.5 190 19:57 19.10.2019
5680 Mist 11 1022 106 2000 0.5 40 19:38 19.10.2019
5681 Mist 11 1023 100 0 0.5 100 19:20 19.10.2019
5682 Mist 11 1022 106 10000 0.5 180 18:41 19.10.2019
5683 Mist 11 1022 106 10000 0.5 180 18:41 19.10.2019
5684 Mist 11 1023 100 1600 4.4 342.738 18:23 19.10.2019
5685 Mist 12 1023 100 1200 0.5 130 17:55 19.10.2019
5686 Mist 12 1023 100 1200 0.5 130 17:55 19.10.2019
5687 Mist 12 1022 100 10000 0.5 110 17:36 19.10.2019
5688 Mist 12 1023 100 1600 0.5 120 17:18 19.10.2019
5689 Mist 12 1022 100 10000 0.5 160 16:38 19.10.2019
5690 Mist 12 1023 100 2400 0.5 20 16:20 19.10.2019
5691 Mist 14 1023 100 3200 0.5 90 15:44 19.10.2019
5692 Mist 14 1023 100 4800 4.4 342.738 15:26 19.10.2019
5693 Haze 15 1021 93 10000 0.5 220 14:40 19.10.2019
5694 Haze 15 1022 93 10000 1 140 14:21 19.10.2019
5695 Haze 15 1022 100 10000 0.5 40 13:59 19.10.2019
5696 Haze 15 1021 93 10000 1 160 13:41 19.10.2019
5697 Haze 16 1022 87 10000 1.5 170 13:23 19.10.2019
5698 Haze 16 1022 87 10000 1 140 12:59 19.10.2019
5699 Haze 16 1021 87 10000 0.5 130 12:39 19.10.2019
5700 Haze 16 1022 87 10000 1 200 12:21 19.10.2019
5701 Haze 17 1020 77 10000 0.5 180 11:42 19.10.2019
5702 Haze 17 1020 77 10000 0.5 170 11:23 19.10.2019
5703 Haze 19 1021 68 10000 1.5 280 10:58 19.10.2019
5704 Haze 20 1019 63 10000 0.5 180 10:40 19.10.2019
5705 Haze 21 1020 64 10000 4.6 280 10:22 19.10.2019
5706 Haze 21 1020 64 10000 4.6 280 10:22 19.10.2019
5707 Haze 21 1021 56 10000 2.1 280 09:56 19.10.2019
5708 Haze 21 1019 56 10000 0.5 210 09:37 19.10.2019
5709 Haze 22 1019 56 10000 4.1 270 09:19 19.10.2019
5710 Haze 21 1019 49 10000 1.5 320 08:41 19.10.2019
5711 Haze 21 1019 52 10000 3.1 330 08:21 19.10.2019
5712 Clouds 21 1019 49 10000 1.5 310 07:46 19.10.2019
5713 Haze 21 1021 52 10000 1.5 290 07:26 19.10.2019
5714 Haze 21 1021 52 10000 1.5 290 07:26 19.10.2019
5715 Haze 21 1021 52 10000 1.5 290 07:26 19.10.2019
5716 Haze 21 1019 46 10000 0.5 320 06:48 19.10.2019
5717 Haze 21 1022 46 10000 1.5 340 06:30 19.10.2019
5718 Haze 20 1020 49 10000 1.5 20 05:35 19.10.2019
5719 Haze 19 1023 52 10000 1 290 04:26 19.10.2019
5720 Haze 15 1023 72 10000 1.5 20 02:50 19.10.2019
5721 Haze 12 1023 82 10000 1 50 01:55 19.10.2019
5722 Mist 12 1021 93 10000 1.5 30 01:36 19.10.2019
5723 Mist 10 1022 93 10000 1 120 00:49 19.10.2019
5724 Mist 10 1022 100 9000 1 90 00:28 19.10.2019
5725 Mist 10 1022 93 10000 0.5 230 23:56 18.10.2019
5726 Mist 10 1022 93 10000 0.5 230 23:56 18.10.2019
5727 Mist 10 1020 100 10000 1.5 20 23:37 18.10.2019
5728 Mist 10 1022 87 10000 2.1 50 23:19 18.10.2019
5729 Mist 11 1021 107 10000 1 130 22:43 18.10.2019
5730 Mist 11 1021 107 10000 1 130 22:43 18.10.2019
5731 Mist 11 1022 93 10000 1 60 22:21 18.10.2019
5732 Mist 11 1021 93 10000 1.5 50 21:59 18.10.2019
5733 Mist 11 1021 93 10000 1.5 50 21:59 18.10.2019
5734 Mist 11 1020 106 10000 1.5 30 21:39 18.10.2019
5735 Mist 11 1021 87 10000 1.5 30 21:20 18.10.2019
5736 Mist 12 1021 87 10000 3.6 50 20:58 18.10.2019
5737 Mist 12 1020 100 10000 0.5 10 20:40 18.10.2019
5738 Mist 12 1022 87 10000 2.1 40 20:21 18.10.2019
5739 Mist 12 1022 87 10000 2.1 40 20:21 18.10.2019
5740 Mist 12 1022 87 10000 1.5 40 19:57 18.10.2019
5741 Mist 12 1020 100 10000 0.5 310 19:39 18.10.2019
5742 Mist 12 1022 93 10000 2.6 50 19:20 18.10.2019
5743 Mist 13 1022 100 10000 0.5 20 18:56 18.10.2019
5744 Mist 13 1020 100 10000 0.5 20 18:38 18.10.2019
5745 Mist 13 1022 93 10000 0.5 30 18:20 18.10.2019
5746 Haze 13 1021 100 10000 2.61 92.371 17:39 18.10.2019
5747 Haze 14 1020 67 10000 3.6 100 17:20 18.10.2019
5748 Haze 14 1022 93 10000 1 60 16:58 18.10.2019
5749 Haze 14 1021 100 10000 0.5 170 16:37 18.10.2019
5750 Haze 14 1022 87 10000 2.61 92.371 16:19 18.10.2019
5751 Haze 15 1021 100 10000 1 20 15:41 18.10.2019
5752 Haze 15 1022 87 10000 0.5 30 15:21 18.10.2019
5753 Haze 15 1022 87 10000 0.5 170 14:59 18.10.2019
5754 Haze 15 1021 87 10000 0.5 100 14:41 18.10.2019
5755 Haze 15 1022 87 10000 0.5 70 14:22 18.10.2019
5756 Haze 16 1022 87 10000 0.5 330 13:59 18.10.2019
5757 Haze 16 1022 87 10000 0.5 330 13:59 18.10.2019
5758 Haze 16 1021 87 10000 0.5 360 13:41 18.10.2019
5759 Haze 16 1022 82 10000 1 100 13:23 18.10.2019
5760 Clouds 17 1022 82 10000 0.5 60 12:56 18.10.2019
5761 Clouds 17 1021 82 10000 0.5 170 12:38 18.10.2019
5762 Clear 17 1022 77 10000 0.5 120 12:20 18.10.2019
5763 Clear 18 1021 63 10000 0.5 100 11:56 18.10.2019
5764 Clouds 19 1021 59 10000 1 130 11:37 18.10.2019
5765 Clouds 19 1021 59 10000 1 130 11:18 18.10.2019
5766 Clouds 20 1021 56 10000 2.1 40 10:43 18.10.2019
5767 Clouds 20 1020 64 10000 0.5 10 10:43 18.10.2019
5768 -273 0 0 0 0 0 10:23 18.10.2019
5769 Clouds 21 1021 49 10000 2.1 140 09:59 18.10.2019
5770 Clouds 21 1020 56 10000 1 30 09:40 18.10.2019
5771 Clouds 21 1021 49 10000 2.6 170 09:20 18.10.2019
5772 Clouds 22 1021 46 10000 2.1 170 08:58 18.10.2019
5773 Clouds 22 1020 56 10000 1.5 20 08:39 18.10.2019
5774 Clouds 22 1021 46 10000 2.6 160 08:20 18.10.2019
5775 Clouds 21 1021 56 10000 1.5 10 07:42 18.10.2019
5776 Clouds 21 1022 56 10000 1 80 07:20 18.10.2019
5777 Clouds 21 1021 56 10000 1.5 30 06:39 18.10.2019
5778 Clouds 20 1023 52 10000 2.1 40 06:20 18.10.2019
5779 Clouds 20 1023 56 10000 2.1 40 05:55 18.10.2019
5780 Clouds 20 1024 59 10000 3.1 60 05:21 18.10.2019
5781 Haze 17 1024 72 10000 1 350 03:43 18.10.2019
5782 Haze 16 1025 72 10000 3.1 10 03:24 18.10.2019
5783 Haze 14 1024 72 10000 1.5 350 02:33 18.10.2019
5784 Mist 11 1026 87 10000 3.6 30 01:43 18.10.2019
5785 Mist 11 1026 87 10000 3.6 30 01:25 18.10.2019
5786 Mist 11 1026 93 4000 0.5 290 00:44 18.10.2019
5787 Clouds 10 1026 93 10000 3.1 50 00:20 18.10.2019
5788 Clouds 10 1026 93 10000 3.1 50 00:20 18.10.2019
5789 Mist 10 1024 100 10000 1.5 20 23:42 17.10.2019
5790 Mist 10 1026 93 4800 1.5 60 23:21 17.10.2019
5791 Mist 10 1026 93 4800 0.5 100 22:58 17.10.2019
5792 Fog 10 1024 100 10000 1.5 30 22:39 17.10.2019
5793 Fog 10 1026 93 6000 1.5 80 22:20 17.10.2019
5794 Fog 10 1025 87 6000 2.1 50 21:58 17.10.2019
5795 Fog 10 1024 100 10000 1.5 30 21:39 17.10.2019
5796 Fog 10 1025 93 6000 0.5 20 21:20 17.10.2019
5797 Mist 10 1026 93 6000 0.5 110 20:58 17.10.2019
5798 Mist 10 1025 106 10000 1 10 20:39 17.10.2019
5799 Mist 10 1026 93 6000 1 70 20:19 17.10.2019
5800 Mist 10 1026 93 4800 4.94 92.147 19:59 17.10.2019
5801 Clouds 10 1025 106 10000 1.5 40 19:39 17.10.2019
5802 Clouds 10 1026 93 4800 0.5 50 19:19 17.10.2019
5803 Clear 10 1026 93 6000 1 100 18:58 17.10.2019
5804 Clear 10 1026 93 6000 1 100 18:58 17.10.2019
5805 Clear 10 1025 107 10000 0.5 150 18:38 17.10.2019
5806 Clear 10 1026 93 6000 1 40 18:19 17.10.2019
5807 Clouds 11 1025 100 10000 1.518 97 17:42 17.10.2019
5808 Clouds 11 1026 87 10000 1 60 17:23 17.10.2019
5809 Clear 11 1026 87 10000 0.5 70 16:57 17.10.2019
5810 Clear 11 1025 100 10000 0.5 150 16:38 17.10.2019
5811 Clouds 11 1026 87 10000 0.5 70 16:18 17.10.2019
5812 Clouds 11 1026 81 10000 0.5 360 15:55 17.10.2019
5813 Clear 12 1025 100 10000 0.5 170 15:37 17.10.2019
5814 Clear 12 1026 87 10000 0.5 140 15:19 17.10.2019
5815 Clear 12 1025 100 10000 0.5 140 14:42 17.10.2019
5816 Clear 12 1026 81 10000 0.5 260 14:24 17.10.2019
5817 Clear 13 1026 81 10000 1 70 13:56 17.10.2019
5818 Clear 13 1024 93 10000 0.5 160 13:38 17.10.2019
5819 Clear 13 1026 76 10000 0.721 84 13:19 17.10.2019
5820 Clouds 14 1024 87 10000 0.5 180 12:41 17.10.2019
5821 Clouds 14 1025 62 10000 1 60 12:21 17.10.2019
5822 Clouds 15 1025 58 10000 1.79 118 11:59 17.10.2019
5823 Clouds 15 1025 58 10000 1.79 118 11:59 17.10.2019
5824 Clouds 16 1024 82 10000 1.79 118 11:40 17.10.2019
5825 Clear 16 1025 48 10000 0.5 120 11:19 17.10.2019
5826 Clouds 18 1024 42 10000 1 120 10:55 17.10.2019
5827 Clouds 18 1023 67 10000 0.5 300 10:36 17.10.2019
5828 Clear 19 1025 34 10000 1.5 140 10:18 17.10.2019
5829 Clear 19 1025 34 10000 1.5 140 10:18 17.10.2019
5830 Clear 20 1023 55 10000 0.5 220 09:42 17.10.2019
5831 Clouds 21 1024 37 10000 1.5 160 09:22 17.10.2019
5832 Clouds 20 1024 37 10000 1.5 140 08:58 17.10.2019
5833 Clouds 20 1023 43 10000 1 270 08:39 17.10.2019
5834 Clouds 20 1024 37 10000 1 10 08:21 17.10.2019
5835 Clouds 20 1024 37 10000 0.5 110 07:55 17.10.2019
5836 Clouds 20 1024 37 10000 0.5 110 07:55 17.10.2019
5837 Clouds 19 1023 48 10000 1.5 330 07:36 17.10.2019
5838 Clouds 19 1025 42 10000 2.6 360 07:18 17.10.2019
5839 Clouds 19 1024 48 10000 2.1 330 06:39 17.10.2019
5840 Clouds 19 1025 39 10000 0.5 70 06:20 17.10.2019
5841 Clouds 18 1026 42 10000 1 30 05:51 17.10.2019
5842 Clouds 17 1026 48 10000 1 60 05:31 17.10.2019
5843 Clouds 17 1026 55 10000 1 80 04:52 17.10.2019
5844 Clouds 15 1027 62 10000 2.1 360 03:54 17.10.2019
5845 Clouds 12 1025 87 10000 1 20 02:36 17.10.2019
5846 Mist 9 1026 100 4000 1 10 00:56 17.10.2019
5847 Clouds 9 1025 100 10000 1 40 00:38 17.10.2019
5848 Mist 9 1026 100 4000 0.5 350 00:18 17.10.2019
5849 Clouds 10 1025 100 10000 0.5 70 23:42 16.10.2019
5850 Mist 10 1026 100 2800 0.5 10 23:20 16.10.2019
5851 Mist 10 1026 100 2400 2.1 50 22:55 16.10.2019
5852 Clouds 9 1024 100 10000 0.5 40 22:36 16.10.2019
5853 Mist 10 1026 100 1200 2.1 20 22:18 16.10.2019
5854 Mist 10 1026 100 2800 0.5 350 21:55 16.10.2019
5855 Clouds 10 1024 100 10000 0.5 120 21:37 16.10.2019
5856 Mist 10 1026 100 2400 1 40 21:18 16.10.2019
5857 Mist 10 1026 100 2400 1 40 21:18 16.10.2019
5858 Mist 11 1026 100 2800 1 20 20:56 16.10.2019
5859 Clouds 11 1025 93 10000 0.5 30 20:38 16.10.2019
5860 Mist 11 1026 100 3200 0.5 330 20:20 16.10.2019
5861 Mist 11 1026 100 3200 0.5 330 20:20 16.10.2019
5862 Clouds 11 1025 100 10000 1 30 19:42 16.10.2019
5863 Clouds 12 1026 100 6000 0.5 180 19:21 16.10.2019
5864 Clouds 12 1026 100 6000 1.5 30 18:59 16.10.2019
5865 Clouds 12 1026 93 10000 0.5 170 18:39 16.10.2019
5866 Clouds 11 1027 93 6000 1.762 323 18:19 16.10.2019
5867 -273 0 0 0 0 0 17:56 16.10.2019
5868 Clouds 12 1025 93 10000 1.762 323 17:37 16.10.2019
5869 Clouds 12 1027 93 10000 1.762 323 17:19 16.10.2019
5870 Clouds 12 1027 93 9000 0.5 120 16:57 16.10.2019
5871 Clouds 12 1025 100 10000 0.5 170 16:38 16.10.2019
5872 Clouds 12 1027 93 9000 0.5 10 16:20 16.10.2019
5873 -273 0 0 0 0 0 15:42 16.10.2019
5874 Clouds 13 1025 87 10000 0.5 20 15:41 16.10.2019
5875 Clouds 13 1025 87 10000 0.5 20 15:41 16.10.2019
5876 Clouds 13 1026 93 10000 0.5 30 15:20 16.10.2019
5877 Clouds 13 1026 93 10000 0.5 30 14:59 16.10.2019
5878 Clouds 13 1026 93 10000 0.5 30 14:41 16.10.2019
5879 Clouds 13 1025 93 10000 2.992 315 14:23 16.10.2019
5880 Clouds 13 1025 87 10000 2.992 315 13:59 16.10.2019
5881 Clouds 13 1027 81 10000 1 140 13:41 16.10.2019
5882 Clouds 14 1025 87 10000 0.5 30 13:22 16.10.2019
5883 Clouds 14 1026 81 10000 1 110 12:44 16.10.2019
5884 Clouds 14 1025 87 10000 0.5 60 12:20 16.10.2019
5885 Clear 15 1024 76 10000 2.791 300 11:58 16.10.2019
5886 Clouds 15 1026 76 10000 0.5 90 11:40 16.10.2019
5887 Clear 15 1024 72 10000 0.5 50 11:18 16.10.2019
5888 Clouds 17 1024 67 10000 0.5 30 10:37 16.10.2019
5889 Clouds 17 1024 63 10000 0.5 20 10:19 16.10.2019
5890 Clear 18 1026 48 10000 1 230 09:41 16.10.2019
5891 Clear 19 1024 42 10000 1 230 09:22 16.10.2019
5892 Clouds 19 1024 42 10000 0.5 290 08:58 16.10.2019
5893 Clear 19 1026 45 10000 2.6 220 08:40 16.10.2019
5894 Clear 19 1024 42 10000 1.5 210 08:20 16.10.2019
5895 Clear 19 1026 48 10000 3.1 240 07:43 16.10.2019
5896 Clear 19 1024 45 10000 2.1 220 07:24 16.10.2019
5897 Clouds 19 1025 52 10000 1 210 06:55 16.10.2019
5898 Clouds 18 1027 42 10000 1.5 190 06:31 16.10.2019
5899 Clear 18 1026 63 10000 1 310 05:22 16.10.2019
5900 Clouds 12 1028 93 10000 1.5 30 02:53 16.10.2019
5901 Mist 9 1029 100 1200 0.5 130 01:38 16.10.2019
5902 Clouds 9 1028 100 10000 1.5 30 01:18 16.10.2019
5903 Clouds 8 1028 100 10000 1.5 40 00:42 16.10.2019
5904 Clouds 8 1028 100 10000 0.5 350 23:59 15.10.2019
5905 Mist 8 1029 100 1200 0.5 40 23:39 15.10.2019
5906 Clouds 8 1028 100 10000 1 290 23:21 15.10.2019
5907 Clouds 8 1028 100 10000 1 50 22:55 15.10.2019
5908 Clouds 8 1028 100 10000 1 50 22:55 15.10.2019
5909 Clouds 8 1028 100 10000 1 40 22:37 15.10.2019
5910 Clouds 8 1028 100 10000 0.5 10 22:19 15.10.2019
5911 Clouds 9 1028 100 10000 0.5 340 21:55 15.10.2019
5912 Clouds 8 1028 100 10000 1.5 10 21:36 15.10.2019
5913 Clouds 9 1028 100 10000 1 30 21:18 15.10.2019
5914 Clouds 9 1028 100 10000 1 40 20:55 15.10.2019
5915 Clouds 9 1028 100 10000 1 30 20:37 15.10.2019
5916 Clouds 9 1028 100 10000 0.5 140 20:19 15.10.2019
5917 Mist 9 1030 100 4000 0.5 200 19:55 15.10.2019
5918 Mist 9 1030 100 4000 0.5 200 19:55 15.10.2019
5919 Mist 9 1030 100 4000 0.5 200 19:55 15.10.2019
5920 Clouds 9 1028 100 10000 0.5 110 19:36 15.10.2019
5921 Clouds 9 1028 100 10000 0.5 180 19:18 15.10.2019
5922 Clouds 9 1028 100 10000 0.5 180 19:18 15.10.2019
5923 Clear 9 1030 100 4800 0.5 160 18:43 15.10.2019
5924 Clouds 9 1028 100 10000 1 160 18:25 15.10.2019
5925 Clouds 10 1028 100 10000 0.5 180 17:55 15.10.2019
5926 Clear 9 1028 100 10000 0.5 250 17:37 15.10.2019
5927 Clear 9 1028 100 10000 0.5 250 17:37 15.10.2019
5928 Clear 9 1028 100 10000 0.5 190 17:18 15.10.2019
5929 Clear 10 1029 100 8000 0.5 50 16:43 15.10.2019
5930 Clear 10 1028 100 10000 0.5 160 16:22 15.10.2019
5931 -273 0 0 0 0 0 15:57 15.10.2019
5932 Clear 10 1028 100 10000 0.5 170 15:57 15.10.2019
5933 Clear 10 1029 100 10000 1 100 15:39 15.10.2019
5934 Clear 10 1029 100 10000 1 100 15:39 15.10.2019
5935 Clear 11 1028 100 10000 0.5 180 15:19 15.10.2019
5936 Clear 11 1028 100 10000 0.5 160 14:55 15.10.2019
5937 Clear 11 1028 100 10000 0.5 160 14:55 15.10.2019
5938 Clear 11 1028 93 10000 0.5 150 14:36 15.10.2019
5939 Clear 11 1027 100 10000 0.5 150 14:18 15.10.2019
5940 Clear 12 1029 81 10000 0.5 90 13:43 15.10.2019
5941 Clear 12 1027 93 10000 0.5 170 13:20 15.10.2019
5942 Clear 13 1028 87 10000 1 130 12:46 15.10.2019
5943 Clear 14 1028 76 10000 0.5 120 12:23 15.10.2019
5944 Clear 15 1028 67 10000 0.5 90 11:59 15.10.2019
5945 Clear 15 1026 76 10000 0.5 130 11:41 15.10.2019
5946 Clear 16 1026 72 10000 0.5 110 11:20 15.10.2019
5947 Clear 17 1026 67 10000 0.5 50 10:46 15.10.2019
5948 Clear 17 1026 67 10000 0.5 50 10:46 15.10.2019
5949 Clear 18 1026 55 10000 0.5 250 10:24 15.10.2019
5950 Clear 19 1026 55 10000 1.5 260 09:59 15.10.2019
5951 Clear 19 1026 49 10000 1.5 180 09:40 15.10.2019
5952 Clear 19 1026 45 10000 0.5 200 09:21 15.10.2019
5953 Clear 19 1026 45 10000 0.5 200 09:21 15.10.2019
5954 Clear 19 1026 45 10000 1 230 08:57 15.10.2019
5955 Clear 19 1026 48 10000 1 190 08:39 15.10.2019
5956 Clouds 19 1026 48 10000 1.5 250 08:19 15.10.2019
5957 -273 0 0 0 0 0 07:43 15.10.2019
5958 Clouds 19 1028 48 10000 0.5 20 07:22 15.10.2019
5959 -273 0 0 0 0 0 06:55 15.10.2019
5960 Clouds 19 1027 48 10000 1 10 06:37 15.10.2019
5961 Clouds 18 1028 52 10000 1 40 05:56 15.10.2019
5962 Clouds 17 1028 55 10000 1.5 360 05:36 15.10.2019
5963 Clouds 17 1030 51 10000 2.1 100 04:40 15.10.2019
5964 Haze 16 1029 55 10000 2.6 10 03:59 15.10.2019
5965 Haze 16 1029 55 10000 2.6 10 03:30 15.10.2019
5966 Haze 11 1030 62 10000 1 20 01:51 15.10.2019
5967 Haze 10 1029 71 10000 1 10 01:26 15.10.2019
5968 Haze 9 1029 76 10000 0.5 10 00:58 15.10.2019
5969 Clouds 8 1030 75 10000 3.1 40 00:24 15.10.2019
5970 Haze 8 1029 81 10000 1 50 23:55 14.10.2019
5971 Haze 8 1029 87 10000 0.5 20 23:36 14.10.2019
5972 Haze 8 1029 87 10000 0.5 20 23:18 14.10.2019
5973 Haze 9 1028 87 10000 0.5 20 22:39 14.10.2019
5974 Haze 8 1028 87 10000 1 10 22:19 14.10.2019
5975 Haze 9 1028 87 10000 1 30 21:56 14.10.2019
5976 Haze 8 1029 100 10000 1 230 21:38 14.10.2019
5977 Haze 8 1028 93 10000 1 20 21:20 14.10.2019
5978 Haze 8 1028 93 10000 1 20 21:20 14.10.2019
5979 Haze 8 1028 81 10000 0.5 350 20:56 14.10.2019
5980 Haze 8 1027 87 10000 1.5 10 20:37 14.10.2019
5981 Haze 8 1028 81 10000 0.5 20 20:18 14.10.2019
5982 Clouds 8 1030 70 10000 1.5 50 19:42 14.10.2019
5983 Clouds 8 1028 87 10000 0.5 20 19:23 14.10.2019
5984 Haze 9 1028 87 10000 0.5 260 18:59 14.10.2019
5985 Haze 8 1028 93 10000 4.15 20.887 18:39 14.10.2019
5986 Haze 8 1030 81 10000 1.5 60 18:19 14.10.2019
5987 Haze 8 1030 81 10000 1.5 60 18:19 14.10.2019
5988 Haze 8 1030 81 10000 1.5 60 18:19 14.10.2019
5989 Haze 9 1030 70 10000 1 70 17:57 14.10.2019
5990 Haze 9 1030 70 10000 1 70 17:57 14.10.2019
5991 Haze 8 1028 93 10000 0.5 40 17:39 14.10.2019
5992 Haze 9 1029 48 10000 0.5 30 17:20 14.10.2019
5993 Clear 9 1029 52 10000 0.5 40 16:44 14.10.2019
5994 Clouds 9 1029 65 10000 0.5 360 16:21 14.10.2019
5995 Clear 10 1029 48 10000 0.5 60 15:44 14.10.2019
5996 Clear 10 1029 49 10000 2.1 40 15:26 14.10.2019
5997 Clear 10 1029 46 10000 2.1 30 14:58 14.10.2019
5998 Clear 10 1027 87 10000 0.5 180 14:39 14.10.2019
5999 Clear 11 1029 61 10000 1.5 50 14:20 14.10.2019
6000 Clear 11 1026 81 10000 1 160 13:44 14.10.2019
6001 Clear 11 1028 66 10000 0.5 160 13:22 14.10.2019
6002 -273 0 0 0 0 0 12:56 14.10.2019
6003 Clear 12 1028 57 10000 0.5 10 12:56 14.10.2019
6004 Clear 13 1026 71 10000 1 160 12:37 14.10.2019
6005 Clear 12 1028 53 10000 1 330 12:18 14.10.2019
6006 Clear 14 1025 58 10000 1 170 11:44 14.10.2019
6007 Clear 14 1027 50 10000 1.5 300 11:26 14.10.2019
6008 Clear 16 1027 47 10000 1.5 350 10:57 14.10.2019
6009 Clear 16 1024 48 10000 1 20 10:38 14.10.2019
6010 Clear 17 1026 41 10000 1.5 340 10:19 14.10.2019
6011 Clear 18 1023 39 10000 1 260 09:42 14.10.2019
6012 Clear 18 1024 39 10000 5.1 330 09:21 14.10.2019
6013 Haze 19 1026 39 10000 3.1 310 08:51 14.10.2019
6014 Haze 18 1025 31 10000 3.1 360 08:23 14.10.2019
6015 Haze 18 1025 34 10000 3.6 330 07:47 14.10.2019
6016 Haze 18 1025 39 10000 3.1 330 07:26 14.10.2019
6017 -273 0 0 0 0 0 06:59 14.10.2019
6018 Haze 18 1026 39 10000 2.1 30 06:28 14.10.2019
6019 Haze 18 1026 45 10000 3.1 320 05:57 14.10.2019
6020 Haze 18 1026 51 10000 3.1 320 05:27 14.10.2019
6021 Haze 16 1025 87 10000 1.5 190 03:51 14.10.2019
6022 Haze 16 1027 72 10000 1.5 300 03:26 14.10.2019
6023 Mist 13 1027 93 6000 6.03 332.682 02:34 14.10.2019
6024 Fog 11 1026 100 4000 0.5 350 01:22 14.10.2019
6025 Mist 11 1024 106 800 0.5 50 00:44 14.10.2019
6026 Mist 11 1026 100 4000 0.5 10 00:19 14.10.2019
6027 Fog 10 1025 106 0 1 150 23:43 13.10.2019
6028 Fog 10 1025 100 800 1 80 23:20 13.10.2019
6029 Mist 11 1025 100 1600 0.5 360 22:57 13.10.2019
6030 -273 0 0 0 0 0 22:39 13.10.2019
6031 Mist 11 1023 100 9000 1.5 350 22:20 13.10.2019
6032 Mist 11 1025 100 1600 0.5 10 21:57 13.10.2019
6033 Mist 11 1025 100 2800 0.5 130 21:36 13.10.2019
6034 Mist 11 1025 100 2800 0.5 130 21:36 13.10.2019
6035 Mist 11 1025 100 2800 0.5 130 21:18 13.10.2019
6036 Mist 11 1025 100 3200 0.5 110 20:57 13.10.2019
6037 Mist 11 1025 100 3200 0.5 110 20:56 13.10.2019
6038 Mist 11 1023 106 9000 1 30 20:37 13.10.2019
6039 Mist 12 1023 93 9000 0.5 320 20:19 13.10.2019
6040 Mist 12 1025 100 3200 0.5 70 19:55 13.10.2019
6041 Haze 12 1025 100 4800 0.5 50 19:36 13.10.2019
6042 Haze 12 1025 100 4800 0.5 50 19:18 13.10.2019
6043 Mist 12 1025 100 4000 0.5 340 18:54 13.10.2019
6044 Haze 12 1025 100 6000 0.5 180 18:36 13.10.2019
6045 Haze 12 1025 100 6000 0.5 180 18:18 13.10.2019
6046 Haze 13 1023 106 10000 0.5 10 17:41 13.10.2019
6047 Haze 13 1025 100 6000 0.5 100 17:23 13.10.2019
6048 Haze 14 1024 100 10000 0.5 190 16:44 13.10.2019
6049 Haze 14 1024 100 10000 0.5 190 16:44 13.10.2019
6050 Haze 14 1025 100 10000 4.22 317.988 16:20 13.10.2019
6051 Haze 14 1025 100 10000 4.22 317.988 16:20 13.10.2019
6052 Clouds 13 1025 100 9000 0.5 140 15:58 13.10.2019
6053 Clouds 14 1023 93 10000 4.22 317.988 15:39 13.10.2019
6054 Clouds 14 1025 93 8000 0.5 140 15:21 13.10.2019
6055 Haze 14 1025 93 10000 2.84 340.883 14:58 13.10.2019
6056 Haze 14 1023 93 10000 0.5 180 14:39 13.10.2019
6057 Haze 14 1023 93 10000 0.5 180 14:39 13.10.2019
6058 Haze 14 1024 93 10000 0.5 130 14:21 13.10.2019
6059 Haze 15 1024 87 10000 0.5 30 13:56 13.10.2019
6060 Haze 15 1023 93 10000 2.84 340.883 13:37 13.10.2019
6061 Haze 15 1024 87 10000 0.5 150 13:19 13.10.2019
6062 Haze 16 1024 82 10000 2.88 344.47 12:55 13.10.2019
6063 Haze 16 1024 82 10000 2.88 344.47 12:55 13.10.2019
6064 Haze 16 1023 82 10000 2.88 344.47 12:37 13.10.2019
6065 Haze 17 1024 77 10000 0.5 100 12:18 13.10.2019
6066 Clear 17 1023 67 10000 3.7 304.969 11:55 13.10.2019
6067 Haze 18 1023 67 10000 3.7 304.969 11:37 13.10.2019
6068 Haze 18 1023 67 10000 3.7 304.969 11:18 13.10.2019
6069 Haze 20 1021 63 10000 1 30 10:41 13.10.2019
6070 Haze 21 1023 46 10000 1 320 10:22 13.10.2019
6071 Haze 21 1023 46 10000 1 320 10:22 13.10.2019
6072 Haze 22 1021 53 10000 1 270 09:41 13.10.2019
6073 Haze 22 1023 43 10000 1 280 09:21 13.10.2019
6074 Haze 22 1023 43 10000 0.5 330 08:58 13.10.2019
6075 Haze 22 1021 46 10000 1 260 08:38 13.10.2019
6076 Haze 22 1023 43 10000 0.5 290 08:19 13.10.2019
6077 Haze 22 1021 43 10000 1 310 07:46 13.10.2019
6078 Haze 21 1023 46 10000 1 70 06:59 13.10.2019
6079 Haze 21 1022 46 10000 2.1 330 06:40 13.10.2019
6080 Haze 19 1024 52 10000 1.5 50 05:34 13.10.2019
6081 Haze 20 1022 52 10000 2.6 330 05:34 13.10.2019
6082 Haze 19 1024 52 10000 2.6 10 04:46 13.10.2019
6083 Haze 17 1023 52 10000 1.5 10 03:40 13.10.2019
6084 Haze 15 1024 63 10000 1.5 330 02:39 13.10.2019
6085 Haze 13 1025 81 10000 1.5 30 01:53 13.10.2019
6086 Haze 12 1025 87 10000 0.5 30 01:22 13.10.2019
6087 Haze 10 1023 100 10000 0.5 130 00:44 13.10.2019
6088 Haze 10 1024 100 10000 1 50 00:21 13.10.2019
6089 Haze 10 1024 100 10000 0.5 90 23:55 12.10.2019
6090 Haze 10 1024 100 10000 0.5 170 23:36 12.10.2019
6091 Clear 10 1024 100 10000 0.5 170 23:18 12.10.2019
6092 Clouds 10 1024 93 10000 0.5 90 22:55 12.10.2019
6093 Clouds 10 1024 87 10000 2.6 40 22:36 12.10.2019
6094 Clouds 10 1024 87 10000 2.6 40 22:18 12.10.2019
6095 Clear 10 1022 93 10000 0.5 170 21:41 12.10.2019
6096 Clear 10 1023 93 10000 2.1 60 21:23 12.10.2019
6097 Haze 11 1023 93 10000 0.5 340 20:56 12.10.2019
6098 Haze 11 1022 93 10000 3.62 54.727 20:38 12.10.2019
6099 Haze 11 1023 93 10000 1.5 50 20:20 12.10.2019
6100 Haze 11 1023 81 10000 1.5 40 19:37 12.10.2019
6101 Haze 11 1023 81 10000 1.5 40 19:19 12.10.2019
6102 Haze 12 1021 81 10000 3.62 54.727 18:46 12.10.2019
6103 Haze 12 1023 81 10000 2.1 40 18:27 12.10.2019
6104 Haze 12 1022 81 10000 2.6 50 17:58 12.10.2019
6105 Haze 13 1021 62 10000 1.5 70 17:40 12.10.2019
6106 Haze 13 1022 81 10000 1.5 40 17:18 12.10.2019
6107 Haze 13 1021 62 10000 0.5 80 16:41 12.10.2019
6108 Haze 13 1022 81 10000 1.5 40 16:21 12.10.2019
6109 Haze 14 1022 76 10000 2.1 40 15:58 12.10.2019
6110 Haze 14 1021 62 10000 0.5 50 15:38 12.10.2019
6111 Haze 14 1022 76 10000 1 60 15:19 12.10.2019
6112 Haze 15 1020 58 10000 0.5 30 14:41 12.10.2019
6113 Haze 15 1022 71 10000 1.5 30 14:21 12.10.2019
6114 Haze 15 1022 67 10000 1 40 13:52 12.10.2019
6115 Haze 16 1022 67 10000 1.5 20 13:33 12.10.2019
6116 Clear 16 1021 62 10000 1 10 12:57 12.10.2019
6117 Clouds 16 1020 58 10000 0.5 320 12:38 12.10.2019
6118 Clear 16 1021 62 10000 1.5 10 12:20 12.10.2019
6119 Haze 17 1020 59 10000 2.6 40 11:47 12.10.2019
6120 Haze 18 1020 51 10000 3.1 50 11:24 12.10.2019
6121 Haze 19 1020 52 10000 3.1 50 10:59 12.10.2019
6122 Haze 19 1018 52 10000 1.5 10 10:40 12.10.2019
6123 Haze 20 1020 48 10000 3.1 50 10:21 12.10.2019
6124 -273 0 0 0 0 0 09:57 12.10.2019
6125 Haze 21 1018 52 10000 1.5 30 09:38 12.10.2019
6126 Haze 21 1019 45 10000 3.1 50 09:20 12.10.2019
6127 Haze 21 1019 45 10000 3.1 50 09:20 12.10.2019
6128 Haze 21 1018 49 10000 2.6 40 08:45 12.10.2019
6129 Haze 21 1019 43 10000 6.7 50 08:25 12.10.2019
6130 Haze 22 1019 45 10000 3.6 30 07:59 12.10.2019
6131 Haze 22 1019 43 10000 4.6 40 07:31 12.10.2019
6132 Haze 22 1019 43 10000 6.2 40 06:37 12.10.2019
6133 Clouds 22 1018 46 10000 4.6 40 05:44 12.10.2019
6134 Haze 21 1018 46 10000 4.6 350 04:43 12.10.2019
6135 Haze 20 1020 45 10000 6.2 50 03:54 12.10.2019
6136 Haze 19 1020 52 10000 5.7 50 02:50 12.10.2019
6137 Clear 17 1020 67 10000 1.5 60 01:33 12.10.2019
6138 Haze 15 1020 67 10000 2.1 40 00:56 12.10.2019
6139 Mist 14 1019 76 10000 0.5 110 00:37 12.10.2019
6140 Mist 15 1019 67 10000 1.5 40 23:55 11.10.2019
6141 Mist 14 1019 93 10000 0.5 200 23:36 11.10.2019
6142 Mist 14 1019 67 10000 2.1 40 23:18 11.10.2019
6143 Mist 14 1017 63 10000 0.5 60 22:38 11.10.2019
6144 Mist 14 1019 71 10000 2.1 30 22:19 11.10.2019
6145 Mist 15 1017 63 10000 1 40 21:42 11.10.2019
6146 Mist 15 1019 76 10000 2.1 30 21:21 11.10.2019
6147 Mist 15 1019 76 10000 2.1 30 21:21 11.10.2019
6148 Mist 15 1019 76 10000 1.5 10 20:57 11.10.2019
6149 Mist 15 1016 77 10000 0.5 20 20:38 11.10.2019
6150 Mist 14 1019 76 10000 1.5 30 20:20 11.10.2019
6151 Mist 14 1019 76 10000 1.5 50 19:55 11.10.2019
6152 Mist 14 1019 76 10000 1.5 50 19:36 11.10.2019
6153 Mist 14 1019 76 10000 1.5 50 19:18 11.10.2019
6154 Mist 15 1016 72 10000 3.6 10 19:18 11.10.2019
6155 Mist 14 1019 76 10000 1.5 50 19:18 11.10.2019
6156 Mist 15 1016 72 10000 3.6 10 19:18 11.10.2019
6157 Mist 15 1019 87 10000 0.5 20 18:54 11.10.2019
6158 Haze 15 1019 77 10000 1.5 40 18:36 11.10.2019
6159 Haze 15 1019 77 10000 1.5 40 18:36 11.10.2019
6160 Mist 16 1016 72 10000 3.6 10 18:18 11.10.2019
6161 Haze 16 1019 77 10000 1.5 20 17:54 11.10.2019
6162 Haze 16 1017 82 10000 1 30 17:36 11.10.2019
6163 Haze 16 1019 77 10000 1.5 10 17:18 11.10.2019
6164 Haze 17 1017 77 10000 0.5 20 16:39 11.10.2019
6165 Haze 17 1019 67 10000 1 360 16:19 11.10.2019
6166 Haze 17 1019 67 10000 1.5 350 15:57 11.10.2019
6167 Haze 17 1017 68 10000 0.5 90 15:37 11.10.2019
6168 Haze 18 1019 72 10000 1.5 10 15:18 11.10.2019
6169 Clear 18 1016 72 10000 0.5 70 14:43 11.10.2019
6170 Clear 18 1016 72 10000 0.5 70 14:43 11.10.2019
6171 Clear 18 1018 67 10000 2.1 50 14:23 11.10.2019
6172 Haze 19 1016 63 10000 0.5 30 13:47 11.10.2019
6173 Haze 19 1017 59 10000 2.6 50 13:27 11.10.2019
6174 Haze 20 1017 59 10000 3.6 40 12:58 11.10.2019
6175 Haze 20 1017 59 10000 3.6 40 12:58 11.10.2019
6176 Haze 20 1016 60 10000 1 350 12:40 11.10.2019
6177 Haze 20 1017 60 10000 3.1 40 12:21 11.10.2019
6178 Haze 20 1016 60 10000 2.1 30 11:59 11.10.2019
6179 Haze 21 1015 56 10000 0.5 40 11:39 11.10.2019
6180 Haze 21 1016 56 10000 1.5 20 11:21 11.10.2019
6181 Haze 23 1016 53 10000 2.6 20 10:56 11.10.2019
6182 Haze 24 1016 46 10000 3.6 30 10:37 11.10.2019
6183 Haze 24 1016 46 10000 3.6 30 10:18 11.10.2019
6184 Haze 24 1014 47 10000 1 330 09:43 11.10.2019
6185 Haze 25 1014 44 10000 4.6 30 09:21 11.10.2019
6186 Haze 24 1015 31 10000 3.1 50 08:59 11.10.2019
6187 Haze 24 1014 44 10000 1 50 08:39 11.10.2019
6188 Haze 24 1014 44 10000 1 50 08:39 11.10.2019
6189 Haze 24 1015 33 10000 3.1 40 08:20 11.10.2019
6190 Haze 24 1015 38 10000 1.5 70 07:57 11.10.2019
6191 Haze 24 1013 44 10000 1 310 07:38 11.10.2019
6192 Haze 23 1015 41 10000 2.6 360 07:19 11.10.2019
6193 Clear 22 1014 49 10000 3.1 340 06:43 11.10.2019
6194 Haze 22 1016 49 10000 2.6 70 06:19 11.10.2019
6195 Haze 21 1017 60 10000 2.1 60 05:32 11.10.2019
6196 Haze 20 1017 64 10000 1 40 04:58 11.10.2019
6197 Haze 18 1016 77 10000 2.6 340 03:45 11.10.2019
6198 Fog 13 1018 100 400 1 50 01:28 11.10.2019
6199 Fog 11 1016 106 10000 2.1 30 00:41 11.10.2019
6200 Fog 11 1017 100 0 1 10 00:20 11.10.2019
6201 Fog 11 1017 100 0 1 10 00:20 11.10.2019
6202 Fog 11 1016 106 10000 0.5 10 23:41 10.10.2019
6203 Fog 11 1017 100 0 0.5 100 23:20 10.10.2019
6204 Fog 12 1017 100 800 1 80 22:56 10.10.2019
6205 Mist 12 1016 106 10000 1.5 30 22:36 10.10.2019
6206 Mist 12 1017 100 2400 0.5 60 22:18 10.10.2019
6207 Mist 12 1015 106 10000 0.5 220 21:42 10.10.2019
6208 Mist 12 1015 106 10000 0.5 220 21:42 10.10.2019
6209 Mist 11 1017 100 2000 0.5 40 21:22 10.10.2019
6210 Mist 12 1017 100 3200 1 170 20:59 10.10.2019
6211 Mist 12 1017 100 3200 1 170 20:59 10.10.2019
6212 Mist 12 1015 106 10000 1 40 20:40 10.10.2019
6213 Mist 12 1017 100 4000 1 180 20:20 10.10.2019
6214 Mist 12 1017 100 3200 1 50 19:57 10.10.2019
6215 Mist 12 1016 106 10000 0.5 90 19:39 10.10.2019
6216 Mist 12 1017 100 4800 4.28 3.602 19:19 10.10.2019
6217 Mist 12 1016 106 10000 4.28 3.602 18:42 10.10.2019
6218 Mist 13 1017 100 6000 0.5 60 18:21 10.10.2019
6219 Haze 13 1017 100 10000 1.5 140 17:59 10.10.2019
6220 Haze 13 1016 100 10000 0.5 160 17:40 10.10.2019
6221 Haze 13 1018 100 10000 0.5 60 17:19 10.10.2019
6222 Clear 13 1016 100 10000 0.5 160 16:56 10.10.2019
6223 Clear 13 1016 100 10000 0.5 160 16:37 10.10.2019
6224 Haze 14 1016 87 10000 1 10 16:19 10.10.2019
6225 Haze 14 1016 100 10000 0.5 170 15:40 10.10.2019
6226 Haze 14 1018 87 10000 0.5 230 15:22 10.10.2019
6227 Haze 14 1018 87 10000 1 110 14:58 10.10.2019
6228 Haze 14 1016 82 10000 1.5 320 14:37 10.10.2019
6229 Haze 14 1016 82 10000 1.5 320 14:19 10.10.2019
6230 Haze 15 1017 82 10000 0.5 340 13:57 10.10.2019
6231 Haze 15 1016 87 10000 0.5 170 13:39 10.10.2019
6232 Haze 15 1018 82 10000 0.5 140 13:18 10.10.2019
6233 Haze 16 1016 82 10000 0.5 150 12:42 10.10.2019
6234 Haze 16 1017 82 10000 0.5 230 12:21 10.10.2019
6235 Haze 17 1017 82 10000 1 160 11:58 10.10.2019
6236 Haze 17 1015 77 10000 0.5 40 11:39 10.10.2019
6237 Haze 17 1017 77 10000 0.5 160 11:19 10.10.2019
6238 Haze 18 1016 63 10000 0.5 200 10:46 10.10.2019
6239 Haze 18 1017 59 10000 1 220 10:27 10.10.2019
6240 Haze 18 1016 59 10000 1 230 09:58 10.10.2019
6241 Haze 18 1015 59 10000 0.5 180 09:40 10.10.2019
6242 Haze 18 1016 55 10000 1.5 250 09:22 10.10.2019
6243 Haze 18 1016 52 10000 1 210 08:58 10.10.2019
6244 Haze 18 1015 48 10000 1 340 08:38 10.10.2019
6245 Haze 18 1015 48 10000 1 340 08:38 10.10.2019
6246 Haze 19 1017 52 10000 0.5 270 08:19 10.10.2019
6247 Haze 18 1015 48 10000 1 330 07:46 10.10.2019
6248 Haze 18 1017 55 10000 0.5 340 07:23 10.10.2019
6249 Haze 18 1017 55 10000 0.5 50 06:49 10.10.2019
6250 Haze 17 1017 45 10000 1 330 06:29 10.10.2019
6251 Haze 15 1018 72 10000 1.5 320 05:28 10.10.2019
6252 Haze 15 1019 76 10000 0.5 20 04:55 10.10.2019
6253 Haze 14 1018 76 10000 1.5 40 04:33 10.10.2019
6254 Mist 12 1020 87 10000 2.59 32.498 02:19 10.10.2019
6255 Mist 12 1020 87 10000 2.59 32.498 02:19 10.10.2019
6256 Mist 10 1018 87 10000 1.5 360 01:36 10.10.2019
6257 Mist 10 1020 93 10000 0.5 50 01:18 10.10.2019
6258 Mist 10 1019 100 6000 0.5 30 00:24 10.10.2019
6259 Mist 10 1018 100 10000 1 40 23:41 09.10.2019
6260 Mist 10 1019 100 4800 1 30 23:23 09.10.2019
6261 Mist 10 1019 100 3200 0.5 10 22:59 09.10.2019
6262 Clouds 10 1018 100 10000 1 40 22:40 09.10.2019
6263 Mist 9 1019 100 6000 0.5 310 22:22 09.10.2019
6264 Mist 9 1018 100 10000 1 20 21:41 09.10.2019
6265 Mist 9 1019 93 3200 0.5 350 21:21 09.10.2019
6266 Mist 9 1019 93 4000 0.5 350 20:56 09.10.2019
6267 Clear 9 1017 93 10000 0.5 320 20:38 09.10.2019
6268 Clear 9 1017 93 10000 0.5 320 20:19 09.10.2019
6269 Clear 9 1017 93 10000 0.5 320 20:19 09.10.2019
6270 Clear 9 1017 93 10000 0.5 320 20:19 09.10.2019
6271 Clear 10 1017 58 10000 1.5 50 19:58 09.10.2019
6272 Clear 10 1017 58 10000 1.5 50 19:58 09.10.2019
6273 Clear 9 1017 87 10000 1.5 360 19:40 09.10.2019
6274 Clear 11 1017 87 10000 1.5 360 19:21 09.10.2019
6275 Clear 9 1018 87 10000 1.5 330 18:38 09.10.2019
6276 -273 0 0 0 0 0 18:20 09.10.2019
6277 Clear 9 1019 100 10000 1.12 356.763 17:57 09.10.2019
6278 Clear 9 1020 100 10000 1 60 17:37 09.10.2019
6279 Clear 9 1020 100 10000 1 60 17:19 09.10.2019
6280 Clear 10 1020 100 10000 0.5 140 16:55 09.10.2019
6281 Clear 10 1019 100 10000 1.12 356.763 16:36 09.10.2019
6282 Clear 10 1018 87 10000 1 330 16:18 09.10.2019
6283 Clear 10 1020 93 10000 1.12 356.763 15:55 09.10.2019
6284 Clear 10 1020 93 10000 1.12 356.763 15:55 09.10.2019
6285 Clear 10 1019 93 10000 0.5 160 15:36 09.10.2019
6286 Clear 10 1020 87 10000 0.5 30 15:36 09.10.2019
6287 Clear 10 1020 87 10000 0.5 30 15:18 09.10.2019
6288 Clear 11 1019 100 10000 0.5 150 14:42 09.10.2019
6289 Clear 11 1019 100 10000 0.5 150 14:42 09.10.2019
6290 Clear 11 1020 81 10000 0.5 90 14:18 09.10.2019
6291 Clear 12 1020 81 10000 1 140 13:55 09.10.2019
6292 Clear 12 1018 81 10000 0.5 210 13:36 09.10.2019
6293 Clear 12 1018 71 10000 1 290 13:18 09.10.2019
6294 Clear 14 1018 76 10000 2.18 307.359 12:42 09.10.2019
6295 Clear 14 1019 71 10000 0.5 90 12:22 09.10.2019
6296 Clear 15 1020 66 10000 1 130 11:57 09.10.2019
6297 Clear 15 1018 71 10000 1 160 11:37 09.10.2019
6298 Clear 16 1019 54 10000 0.5 230 11:19 09.10.2019
6299 Clear 18 1017 51 10000 0.5 40 10:45 09.10.2019
6300 Clear 18 1019 39 10000 1 230 10:22 09.10.2019
6301 Clear 19 1019 39 10000 1 210 09:59 09.10.2019
6302 Clouds 19 1017 28 10000 1 180 09:41 09.10.2019
6303 Clouds 19 1017 28 10000 1 180 09:41 09.10.2019
6304 Clear 19 1019 39 10000 2.1 220 09:19 09.10.2019
6305 Clear 19 1018 30 10000 1.5 220 08:43 09.10.2019
6306 Clear 19 1019 34 10000 1.5 240 08:23 09.10.2019
6307 Clear 19 1020 37 10000 1.5 220 07:59 09.10.2019
6308 Clear 19 1018 34 10000 1 200 07:39 09.10.2019
6309 Clear 19 1020 37 10000 1.5 190 07:21 09.10.2019
6310 Clear 19 1020 39 10000 1 310 06:52 09.10.2019
6311 Clear 18 1021 31 10000 2.6 210 06:19 09.10.2019
6312 Clear 18 1019 36 10000 0.5 160 05:44 09.10.2019
6313 Clear 16 1022 36 10000 1 290 04:25 09.10.2019
6314 Haze 11 1023 71 10000 1 310 02:53 09.10.2019
6315 Fog 8 1023 71 10000 1 140 01:43 09.10.2019
6316 Fog 7 1023 100 0 1 320 01:20 09.10.2019
6317 Fog 6 1023 100 0 0.5 340 00:57 09.10.2019
6318 Fog 6 1023 100 0 0.5 90 00:38 09.10.2019
6319 Fog 6 1023 100 0 0.5 90 00:20 09.10.2019
6320 Mist 5 1021 100 10000 0.5 170 23:39 08.10.2019
6321 Mist 5 1023 100 800 1 80 23:19 08.10.2019
6322 Fog 6 1023 100 0 1 110 22:56 08.10.2019
6323 Mist 5 1021 100 10000 1 170 22:38 08.10.2019
6324 Mist 5 1022 100 4800 0.5 120 22:19 08.10.2019
6325 Mist 6 1023 100 4800 1 50 21:57 08.10.2019
6326 Haze 6 1021 100 10000 0.5 200 21:39 08.10.2019
6327 Haze 6 1023 100 8000 1 50 21:19 08.10.2019
6328 Haze 6 1023 100 8000 1 50 21:19 08.10.2019
6329 Haze 6 1023 100 9000 0.5 20 20:56 08.10.2019
6330 Haze 6 1023 93 10000 0.5 170 20:37 08.10.2019
6331 Haze 6 1023 93 10000 0.5 170 20:19 08.10.2019
6332 Haze 7 1023 100 10000 0.5 90 19:56 08.10.2019
6333 Haze 7 1023 100 10000 1 30 19:37 08.10.2019
6334 Haze 7 1022 93 10000 0.5 230 19:18 08.10.2019
6335 Mist 7 1023 93 10000 0.5 120 18:46 08.10.2019
6336 Mist 8 1023 93 10000 1 310 18:25 08.10.2019
6337 Haze 9 1024 87 10000 0.5 120 17:58 08.10.2019
6338 Haze 9 1022 93 10000 0.5 180 17:39 08.10.2019
6339 Haze 9 1022 93 10000 0.5 180 17:39 08.10.2019
6340 Haze 8 1023 87 10000 0.5 150 17:20 08.10.2019
6341 Clear 9 1023 87 10000 1 160 16:56 08.10.2019
6342 Clear 9 1023 87 10000 1 160 16:56 08.10.2019
6343 Clear 8 1022 87 10000 0.5 160 16:37 08.10.2019
6344 Clear 9 1023 81 10000 1 120 16:18 08.10.2019
6345 Clear 11 1022 71 10000 0.5 40 15:39 08.10.2019
6346 Clear 11 1022 71 10000 0.5 40 15:39 08.10.2019
6347 Clear 10 1023 75 10000 1 140 15:20 08.10.2019
6348 Clear 11 1023 75 10000 0.5 190 14:56 08.10.2019
6349 Clear 11 1021 71 10000 0.5 180 14:38 08.10.2019
6350 Clear 11 1023 61 10000 1 260 14:19 08.10.2019
6351 Clear 12 1023 53 10000 0.5 250 13:55 08.10.2019
6352 Clear 12 1020 33 10000 2.6 210 13:37 08.10.2019
6353 Clear 13 1022 53 10000 1.5 330 13:18 08.10.2019
6354 Clear 14 1020 50 10000 1 270 12:41 08.10.2019
6355 Clear 14 1022 50 10000 1 40 12:20 08.10.2019
6356 Clear 14 1022 50 10000 1 40 12:20 08.10.2019
6357 Clear 15 1021 47 10000 1.5 130 11:58 08.10.2019
6358 Clear 15 1019 54 10000 1 350 11:39 08.10.2019
6359 Clear 16 1019 44 10000 4.1 310 11:21 08.10.2019
6360 Clear 15 1021 41 10000 1.5 290 11:21 08.10.2019
6361 Clear 17 1018 48 10000 1 300 10:42 08.10.2019
6362 Clear 18 1020 51 10000 3.1 310 10:23 08.10.2019
6363 Clear 18 1020 51 10000 2.6 310 09:59 08.10.2019
6364 Clear 19 1017 24 10000 1.5 350 09:40 08.10.2019
6365 Clear 19 1018 29 10000 5.7 320 09:22 08.10.2019
6366 Haze 19 1018 37 10000 4.1 260 08:45 08.10.2019
6367 Haze 20 1019 31 10000 3.1 330 08:25 08.10.2019
6368 Haze 19 1019 25 10000 1.5 270 07:57 08.10.2019
6369 Clear 19 1016 30 10000 2.1 310 07:38 08.10.2019
6370 Clear 20 1019 34 10000 3.1 320 07:19 08.10.2019
6371 Clear 20 1016 28 10000 2.6 10 06:45 08.10.2019
6372 Clear 20 1019 34 10000 4.1 310 06:21 08.10.2019
6373 Haze 19 1017 49 10000 1.5 10 05:43 08.10.2019
6374 Haze 19 1017 49 10000 1.5 10 05:43 08.10.2019
6375 Haze 19 1019 36 10000 3.6 350 05:19 08.10.2019
6376 Mist 17 1019 72 10000 2.6 330 03:31 08.10.2019
6377 Mist 16 1017 100 4800 2.1 180 02:42 08.10.2019
6378 Mist 14 1017 106 4000 2.1 170 01:58 08.10.2019
6379 Mist 14 1017 106 4000 2.1 170 01:40 08.10.2019
6380 Mist 12 1018 100 400 0.5 40 00:55 08.10.2019
6381 Mist 12 1018 100 800 8.38 300.485 00:23 08.10.2019
6382 Mist 12 1017 106 9000 0.5 120 23:46 07.10.2019
6383 Mist 12 1018 93 2000 0.5 170 23:21 07.10.2019
6384 Mist 12 1018 93 2000 0.5 170 23:21 07.10.2019
6385 Fog 12 1018 100 0 0.5 150 22:59 07.10.2019
6386 Fog 12 1017 106 10000 0.5 170 22:41 07.10.2019
6387 Fog 12 1018 100 0 0.5 270 22:23 07.10.2019
6388 Fog 12 1016 100 4500 0.5 150 21:59 07.10.2019
6389 Fog 12 1016 100 4500 0.5 150 21:40 07.10.2019
6390 Fog 12 1018 100 0 0.5 300 21:20 07.10.2019
6391 Fog 12 1018 100 0 0.5 300 21:20 07.10.2019
6392 Mist 12 1016 100 5000 2.1 30 20:59 07.10.2019
6393 Mist 12 1016 100 5000 2.1 30 20:39 07.10.2019
6394 Mist 12 1016 100 5000 2.1 30 20:39 07.10.2019
6395 Mist 12 1016 100 5000 2.1 30 20:39 07.10.2019
6396 Fog 12 1018 100 0 1 180 20:21 07.10.2019
6397 Mist 13 1017 100 0 1.5 160 19:59 07.10.2019
6398 Mist 13 1016 106 9000 1 160 19:41 07.10.2019
6399 Mist 13 1016 106 9000 1 160 19:41 07.10.2019
6400 Mist 13 1018 100 0 1 190 19:20 07.10.2019
6401 Mist 13 1016 100 2000 1.5 120 18:58 07.10.2019
6402 Fog 13 1016 106 8000 1 180 18:38 07.10.2019
6403 Fog 13 1018 100 0 1 190 18:19 07.10.2019
6404 Fog 14 1017 93 1200 0.5 340 17:43 07.10.2019
6405 Fog 13 1018 100 0 1 180 17:23 07.10.2019
6406 Fog 13 1018 100 0 1 180 17:23 07.10.2019
6407 Fog 14 1018 100 0 0.5 210 16:58 07.10.2019
6408 Fog 14 1018 100 0 0.5 210 16:58 07.10.2019
6409 Mist 14 1016 106 1600 1 130 16:39 07.10.2019
6410 Fog 14 1018 100 0 5.78 321.283 16:20 07.10.2019
6411 Fog 14 1017 100 7000 1.5 340 15:45 07.10.2019
6412 Mist 14 1018 100 0 0.5 130 15:26 07.10.2019
6413 Mist 14 1018 100 0 0.5 130 15:26 07.10.2019
6414 Mist 14 1018 100 0 0.5 130 15:26 07.10.2019
6415 Mist 15 1017 100 10000 1.5 310 14:56 07.10.2019
6416 Mist 15 1016 106 10000 5.52 327.825 14:38 07.10.2019
6417 Rain 15 1017 93 10000 1.5 320 14:20 07.10.2019
6418 Rain 15 1016 106 10000 0.5 130 13:43 07.10.2019
6419 Rain 15 1016 93 10000 2.1 300 13:20 07.10.2019
6420 Rain 15 1017 100 10000 1.5 330 12:56 07.10.2019
6421 Rain 15 1016 106 10000 0.5 50 12:38 07.10.2019
6422 Rain 15 1018 100 10000 0.5 80 12:19 07.10.2019
6423 Rain 15 1018 100 10000 1 40 11:57 07.10.2019
6424 Rain 15 1017 100 10000 1 20 11:37 07.10.2019
6425 Rain 15 1017 100 10000 1 20 11:18 07.10.2019
6426 -273 0 0 0 0 0 10:41 07.10.2019
6427 Rain 15 1016 106 10000 0.5 60 10:41 07.10.2019
6428 Rain 15 1018 100 10000 1.5 30 10:20 07.10.2019
6429 Rain 15 1016 93 6000 2.6 340 09:42 07.10.2019
6430 Rain 15 1018 100 9000 2.1 20 09:23 07.10.2019
6431 Rain 15 1016 93 2800 2.1 360 08:57 07.10.2019
6432 Rain 15 1016 93 2800 2.1 360 08:57 07.10.2019
6433 Rain 15 1016 93 2800 2.1 360 08:38 07.10.2019
6434 Rain 15 1018 100 9000 2.1 30 08:19 07.10.2019
6435 Rain 15 1016 93 6000 0.5 180 07:41 07.10.2019
6436 Rain 15 1018 100 4800 1.5 350 07:22 07.10.2019
6437 Rain 15 1018 100 8000 2.1 360 06:54 07.10.2019
6438 Rain 15 1019 100 8000 1.5 10 06:34 07.10.2019
6439 Rain 15 1018 106 6000 0.5 200 05:47 07.10.2019
6440 Rain 15 1020 100 4800 1.5 10 05:22 07.10.2019
6441 Rain 15 1021 100 4800 2.1 50 04:25 07.10.2019
6442 Rain 15 1020 106 4800 1 350 03:44 07.10.2019
6443 Rain 15 1021 100 4800 1 50 03:20 07.10.2019
6444 Rain 14 1022 100 3200 1 20 02:21 07.10.2019
6445 Rain 14 1022 100 4000 1.5 40 01:50 07.10.2019
6446 Rain 14 1022 100 3200 1.5 50 01:21 07.10.2019
6447 Rain 14 1020 106 6000 1.5 10 00:39 07.10.2019
6448 Rain 14 1022 100 2400 1.5 40 00:20 07.10.2019
6449 Rain 14 1020 106 8000 1 30 23:42 06.10.2019
6450 Rain 15 1022 100 3200 0.5 350 23:22 06.10.2019
6451 Rain 15 1021 100 3200 2.1 50 22:59 06.10.2019
6452 Rain 15 1020 106 10000 0.5 30 22:41 06.10.2019
6453 Rain 15 1021 100 3200 1.5 40 22:22 06.10.2019
6454 Rain 15 1021 100 6000 0.5 60 21:57 06.10.2019
6455 Rain 15 1020 93 10000 1 320 21:38 06.10.2019
6456 Rain 15 1020 93 10000 1 320 21:38 06.10.2019
6457 Rain 15 1021 100 6000 1.5 70 21:19 06.10.2019
6458 Rain 16 1022 100 4800 1 30 20:58 06.10.2019
6459 Rain 16 1020 87 10000 1 30 20:39 06.10.2019
6460 Rain 16 1020 87 10000 1 30 20:39 06.10.2019
6461 Rain 16 1022 100 6000 1 30 20:20 06.10.2019
6462 Rain 16 1022 100 8000 1.5 10 19:57 06.10.2019
6463 Rain 16 1022 100 8000 1.5 10 19:57 06.10.2019
6464 Rain 16 1021 87 10000 1 30 19:37 06.10.2019
6465 Rain 17 1022 93 10000 3.1 40 19:19 06.10.2019
6466 Clouds 16 1022 100 10000 1.5 10 18:56 06.10.2019
6467 Clouds 17 1021 93 10000 1 30 18:38 06.10.2019
6468 Clouds 17 1023 87 10000 1 300 18:19 06.10.2019
6469 Clouds 17 1023 87 10000 1 300 18:19 06.10.2019
6470 Clouds 17 1022 93 10000 1 30 17:43 06.10.2019
6471 Clouds 17 1022 93 10000 1 30 17:43 06.10.2019
6472 Clouds 17 1022 87 10000 1 50 17:20 06.10.2019
6473 Clouds 17 1023 87 10000 1 50 16:58 06.10.2019
6474 Clouds 17 1022 87 10000 0.5 350 16:40 06.10.2019
6475 Clouds 17 1023 93 10000 1 60 16:22 06.10.2019
6476 Clouds 17 1022 93 10000 0.5 30 15:44 06.10.2019
6477 Clouds 17 1022 93 10000 0.5 30 15:44 06.10.2019
6478 Clouds 17 1023 87 10000 1 50 15:22 06.10.2019
6479 Clouds 17 1023 87 10000 1.5 50 14:57 06.10.2019
6480 Clouds 17 1022 82 10000 0.5 10 14:39 06.10.2019
6481 Clouds 17 1023 82 10000 6.63 167.046 14:20 06.10.2019
6482 Clouds 17 1023 82 10000 0.5 100 13:54 06.10.2019
6483 Clouds 17 1023 82 10000 0.5 100 13:54 06.10.2019
6484 Clouds 18 1022 82 10000 1 40 13:36 06.10.2019
6485 Clouds 18 1022 82 10000 1 40 13:36 06.10.2019
6486 Clear 18 1023 77 10000 0.5 320 13:18 06.10.2019
6487 Clear 18 1023 77 10000 0.5 320 13:18 06.10.2019
6488 Clouds 18 1023 77 10000 0.5 140 12:55 06.10.2019
6489 Clouds 18 1023 77 10000 0.5 140 12:55 06.10.2019
6490 Clouds 18 1023 67 10000 0.5 100 12:36 06.10.2019
6491 Clouds 18 1022 77 10000 0.5 310 12:36 06.10.2019
6492 Clouds 18 1023 67 10000 0.5 100 12:18 06.10.2019
6493 Clouds 19 1022 72 10000 0.5 10 11:42 06.10.2019
6494 Clouds 19 1023 59 10000 1 100 11:24 06.10.2019
6495 Clouds 19 1023 59 10000 1 100 11:24 06.10.2019
6496 Clouds 20 1022 68 10000 1 40 10:56 06.10.2019
6497 Clouds 21 1023 56 10000 1 130 10:37 06.10.2019
6498 Clouds 21 1023 56 10000 1 130 10:19 06.10.2019
6499 Clouds 21 1022 52 10000 1 190 09:41 06.10.2019
6500 Clouds 21 1023 46 10000 2.1 140 09:20 06.10.2019
6501 Clouds 21 1023 46 10000 2.1 140 09:20 06.10.2019
6502 Clouds 22 1023 46 10000 1 180 08:49 06.10.2019
6503 Clouds 21 1023 46 10000 1.5 160 08:24 06.10.2019
6504 Clouds 21 1023 46 10000 1.5 120 07:58 06.10.2019
6505 Clouds 22 1022 46 10000 1 350 07:39 06.10.2019
6506 Clear 21 1023 49 10000 1 20 06:50 06.10.2019
6507 Clear 20 1023 52 10000 1.5 350 05:41 06.10.2019
6508 Clear 20 1023 52 10000 1.5 350 05:41 06.10.2019
6509 Clouds 19 1024 52 10000 1.5 10 04:35 06.10.2019
6510 Clear 17 1026 67 10000 2.6 10 02:53 06.10.2019
6511 Clouds 16 1026 71 10000 3.1 50 02:30 06.10.2019
6512 Clouds 15 1026 76 10000 2.6 20 01:48 06.10.2019
6513 Clouds 14 1026 76 10000 2.1 20 01:30 06.10.2019
6514 Haze 12 1026 87 10000 2.1 30 00:59 06.10.2019
6515 Haze 12 1026 87 10000 2.1 30 00:59 06.10.2019
6516 Haze 12 1026 81 10000 2.1 30 00:33 06.10.2019
6517 Clear 11 1025 81 10000 2.1 20 23:58 05.10.2019
6518 Clear 11 1024 87 10000 1.5 10 23:40 05.10.2019
6519 Haze 12 1025 81 10000 2.1 10 23:19 05.10.2019
6520 Haze 12 1025 81 10000 1 20 22:54 05.10.2019
6521 Clear 12 1025 81 10000 2.1 10 22:36 05.10.2019
6522 Haze 12 1025 81 10000 2.1 10 22:18 05.10.2019
6523 Haze 13 1023 71 10000 1.5 20 21:41 05.10.2019
6524 Haze 13 1025 81 10000 2.1 10 21:22 05.10.2019
6525 Haze 13 1024 81 10000 2.1 20 20:57 05.10.2019
6526 Clouds 12 1023 71 10000 1.5 30 20:39 05.10.2019
6527 Haze 13 1024 81 10000 2.1 10 20:19 05.10.2019
6528 Clouds 13 1022 67 10000 1.5 20 19:40 05.10.2019
6529 Haze 14 1024 81 10000 2.1 20 19:22 05.10.2019
6530 Haze 14 1024 81 10000 2.1 10 18:57 05.10.2019
6531 Haze 14 1022 67 10000 1.5 30 18:39 05.10.2019
6532 Haze 14 1024 81 10000 2.1 10 18:21 05.10.2019
6533 Clouds 14 1023 76 10000 2.1 40 17:56 05.10.2019
6534 Clouds 14 1023 76 10000 2.6 40 17:37 05.10.2019
6535 Haze 14 1023 76 10000 2.6 40 17:19 05.10.2019
6536 Haze 14 1022 67 10000 1 30 16:42 05.10.2019
6537 Haze 14 1023 81 10000 2.6 30 16:21 05.10.2019
6538 Haze 15 1023 81 10000 1.5 30 15:57 05.10.2019
6539 Haze 15 1021 72 10000 1 30 15:39 05.10.2019
6540 Haze 15 1023 76 10000 1.5 10 15:21 05.10.2019
6541 Clear 15 1022 76 10000 3.1 40 14:57 05.10.2019
6542 Clear 15 1021 67 10000 1 10 14:38 05.10.2019
6543 Clear 15 1022 76 10000 3.1 50 14:20 05.10.2019
6544 Clear 15 1022 76 10000 3.1 50 14:20 05.10.2019
6545 Haze 16 1020 67 10000 2.1 10 13:41 05.10.2019
6546 Haze 16 1021 76 10000 3.1 50 13:22 05.10.2019
6547 Haze 16 1019 63 10000 1.5 30 12:46 05.10.2019
6548 Haze 17 1020 72 10000 3.1 50 12:21 05.10.2019
6549 Haze 17 1020 72 10000 2.1 30 11:58 05.10.2019
6550 Clouds 17 1018 67 10000 1.5 30 11:37 05.10.2019
6551 Clouds 17 1020 67 10000 3.1 50 11:18 05.10.2019
6552 Clouds 18 1017 63 10000 1.5 10 10:44 05.10.2019
6553 Clouds 18 1019 63 10000 4.1 40 10:25 05.10.2019
6554 Clouds 18 1018 67 10000 3.6 30 09:58 05.10.2019
6555 Clouds 18 1016 68 10000 2.1 20 09:38 05.10.2019
6556 Clouds 19 1018 67 10000 3.6 30 09:20 05.10.2019
6557 Clouds 19 1016 68 10000 3.1 10 08:39 05.10.2019
6558 Clouds 19 1017 68 10000 3.1 20 08:19 05.10.2019
6559 Clouds 19 1017 68 10000 4.6 20 07:57 05.10.2019
6560 Mist 20 1017 64 10000 4.6 20 07:34 05.10.2019
6561 Mist 20 1017 72 10000 2.6 10 06:58 05.10.2019
6562 Mist 19 1017 77 10000 3.6 20 06:27 05.10.2019
6563 Mist 20 1015 83 6000 2.1 250 05:40 05.10.2019
6564 Mist 20 1017 77 10000 1 340 03:57 05.10.2019
6565 Mist 19 1017 82 10000 1.5 300 03:28 05.10.2019
6566 Mist 19 1015 88 4800 0.5 170 01:41 05.10.2019
6567 Mist 19 1016 93 8000 2.1 10 01:18 05.10.2019
6568 Mist 19 1014 93 4800 1.5 160 00:41 05.10.2019
6569 Mist 19 1014 93 6000 4.6 340 00:23 05.10.2019
6570 Mist 19 1013 93 4000 1.5 180 23:44 04.10.2019
6571 Mist 19 1013 93 6000 2.1 190 23:25 04.10.2019
6572 Mist 19 1013 93 6000 2.1 190 23:25 04.10.2019
6573 Mist 19 1015 93 4800 2.6 20 22:59 04.10.2019
6574 Mist 19 1014 94 3200 1 160 22:39 04.10.2019
6575 Mist 19 1015 93 3200 2.1 40 22:19 04.10.2019
6576 Mist 19 1014 100 2000 3.1 60 21:55 04.10.2019
6577 Mist 20 1013 94 4000 1 160 21:36 04.10.2019
6578 Mist 20 1015 100 1600 1 20 21:18 04.10.2019
6579 Mist 20 1013 100 4000 0.5 150 20:42 04.10.2019
6580 Mist 20 1014 100 2000 0.5 120 20:23 04.10.2019
6581 Mist 20 1015 100 1600 1.5 190 19:58 04.10.2019
6582 Mist 20 1014 100 3200 0.5 170 19:39 04.10.2019
6583 Mist 20 1015 94 2400 1 350 19:21 04.10.2019
6584 Mist 20 1015 94 4000 2.1 240 18:56 04.10.2019
6585 Mist 20 1015 94 3200 1.5 200 18:37 04.10.2019
6586 Mist 20 1015 94 3200 1.5 200 18:18 04.10.2019
6587 Mist 20 1013 106 6000 0.5 180 17:41 04.10.2019
6588 Mist 20 1014 94 2400 1 200 17:22 04.10.2019
6589 Mist 20 1015 94 2400 0.5 190 16:58 04.10.2019
6590 Mist 20 1013 106 8000 1 160 16:40 04.10.2019
6591 Mist 20 1015 94 2400 0.5 280 16:19 04.10.2019
6592 Mist 20 1014 100 1600 1 170 15:56 04.10.2019
6593 Mist 21 1013 106 9000 0.5 150 15:38 04.10.2019
6594 Mist 21 1013 106 9000 0.5 150 15:38 04.10.2019
6595 Mist 20 1015 100 2000 0.5 200 15:19 04.10.2019
6596 Mist 21 1015 100 2000 1 230 14:55 04.10.2019
6597 Mist 21 1015 100 2000 1.5 250 14:37 04.10.2019
6598 Mist 21 1015 100 2000 1.5 250 14:19 04.10.2019
6599 Mist 21 1013 106 10000 0.5 150 13:44 04.10.2019
6600 Mist 21 1015 94 2800 1.5 220 13:21 04.10.2019
6601 Mist 22 1014 94 6000 0.5 130 12:47 04.10.2019
6602 Mist 22 1014 83 6000 1 220 12:29 04.10.2019
6603 Haze 23 1014 83 9000 2.1 230 11:59 04.10.2019
6604 Haze 23 1014 83 9000 2.1 230 11:59 04.10.2019
6605 Haze 23 1012 94 10000 1 180 11:41 04.10.2019
6606 Haze 23 1013 78 10000 2.1 230 11:20 04.10.2019
6607 Haze 23 1013 78 10000 2.1 230 11:20 04.10.2019
6608 Haze 25 1012 78 10000 0.5 170 10:41 04.10.2019
6609 Haze 26 1013 69 10000 2.6 210 10:21 04.10.2019
6610 Haze 26 1013 65 10000 2.6 200 09:48 04.10.2019
6611 Haze 27 1013 65 10000 1.5 220 09:30 04.10.2019
6612 Haze 27 1013 65 10000 2.6 230 08:57 04.10.2019
6613 Haze 27 1012 65 10000 1.5 210 08:38 04.10.2019
6614 Haze 27 1013 65 10000 3.1 250 08:19 04.10.2019
6615 Haze 26 1012 61 10000 1.5 200 07:44 04.10.2019
6616 Haze 26 1013 65 8000 1.5 180 07:22 04.10.2019
6617 Haze 26 1012 61 10000 1.5 210 06:44 04.10.2019
6618 Haze 26 1012 61 10000 1.5 210 06:44 04.10.2019
6619 Haze 25 1014 69 6000 2.6 250 06:25 04.10.2019
6620 Haze 25 1013 65 10000 1.5 190 05:38 04.10.2019
6621 Haze 24 1014 73 9000 3.1 220 05:18 04.10.2019
6622 Mist 23 1015 64 10000 1 220 03:47 04.10.2019
6623 Mist 23 1015 64 10000 1 220 03:47 04.10.2019
6624 Mist 20 1015 77 10000 0.5 130 02:53 04.10.2019
6625 Mist 20 1015 77 10000 0.5 130 02:53 04.10.2019
6626 Mist 18 1014 93 9000 1 30 01:55 04.10.2019
6627 Mist 18 1014 93 6000 0.5 60 01:29 04.10.2019
6628 Mist 17 1014 100 6000 0.5 50 00:56 04.10.2019
6629 Mist 16 1013 100 3200 4.9 157.571 23:55 03.10.2019
6630 Mist 16 1013 106 10000 0.5 190 23:36 03.10.2019
6631 Mist 17 1013 100 3200 0.5 360 23:18 03.10.2019
6632 Mist 17 1011 100 10000 1 200 23:18 03.10.2019
6633 Mist 17 1013 100 2800 1 20 22:55 03.10.2019
6634 Mist 17 1013 100 3200 0.5 40 22:36 03.10.2019
6635 Mist 17 1013 100 3200 0.5 40 22:18 03.10.2019
6636 Mist 17 1012 106 10000 1 20 21:54 03.10.2019
6637 Mist 18 1013 100 2400 0.5 50 21:36 03.10.2019
6638 Mist 17 1013 100 2400 0.5 50 21:18 03.10.2019
6639 Mist 18 1012 106 10000 1 30 20:41 03.10.2019
6640 Mist 18 1013 100 3200 1 50 20:23 03.10.2019
6641 Mist 18 1013 100 4000 0.5 300 19:59 03.10.2019
6642 Mist 18 1012 113 9000 1 20 19:41 03.10.2019
6643 Mist 18 1013 100 4800 0.5 60 19:22 03.10.2019
6644 Clear 18 1013 100 4800 5.93 165.354 18:58 03.10.2019
6645 Clear 18 1013 100 4800 0.5 60 18:38 03.10.2019
6646 Clouds 19 1011 93 10000 2.6 160 18:19 03.10.2019
6647 Clear 18 1013 100 4800 0.5 60 18:19 03.10.2019
6648 Clouds 18 1011 88 10000 1 140 17:43 03.10.2019
6649 Clouds 19 1011 88 10000 1 140 17:23 03.10.2019
6650 Clouds 19 1011 88 10000 1 140 17:23 03.10.2019
6651 Clouds 19 1011 106 10000 0.5 10 16:59 03.10.2019
6652 Clouds 19 1011 106 10000 0.5 10 16:40 03.10.2019
6653 Clear 19 1012 100 10000 2.69 164.807 16:22 03.10.2019
6654 Clear 19 1012 100 10000 1 50 15:55 03.10.2019
6655 Clouds 20 1011 106 10000 0.5 20 15:37 03.10.2019
6656 Clouds 20 1012 100 10000 0.5 160 15:18 03.10.2019
6657 Clear 20 1011 106 10000 0.5 30 14:39 03.10.2019
6658 Clear 20 1011 93 10000 1 50 14:20 03.10.2019
6659 Clear 21 1011 82 10000 0.5 140 13:55 03.10.2019
6660 Clear 21 1011 88 10000 1 180 13:36 03.10.2019
6661 Clear 21 1011 88 10000 1 180 13:18 03.10.2019
6662 Clear 22 1009 88 10000 4.17 253.741 12:40 03.10.2019
6663 Clear 22 1010 77 10000 1 120 12:20 03.10.2019
6664 Clear 23 1009 73 10000 1 100 11:59 03.10.2019
6665 Clear 23 1009 73 10000 1 100 11:59 03.10.2019
6666 Clear 24 1008 73 10000 1 40 11:40 03.10.2019
6667 Clear 25 1009 64 10000 1 90 11:21 03.10.2019
6668 Clear 26 1009 61 10000 1.5 70 10:58 03.10.2019
6669 Clear 26 1007 65 10000 1.5 290 10:39 03.10.2019
6670 Clear 26 1009 57 10000 2.1 80 10:18 03.10.2019
6671 Clear 26 1009 57 10000 2.1 80 10:18 03.10.2019
6672 Clear 26 1008 57 10000 1.5 70 09:56 03.10.2019
6673 Clear 26 1008 57 10000 1.5 70 09:56 03.10.2019
6674 Clouds 26 1007 57 10000 2.6 340 09:38 03.10.2019
6675 Clear 26 1008 57 10000 2.1 20 09:19 03.10.2019
6676 Clouds 27 1006 54 10000 2.6 360 08:43 03.10.2019
6677 Clouds 27 1006 54 10000 2.6 360 08:43 03.10.2019
6678 Clouds 27 1008 54 10000 2.6 50 08:25 03.10.2019
6679 Clouds 27 1007 61 10000 3.1 280 07:45 03.10.2019
6680 Clouds 27 1007 54 10000 3.1 10 07:20 03.10.2019
6681 Clouds 27 1007 57 10000 2.1 30 06:56 03.10.2019
6682 Clouds 27 1007 54 10000 3.1 10 06:27 03.10.2019
6683 Mist 26 1007 57 10000 3.6 360 05:49 03.10.2019
6684 Mist 25 1007 65 10000 2.1 10 05:29 03.10.2019
6685 Mist 25 1005 69 10000 1.5 350 04:45 03.10.2019
6686 Mist 24 1007 69 10000 2.1 10 03:55 03.10.2019
6687 Mist 23 1007 73 10000 1.5 350 03:19 03.10.2019
6688 Rain 21 1006 78 10000 1.5 320 02:27 03.10.2019
6689 Rain 21 1003 106 10000 0.5 150 01:40 03.10.2019
6690 Rain 20 1005 88 10000 0.5 180 00:53 03.10.2019
6691 Rain 21 1005 73 10000 1 350 00:32 03.10.2019
6692 Rain 21 1005 73 10000 1 350 00:32 03.10.2019
6693 Rain 20 1003 100 10000 2.6 270 23:57 02.10.2019
6694 Rain 21 1002 100 10000 1 40 23:37 02.10.2019
6695 Rain 21 1005 78 10000 1 350 23:18 02.10.2019
6696 Rain 20 1003 68 10000 6.2 350 22:42 02.10.2019
6697 Rain 21 1004 78 10000 3.1 10 22:20 02.10.2019
6698 Rain 21 1001 106 10000 1.5 20 21:55 02.10.2019
6699 Rain 20 1001 106 10000 1.5 20 21:37 02.10.2019
6700 Rain 20 1002 94 10000 4.1 340 21:18 02.10.2019
6701 Rain 20 1002 77 10000 5.7 10 20:55 02.10.2019
6702 Rain 20 1002 77 10000 5.7 10 20:55 02.10.2019
6703 -273 0 0 0 0 0 20:55 02.10.2019
6704 Rain 21 1002 94 10000 5.7 350 20:37 02.10.2019
6705 Rain 21 1002 94 10000 5.7 350 20:19 02.10.2019
6706 Rain 21 1003 77 10000 5.7 10 19:44 02.10.2019
6707 Rain 21 1003 100 10000 4.1 360 19:23 02.10.2019
6708 Rain 20 1003 82 10000 6.7 20 18:58 02.10.2019
6709 Rain 20 1003 82 10000 6.7 20 18:58 02.10.2019
6710 Rain 20 1003 82 10000 6.7 20 18:39 02.10.2019
6711 Rain 20 1003 100 10000 3.1 10 18:21 02.10.2019
6712 Rain 20 1003 82 6000 7.2 40 17:57 02.10.2019
6713 Rain 20 1003 82 6000 7.2 40 17:57 02.10.2019
6714 Rain 20 1003 82 6000 7.2 40 17:57 02.10.2019
6715 Rain 20 1003 82 6000 7.2 40 17:38 02.10.2019
6716 Rain 21 1004 88 10000 4.6 20 17:38 02.10.2019
6717 Rain 21 1004 88 10000 4.6 20 17:20 02.10.2019
6718 Rain 21 1005 106 10000 1.5 20 16:56 02.10.2019
6719 Rain 20 1005 106 10000 1.5 20 16:36 02.10.2019
6720 Rain 20 1008 100 6000 2.6 40 16:18 02.10.2019
6721 Rain 21 1008 100 4800 2.6 30 15:41 02.10.2019
6722 Rain 21 1008 100 4800 2.6 30 15:23 02.10.2019
6723 Rain 21 1007 113 10000 0.5 290 14:58 02.10.2019
6724 Rain 21 1008 113 4800 1.5 10 14:40 02.10.2019
6725 Rain 21 1008 113 4800 1.5 10 14:21 02.10.2019
6726 Rain 21 1008 106 4000 2.1 340 13:45 02.10.2019
6727 Rain 21 1010 100 8000 0.5 10 13:26 02.10.2019
6728 Rain 21 1010 94 10000 2.6 50 12:59 02.10.2019
6729 Rain